<?xml version="1.0" encoding="UTF-8" standalone="no" ?>
<gpx xmlns="http://www.topografix.com/GPX/1/1" xmlns:xsi="http://www.w3.org/2001/XMLSchema-instance" xsi:schemaLocation="http://www.topografix.com/GPX/1/1 http://www.topografix.com/GPX/1/1/gpx.xsd" version="1.1" creator="VisuGPX - https://www.visugpx.com">
  <metadata>
    <name>Rando VTT Smarves Pictave 2023</name>
    <desc><![CDATA[Belle rando!]]></desc>
  </metadata>
  <trk>
    <name><![CDATA[Rando VTT Smarves Pictave 2023_1]]></name>
    <trkseg>
      <trkpt lat="46.50646" lon="0.36767">
        <ele>129.2</ele>
        <time>2023-09-10T06:08:16Z</time>
      </trkpt>
      <trkpt lat="46.50658" lon="0.36758">
        <ele>129.2</ele>
        <time>2023-09-10T06:08:35Z</time>
      </trkpt>
      <trkpt lat="46.50662" lon="0.36756">
        <ele>129.2</ele>
        <time>2023-09-10T06:08:43Z</time>
      </trkpt>
      <trkpt lat="46.50673" lon="0.36752">
        <ele>129</ele>
        <time>2023-09-10T06:08:51Z</time>
      </trkpt>
      <trkpt lat="46.50689" lon="0.36756">
        <ele>128.6</ele>
        <time>2023-09-10T06:09:00Z</time>
      </trkpt>
      <trkpt lat="46.50701" lon="0.36763">
        <ele>129</ele>
        <time>2023-09-10T06:09:06Z</time>
      </trkpt>
      <trkpt lat="46.50721" lon="0.3677">
        <ele>129.4</ele>
        <time>2023-09-10T06:09:14Z</time>
      </trkpt>
      <trkpt lat="46.50744" lon="0.36772">
        <ele>129.6</ele>
        <time>2023-09-10T06:09:21Z</time>
      </trkpt>
      <trkpt lat="46.50762" lon="0.36771">
        <ele>129.6</ele>
        <time>2023-09-10T06:09:27Z</time>
      </trkpt>
      <trkpt lat="46.5078" lon="0.36771">
        <ele>129</ele>
        <time>2023-09-10T06:09:34Z</time>
      </trkpt>
      <trkpt lat="46.50787" lon="0.3677">
        <ele>128.8</ele>
        <time>2023-09-10T06:09:36Z</time>
      </trkpt>
      <trkpt lat="46.50795" lon="0.36771">
        <ele>128.8</ele>
        <time>2023-09-10T06:09:38Z</time>
      </trkpt>
      <trkpt lat="46.50798" lon="0.36773">
        <ele>128.8</ele>
        <time>2023-09-10T06:09:39Z</time>
      </trkpt>
      <trkpt lat="46.50822" lon="0.36786">
        <ele>129</ele>
        <time>2023-09-10T06:09:45Z</time>
      </trkpt>
      <trkpt lat="46.5084" lon="0.36801">
        <ele>129.8</ele>
        <time>2023-09-10T06:09:51Z</time>
      </trkpt>
      <trkpt lat="46.50856" lon="0.36806">
        <ele>130</ele>
        <time>2023-09-10T06:09:57Z</time>
      </trkpt>
      <trkpt lat="46.50859" lon="0.36807">
        <ele>130</ele>
        <time>2023-09-10T06:09:58Z</time>
      </trkpt>
      <trkpt lat="46.50871" lon="0.36811">
        <ele>130</ele>
        <time>2023-09-10T06:10:01Z</time>
      </trkpt>
      <trkpt lat="46.50875" lon="0.36815">
        <ele>130.2</ele>
        <time>2023-09-10T06:10:02Z</time>
      </trkpt>
      <trkpt lat="46.50879" lon="0.36818">
        <ele>130</ele>
        <time>2023-09-10T06:10:03Z</time>
      </trkpt>
      <trkpt lat="46.50886" lon="0.36824">
        <ele>130.2</ele>
        <time>2023-09-10T06:10:05Z</time>
      </trkpt>
      <trkpt lat="46.5089" lon="0.36826">
        <ele>130.2</ele>
        <time>2023-09-10T06:10:06Z</time>
      </trkpt>
      <trkpt lat="46.50897" lon="0.36832">
        <ele>130.2</ele>
        <time>2023-09-10T06:10:08Z</time>
      </trkpt>
      <trkpt lat="46.50903" lon="0.36839">
        <ele>130.4</ele>
        <time>2023-09-10T06:10:10Z</time>
      </trkpt>
      <trkpt lat="46.50913" lon="0.36854">
        <ele>130.8</ele>
        <time>2023-09-10T06:10:13Z</time>
      </trkpt>
      <trkpt lat="46.50927" lon="0.36878">
        <ele>131</ele>
        <time>2023-09-10T06:10:18Z</time>
      </trkpt>
      <trkpt lat="46.50932" lon="0.36886">
        <ele>131.2</ele>
        <time>2023-09-10T06:10:20Z</time>
      </trkpt>
      <trkpt lat="46.50937" lon="0.36894">
        <ele>131.2</ele>
        <time>2023-09-10T06:10:22Z</time>
      </trkpt>
      <trkpt lat="46.50938" lon="0.36897">
        <ele>131.4</ele>
        <time>2023-09-10T06:10:23Z</time>
      </trkpt>
      <trkpt lat="46.50943" lon="0.36907">
        <ele>131.4</ele>
        <time>2023-09-10T06:10:25Z</time>
      </trkpt>
      <trkpt lat="46.50946" lon="0.36911">
        <ele>131.4</ele>
        <time>2023-09-10T06:10:26Z</time>
      </trkpt>
      <trkpt lat="46.50952" lon="0.36918">
        <ele>131.4</ele>
        <time>2023-09-10T06:10:28Z</time>
      </trkpt>
      <trkpt lat="46.50966" lon="0.36932">
        <ele>131.6</ele>
        <time>2023-09-10T06:10:32Z</time>
      </trkpt>
      <trkpt lat="46.50979" lon="0.36946">
        <ele>131.8</ele>
        <time>2023-09-10T06:10:36Z</time>
      </trkpt>
      <trkpt lat="46.50984" lon="0.36955">
        <ele>131.6</ele>
        <time>2023-09-10T06:10:38Z</time>
      </trkpt>
      <trkpt lat="46.51009" lon="0.36995">
        <ele>131.4</ele>
        <time>2023-09-10T06:10:45Z</time>
      </trkpt>
      <trkpt lat="46.51012" lon="0.37">
        <ele>131.6</ele>
        <time>2023-09-10T06:10:46Z</time>
      </trkpt>
      <trkpt lat="46.51016" lon="0.37006">
        <ele>131.6</ele>
        <time>2023-09-10T06:10:47Z</time>
      </trkpt>
      <trkpt lat="46.51024" lon="0.37019">
        <ele>131.6</ele>
        <time>2023-09-10T06:10:49Z</time>
      </trkpt>
      <trkpt lat="46.51031" lon="0.37027">
        <ele>131.6</ele>
        <time>2023-09-10T06:10:51Z</time>
      </trkpt>
      <trkpt lat="46.51054" lon="0.37038">
        <ele>131.4</ele>
        <time>2023-09-10T06:10:57Z</time>
      </trkpt>
      <trkpt lat="46.51061" lon="0.37041">
        <ele>131.4</ele>
        <time>2023-09-10T06:10:59Z</time>
      </trkpt>
      <trkpt lat="46.51066" lon="0.37041">
        <ele>131.4</ele>
        <time>2023-09-10T06:11:01Z</time>
      </trkpt>
      <trkpt lat="46.51069" lon="0.37042">
        <ele>131.2</ele>
        <time>2023-09-10T06:11:02Z</time>
      </trkpt>
      <trkpt lat="46.51075" lon="0.37043">
        <ele>131.2</ele>
        <time>2023-09-10T06:11:04Z</time>
      </trkpt>
      <trkpt lat="46.51079" lon="0.37044">
        <ele>131</ele>
        <time>2023-09-10T06:11:06Z</time>
      </trkpt>
      <trkpt lat="46.51083" lon="0.37045">
        <ele>131</ele>
        <time>2023-09-10T06:11:07Z</time>
      </trkpt>
      <trkpt lat="46.51093" lon="0.37048">
        <ele>130.4</ele>
        <time>2023-09-10T06:11:10Z</time>
      </trkpt>
      <trkpt lat="46.51095" lon="0.37047">
        <ele>130.2</ele>
        <time>2023-09-10T06:11:11Z</time>
      </trkpt>
      <trkpt lat="46.51104" lon="0.37034">
        <ele>129.6</ele>
        <time>2023-09-10T06:11:17Z</time>
      </trkpt>
      <trkpt lat="46.51105" lon="0.37031">
        <ele>129.6</ele>
        <time>2023-09-10T06:11:18Z</time>
      </trkpt>
      <trkpt lat="46.51109" lon="0.37026">
        <ele>129.6</ele>
        <time>2023-09-10T06:11:20Z</time>
      </trkpt>
      <trkpt lat="46.51111" lon="0.37026">
        <ele>129.4</ele>
        <time>2023-09-10T06:11:21Z</time>
      </trkpt>
      <trkpt lat="46.51113" lon="0.37026">
        <ele>129.4</ele>
        <time>2023-09-10T06:11:22Z</time>
      </trkpt>
      <trkpt lat="46.51127" lon="0.37028">
        <ele>129.4</ele>
        <time>2023-09-10T06:11:27Z</time>
      </trkpt>
      <trkpt lat="46.51133" lon="0.37028">
        <ele>129.2</ele>
        <time>2023-09-10T06:11:28Z</time>
      </trkpt>
      <trkpt lat="46.51137" lon="0.37027">
        <ele>129</ele>
        <time>2023-09-10T06:11:29Z</time>
      </trkpt>
      <trkpt lat="46.51146" lon="0.37024">
        <ele>128.6</ele>
        <time>2023-09-10T06:11:31Z</time>
      </trkpt>
      <trkpt lat="46.51149" lon="0.37021">
        <ele>128.4</ele>
        <time>2023-09-10T06:11:32Z</time>
      </trkpt>
      <trkpt lat="46.51151" lon="0.37017">
        <ele>128</ele>
        <time>2023-09-10T06:11:33Z</time>
      </trkpt>
      <trkpt lat="46.51157" lon="0.37009">
        <ele>127.4</ele>
        <time>2023-09-10T06:11:35Z</time>
      </trkpt>
      <trkpt lat="46.51162" lon="0.37006">
        <ele>127.2</ele>
        <time>2023-09-10T06:11:37Z</time>
      </trkpt>
      <trkpt lat="46.51164" lon="0.37005">
        <ele>127</ele>
        <time>2023-09-10T06:11:38Z</time>
      </trkpt>
      <trkpt lat="46.51166" lon="0.37004">
        <ele>127</ele>
        <time>2023-09-10T06:11:39Z</time>
      </trkpt>
      <trkpt lat="46.51175" lon="0.37001">
        <ele>126.6</ele>
        <time>2023-09-10T06:11:41Z</time>
      </trkpt>
      <trkpt lat="46.51184" lon="0.36997">
        <ele>126.4</ele>
        <time>2023-09-10T06:11:43Z</time>
      </trkpt>
      <trkpt lat="46.51192" lon="0.36991">
        <ele>126</ele>
        <time>2023-09-10T06:11:45Z</time>
      </trkpt>
      <trkpt lat="46.51197" lon="0.36985">
        <ele>125.6</ele>
        <time>2023-09-10T06:11:47Z</time>
      </trkpt>
      <trkpt lat="46.512" lon="0.36981">
        <ele>125.6</ele>
        <time>2023-09-10T06:11:48Z</time>
      </trkpt>
      <trkpt lat="46.51204" lon="0.36978">
        <ele>125.6</ele>
        <time>2023-09-10T06:11:49Z</time>
      </trkpt>
      <trkpt lat="46.51212" lon="0.36976">
        <ele>125.6</ele>
        <time>2023-09-10T06:11:51Z</time>
      </trkpt>
      <trkpt lat="46.51216" lon="0.36975">
        <ele>125.6</ele>
        <time>2023-09-10T06:11:52Z</time>
      </trkpt>
      <trkpt lat="46.5122" lon="0.36974">
        <ele>125.6</ele>
        <time>2023-09-10T06:11:53Z</time>
      </trkpt>
      <trkpt lat="46.51231" lon="0.36971">
        <ele>125.6</ele>
        <time>2023-09-10T06:11:55Z</time>
      </trkpt>
      <trkpt lat="46.51238" lon="0.36968">
        <ele>125.4</ele>
        <time>2023-09-10T06:11:57Z</time>
      </trkpt>
      <trkpt lat="46.51244" lon="0.36968">
        <ele>125.2</ele>
        <time>2023-09-10T06:11:58Z</time>
      </trkpt>
      <trkpt lat="46.51251" lon="0.36967">
        <ele>124.8</ele>
        <time>2023-09-10T06:11:59Z</time>
      </trkpt>
      <trkpt lat="46.51264" lon="0.36972">
        <ele>124.2</ele>
        <time>2023-09-10T06:12:01Z</time>
      </trkpt>
      <trkpt lat="46.51272" lon="0.36976">
        <ele>123.6</ele>
        <time>2023-09-10T06:12:03Z</time>
      </trkpt>
      <trkpt lat="46.51281" lon="0.36978">
        <ele>123</ele>
        <time>2023-09-10T06:12:05Z</time>
      </trkpt>
      <trkpt lat="46.51286" lon="0.36979">
        <ele>122.8</ele>
        <time>2023-09-10T06:12:06Z</time>
      </trkpt>
      <trkpt lat="46.51291" lon="0.3698">
        <ele>122.2</ele>
        <time>2023-09-10T06:12:07Z</time>
      </trkpt>
      <trkpt lat="46.51304" lon="0.36982">
        <ele>121</ele>
        <time>2023-09-10T06:12:09Z</time>
      </trkpt>
      <trkpt lat="46.51308" lon="0.36984">
        <ele>120.8</ele>
        <time>2023-09-10T06:12:10Z</time>
      </trkpt>
      <trkpt lat="46.51322" lon="0.36987">
        <ele>119.6</ele>
        <time>2023-09-10T06:12:13Z</time>
      </trkpt>
      <trkpt lat="46.51326" lon="0.36989">
        <ele>118</ele>
        <time>2023-09-10T06:12:14Z</time>
      </trkpt>
      <trkpt lat="46.5133" lon="0.36991">
        <ele>116.8</ele>
        <time>2023-09-10T06:12:15Z</time>
      </trkpt>
      <trkpt lat="46.51334" lon="0.36992">
        <ele>116.2</ele>
        <time>2023-09-10T06:12:16Z</time>
      </trkpt>
      <trkpt lat="46.51338" lon="0.36993">
        <ele>115.6</ele>
        <time>2023-09-10T06:12:17Z</time>
      </trkpt>
      <trkpt lat="46.51348" lon="0.36999">
        <ele>114.2</ele>
        <time>2023-09-10T06:12:19Z</time>
      </trkpt>
      <trkpt lat="46.51358" lon="0.37006">
        <ele>113.4</ele>
        <time>2023-09-10T06:12:21Z</time>
      </trkpt>
      <trkpt lat="46.51363" lon="0.37009">
        <ele>113</ele>
        <time>2023-09-10T06:12:22Z</time>
      </trkpt>
      <trkpt lat="46.51375" lon="0.37016">
        <ele>111.2</ele>
        <time>2023-09-10T06:12:24Z</time>
      </trkpt>
      <trkpt lat="46.5138" lon="0.3702">
        <ele>110.2</ele>
        <time>2023-09-10T06:12:25Z</time>
      </trkpt>
      <trkpt lat="46.51385" lon="0.37023">
        <ele>109.6</ele>
        <time>2023-09-10T06:12:26Z</time>
      </trkpt>
      <trkpt lat="46.51389" lon="0.37024">
        <ele>108.2</ele>
        <time>2023-09-10T06:12:27Z</time>
      </trkpt>
      <trkpt lat="46.51393" lon="0.37023">
        <ele>107</ele>
        <time>2023-09-10T06:12:28Z</time>
      </trkpt>
      <trkpt lat="46.51396" lon="0.37021">
        <ele>106.2</ele>
        <time>2023-09-10T06:12:29Z</time>
      </trkpt>
      <trkpt lat="46.51399" lon="0.37019">
        <ele>105.6</ele>
        <time>2023-09-10T06:12:30Z</time>
      </trkpt>
      <trkpt lat="46.51403" lon="0.37015">
        <ele>105.2</ele>
        <time>2023-09-10T06:12:32Z</time>
      </trkpt>
      <trkpt lat="46.51405" lon="0.37009">
        <ele>105</ele>
        <time>2023-09-10T06:12:34Z</time>
      </trkpt>
      <trkpt lat="46.51415" lon="0.36996">
        <ele>104.6</ele>
        <time>2023-09-10T06:12:37Z</time>
      </trkpt>
      <trkpt lat="46.5142" lon="0.36989">
        <ele>103.8</ele>
        <time>2023-09-10T06:12:39Z</time>
      </trkpt>
      <trkpt lat="46.51422" lon="0.36986">
        <ele>103.4</ele>
        <time>2023-09-10T06:12:40Z</time>
      </trkpt>
      <trkpt lat="46.51426" lon="0.36986">
        <ele>102</ele>
        <time>2023-09-10T06:12:42Z</time>
      </trkpt>
      <trkpt lat="46.51427" lon="0.36985">
        <ele>101.6</ele>
        <time>2023-09-10T06:12:43Z</time>
      </trkpt>
      <trkpt lat="46.51428" lon="0.36982">
        <ele>101</ele>
        <time>2023-09-10T06:12:44Z</time>
      </trkpt>
      <trkpt lat="46.51434" lon="0.36975">
        <ele>100</ele>
        <time>2023-09-10T06:12:46Z</time>
      </trkpt>
      <trkpt lat="46.51441" lon="0.3697">
        <ele>99.2</ele>
        <time>2023-09-10T06:12:48Z</time>
      </trkpt>
      <trkpt lat="46.51446" lon="0.36969">
        <ele>98.8</ele>
        <time>2023-09-10T06:12:49Z</time>
      </trkpt>
      <trkpt lat="46.51457" lon="0.3697">
        <ele>98.2</ele>
        <time>2023-09-10T06:12:51Z</time>
      </trkpt>
      <trkpt lat="46.51461" lon="0.36971">
        <ele>97.4</ele>
        <time>2023-09-10T06:12:52Z</time>
      </trkpt>
      <trkpt lat="46.51468" lon="0.36977">
        <ele>96.6</ele>
        <time>2023-09-10T06:12:55Z</time>
      </trkpt>
      <trkpt lat="46.51469" lon="0.3698">
        <ele>96.4</ele>
        <time>2023-09-10T06:12:56Z</time>
      </trkpt>
      <trkpt lat="46.51472" lon="0.36996">
        <ele>96.4</ele>
        <time>2023-09-10T06:13:01Z</time>
      </trkpt>
      <trkpt lat="46.51474" lon="0.37006">
        <ele>96.8</ele>
        <time>2023-09-10T06:13:04Z</time>
      </trkpt>
      <trkpt lat="46.51478" lon="0.37014">
        <ele>97</ele>
        <time>2023-09-10T06:13:06Z</time>
      </trkpt>
      <trkpt lat="46.51482" lon="0.37022">
        <ele>97</ele>
        <time>2023-09-10T06:13:08Z</time>
      </trkpt>
      <trkpt lat="46.51484" lon="0.37029">
        <ele>96.8</ele>
        <time>2023-09-10T06:13:10Z</time>
      </trkpt>
      <trkpt lat="46.51488" lon="0.37037">
        <ele>96.8</ele>
        <time>2023-09-10T06:13:12Z</time>
      </trkpt>
      <trkpt lat="46.51492" lon="0.37051">
        <ele>97</ele>
        <time>2023-09-10T06:13:16Z</time>
      </trkpt>
      <trkpt lat="46.51492" lon="0.37054">
        <ele>97.2</ele>
        <time>2023-09-10T06:13:17Z</time>
      </trkpt>
      <trkpt lat="46.51492" lon="0.37059">
        <ele>97.6</ele>
        <time>2023-09-10T06:13:18Z</time>
      </trkpt>
      <trkpt lat="46.51491" lon="0.37068">
        <ele>98.4</ele>
        <time>2023-09-10T06:13:21Z</time>
      </trkpt>
      <trkpt lat="46.51488" lon="0.3707">
        <ele>98.8</ele>
        <time>2023-09-10T06:13:22Z</time>
      </trkpt>
      <trkpt lat="46.51481" lon="0.37075">
        <ele>100.2</ele>
        <time>2023-09-10T06:13:26Z</time>
      </trkpt>
      <trkpt lat="46.51477" lon="0.37077">
        <ele>101.6</ele>
        <time>2023-09-10T06:13:28Z</time>
      </trkpt>
      <trkpt lat="46.51475" lon="0.37078">
        <ele>102</ele>
        <time>2023-09-10T06:13:29Z</time>
      </trkpt>
      <trkpt lat="46.51473" lon="0.37079">
        <ele>102.8</ele>
        <time>2023-09-10T06:13:31Z</time>
      </trkpt>
      <trkpt lat="46.51471" lon="0.37083">
        <ele>104</ele>
        <time>2023-09-10T06:13:33Z</time>
      </trkpt>
      <trkpt lat="46.51469" lon="0.37089">
        <ele>104.8</ele>
        <time>2023-09-10T06:13:35Z</time>
      </trkpt>
      <trkpt lat="46.51468" lon="0.37091">
        <ele>105.2</ele>
        <time>2023-09-10T06:13:36Z</time>
      </trkpt>
      <trkpt lat="46.51462" lon="0.37099">
        <ele>106.6</ele>
        <time>2023-09-10T06:13:40Z</time>
      </trkpt>
      <trkpt lat="46.51461" lon="0.37101">
        <ele>107</ele>
        <time>2023-09-10T06:13:41Z</time>
      </trkpt>
      <trkpt lat="46.51457" lon="0.3711">
        <ele>108.2</ele>
        <time>2023-09-10T06:13:45Z</time>
      </trkpt>
      <trkpt lat="46.51454" lon="0.37116">
        <ele>109.6</ele>
        <time>2023-09-10T06:13:48Z</time>
      </trkpt>
      <trkpt lat="46.51452" lon="0.3712">
        <ele>110.2</ele>
        <time>2023-09-10T06:13:50Z</time>
      </trkpt>
      <trkpt lat="46.51452" lon="0.37125">
        <ele>110.8</ele>
        <time>2023-09-10T06:13:52Z</time>
      </trkpt>
      <trkpt lat="46.51448" lon="0.37139">
        <ele>112.2</ele>
        <time>2023-09-10T06:13:57Z</time>
      </trkpt>
      <trkpt lat="46.51443" lon="0.37149">
        <ele>113.2</ele>
        <time>2023-09-10T06:14:01Z</time>
      </trkpt>
      <trkpt lat="46.51442" lon="0.37155">
        <ele>113.6</ele>
        <time>2023-09-10T06:14:03Z</time>
      </trkpt>
      <trkpt lat="46.51439" lon="0.37163">
        <ele>114.4</ele>
        <time>2023-09-10T06:14:06Z</time>
      </trkpt>
      <trkpt lat="46.51436" lon="0.37172">
        <ele>115.8</ele>
        <time>2023-09-10T06:14:10Z</time>
      </trkpt>
      <trkpt lat="46.51433" lon="0.37177">
        <ele>116.4</ele>
        <time>2023-09-10T06:14:12Z</time>
      </trkpt>
      <trkpt lat="46.51431" lon="0.37183">
        <ele>116.8</ele>
        <time>2023-09-10T06:14:14Z</time>
      </trkpt>
      <trkpt lat="46.51423" lon="0.37202">
        <ele>118</ele>
        <time>2023-09-10T06:14:20Z</time>
      </trkpt>
      <trkpt lat="46.5142" lon="0.37219">
        <ele>119.2</ele>
        <time>2023-09-10T06:14:24Z</time>
      </trkpt>
      <trkpt lat="46.51417" lon="0.37232">
        <ele>120</ele>
        <time>2023-09-10T06:14:28Z</time>
      </trkpt>
      <trkpt lat="46.51415" lon="0.37242">
        <ele>120.4</ele>
        <time>2023-09-10T06:14:31Z</time>
      </trkpt>
      <trkpt lat="46.51412" lon="0.37254">
        <ele>120.8</ele>
        <time>2023-09-10T06:14:35Z</time>
      </trkpt>
      <trkpt lat="46.5141" lon="0.37265">
        <ele>121.4</ele>
        <time>2023-09-10T06:14:39Z</time>
      </trkpt>
      <trkpt lat="46.5141" lon="0.37268">
        <ele>121.6</ele>
        <time>2023-09-10T06:14:40Z</time>
      </trkpt>
      <trkpt lat="46.51409" lon="0.3729">
        <ele>122</ele>
        <time>2023-09-10T06:14:46Z</time>
      </trkpt>
      <trkpt lat="46.51404" lon="0.37316">
        <ele>122.6</ele>
        <time>2023-09-10T06:14:52Z</time>
      </trkpt>
      <trkpt lat="46.514" lon="0.37342">
        <ele>123.2</ele>
        <time>2023-09-10T06:14:58Z</time>
      </trkpt>
      <trkpt lat="46.514" lon="0.37371">
        <ele>123.4</ele>
        <time>2023-09-10T06:15:04Z</time>
      </trkpt>
      <trkpt lat="46.51402" lon="0.37396">
        <ele>123.6</ele>
        <time>2023-09-10T06:15:08Z</time>
      </trkpt>
      <trkpt lat="46.51402" lon="0.37401">
        <ele>123.4</ele>
        <time>2023-09-10T06:15:09Z</time>
      </trkpt>
      <trkpt lat="46.51404" lon="0.37436">
        <ele>123</ele>
        <time>2023-09-10T06:15:15Z</time>
      </trkpt>
      <trkpt lat="46.51403" lon="0.37446">
        <ele>122.8</ele>
        <time>2023-09-10T06:15:17Z</time>
      </trkpt>
      <trkpt lat="46.51408" lon="0.37465">
        <ele>122.6</ele>
        <time>2023-09-10T06:15:20Z</time>
      </trkpt>
      <trkpt lat="46.5141" lon="0.37467">
        <ele>122.6</ele>
        <time>2023-09-10T06:15:21Z</time>
      </trkpt>
      <trkpt lat="46.51413" lon="0.37464">
        <ele>122.2</ele>
        <time>2023-09-10T06:15:26Z</time>
      </trkpt>
      <trkpt lat="46.51413" lon="0.37461">
        <ele>122</ele>
        <time>2023-09-10T06:15:27Z</time>
      </trkpt>
      <trkpt lat="46.51413" lon="0.37452">
        <ele>121.8</ele>
        <time>2023-09-10T06:15:30Z</time>
      </trkpt>
      <trkpt lat="46.51414" lon="0.37448">
        <ele>121.6</ele>
        <time>2023-09-10T06:15:31Z</time>
      </trkpt>
      <trkpt lat="46.51415" lon="0.37445">
        <ele>121.6</ele>
        <time>2023-09-10T06:15:32Z</time>
      </trkpt>
      <trkpt lat="46.51417" lon="0.37442">
        <ele>121.4</ele>
        <time>2023-09-10T06:15:33Z</time>
      </trkpt>
      <trkpt lat="46.5142" lon="0.3744">
        <ele>121.2</ele>
        <time>2023-09-10T06:15:34Z</time>
      </trkpt>
      <trkpt lat="46.51422" lon="0.37439">
        <ele>120.6</ele>
        <time>2023-09-10T06:15:35Z</time>
      </trkpt>
      <trkpt lat="46.51425" lon="0.37438">
        <ele>120.2</ele>
        <time>2023-09-10T06:15:36Z</time>
      </trkpt>
      <trkpt lat="46.51432" lon="0.37437">
        <ele>119.6</ele>
        <time>2023-09-10T06:15:38Z</time>
      </trkpt>
      <trkpt lat="46.51438" lon="0.37436">
        <ele>119.2</ele>
        <time>2023-09-10T06:15:40Z</time>
      </trkpt>
      <trkpt lat="46.51443" lon="0.37432">
        <ele>119</ele>
        <time>2023-09-10T06:15:42Z</time>
      </trkpt>
      <trkpt lat="46.5145" lon="0.37431">
        <ele>118.4</ele>
        <time>2023-09-10T06:15:44Z</time>
      </trkpt>
      <trkpt lat="46.51453" lon="0.37433">
        <ele>117.6</ele>
        <time>2023-09-10T06:15:45Z</time>
      </trkpt>
      <trkpt lat="46.51464" lon="0.37437">
        <ele>116.6</ele>
        <time>2023-09-10T06:15:48Z</time>
      </trkpt>
      <trkpt lat="46.51467" lon="0.37439">
        <ele>116.4</ele>
        <time>2023-09-10T06:15:49Z</time>
      </trkpt>
      <trkpt lat="46.51468" lon="0.37441">
        <ele>116.4</ele>
        <time>2023-09-10T06:15:50Z</time>
      </trkpt>
      <trkpt lat="46.51475" lon="0.37445">
        <ele>116.6</ele>
        <time>2023-09-10T06:15:52Z</time>
      </trkpt>
      <trkpt lat="46.51478" lon="0.37446">
        <ele>116.8</ele>
        <time>2023-09-10T06:15:54Z</time>
      </trkpt>
      <trkpt lat="46.51481" lon="0.37447">
        <ele>116.6</ele>
        <time>2023-09-10T06:15:56Z</time>
      </trkpt>
      <trkpt lat="46.51483" lon="0.37451">
        <ele>116.8</ele>
        <time>2023-09-10T06:15:58Z</time>
      </trkpt>
      <trkpt lat="46.51487" lon="0.37462">
        <ele>117.4</ele>
        <time>2023-09-10T06:16:03Z</time>
      </trkpt>
      <trkpt lat="46.51491" lon="0.37467">
        <ele>117.6</ele>
        <time>2023-09-10T06:16:05Z</time>
      </trkpt>
      <trkpt lat="46.51493" lon="0.3747">
        <ele>118</ele>
        <time>2023-09-10T06:16:06Z</time>
      </trkpt>
      <trkpt lat="46.51498" lon="0.37477">
        <ele>118.4</ele>
        <time>2023-09-10T06:16:09Z</time>
      </trkpt>
      <trkpt lat="46.51503" lon="0.37475">
        <ele>118.2</ele>
        <time>2023-09-10T06:16:13Z</time>
      </trkpt>
      <trkpt lat="46.51503" lon="0.37473">
        <ele>118.2</ele>
        <time>2023-09-10T06:16:14Z</time>
      </trkpt>
      <trkpt lat="46.51504" lon="0.37471">
        <ele>118</ele>
        <time>2023-09-10T06:16:15Z</time>
      </trkpt>
      <trkpt lat="46.51507" lon="0.3747">
        <ele>117.8</ele>
        <time>2023-09-10T06:16:17Z</time>
      </trkpt>
      <trkpt lat="46.51509" lon="0.37468">
        <ele>117.8</ele>
        <time>2023-09-10T06:16:18Z</time>
      </trkpt>
      <trkpt lat="46.51512" lon="0.37461">
        <ele>117.2</ele>
        <time>2023-09-10T06:16:22Z</time>
      </trkpt>
      <trkpt lat="46.51514" lon="0.3746">
        <ele>117</ele>
        <time>2023-09-10T06:16:23Z</time>
      </trkpt>
      <trkpt lat="46.51519" lon="0.3746">
        <ele>116.6</ele>
        <time>2023-09-10T06:16:25Z</time>
      </trkpt>
      <trkpt lat="46.51524" lon="0.37465">
        <ele>116.4</ele>
        <time>2023-09-10T06:16:28Z</time>
      </trkpt>
      <trkpt lat="46.51529" lon="0.37457">
        <ele>116</ele>
        <time>2023-09-10T06:16:32Z</time>
      </trkpt>
      <trkpt lat="46.51529" lon="0.37455">
        <ele>115.8</ele>
        <time>2023-09-10T06:16:33Z</time>
      </trkpt>
      <trkpt lat="46.51527" lon="0.37448">
        <ele>115.8</ele>
        <time>2023-09-10T06:16:36Z</time>
      </trkpt>
      <trkpt lat="46.51526" lon="0.37443">
        <ele>115.4</ele>
        <time>2023-09-10T06:16:37Z</time>
      </trkpt>
      <trkpt lat="46.51526" lon="0.37434">
        <ele>115</ele>
        <time>2023-09-10T06:16:39Z</time>
      </trkpt>
      <trkpt lat="46.51525" lon="0.37431">
        <ele>113.8</ele>
        <time>2023-09-10T06:16:41Z</time>
      </trkpt>
      <trkpt lat="46.51524" lon="0.37428">
        <ele>113</ele>
        <time>2023-09-10T06:16:43Z</time>
      </trkpt>
      <trkpt lat="46.51522" lon="0.37426">
        <ele>112.8</ele>
        <time>2023-09-10T06:16:44Z</time>
      </trkpt>
      <trkpt lat="46.5152" lon="0.37421">
        <ele>112.6</ele>
        <time>2023-09-10T06:16:46Z</time>
      </trkpt>
      <trkpt lat="46.51519" lon="0.37413">
        <ele>112</ele>
        <time>2023-09-10T06:16:49Z</time>
      </trkpt>
      <trkpt lat="46.51518" lon="0.3741">
        <ele>111.4</ele>
        <time>2023-09-10T06:16:50Z</time>
      </trkpt>
      <trkpt lat="46.51517" lon="0.37405">
        <ele>110.8</ele>
        <time>2023-09-10T06:16:53Z</time>
      </trkpt>
      <trkpt lat="46.51515" lon="0.37403">
        <ele>110.8</ele>
        <time>2023-09-10T06:16:55Z</time>
      </trkpt>
      <trkpt lat="46.51513" lon="0.37401">
        <ele>111.2</ele>
        <time>2023-09-10T06:16:59Z</time>
      </trkpt>
      <trkpt lat="46.51508" lon="0.37389">
        <ele>111.4</ele>
        <time>2023-09-10T06:17:03Z</time>
      </trkpt>
      <trkpt lat="46.51507" lon="0.37385">
        <ele>111.4</ele>
        <time>2023-09-10T06:17:04Z</time>
      </trkpt>
      <trkpt lat="46.51503" lon="0.3738">
        <ele>110.4</ele>
        <time>2023-09-10T06:17:07Z</time>
      </trkpt>
      <trkpt lat="46.515" lon="0.3738">
        <ele>110.2</ele>
        <time>2023-09-10T06:17:09Z</time>
      </trkpt>
      <trkpt lat="46.51495" lon="0.37384">
        <ele>111.6</ele>
        <time>2023-09-10T06:17:14Z</time>
      </trkpt>
      <trkpt lat="46.51494" lon="0.3739">
        <ele>112.8</ele>
        <time>2023-09-10T06:17:17Z</time>
      </trkpt>
      <trkpt lat="46.51491" lon="0.37394">
        <ele>113.2</ele>
        <time>2023-09-10T06:17:20Z</time>
      </trkpt>
      <trkpt lat="46.5149" lon="0.37394">
        <ele>113.2</ele>
        <time>2023-09-10T06:17:21Z</time>
      </trkpt>
      <trkpt lat="46.51489" lon="0.37395">
        <ele>113.8</ele>
        <time>2023-09-10T06:17:22Z</time>
      </trkpt>
      <trkpt lat="46.51488" lon="0.37395">
        <ele>115</ele>
        <time>2023-09-10T06:17:23Z</time>
      </trkpt>
      <trkpt lat="46.51487" lon="0.37395">
        <ele>115</ele>
        <time>2023-09-10T06:17:24Z</time>
      </trkpt>
      <trkpt lat="46.51485" lon="0.37395">
        <ele>116.2</ele>
        <time>2023-09-10T06:17:26Z</time>
      </trkpt>
      <trkpt lat="46.51479" lon="0.37395">
        <ele>117.2</ele>
        <time>2023-09-10T06:17:30Z</time>
      </trkpt>
      <trkpt lat="46.51474" lon="0.37394">
        <ele>117.4</ele>
        <time>2023-09-10T06:17:33Z</time>
      </trkpt>
      <trkpt lat="46.51472" lon="0.37392">
        <ele>117.6</ele>
        <time>2023-09-10T06:17:34Z</time>
      </trkpt>
      <trkpt lat="46.51469" lon="0.37388">
        <ele>118</ele>
        <time>2023-09-10T06:17:36Z</time>
      </trkpt>
      <trkpt lat="46.51468" lon="0.37386">
        <ele>118</ele>
        <time>2023-09-10T06:17:37Z</time>
      </trkpt>
      <trkpt lat="46.51465" lon="0.37368">
        <ele>117.4</ele>
        <time>2023-09-10T06:17:42Z</time>
      </trkpt>
      <trkpt lat="46.51465" lon="0.37365">
        <ele>117.2</ele>
        <time>2023-09-10T06:17:43Z</time>
      </trkpt>
      <trkpt lat="46.51463" lon="0.37358">
        <ele>117</ele>
        <time>2023-09-10T06:17:45Z</time>
      </trkpt>
      <trkpt lat="46.5146" lon="0.37342">
        <ele>116.6</ele>
        <time>2023-09-10T06:17:49Z</time>
      </trkpt>
      <trkpt lat="46.51458" lon="0.3733">
        <ele>116.8</ele>
        <time>2023-09-10T06:17:52Z</time>
      </trkpt>
      <trkpt lat="46.5146" lon="0.3731">
        <ele>116.8</ele>
        <time>2023-09-10T06:17:56Z</time>
      </trkpt>
      <trkpt lat="46.51461" lon="0.37298">
        <ele>116.4</ele>
        <time>2023-09-10T06:17:58Z</time>
      </trkpt>
      <trkpt lat="46.51463" lon="0.37285">
        <ele>116.2</ele>
        <time>2023-09-10T06:18:00Z</time>
      </trkpt>
      <trkpt lat="46.51469" lon="0.37279">
        <ele>116</ele>
        <time>2023-09-10T06:18:01Z</time>
      </trkpt>
      <trkpt lat="46.51469" lon="0.37269">
        <ele>115.4</ele>
        <time>2023-09-10T06:18:03Z</time>
      </trkpt>
      <trkpt lat="46.5147" lon="0.37264">
        <ele>115</ele>
        <time>2023-09-10T06:18:04Z</time>
      </trkpt>
      <trkpt lat="46.51471" lon="0.37258">
        <ele>114.6</ele>
        <time>2023-09-10T06:18:05Z</time>
      </trkpt>
      <trkpt lat="46.51475" lon="0.37244">
        <ele>113</ele>
        <time>2023-09-10T06:18:08Z</time>
      </trkpt>
      <trkpt lat="46.51478" lon="0.37234">
        <ele>112</ele>
        <time>2023-09-10T06:18:10Z</time>
      </trkpt>
      <trkpt lat="46.51478" lon="0.37231">
        <ele>111</ele>
        <time>2023-09-10T06:18:11Z</time>
      </trkpt>
      <trkpt lat="46.51479" lon="0.37228">
        <ele>110</ele>
        <time>2023-09-10T06:18:12Z</time>
      </trkpt>
      <trkpt lat="46.5148" lon="0.37224">
        <ele>108.6</ele>
        <time>2023-09-10T06:18:14Z</time>
      </trkpt>
      <trkpt lat="46.51481" lon="0.37223">
        <ele>108.2</ele>
        <time>2023-09-10T06:18:15Z</time>
      </trkpt>
      <trkpt lat="46.51482" lon="0.37222">
        <ele>107.6</ele>
        <time>2023-09-10T06:18:16Z</time>
      </trkpt>
      <trkpt lat="46.51483" lon="0.37222">
        <ele>107.2</ele>
        <time>2023-09-10T06:18:17Z</time>
      </trkpt>
      <trkpt lat="46.51485" lon="0.37217">
        <ele>106.6</ele>
        <time>2023-09-10T06:18:25Z</time>
      </trkpt>
      <trkpt lat="46.51488" lon="0.37216">
        <ele>106.4</ele>
        <time>2023-09-10T06:18:41Z</time>
      </trkpt>
      <trkpt lat="46.51489" lon="0.37216">
        <ele>106</ele>
        <time>2023-09-10T06:18:42Z</time>
      </trkpt>
      <trkpt lat="46.51491" lon="0.37214">
        <ele>104.6</ele>
        <time>2023-09-10T06:18:44Z</time>
      </trkpt>
      <trkpt lat="46.51494" lon="0.37212">
        <ele>102.8</ele>
        <time>2023-09-10T06:18:46Z</time>
      </trkpt>
      <trkpt lat="46.51498" lon="0.3721">
        <ele>101.4</ele>
        <time>2023-09-10T06:18:48Z</time>
      </trkpt>
      <trkpt lat="46.51501" lon="0.37209">
        <ele>101.2</ele>
        <time>2023-09-10T06:18:49Z</time>
      </trkpt>
      <trkpt lat="46.51504" lon="0.37208">
        <ele>100.2</ele>
        <time>2023-09-10T06:18:50Z</time>
      </trkpt>
      <trkpt lat="46.51507" lon="0.37205">
        <ele>97.8</ele>
        <time>2023-09-10T06:18:51Z</time>
      </trkpt>
      <trkpt lat="46.5151" lon="0.37201">
        <ele>96</ele>
        <time>2023-09-10T06:18:52Z</time>
      </trkpt>
      <trkpt lat="46.51513" lon="0.37196">
        <ele>94.6</ele>
        <time>2023-09-10T06:18:53Z</time>
      </trkpt>
      <trkpt lat="46.51516" lon="0.37185">
        <ele>93</ele>
        <time>2023-09-10T06:18:55Z</time>
      </trkpt>
      <trkpt lat="46.51517" lon="0.37174">
        <ele>92.6</ele>
        <time>2023-09-10T06:18:57Z</time>
      </trkpt>
      <trkpt lat="46.51521" lon="0.37155">
        <ele>92.8</ele>
        <time>2023-09-10T06:19:01Z</time>
      </trkpt>
      <trkpt lat="46.51522" lon="0.37146">
        <ele>93.2</ele>
        <time>2023-09-10T06:19:04Z</time>
      </trkpt>
      <trkpt lat="46.51524" lon="0.37135">
        <ele>93.2</ele>
        <time>2023-09-10T06:19:07Z</time>
      </trkpt>
      <trkpt lat="46.51524" lon="0.37126">
        <ele>93.2</ele>
        <time>2023-09-10T06:19:09Z</time>
      </trkpt>
      <trkpt lat="46.51525" lon="0.37116">
        <ele>93.4</ele>
        <time>2023-09-10T06:19:11Z</time>
      </trkpt>
      <trkpt lat="46.51523" lon="0.37109">
        <ele>93.4</ele>
        <time>2023-09-10T06:19:13Z</time>
      </trkpt>
      <trkpt lat="46.51523" lon="0.37101">
        <ele>93.4</ele>
        <time>2023-09-10T06:19:15Z</time>
      </trkpt>
      <trkpt lat="46.5152" lon="0.37084">
        <ele>93.4</ele>
        <time>2023-09-10T06:19:18Z</time>
      </trkpt>
      <trkpt lat="46.51519" lon="0.37071">
        <ele>93.6</ele>
        <time>2023-09-10T06:19:20Z</time>
      </trkpt>
      <trkpt lat="46.51517" lon="0.37051">
        <ele>94.2</ele>
        <time>2023-09-10T06:19:24Z</time>
      </trkpt>
      <trkpt lat="46.51516" lon="0.37046">
        <ele>94.4</ele>
        <time>2023-09-10T06:19:25Z</time>
      </trkpt>
      <trkpt lat="46.5151" lon="0.3702">
        <ele>94.6</ele>
        <time>2023-09-10T06:19:29Z</time>
      </trkpt>
      <trkpt lat="46.51504" lon="0.37012">
        <ele>94.6</ele>
        <time>2023-09-10T06:19:30Z</time>
      </trkpt>
      <trkpt lat="46.51505" lon="0.37005">
        <ele>94.8</ele>
        <time>2023-09-10T06:19:31Z</time>
      </trkpt>
      <trkpt lat="46.51505" lon="0.36985">
        <ele>95.2</ele>
        <time>2023-09-10T06:19:34Z</time>
      </trkpt>
      <trkpt lat="46.51505" lon="0.36977">
        <ele>95.4</ele>
        <time>2023-09-10T06:19:35Z</time>
      </trkpt>
      <trkpt lat="46.51507" lon="0.3697">
        <ele>95.6</ele>
        <time>2023-09-10T06:19:36Z</time>
      </trkpt>
      <trkpt lat="46.51507" lon="0.36957">
        <ele>95.8</ele>
        <time>2023-09-10T06:19:38Z</time>
      </trkpt>
      <trkpt lat="46.51505" lon="0.36947">
        <ele>96</ele>
        <time>2023-09-10T06:19:40Z</time>
      </trkpt>
      <trkpt lat="46.515" lon="0.3692">
        <ele>96</ele>
        <time>2023-09-10T06:19:45Z</time>
      </trkpt>
      <trkpt lat="46.51498" lon="0.36904">
        <ele>96.8</ele>
        <time>2023-09-10T06:19:47Z</time>
      </trkpt>
      <trkpt lat="46.51499" lon="0.36889">
        <ele>97.2</ele>
        <time>2023-09-10T06:19:49Z</time>
      </trkpt>
      <trkpt lat="46.51495" lon="0.36874">
        <ele>97.4</ele>
        <time>2023-09-10T06:19:51Z</time>
      </trkpt>
      <trkpt lat="46.51486" lon="0.36844">
        <ele>98</ele>
        <time>2023-09-10T06:19:55Z</time>
      </trkpt>
      <trkpt lat="46.51484" lon="0.36837">
        <ele>98.2</ele>
        <time>2023-09-10T06:19:56Z</time>
      </trkpt>
      <trkpt lat="46.51483" lon="0.36831">
        <ele>98.4</ele>
        <time>2023-09-10T06:19:57Z</time>
      </trkpt>
      <trkpt lat="46.51479" lon="0.36811">
        <ele>98.6</ele>
        <time>2023-09-10T06:20:00Z</time>
      </trkpt>
      <trkpt lat="46.51478" lon="0.36804">
        <ele>98.8</ele>
        <time>2023-09-10T06:20:01Z</time>
      </trkpt>
      <trkpt lat="46.51475" lon="0.36794">
        <ele>99</ele>
        <time>2023-09-10T06:20:03Z</time>
      </trkpt>
      <trkpt lat="46.51472" lon="0.36784">
        <ele>99</ele>
        <time>2023-09-10T06:20:05Z</time>
      </trkpt>
      <trkpt lat="46.51471" lon="0.3678">
        <ele>99.2</ele>
        <time>2023-09-10T06:20:06Z</time>
      </trkpt>
      <trkpt lat="46.51468" lon="0.36771">
        <ele>99.6</ele>
        <time>2023-09-10T06:20:08Z</time>
      </trkpt>
      <trkpt lat="46.51464" lon="0.36755">
        <ele>100.2</ele>
        <time>2023-09-10T06:20:12Z</time>
      </trkpt>
      <trkpt lat="46.5146" lon="0.36746">
        <ele>100.6</ele>
        <time>2023-09-10T06:20:15Z</time>
      </trkpt>
      <trkpt lat="46.51455" lon="0.36733">
        <ele>101</ele>
        <time>2023-09-10T06:20:18Z</time>
      </trkpt>
      <trkpt lat="46.51448" lon="0.36722">
        <ele>101.2</ele>
        <time>2023-09-10T06:20:20Z</time>
      </trkpt>
      <trkpt lat="46.51436" lon="0.36711">
        <ele>101.2</ele>
        <time>2023-09-10T06:20:22Z</time>
      </trkpt>
      <trkpt lat="46.51424" lon="0.36696">
        <ele>101.4</ele>
        <time>2023-09-10T06:20:25Z</time>
      </trkpt>
      <trkpt lat="46.51414" lon="0.36682">
        <ele>101.8</ele>
        <time>2023-09-10T06:20:28Z</time>
      </trkpt>
      <trkpt lat="46.51404" lon="0.36662">
        <ele>102</ele>
        <time>2023-09-10T06:20:32Z</time>
      </trkpt>
      <trkpt lat="46.51402" lon="0.36657">
        <ele>102</ele>
        <time>2023-09-10T06:20:33Z</time>
      </trkpt>
      <trkpt lat="46.514" lon="0.36652">
        <ele>102.4</ele>
        <time>2023-09-10T06:20:34Z</time>
      </trkpt>
      <trkpt lat="46.51395" lon="0.36642">
        <ele>102.6</ele>
        <time>2023-09-10T06:20:36Z</time>
      </trkpt>
      <trkpt lat="46.51388" lon="0.36626">
        <ele>102.6</ele>
        <time>2023-09-10T06:20:39Z</time>
      </trkpt>
      <trkpt lat="46.51386" lon="0.36594">
        <ele>103.2</ele>
        <time>2023-09-10T06:20:46Z</time>
      </trkpt>
      <trkpt lat="46.51387" lon="0.3659">
        <ele>103.4</ele>
        <time>2023-09-10T06:20:47Z</time>
      </trkpt>
      <trkpt lat="46.514" lon="0.36564">
        <ele>104</ele>
        <time>2023-09-10T06:20:52Z</time>
      </trkpt>
      <trkpt lat="46.51411" lon="0.36541">
        <ele>104.4</ele>
        <time>2023-09-10T06:20:56Z</time>
      </trkpt>
      <trkpt lat="46.51412" lon="0.36536">
        <ele>104.6</ele>
        <time>2023-09-10T06:20:57Z</time>
      </trkpt>
      <trkpt lat="46.51416" lon="0.36516">
        <ele>105.8</ele>
        <time>2023-09-10T06:21:01Z</time>
      </trkpt>
      <trkpt lat="46.51418" lon="0.36506">
        <ele>106.2</ele>
        <time>2023-09-10T06:21:03Z</time>
      </trkpt>
      <trkpt lat="46.5142" lon="0.36491">
        <ele>107.2</ele>
        <time>2023-09-10T06:21:06Z</time>
      </trkpt>
      <trkpt lat="46.51422" lon="0.36467">
        <ele>107.8</ele>
        <time>2023-09-10T06:21:11Z</time>
      </trkpt>
      <trkpt lat="46.51422" lon="0.36462">
        <ele>108.2</ele>
        <time>2023-09-10T06:21:12Z</time>
      </trkpt>
      <trkpt lat="46.51427" lon="0.36443">
        <ele>109.4</ele>
        <time>2023-09-10T06:21:16Z</time>
      </trkpt>
      <trkpt lat="46.51428" lon="0.36437">
        <ele>109.6</ele>
        <time>2023-09-10T06:21:17Z</time>
      </trkpt>
      <trkpt lat="46.51434" lon="0.36421">
        <ele>110.4</ele>
        <time>2023-09-10T06:21:20Z</time>
      </trkpt>
      <trkpt lat="46.51437" lon="0.36411">
        <ele>111</ele>
        <time>2023-09-10T06:21:22Z</time>
      </trkpt>
      <trkpt lat="46.51441" lon="0.36397">
        <ele>111.8</ele>
        <time>2023-09-10T06:21:25Z</time>
      </trkpt>
      <trkpt lat="46.51439" lon="0.36382">
        <ele>112.6</ele>
        <time>2023-09-10T06:21:28Z</time>
      </trkpt>
      <trkpt lat="46.51437" lon="0.36371">
        <ele>113</ele>
        <time>2023-09-10T06:21:30Z</time>
      </trkpt>
      <trkpt lat="46.51436" lon="0.36343">
        <ele>114</ele>
        <time>2023-09-10T06:21:35Z</time>
      </trkpt>
      <trkpt lat="46.51436" lon="0.36338">
        <ele>114.2</ele>
        <time>2023-09-10T06:21:36Z</time>
      </trkpt>
      <trkpt lat="46.51433" lon="0.36314">
        <ele>115.2</ele>
        <time>2023-09-10T06:21:41Z</time>
      </trkpt>
      <trkpt lat="46.51426" lon="0.36282">
        <ele>116.2</ele>
        <time>2023-09-10T06:21:47Z</time>
      </trkpt>
      <trkpt lat="46.51426" lon="0.36277">
        <ele>116.4</ele>
        <time>2023-09-10T06:21:48Z</time>
      </trkpt>
      <trkpt lat="46.51421" lon="0.36258">
        <ele>117.4</ele>
        <time>2023-09-10T06:21:52Z</time>
      </trkpt>
      <trkpt lat="46.51419" lon="0.36252">
        <ele>117.8</ele>
        <time>2023-09-10T06:21:53Z</time>
      </trkpt>
      <trkpt lat="46.51415" lon="0.36236">
        <ele>118.6</ele>
        <time>2023-09-10T06:21:56Z</time>
      </trkpt>
      <trkpt lat="46.51411" lon="0.36216">
        <ele>119.6</ele>
        <time>2023-09-10T06:22:00Z</time>
      </trkpt>
      <trkpt lat="46.51411" lon="0.36211">
        <ele>119.8</ele>
        <time>2023-09-10T06:22:01Z</time>
      </trkpt>
      <trkpt lat="46.51413" lon="0.36183">
        <ele>120.4</ele>
        <time>2023-09-10T06:22:06Z</time>
      </trkpt>
      <trkpt lat="46.51412" lon="0.36171">
        <ele>120.6</ele>
        <time>2023-09-10T06:22:08Z</time>
      </trkpt>
      <trkpt lat="46.51411" lon="0.36159">
        <ele>120.8</ele>
        <time>2023-09-10T06:22:10Z</time>
      </trkpt>
      <trkpt lat="46.51408" lon="0.36133">
        <ele>121</ele>
        <time>2023-09-10T06:22:15Z</time>
      </trkpt>
      <trkpt lat="46.51402" lon="0.3611">
        <ele>122</ele>
        <time>2023-09-10T06:22:20Z</time>
      </trkpt>
      <trkpt lat="46.51399" lon="0.36095">
        <ele>122.8</ele>
        <time>2023-09-10T06:22:23Z</time>
      </trkpt>
      <trkpt lat="46.51398" lon="0.36089">
        <ele>123.2</ele>
        <time>2023-09-10T06:22:24Z</time>
      </trkpt>
      <trkpt lat="46.51393" lon="0.36065">
        <ele>124.6</ele>
        <time>2023-09-10T06:22:28Z</time>
      </trkpt>
      <trkpt lat="46.51392" lon="0.3606">
        <ele>124.8</ele>
        <time>2023-09-10T06:22:29Z</time>
      </trkpt>
      <trkpt lat="46.51388" lon="0.36037">
        <ele>125.8</ele>
        <time>2023-09-10T06:22:33Z</time>
      </trkpt>
      <trkpt lat="46.51384" lon="0.36014">
        <ele>126.6</ele>
        <time>2023-09-10T06:22:37Z</time>
      </trkpt>
      <trkpt lat="46.51384" lon="0.36008">
        <ele>126.8</ele>
        <time>2023-09-10T06:22:38Z</time>
      </trkpt>
      <trkpt lat="46.51379" lon="0.3598">
        <ele>127.8</ele>
        <time>2023-09-10T06:22:43Z</time>
      </trkpt>
      <trkpt lat="46.51373" lon="0.35938">
        <ele>128.6</ele>
        <time>2023-09-10T06:22:50Z</time>
      </trkpt>
      <trkpt lat="46.51371" lon="0.35927">
        <ele>128.8</ele>
        <time>2023-09-10T06:22:52Z</time>
      </trkpt>
      <trkpt lat="46.51365" lon="0.35893">
        <ele>129.4</ele>
        <time>2023-09-10T06:22:58Z</time>
      </trkpt>
      <trkpt lat="46.51361" lon="0.35858">
        <ele>129.6</ele>
        <time>2023-09-10T06:23:05Z</time>
      </trkpt>
      <trkpt lat="46.51361" lon="0.35852">
        <ele>130</ele>
        <time>2023-09-10T06:23:07Z</time>
      </trkpt>
      <trkpt lat="46.5136" lon="0.35839">
        <ele>130.4</ele>
        <time>2023-09-10T06:23:10Z</time>
      </trkpt>
      <trkpt lat="46.51357" lon="0.35817">
        <ele>131</ele>
        <time>2023-09-10T06:23:14Z</time>
      </trkpt>
      <trkpt lat="46.51357" lon="0.35804">
        <ele>131.2</ele>
        <time>2023-09-10T06:23:16Z</time>
      </trkpt>
      <trkpt lat="46.51361" lon="0.3577">
        <ele>131.4</ele>
        <time>2023-09-10T06:23:22Z</time>
      </trkpt>
      <trkpt lat="46.51362" lon="0.35752">
        <ele>131.8</ele>
        <time>2023-09-10T06:23:25Z</time>
      </trkpt>
      <trkpt lat="46.51362" lon="0.35739">
        <ele>132.2</ele>
        <time>2023-09-10T06:23:27Z</time>
      </trkpt>
      <trkpt lat="46.51362" lon="0.35733">
        <ele>132.2</ele>
        <time>2023-09-10T06:23:28Z</time>
      </trkpt>
      <trkpt lat="46.51358" lon="0.35685">
        <ele>132.6</ele>
        <time>2023-09-10T06:23:35Z</time>
      </trkpt>
      <trkpt lat="46.51352" lon="0.35639">
        <ele>132.4</ele>
        <time>2023-09-10T06:23:41Z</time>
      </trkpt>
      <trkpt lat="46.5134" lon="0.35564">
        <ele>131.4</ele>
        <time>2023-09-10T06:23:50Z</time>
      </trkpt>
      <trkpt lat="46.51336" lon="0.35548">
        <ele>131.2</ele>
        <time>2023-09-10T06:23:52Z</time>
      </trkpt>
      <trkpt lat="46.51328" lon="0.35515">
        <ele>130.8</ele>
        <time>2023-09-10T06:23:56Z</time>
      </trkpt>
      <trkpt lat="46.51319" lon="0.35482">
        <ele>130</ele>
        <time>2023-09-10T06:24:00Z</time>
      </trkpt>
      <trkpt lat="46.5131" lon="0.35441">
        <ele>129.2</ele>
        <time>2023-09-10T06:24:05Z</time>
      </trkpt>
      <trkpt lat="46.51305" lon="0.35424">
        <ele>128.8</ele>
        <time>2023-09-10T06:24:07Z</time>
      </trkpt>
      <trkpt lat="46.51297" lon="0.3539">
        <ele>128</ele>
        <time>2023-09-10T06:24:11Z</time>
      </trkpt>
      <trkpt lat="46.5129" lon="0.35356">
        <ele>127.6</ele>
        <time>2023-09-10T06:24:15Z</time>
      </trkpt>
      <trkpt lat="46.51288" lon="0.35339">
        <ele>127.4</ele>
        <time>2023-09-10T06:24:17Z</time>
      </trkpt>
      <trkpt lat="46.51283" lon="0.35313">
        <ele>126.6</ele>
        <time>2023-09-10T06:24:20Z</time>
      </trkpt>
      <trkpt lat="46.51278" lon="0.3528">
        <ele>126</ele>
        <time>2023-09-10T06:24:24Z</time>
      </trkpt>
      <trkpt lat="46.51281" lon="0.3527">
        <ele>125.8</ele>
        <time>2023-09-10T06:24:26Z</time>
      </trkpt>
      <trkpt lat="46.51284" lon="0.35266">
        <ele>125.6</ele>
        <time>2023-09-10T06:24:27Z</time>
      </trkpt>
      <trkpt lat="46.51288" lon="0.35263">
        <ele>125.6</ele>
        <time>2023-09-10T06:24:28Z</time>
      </trkpt>
      <trkpt lat="46.51298" lon="0.35258">
        <ele>125.4</ele>
        <time>2023-09-10T06:24:30Z</time>
      </trkpt>
      <trkpt lat="46.51302" lon="0.35257">
        <ele>125.4</ele>
        <time>2023-09-10T06:24:31Z</time>
      </trkpt>
      <trkpt lat="46.51328" lon="0.35252">
        <ele>126.2</ele>
        <time>2023-09-10T06:24:36Z</time>
      </trkpt>
      <trkpt lat="46.51337" lon="0.35252">
        <ele>126.8</ele>
        <time>2023-09-10T06:24:38Z</time>
      </trkpt>
      <trkpt lat="46.51345" lon="0.35252">
        <ele>127.2</ele>
        <time>2023-09-10T06:24:40Z</time>
      </trkpt>
      <trkpt lat="46.51348" lon="0.3525">
        <ele>127.2</ele>
        <time>2023-09-10T06:24:41Z</time>
      </trkpt>
      <trkpt lat="46.51349" lon="0.35247">
        <ele>127.4</ele>
        <time>2023-09-10T06:24:42Z</time>
      </trkpt>
      <trkpt lat="46.5135" lon="0.35238">
        <ele>127.2</ele>
        <time>2023-09-10T06:24:44Z</time>
      </trkpt>
      <trkpt lat="46.51351" lon="0.35221">
        <ele>127</ele>
        <time>2023-09-10T06:24:47Z</time>
      </trkpt>
      <trkpt lat="46.51353" lon="0.35207">
        <ele>126.8</ele>
        <time>2023-09-10T06:24:49Z</time>
      </trkpt>
      <trkpt lat="46.51353" lon="0.35191">
        <ele>126.4</ele>
        <time>2023-09-10T06:24:51Z</time>
      </trkpt>
      <trkpt lat="46.51352" lon="0.35165">
        <ele>126.2</ele>
        <time>2023-09-10T06:24:54Z</time>
      </trkpt>
      <trkpt lat="46.51349" lon="0.35146">
        <ele>125.2</ele>
        <time>2023-09-10T06:24:56Z</time>
      </trkpt>
      <trkpt lat="46.51346" lon="0.35126">
        <ele>124.8</ele>
        <time>2023-09-10T06:24:58Z</time>
      </trkpt>
      <trkpt lat="46.51344" lon="0.35116">
        <ele>124.6</ele>
        <time>2023-09-10T06:24:59Z</time>
      </trkpt>
      <trkpt lat="46.51339" lon="0.35097">
        <ele>124.2</ele>
        <time>2023-09-10T06:25:01Z</time>
      </trkpt>
      <trkpt lat="46.51329" lon="0.35069">
        <ele>123</ele>
        <time>2023-09-10T06:25:04Z</time>
      </trkpt>
      <trkpt lat="46.51325" lon="0.3506">
        <ele>122.8</ele>
        <time>2023-09-10T06:25:05Z</time>
      </trkpt>
      <trkpt lat="46.51318" lon="0.35044">
        <ele>121.8</ele>
        <time>2023-09-10T06:25:07Z</time>
      </trkpt>
      <trkpt lat="46.51312" lon="0.35037">
        <ele>121</ele>
        <time>2023-09-10T06:25:08Z</time>
      </trkpt>
      <trkpt lat="46.51306" lon="0.35033">
        <ele>120.8</ele>
        <time>2023-09-10T06:25:09Z</time>
      </trkpt>
      <trkpt lat="46.51299" lon="0.35031">
        <ele>120.4</ele>
        <time>2023-09-10T06:25:10Z</time>
      </trkpt>
      <trkpt lat="46.51283" lon="0.35027">
        <ele>119.6</ele>
        <time>2023-09-10T06:25:13Z</time>
      </trkpt>
      <trkpt lat="46.51277" lon="0.35026">
        <ele>119.4</ele>
        <time>2023-09-10T06:25:14Z</time>
      </trkpt>
      <trkpt lat="46.51266" lon="0.3502">
        <ele>118.2</ele>
        <time>2023-09-10T06:25:16Z</time>
      </trkpt>
      <trkpt lat="46.51259" lon="0.35009">
        <ele>117.2</ele>
        <time>2023-09-10T06:25:18Z</time>
      </trkpt>
      <trkpt lat="46.51258" lon="0.35003">
        <ele>116.6</ele>
        <time>2023-09-10T06:25:19Z</time>
      </trkpt>
      <trkpt lat="46.5126" lon="0.34997">
        <ele>116.2</ele>
        <time>2023-09-10T06:25:20Z</time>
      </trkpt>
      <trkpt lat="46.51265" lon="0.34992">
        <ele>115.8</ele>
        <time>2023-09-10T06:25:21Z</time>
      </trkpt>
      <trkpt lat="46.5127" lon="0.34988">
        <ele>115.2</ele>
        <time>2023-09-10T06:25:22Z</time>
      </trkpt>
      <trkpt lat="46.5129" lon="0.34977">
        <ele>114.4</ele>
        <time>2023-09-10T06:25:25Z</time>
      </trkpt>
      <trkpt lat="46.51298" lon="0.34972">
        <ele>114</ele>
        <time>2023-09-10T06:25:26Z</time>
      </trkpt>
      <trkpt lat="46.51319" lon="0.34958">
        <ele>113</ele>
        <time>2023-09-10T06:25:29Z</time>
      </trkpt>
      <trkpt lat="46.51332" lon="0.34948">
        <ele>112.2</ele>
        <time>2023-09-10T06:25:31Z</time>
      </trkpt>
      <trkpt lat="46.51338" lon="0.34941">
        <ele>112</ele>
        <time>2023-09-10T06:25:32Z</time>
      </trkpt>
      <trkpt lat="46.51354" lon="0.3492">
        <ele>110.6</ele>
        <time>2023-09-10T06:25:35Z</time>
      </trkpt>
      <trkpt lat="46.51358" lon="0.34902">
        <ele>110.2</ele>
        <time>2023-09-10T06:25:37Z</time>
      </trkpt>
      <trkpt lat="46.5136" lon="0.34894">
        <ele>110</ele>
        <time>2023-09-10T06:25:38Z</time>
      </trkpt>
      <trkpt lat="46.51361" lon="0.34888">
        <ele>109.6</ele>
        <time>2023-09-10T06:25:39Z</time>
      </trkpt>
      <trkpt lat="46.51364" lon="0.34883">
        <ele>109.2</ele>
        <time>2023-09-10T06:25:41Z</time>
      </trkpt>
      <trkpt lat="46.51365" lon="0.34882">
        <ele>109</ele>
        <time>2023-09-10T06:25:44Z</time>
      </trkpt>
      <trkpt lat="46.51366" lon="0.34882">
        <ele>109</ele>
        <time>2023-09-10T06:25:45Z</time>
      </trkpt>
      <trkpt lat="46.51364" lon="0.34886">
        <ele>109.2</ele>
        <time>2023-09-10T06:25:54Z</time>
      </trkpt>
      <trkpt lat="46.51363" lon="0.34887">
        <ele>109.2</ele>
        <time>2023-09-10T06:25:56Z</time>
      </trkpt>
      <trkpt lat="46.51362" lon="0.34889">
        <ele>109.2</ele>
        <time>2023-09-10T06:25:58Z</time>
      </trkpt>
      <trkpt lat="46.51358" lon="0.34891">
        <ele>108.8</ele>
        <time>2023-09-10T06:26:04Z</time>
      </trkpt>
      <trkpt lat="46.51356" lon="0.34891">
        <ele>108.8</ele>
        <time>2023-09-10T06:26:06Z</time>
      </trkpt>
      <trkpt lat="46.5135" lon="0.34891">
        <ele>109.6</ele>
        <time>2023-09-10T06:26:10Z</time>
      </trkpt>
      <trkpt lat="46.51345" lon="0.34892">
        <ele>110.8</ele>
        <time>2023-09-10T06:26:13Z</time>
      </trkpt>
      <trkpt lat="46.51343" lon="0.34893">
        <ele>111.2</ele>
        <time>2023-09-10T06:26:14Z</time>
      </trkpt>
      <trkpt lat="46.51338" lon="0.34895">
        <ele>112</ele>
        <time>2023-09-10T06:26:17Z</time>
      </trkpt>
      <trkpt lat="46.51332" lon="0.34896">
        <ele>112.8</ele>
        <time>2023-09-10T06:26:21Z</time>
      </trkpt>
      <trkpt lat="46.5133" lon="0.34895">
        <ele>113.4</ele>
        <time>2023-09-10T06:26:23Z</time>
      </trkpt>
      <trkpt lat="46.51329" lon="0.34895">
        <ele>113.8</ele>
        <time>2023-09-10T06:26:25Z</time>
      </trkpt>
      <trkpt lat="46.51326" lon="0.34893">
        <ele>114</ele>
        <time>2023-09-10T06:26:27Z</time>
      </trkpt>
      <trkpt lat="46.51325" lon="0.34892">
        <ele>114.2</ele>
        <time>2023-09-10T06:26:28Z</time>
      </trkpt>
      <trkpt lat="46.51323" lon="0.34891">
        <ele>114.4</ele>
        <time>2023-09-10T06:26:29Z</time>
      </trkpt>
      <trkpt lat="46.51318" lon="0.3489">
        <ele>115.2</ele>
        <time>2023-09-10T06:26:32Z</time>
      </trkpt>
      <trkpt lat="46.51316" lon="0.34891">
        <ele>115.6</ele>
        <time>2023-09-10T06:26:34Z</time>
      </trkpt>
      <trkpt lat="46.51314" lon="0.34891">
        <ele>115.8</ele>
        <time>2023-09-10T06:26:35Z</time>
      </trkpt>
      <trkpt lat="46.51311" lon="0.34891">
        <ele>115.8</ele>
        <time>2023-09-10T06:26:36Z</time>
      </trkpt>
      <trkpt lat="46.51308" lon="0.34889">
        <ele>116.2</ele>
        <time>2023-09-10T06:26:39Z</time>
      </trkpt>
      <trkpt lat="46.51308" lon="0.34887">
        <ele>116.4</ele>
        <time>2023-09-10T06:26:40Z</time>
      </trkpt>
      <trkpt lat="46.51307" lon="0.34885">
        <ele>116.8</ele>
        <time>2023-09-10T06:26:41Z</time>
      </trkpt>
      <trkpt lat="46.51305" lon="0.34876">
        <ele>117.8</ele>
        <time>2023-09-10T06:26:46Z</time>
      </trkpt>
      <trkpt lat="46.51304" lon="0.34874">
        <ele>118</ele>
        <time>2023-09-10T06:26:48Z</time>
      </trkpt>
      <trkpt lat="46.51304" lon="0.34872">
        <ele>118</ele>
        <time>2023-09-10T06:26:49Z</time>
      </trkpt>
      <trkpt lat="46.51302" lon="0.34866">
        <ele>118.8</ele>
        <time>2023-09-10T06:26:52Z</time>
      </trkpt>
      <trkpt lat="46.51301" lon="0.34863">
        <ele>119</ele>
        <time>2023-09-10T06:26:54Z</time>
      </trkpt>
      <trkpt lat="46.51301" lon="0.34857">
        <ele>119.2</ele>
        <time>2023-09-10T06:26:56Z</time>
      </trkpt>
      <trkpt lat="46.51301" lon="0.34852">
        <ele>119.8</ele>
        <time>2023-09-10T06:26:59Z</time>
      </trkpt>
      <trkpt lat="46.51301" lon="0.34848">
        <ele>120.2</ele>
        <time>2023-09-10T06:27:01Z</time>
      </trkpt>
      <trkpt lat="46.51297" lon="0.34836">
        <ele>120.8</ele>
        <time>2023-09-10T06:27:06Z</time>
      </trkpt>
      <trkpt lat="46.51297" lon="0.34831">
        <ele>121</ele>
        <time>2023-09-10T06:27:08Z</time>
      </trkpt>
      <trkpt lat="46.51297" lon="0.34822">
        <ele>120.8</ele>
        <time>2023-09-10T06:27:12Z</time>
      </trkpt>
      <trkpt lat="46.51299" lon="0.34819">
        <ele>120.8</ele>
        <time>2023-09-10T06:27:14Z</time>
      </trkpt>
      <trkpt lat="46.51305" lon="0.34819">
        <ele>120.8</ele>
        <time>2023-09-10T06:27:17Z</time>
      </trkpt>
      <trkpt lat="46.51308" lon="0.34824">
        <ele>120.6</ele>
        <time>2023-09-10T06:27:21Z</time>
      </trkpt>
      <trkpt lat="46.51309" lon="0.34825">
        <ele>120.4</ele>
        <time>2023-09-10T06:27:22Z</time>
      </trkpt>
      <trkpt lat="46.51312" lon="0.34825">
        <ele>120.2</ele>
        <time>2023-09-10T06:27:23Z</time>
      </trkpt>
      <trkpt lat="46.5132" lon="0.34825">
        <ele>119.6</ele>
        <time>2023-09-10T06:27:27Z</time>
      </trkpt>
      <trkpt lat="46.51326" lon="0.34822">
        <ele>119</ele>
        <time>2023-09-10T06:27:30Z</time>
      </trkpt>
      <trkpt lat="46.51334" lon="0.34819">
        <ele>119</ele>
        <time>2023-09-10T06:27:33Z</time>
      </trkpt>
      <trkpt lat="46.51338" lon="0.3482">
        <ele>119</ele>
        <time>2023-09-10T06:27:35Z</time>
      </trkpt>
      <trkpt lat="46.51347" lon="0.34824">
        <ele>118.6</ele>
        <time>2023-09-10T06:27:39Z</time>
      </trkpt>
      <trkpt lat="46.51359" lon="0.34828">
        <ele>117.6</ele>
        <time>2023-09-10T06:27:44Z</time>
      </trkpt>
      <trkpt lat="46.51362" lon="0.34828">
        <ele>116.2</ele>
        <time>2023-09-10T06:27:46Z</time>
      </trkpt>
      <trkpt lat="46.51363" lon="0.34829">
        <ele>116</ele>
        <time>2023-09-10T06:27:47Z</time>
      </trkpt>
      <trkpt lat="46.51363" lon="0.34829">
        <ele>115.8</ele>
        <time>2023-09-10T06:27:49Z</time>
      </trkpt>
      <trkpt lat="46.51373" lon="0.34838">
        <ele>115.4</ele>
        <time>2023-09-10T06:27:58Z</time>
      </trkpt>
      <trkpt lat="46.51375" lon="0.3484">
        <ele>114.8</ele>
        <time>2023-09-10T06:27:59Z</time>
      </trkpt>
      <trkpt lat="46.51379" lon="0.34841">
        <ele>113.6</ele>
        <time>2023-09-10T06:28:02Z</time>
      </trkpt>
      <trkpt lat="46.51383" lon="0.34841">
        <ele>113.2</ele>
        <time>2023-09-10T06:28:04Z</time>
      </trkpt>
      <trkpt lat="46.51385" lon="0.34841">
        <ele>112.4</ele>
        <time>2023-09-10T06:28:05Z</time>
      </trkpt>
      <trkpt lat="46.51387" lon="0.3484">
        <ele>111.2</ele>
        <time>2023-09-10T06:28:08Z</time>
      </trkpt>
      <trkpt lat="46.51389" lon="0.3484">
        <ele>111</ele>
        <time>2023-09-10T06:28:10Z</time>
      </trkpt>
      <trkpt lat="46.51391" lon="0.34835">
        <ele>111.2</ele>
        <time>2023-09-10T06:28:14Z</time>
      </trkpt>
      <trkpt lat="46.51391" lon="0.3483">
        <ele>112</ele>
        <time>2023-09-10T06:28:17Z</time>
      </trkpt>
      <trkpt lat="46.51391" lon="0.34828">
        <ele>112.4</ele>
        <time>2023-09-10T06:28:18Z</time>
      </trkpt>
      <trkpt lat="46.51393" lon="0.34824">
        <ele>112.2</ele>
        <time>2023-09-10T06:28:20Z</time>
      </trkpt>
      <trkpt lat="46.51396" lon="0.34819">
        <ele>112.2</ele>
        <time>2023-09-10T06:28:23Z</time>
      </trkpt>
      <trkpt lat="46.51396" lon="0.34817">
        <ele>112.2</ele>
        <time>2023-09-10T06:28:24Z</time>
      </trkpt>
      <trkpt lat="46.51396" lon="0.34817">
        <ele>112</ele>
        <time>2023-09-10T06:28:25Z</time>
      </trkpt>
      <trkpt lat="46.51397" lon="0.34812">
        <ele>112</ele>
        <time>2023-09-10T06:28:26Z</time>
      </trkpt>
      <trkpt lat="46.51399" lon="0.34802">
        <ele>111.6</ele>
        <time>2023-09-10T06:28:30Z</time>
      </trkpt>
      <trkpt lat="46.514" lon="0.34785">
        <ele>111.6</ele>
        <time>2023-09-10T06:28:37Z</time>
      </trkpt>
      <trkpt lat="46.51401" lon="0.34778">
        <ele>111</ele>
        <time>2023-09-10T06:28:39Z</time>
      </trkpt>
      <trkpt lat="46.514" lon="0.3477">
        <ele>110.2</ele>
        <time>2023-09-10T06:28:41Z</time>
      </trkpt>
      <trkpt lat="46.514" lon="0.34765">
        <ele>109.8</ele>
        <time>2023-09-10T06:28:43Z</time>
      </trkpt>
      <trkpt lat="46.51398" lon="0.34753">
        <ele>109.4</ele>
        <time>2023-09-10T06:28:47Z</time>
      </trkpt>
      <trkpt lat="46.51399" lon="0.34745">
        <ele>108.4</ele>
        <time>2023-09-10T06:28:49Z</time>
      </trkpt>
      <trkpt lat="46.51401" lon="0.34731">
        <ele>107.4</ele>
        <time>2023-09-10T06:28:52Z</time>
      </trkpt>
      <trkpt lat="46.51404" lon="0.3472">
        <ele>106.2</ele>
        <time>2023-09-10T06:28:55Z</time>
      </trkpt>
      <trkpt lat="46.51409" lon="0.34706">
        <ele>106.8</ele>
        <time>2023-09-10T06:29:00Z</time>
      </trkpt>
      <trkpt lat="46.51412" lon="0.34694">
        <ele>107</ele>
        <time>2023-09-10T06:29:04Z</time>
      </trkpt>
      <trkpt lat="46.51419" lon="0.34691">
        <ele>107</ele>
        <time>2023-09-10T06:29:06Z</time>
      </trkpt>
      <trkpt lat="46.51436" lon="0.3468">
        <ele>106.4</ele>
        <time>2023-09-10T06:29:17Z</time>
      </trkpt>
      <trkpt lat="46.51445" lon="0.34672">
        <ele>106.6</ele>
        <time>2023-09-10T06:29:27Z</time>
      </trkpt>
      <trkpt lat="46.51456" lon="0.34664">
        <ele>106.6</ele>
        <time>2023-09-10T06:29:43Z</time>
      </trkpt>
      <trkpt lat="46.51456" lon="0.34661">
        <ele>106.8</ele>
        <time>2023-09-10T06:29:48Z</time>
      </trkpt>
      <trkpt lat="46.51459" lon="0.34659">
        <ele>106.8</ele>
        <time>2023-09-10T06:29:51Z</time>
      </trkpt>
      <trkpt lat="46.51461" lon="0.34655">
        <ele>105.4</ele>
        <time>2023-09-10T06:29:53Z</time>
      </trkpt>
      <trkpt lat="46.51461" lon="0.34651">
        <ele>104.4</ele>
        <time>2023-09-10T06:29:54Z</time>
      </trkpt>
      <trkpt lat="46.51462" lon="0.34649">
        <ele>102.6</ele>
        <time>2023-09-10T06:29:55Z</time>
      </trkpt>
      <trkpt lat="46.51464" lon="0.34646">
        <ele>101.6</ele>
        <time>2023-09-10T06:29:56Z</time>
      </trkpt>
      <trkpt lat="46.51466" lon="0.34642">
        <ele>101</ele>
        <time>2023-09-10T06:29:57Z</time>
      </trkpt>
      <trkpt lat="46.5147" lon="0.34627">
        <ele>100.4</ele>
        <time>2023-09-10T06:30:02Z</time>
      </trkpt>
      <trkpt lat="46.51472" lon="0.34612">
        <ele>100.2</ele>
        <time>2023-09-10T06:30:07Z</time>
      </trkpt>
      <trkpt lat="46.51473" lon="0.34591">
        <ele>100</ele>
        <time>2023-09-10T06:30:11Z</time>
      </trkpt>
      <trkpt lat="46.51474" lon="0.34584">
        <ele>99.6</ele>
        <time>2023-09-10T06:30:12Z</time>
      </trkpt>
      <trkpt lat="46.51479" lon="0.34558">
        <ele>99</ele>
        <time>2023-09-10T06:30:16Z</time>
      </trkpt>
      <trkpt lat="46.5148" lon="0.34553">
        <ele>98.8</ele>
        <time>2023-09-10T06:30:17Z</time>
      </trkpt>
      <trkpt lat="46.51491" lon="0.34525">
        <ele>99.4</ele>
        <time>2023-09-10T06:30:23Z</time>
      </trkpt>
      <trkpt lat="46.51506" lon="0.34504">
        <ele>99.4</ele>
        <time>2023-09-10T06:30:28Z</time>
      </trkpt>
      <trkpt lat="46.51511" lon="0.345">
        <ele>99.4</ele>
        <time>2023-09-10T06:30:29Z</time>
      </trkpt>
      <trkpt lat="46.51526" lon="0.34477">
        <ele>98.6</ele>
        <time>2023-09-10T06:30:34Z</time>
      </trkpt>
      <trkpt lat="46.51534" lon="0.34466">
        <ele>98.2</ele>
        <time>2023-09-10T06:30:36Z</time>
      </trkpt>
      <trkpt lat="46.5155" lon="0.34446">
        <ele>98.2</ele>
        <time>2023-09-10T06:30:40Z</time>
      </trkpt>
      <trkpt lat="46.51578" lon="0.34416">
        <ele>97.6</ele>
        <time>2023-09-10T06:30:46Z</time>
      </trkpt>
      <trkpt lat="46.51578" lon="0.34416">
        <ele>97</ele>
        <time>2023-09-10T06:30:47Z</time>
      </trkpt>
      <trkpt lat="46.51594" lon="0.34402">
        <ele>96.4</ele>
        <time>2023-09-10T06:30:49Z</time>
      </trkpt>
      <trkpt lat="46.51608" lon="0.34386">
        <ele>96</ele>
        <time>2023-09-10T06:30:52Z</time>
      </trkpt>
      <trkpt lat="46.51623" lon="0.34366">
        <ele>95.2</ele>
        <time>2023-09-10T06:30:55Z</time>
      </trkpt>
      <trkpt lat="46.51638" lon="0.34352">
        <ele>94.6</ele>
        <time>2023-09-10T06:30:57Z</time>
      </trkpt>
      <trkpt lat="46.51645" lon="0.34345">
        <ele>94</ele>
        <time>2023-09-10T06:30:58Z</time>
      </trkpt>
      <trkpt lat="46.51653" lon="0.34335">
        <ele>93</ele>
        <time>2023-09-10T06:30:59Z</time>
      </trkpt>
      <trkpt lat="46.51663" lon="0.34315">
        <ele>91</ele>
        <time>2023-09-10T06:31:01Z</time>
      </trkpt>
      <trkpt lat="46.51668" lon="0.34297">
        <ele>89.8</ele>
        <time>2023-09-10T06:31:03Z</time>
      </trkpt>
      <trkpt lat="46.51668" lon="0.3429">
        <ele>88.2</ele>
        <time>2023-09-10T06:31:04Z</time>
      </trkpt>
      <trkpt lat="46.51667" lon="0.34285">
        <ele>87</ele>
        <time>2023-09-10T06:31:05Z</time>
      </trkpt>
      <trkpt lat="46.51666" lon="0.34279">
        <ele>85.8</ele>
        <time>2023-09-10T06:31:06Z</time>
      </trkpt>
      <trkpt lat="46.51666" lon="0.34274">
        <ele>85.2</ele>
        <time>2023-09-10T06:31:07Z</time>
      </trkpt>
      <trkpt lat="46.51667" lon="0.34269">
        <ele>84.6</ele>
        <time>2023-09-10T06:31:08Z</time>
      </trkpt>
      <trkpt lat="46.51668" lon="0.34263">
        <ele>84</ele>
        <time>2023-09-10T06:31:09Z</time>
      </trkpt>
      <trkpt lat="46.51669" lon="0.34255">
        <ele>83.4</ele>
        <time>2023-09-10T06:31:10Z</time>
      </trkpt>
      <trkpt lat="46.51669" lon="0.34247">
        <ele>83</ele>
        <time>2023-09-10T06:31:11Z</time>
      </trkpt>
      <trkpt lat="46.5167" lon="0.3423">
        <ele>82.2</ele>
        <time>2023-09-10T06:31:13Z</time>
      </trkpt>
      <trkpt lat="46.51672" lon="0.34214">
        <ele>81.6</ele>
        <time>2023-09-10T06:31:15Z</time>
      </trkpt>
      <trkpt lat="46.51674" lon="0.34207">
        <ele>80.4</ele>
        <time>2023-09-10T06:31:16Z</time>
      </trkpt>
      <trkpt lat="46.51676" lon="0.34199">
        <ele>79.8</ele>
        <time>2023-09-10T06:31:17Z</time>
      </trkpt>
      <trkpt lat="46.5168" lon="0.34191">
        <ele>79.4</ele>
        <time>2023-09-10T06:31:18Z</time>
      </trkpt>
      <trkpt lat="46.51691" lon="0.34168">
        <ele>78.2</ele>
        <time>2023-09-10T06:31:21Z</time>
      </trkpt>
      <trkpt lat="46.51695" lon="0.34159">
        <ele>78</ele>
        <time>2023-09-10T06:31:22Z</time>
      </trkpt>
      <trkpt lat="46.51709" lon="0.34123">
        <ele>77</ele>
        <time>2023-09-10T06:31:26Z</time>
      </trkpt>
      <trkpt lat="46.51713" lon="0.34105">
        <ele>76.6</ele>
        <time>2023-09-10T06:31:28Z</time>
      </trkpt>
      <trkpt lat="46.51716" lon="0.34088">
        <ele>76.2</ele>
        <time>2023-09-10T06:31:30Z</time>
      </trkpt>
      <trkpt lat="46.51719" lon="0.34062">
        <ele>76</ele>
        <time>2023-09-10T06:31:33Z</time>
      </trkpt>
      <trkpt lat="46.51719" lon="0.34054">
        <ele>75.8</ele>
        <time>2023-09-10T06:31:34Z</time>
      </trkpt>
      <trkpt lat="46.51721" lon="0.34046">
        <ele>75.6</ele>
        <time>2023-09-10T06:31:35Z</time>
      </trkpt>
      <trkpt lat="46.51724" lon="0.34033">
        <ele>75.4</ele>
        <time>2023-09-10T06:31:37Z</time>
      </trkpt>
      <trkpt lat="46.51725" lon="0.34029">
        <ele>75.4</ele>
        <time>2023-09-10T06:31:38Z</time>
      </trkpt>
      <trkpt lat="46.51732" lon="0.34026">
        <ele>75</ele>
        <time>2023-09-10T06:31:40Z</time>
      </trkpt>
      <trkpt lat="46.51736" lon="0.34026">
        <ele>74.8</ele>
        <time>2023-09-10T06:31:41Z</time>
      </trkpt>
      <trkpt lat="46.51742" lon="0.34029">
        <ele>74.6</ele>
        <time>2023-09-10T06:31:43Z</time>
      </trkpt>
      <trkpt lat="46.51753" lon="0.34033">
        <ele>74.4</ele>
        <time>2023-09-10T06:31:46Z</time>
      </trkpt>
      <trkpt lat="46.51757" lon="0.34036">
        <ele>74.4</ele>
        <time>2023-09-10T06:31:47Z</time>
      </trkpt>
      <trkpt lat="46.5177" lon="0.3404">
        <ele>74.4</ele>
        <time>2023-09-10T06:31:50Z</time>
      </trkpt>
      <trkpt lat="46.51774" lon="0.34041">
        <ele>74.4</ele>
        <time>2023-09-10T06:31:51Z</time>
      </trkpt>
      <trkpt lat="46.51779" lon="0.34041">
        <ele>74.4</ele>
        <time>2023-09-10T06:31:52Z</time>
      </trkpt>
      <trkpt lat="46.51789" lon="0.3404">
        <ele>74.4</ele>
        <time>2023-09-10T06:31:54Z</time>
      </trkpt>
      <trkpt lat="46.518" lon="0.34037">
        <ele>74.4</ele>
        <time>2023-09-10T06:31:56Z</time>
      </trkpt>
      <trkpt lat="46.51807" lon="0.34038">
        <ele>74.6</ele>
        <time>2023-09-10T06:31:57Z</time>
      </trkpt>
      <trkpt lat="46.51819" lon="0.34041">
        <ele>74.6</ele>
        <time>2023-09-10T06:31:59Z</time>
      </trkpt>
      <trkpt lat="46.51824" lon="0.34043">
        <ele>74.6</ele>
        <time>2023-09-10T06:32:00Z</time>
      </trkpt>
      <trkpt lat="46.51836" lon="0.34047">
        <ele>74.8</ele>
        <time>2023-09-10T06:32:02Z</time>
      </trkpt>
      <trkpt lat="46.51845" lon="0.34051">
        <ele>74.8</ele>
        <time>2023-09-10T06:32:04Z</time>
      </trkpt>
      <trkpt lat="46.5185" lon="0.34051">
        <ele>74.8</ele>
        <time>2023-09-10T06:32:05Z</time>
      </trkpt>
      <trkpt lat="46.51855" lon="0.34049">
        <ele>74.8</ele>
        <time>2023-09-10T06:32:06Z</time>
      </trkpt>
      <trkpt lat="46.51872" lon="0.34042">
        <ele>74.2</ele>
        <time>2023-09-10T06:32:09Z</time>
      </trkpt>
      <trkpt lat="46.51918" lon="0.34037">
        <ele>74</ele>
        <time>2023-09-10T06:32:16Z</time>
      </trkpt>
      <trkpt lat="46.51953" lon="0.34028">
        <ele>74</ele>
        <time>2023-09-10T06:32:22Z</time>
      </trkpt>
      <trkpt lat="46.51957" lon="0.34024">
        <ele>74</ele>
        <time>2023-09-10T06:32:23Z</time>
      </trkpt>
      <trkpt lat="46.5196" lon="0.3402">
        <ele>73.8</ele>
        <time>2023-09-10T06:32:24Z</time>
      </trkpt>
      <trkpt lat="46.5196" lon="0.34007">
        <ele>73.8</ele>
        <time>2023-09-10T06:32:26Z</time>
      </trkpt>
      <trkpt lat="46.51956" lon="0.33964">
        <ele>74.2</ele>
        <time>2023-09-10T06:32:33Z</time>
      </trkpt>
      <trkpt lat="46.51959" lon="0.33934">
        <ele>74.2</ele>
        <time>2023-09-10T06:32:39Z</time>
      </trkpt>
      <trkpt lat="46.51963" lon="0.33928">
        <ele>74.2</ele>
        <time>2023-09-10T06:32:41Z</time>
      </trkpt>
      <trkpt lat="46.51965" lon="0.33926">
        <ele>74.2</ele>
        <time>2023-09-10T06:32:42Z</time>
      </trkpt>
      <trkpt lat="46.51967" lon="0.33921">
        <ele>74</ele>
        <time>2023-09-10T06:32:43Z</time>
      </trkpt>
      <trkpt lat="46.51969" lon="0.33908">
        <ele>74</ele>
        <time>2023-09-10T06:32:45Z</time>
      </trkpt>
      <trkpt lat="46.51969" lon="0.33887">
        <ele>73.6</ele>
        <time>2023-09-10T06:32:48Z</time>
      </trkpt>
      <trkpt lat="46.51968" lon="0.33865">
        <ele>73.6</ele>
        <time>2023-09-10T06:32:51Z</time>
      </trkpt>
      <trkpt lat="46.51967" lon="0.33837">
        <ele>73.6</ele>
        <time>2023-09-10T06:32:55Z</time>
      </trkpt>
      <trkpt lat="46.51968" lon="0.33823">
        <ele>73.6</ele>
        <time>2023-09-10T06:32:57Z</time>
      </trkpt>
      <trkpt lat="46.51977" lon="0.33774">
        <ele>73.6</ele>
        <time>2023-09-10T06:33:04Z</time>
      </trkpt>
      <trkpt lat="46.51984" lon="0.33736">
        <ele>73.4</ele>
        <time>2023-09-10T06:33:10Z</time>
      </trkpt>
      <trkpt lat="46.51987" lon="0.3373">
        <ele>73.2</ele>
        <time>2023-09-10T06:33:11Z</time>
      </trkpt>
      <trkpt lat="46.51993" lon="0.33724">
        <ele>73.6</ele>
        <time>2023-09-10T06:33:15Z</time>
      </trkpt>
      <trkpt lat="46.52011" lon="0.33725">
        <ele>73.8</ele>
        <time>2023-09-10T06:33:20Z</time>
      </trkpt>
      <trkpt lat="46.52041" lon="0.33727">
        <ele>73.8</ele>
        <time>2023-09-10T06:33:27Z</time>
      </trkpt>
      <trkpt lat="46.52044" lon="0.33728">
        <ele>74</ele>
        <time>2023-09-10T06:33:28Z</time>
      </trkpt>
      <trkpt lat="46.52048" lon="0.33734">
        <ele>74.4</ele>
        <time>2023-09-10T06:33:30Z</time>
      </trkpt>
      <trkpt lat="46.52049" lon="0.33745">
        <ele>74.6</ele>
        <time>2023-09-10T06:33:32Z</time>
      </trkpt>
      <trkpt lat="46.52049" lon="0.33759">
        <ele>75</ele>
        <time>2023-09-10T06:33:34Z</time>
      </trkpt>
      <trkpt lat="46.52049" lon="0.33782">
        <ele>75.4</ele>
        <time>2023-09-10T06:33:37Z</time>
      </trkpt>
      <trkpt lat="46.52049" lon="0.33797">
        <ele>75.2</ele>
        <time>2023-09-10T06:33:39Z</time>
      </trkpt>
      <trkpt lat="46.52052" lon="0.33849">
        <ele>75</ele>
        <time>2023-09-10T06:33:45Z</time>
      </trkpt>
      <trkpt lat="46.52065" lon="0.3391">
        <ele>75.2</ele>
        <time>2023-09-10T06:33:52Z</time>
      </trkpt>
      <trkpt lat="46.52074" lon="0.33935">
        <ele>74.8</ele>
        <time>2023-09-10T06:33:55Z</time>
      </trkpt>
      <trkpt lat="46.52085" lon="0.33947">
        <ele>74.8</ele>
        <time>2023-09-10T06:33:57Z</time>
      </trkpt>
      <trkpt lat="46.52097" lon="0.33953">
        <ele>74.8</ele>
        <time>2023-09-10T06:33:59Z</time>
      </trkpt>
      <trkpt lat="46.5211" lon="0.33959">
        <ele>74.8</ele>
        <time>2023-09-10T06:34:01Z</time>
      </trkpt>
      <trkpt lat="46.52156" lon="0.33971">
        <ele>74.2</ele>
        <time>2023-09-10T06:34:08Z</time>
      </trkpt>
      <trkpt lat="46.52185" lon="0.33969">
        <ele>74.2</ele>
        <time>2023-09-10T06:34:13Z</time>
      </trkpt>
      <trkpt lat="46.52207" lon="0.33964">
        <ele>74.2</ele>
        <time>2023-09-10T06:34:17Z</time>
      </trkpt>
      <trkpt lat="46.52213" lon="0.33961">
        <ele>74.2</ele>
        <time>2023-09-10T06:34:18Z</time>
      </trkpt>
      <trkpt lat="46.52255" lon="0.33929">
        <ele>74.4</ele>
        <time>2023-09-10T06:34:26Z</time>
      </trkpt>
      <trkpt lat="46.52275" lon="0.33915">
        <ele>74.8</ele>
        <time>2023-09-10T06:34:30Z</time>
      </trkpt>
      <trkpt lat="46.52294" lon="0.33903">
        <ele>74.8</ele>
        <time>2023-09-10T06:34:34Z</time>
      </trkpt>
      <trkpt lat="46.52336" lon="0.33874">
        <ele>74.8</ele>
        <time>2023-09-10T06:34:43Z</time>
      </trkpt>
      <trkpt lat="46.52382" lon="0.33844">
        <ele>74.4</ele>
        <time>2023-09-10T06:34:53Z</time>
      </trkpt>
      <trkpt lat="46.52414" lon="0.33817">
        <ele>74.2</ele>
        <time>2023-09-10T06:35:00Z</time>
      </trkpt>
      <trkpt lat="46.52423" lon="0.33809">
        <ele>73.6</ele>
        <time>2023-09-10T06:35:02Z</time>
      </trkpt>
      <trkpt lat="46.52453" lon="0.33776">
        <ele>73.6</ele>
        <time>2023-09-10T06:35:09Z</time>
      </trkpt>
      <trkpt lat="46.52477" lon="0.33747">
        <ele>73.2</ele>
        <time>2023-09-10T06:35:15Z</time>
      </trkpt>
      <trkpt lat="46.52498" lon="0.33709">
        <ele>73.6</ele>
        <time>2023-09-10T06:35:22Z</time>
      </trkpt>
      <trkpt lat="46.52501" lon="0.33698">
        <ele>74.2</ele>
        <time>2023-09-10T06:35:24Z</time>
      </trkpt>
      <trkpt lat="46.52502" lon="0.33685">
        <ele>74.6</ele>
        <time>2023-09-10T06:35:26Z</time>
      </trkpt>
      <trkpt lat="46.52503" lon="0.33679">
        <ele>74.8</ele>
        <time>2023-09-10T06:35:27Z</time>
      </trkpt>
      <trkpt lat="46.52503" lon="0.33667">
        <ele>75.2</ele>
        <time>2023-09-10T06:35:29Z</time>
      </trkpt>
      <trkpt lat="46.52503" lon="0.33661">
        <ele>75.8</ele>
        <time>2023-09-10T06:35:30Z</time>
      </trkpt>
      <trkpt lat="46.52504" lon="0.33656">
        <ele>76.2</ele>
        <time>2023-09-10T06:35:31Z</time>
      </trkpt>
      <trkpt lat="46.52506" lon="0.33651">
        <ele>76.4</ele>
        <time>2023-09-10T06:35:32Z</time>
      </trkpt>
      <trkpt lat="46.5251" lon="0.33643">
        <ele>77.4</ele>
        <time>2023-09-10T06:35:34Z</time>
      </trkpt>
      <trkpt lat="46.52514" lon="0.33633">
        <ele>78.8</ele>
        <time>2023-09-10T06:35:37Z</time>
      </trkpt>
      <trkpt lat="46.52516" lon="0.3363">
        <ele>79.2</ele>
        <time>2023-09-10T06:35:38Z</time>
      </trkpt>
      <trkpt lat="46.52521" lon="0.3362">
        <ele>79.8</ele>
        <time>2023-09-10T06:35:41Z</time>
      </trkpt>
      <trkpt lat="46.52529" lon="0.3361">
        <ele>81</ele>
        <time>2023-09-10T06:35:45Z</time>
      </trkpt>
      <trkpt lat="46.52531" lon="0.3361">
        <ele>81</ele>
        <time>2023-09-10T06:35:46Z</time>
      </trkpt>
      <trkpt lat="46.5254" lon="0.33616">
        <ele>81.2</ele>
        <time>2023-09-10T06:35:49Z</time>
      </trkpt>
      <trkpt lat="46.52562" lon="0.33619">
        <ele>80</ele>
        <time>2023-09-10T06:35:54Z</time>
      </trkpt>
      <trkpt lat="46.52568" lon="0.33619">
        <ele>79.8</ele>
        <time>2023-09-10T06:35:55Z</time>
      </trkpt>
      <trkpt lat="46.52589" lon="0.33615">
        <ele>79</ele>
        <time>2023-09-10T06:35:58Z</time>
      </trkpt>
      <trkpt lat="46.52596" lon="0.33614">
        <ele>78.4</ele>
        <time>2023-09-10T06:35:59Z</time>
      </trkpt>
      <trkpt lat="46.52617" lon="0.33611">
        <ele>77.2</ele>
        <time>2023-09-10T06:36:02Z</time>
      </trkpt>
      <trkpt lat="46.52625" lon="0.33612">
        <ele>76.8</ele>
        <time>2023-09-10T06:36:03Z</time>
      </trkpt>
      <trkpt lat="46.52649" lon="0.33618">
        <ele>75.8</ele>
        <time>2023-09-10T06:36:06Z</time>
      </trkpt>
      <trkpt lat="46.52664" lon="0.33617">
        <ele>75</ele>
        <time>2023-09-10T06:36:08Z</time>
      </trkpt>
      <trkpt lat="46.52671" lon="0.33615">
        <ele>74.6</ele>
        <time>2023-09-10T06:36:09Z</time>
      </trkpt>
      <trkpt lat="46.52698" lon="0.33611">
        <ele>73.6</ele>
        <time>2023-09-10T06:36:13Z</time>
      </trkpt>
      <trkpt lat="46.5271" lon="0.33612">
        <ele>73.6</ele>
        <time>2023-09-10T06:36:15Z</time>
      </trkpt>
      <trkpt lat="46.52728" lon="0.33617">
        <ele>73.4</ele>
        <time>2023-09-10T06:36:18Z</time>
      </trkpt>
      <trkpt lat="46.52752" lon="0.33627">
        <ele>73</ele>
        <time>2023-09-10T06:36:23Z</time>
      </trkpt>
      <trkpt lat="46.52774" lon="0.33633">
        <ele>73</ele>
        <time>2023-09-10T06:36:27Z</time>
      </trkpt>
      <trkpt lat="46.52783" lon="0.33631">
        <ele>73.2</ele>
        <time>2023-09-10T06:36:29Z</time>
      </trkpt>
      <trkpt lat="46.52805" lon="0.33627">
        <ele>73.2</ele>
        <time>2023-09-10T06:36:34Z</time>
      </trkpt>
      <trkpt lat="46.5281" lon="0.33627">
        <ele>73.2</ele>
        <time>2023-09-10T06:36:35Z</time>
      </trkpt>
      <trkpt lat="46.52828" lon="0.33632">
        <ele>73.2</ele>
        <time>2023-09-10T06:36:39Z</time>
      </trkpt>
      <trkpt lat="46.52862" lon="0.33646">
        <ele>73.2</ele>
        <time>2023-09-10T06:36:46Z</time>
      </trkpt>
      <trkpt lat="46.52867" lon="0.33648">
        <ele>73</ele>
        <time>2023-09-10T06:36:47Z</time>
      </trkpt>
      <trkpt lat="46.52893" lon="0.33658">
        <ele>72.8</ele>
        <time>2023-09-10T06:36:52Z</time>
      </trkpt>
      <trkpt lat="46.52919" lon="0.33666">
        <ele>73</ele>
        <time>2023-09-10T06:36:57Z</time>
      </trkpt>
      <trkpt lat="46.52954" lon="0.33676">
        <ele>72.8</ele>
        <time>2023-09-10T06:37:04Z</time>
      </trkpt>
      <trkpt lat="46.52969" lon="0.33679">
        <ele>72.8</ele>
        <time>2023-09-10T06:37:07Z</time>
      </trkpt>
      <trkpt lat="46.52984" lon="0.33677">
        <ele>72.8</ele>
        <time>2023-09-10T06:37:10Z</time>
      </trkpt>
      <trkpt lat="46.53015" lon="0.33672">
        <ele>73</ele>
        <time>2023-09-10T06:37:16Z</time>
      </trkpt>
      <trkpt lat="46.53048" lon="0.33664">
        <ele>73</ele>
        <time>2023-09-10T06:37:22Z</time>
      </trkpt>
      <trkpt lat="46.53073" lon="0.33653">
        <ele>73.2</ele>
        <time>2023-09-10T06:37:27Z</time>
      </trkpt>
      <trkpt lat="46.5308" lon="0.33651">
        <ele>72.8</ele>
        <time>2023-09-10T06:37:29Z</time>
      </trkpt>
      <trkpt lat="46.53086" lon="0.33652">
        <ele>72.8</ele>
        <time>2023-09-10T06:37:31Z</time>
      </trkpt>
      <trkpt lat="46.53093" lon="0.33653">
        <ele>72.6</ele>
        <time>2023-09-10T06:37:34Z</time>
      </trkpt>
      <trkpt lat="46.53105" lon="0.33649">
        <ele>72.8</ele>
        <time>2023-09-10T06:37:38Z</time>
      </trkpt>
      <trkpt lat="46.53122" lon="0.33654">
        <ele>73</ele>
        <time>2023-09-10T06:37:42Z</time>
      </trkpt>
      <trkpt lat="46.53127" lon="0.33654">
        <ele>73.2</ele>
        <time>2023-09-10T06:37:43Z</time>
      </trkpt>
      <trkpt lat="46.5316" lon="0.33665">
        <ele>73</ele>
        <time>2023-09-10T06:37:50Z</time>
      </trkpt>
      <trkpt lat="46.53192" lon="0.33677">
        <ele>73</ele>
        <time>2023-09-10T06:37:57Z</time>
      </trkpt>
      <trkpt lat="46.53226" lon="0.33692">
        <ele>73.2</ele>
        <time>2023-09-10T06:38:04Z</time>
      </trkpt>
      <trkpt lat="46.53251" lon="0.33701">
        <ele>73.2</ele>
        <time>2023-09-10T06:38:09Z</time>
      </trkpt>
      <trkpt lat="46.53271" lon="0.3371">
        <ele>73</ele>
        <time>2023-09-10T06:38:14Z</time>
      </trkpt>
      <trkpt lat="46.53275" lon="0.33714">
        <ele>73</ele>
        <time>2023-09-10T06:38:15Z</time>
      </trkpt>
      <trkpt lat="46.53283" lon="0.33718">
        <ele>73</ele>
        <time>2023-09-10T06:38:17Z</time>
      </trkpt>
      <trkpt lat="46.53303" lon="0.33728">
        <ele>73.2</ele>
        <time>2023-09-10T06:38:21Z</time>
      </trkpt>
      <trkpt lat="46.53325" lon="0.33736">
        <ele>73.4</ele>
        <time>2023-09-10T06:38:26Z</time>
      </trkpt>
      <trkpt lat="46.53351" lon="0.33752">
        <ele>73.4</ele>
        <time>2023-09-10T06:38:32Z</time>
      </trkpt>
      <trkpt lat="46.53381" lon="0.33766">
        <ele>73.2</ele>
        <time>2023-09-10T06:38:38Z</time>
      </trkpt>
      <trkpt lat="46.53409" lon="0.33775">
        <ele>73.2</ele>
        <time>2023-09-10T06:38:43Z</time>
      </trkpt>
      <trkpt lat="46.53446" lon="0.33791">
        <ele>72.8</ele>
        <time>2023-09-10T06:38:50Z</time>
      </trkpt>
      <trkpt lat="46.5345" lon="0.33794">
        <ele>72.8</ele>
        <time>2023-09-10T06:38:51Z</time>
      </trkpt>
      <trkpt lat="46.53456" lon="0.33799">
        <ele>72.8</ele>
        <time>2023-09-10T06:38:53Z</time>
      </trkpt>
      <trkpt lat="46.53458" lon="0.33801">
        <ele>72.8</ele>
        <time>2023-09-10T06:38:54Z</time>
      </trkpt>
      <trkpt lat="46.53463" lon="0.33808">
        <ele>73</ele>
        <time>2023-09-10T06:38:59Z</time>
      </trkpt>
      <trkpt lat="46.53464" lon="0.33807">
        <ele>73</ele>
        <time>2023-09-10T06:39:00Z</time>
      </trkpt>
      <trkpt lat="46.53468" lon="0.33803">
        <ele>73.6</ele>
        <time>2023-09-10T06:39:04Z</time>
      </trkpt>
      <trkpt lat="46.53471" lon="0.33802">
        <ele>74.4</ele>
        <time>2023-09-10T06:39:06Z</time>
      </trkpt>
      <trkpt lat="46.53475" lon="0.33802">
        <ele>75</ele>
        <time>2023-09-10T06:39:08Z</time>
      </trkpt>
      <trkpt lat="46.53481" lon="0.33803">
        <ele>75.6</ele>
        <time>2023-09-10T06:39:11Z</time>
      </trkpt>
      <trkpt lat="46.53484" lon="0.33805">
        <ele>76.2</ele>
        <time>2023-09-10T06:39:13Z</time>
      </trkpt>
      <trkpt lat="46.53492" lon="0.33806">
        <ele>77.4</ele>
        <time>2023-09-10T06:39:17Z</time>
      </trkpt>
      <trkpt lat="46.53496" lon="0.33807">
        <ele>78</ele>
        <time>2023-09-10T06:39:19Z</time>
      </trkpt>
      <trkpt lat="46.535" lon="0.3381">
        <ele>78.6</ele>
        <time>2023-09-10T06:39:21Z</time>
      </trkpt>
      <trkpt lat="46.53506" lon="0.33813">
        <ele>80</ele>
        <time>2023-09-10T06:39:25Z</time>
      </trkpt>
      <trkpt lat="46.53507" lon="0.33814">
        <ele>80.2</ele>
        <time>2023-09-10T06:39:26Z</time>
      </trkpt>
      <trkpt lat="46.5351" lon="0.33814">
        <ele>81</ele>
        <time>2023-09-10T06:39:28Z</time>
      </trkpt>
      <trkpt lat="46.53515" lon="0.33816">
        <ele>82.2</ele>
        <time>2023-09-10T06:39:31Z</time>
      </trkpt>
      <trkpt lat="46.53522" lon="0.3382">
        <ele>83.6</ele>
        <time>2023-09-10T06:39:35Z</time>
      </trkpt>
      <trkpt lat="46.53532" lon="0.33826">
        <ele>84.8</ele>
        <time>2023-09-10T06:39:40Z</time>
      </trkpt>
      <trkpt lat="46.53536" lon="0.33828">
        <ele>86</ele>
        <time>2023-09-10T06:39:42Z</time>
      </trkpt>
      <trkpt lat="46.53543" lon="0.33833">
        <ele>87</ele>
        <time>2023-09-10T06:39:46Z</time>
      </trkpt>
      <trkpt lat="46.53547" lon="0.33837">
        <ele>88.2</ele>
        <time>2023-09-10T06:39:48Z</time>
      </trkpt>
      <trkpt lat="46.53548" lon="0.33838">
        <ele>88.6</ele>
        <time>2023-09-10T06:39:49Z</time>
      </trkpt>
      <trkpt lat="46.53552" lon="0.3384">
        <ele>89.2</ele>
        <time>2023-09-10T06:39:51Z</time>
      </trkpt>
      <trkpt lat="46.53559" lon="0.33841">
        <ele>90.6</ele>
        <time>2023-09-10T06:39:54Z</time>
      </trkpt>
      <trkpt lat="46.53564" lon="0.33839">
        <ele>91.6</ele>
        <time>2023-09-10T06:39:57Z</time>
      </trkpt>
      <trkpt lat="46.53569" lon="0.33836">
        <ele>92.6</ele>
        <time>2023-09-10T06:40:00Z</time>
      </trkpt>
      <trkpt lat="46.53574" lon="0.33828">
        <ele>93.8</ele>
        <time>2023-09-10T06:40:04Z</time>
      </trkpt>
      <trkpt lat="46.53578" lon="0.33817">
        <ele>94.8</ele>
        <time>2023-09-10T06:40:08Z</time>
      </trkpt>
      <trkpt lat="46.5358" lon="0.33805">
        <ele>95.4</ele>
        <time>2023-09-10T06:40:12Z</time>
      </trkpt>
      <trkpt lat="46.53582" lon="0.33795">
        <ele>96</ele>
        <time>2023-09-10T06:40:15Z</time>
      </trkpt>
      <trkpt lat="46.53589" lon="0.33781">
        <ele>97.2</ele>
        <time>2023-09-10T06:40:20Z</time>
      </trkpt>
      <trkpt lat="46.53603" lon="0.33777">
        <ele>97.6</ele>
        <time>2023-09-10T06:40:25Z</time>
      </trkpt>
      <trkpt lat="46.53623" lon="0.33766">
        <ele>97.4</ele>
        <time>2023-09-10T06:40:30Z</time>
      </trkpt>
      <trkpt lat="46.53626" lon="0.33761">
        <ele>97.2</ele>
        <time>2023-09-10T06:40:31Z</time>
      </trkpt>
      <trkpt lat="46.53637" lon="0.33744">
        <ele>96</ele>
        <time>2023-09-10T06:40:34Z</time>
      </trkpt>
      <trkpt lat="46.53644" lon="0.33731">
        <ele>95.4</ele>
        <time>2023-09-10T06:40:36Z</time>
      </trkpt>
      <trkpt lat="46.53646" lon="0.33723">
        <ele>94.8</ele>
        <time>2023-09-10T06:40:37Z</time>
      </trkpt>
      <trkpt lat="46.53647" lon="0.33715">
        <ele>94.4</ele>
        <time>2023-09-10T06:40:38Z</time>
      </trkpt>
      <trkpt lat="46.53652" lon="0.33694">
        <ele>93.6</ele>
        <time>2023-09-10T06:40:41Z</time>
      </trkpt>
      <trkpt lat="46.53653" lon="0.33687">
        <ele>93.4</ele>
        <time>2023-09-10T06:40:42Z</time>
      </trkpt>
      <trkpt lat="46.53653" lon="0.33682">
        <ele>93.4</ele>
        <time>2023-09-10T06:40:43Z</time>
      </trkpt>
      <trkpt lat="46.53652" lon="0.33678">
        <ele>93.2</ele>
        <time>2023-09-10T06:40:44Z</time>
      </trkpt>
      <trkpt lat="46.53652" lon="0.33675">
        <ele>93</ele>
        <time>2023-09-10T06:40:46Z</time>
      </trkpt>
      <trkpt lat="46.53648" lon="0.33667">
        <ele>95</ele>
        <time>2023-09-10T06:40:51Z</time>
      </trkpt>
      <trkpt lat="46.53647" lon="0.33665">
        <ele>95.4</ele>
        <time>2023-09-10T06:40:52Z</time>
      </trkpt>
      <trkpt lat="46.53644" lon="0.33659">
        <ele>96.2</ele>
        <time>2023-09-10T06:40:55Z</time>
      </trkpt>
      <trkpt lat="46.53643" lon="0.33653">
        <ele>97</ele>
        <time>2023-09-10T06:40:59Z</time>
      </trkpt>
      <trkpt lat="46.53642" lon="0.33651">
        <ele>97.4</ele>
        <time>2023-09-10T06:41:00Z</time>
      </trkpt>
      <trkpt lat="46.5364" lon="0.33646">
        <ele>97.8</ele>
        <time>2023-09-10T06:41:02Z</time>
      </trkpt>
      <trkpt lat="46.53635" lon="0.3364">
        <ele>98.6</ele>
        <time>2023-09-10T06:41:04Z</time>
      </trkpt>
      <trkpt lat="46.53633" lon="0.33638">
        <ele>99</ele>
        <time>2023-09-10T06:41:05Z</time>
      </trkpt>
      <trkpt lat="46.53627" lon="0.33628">
        <ele>99.6</ele>
        <time>2023-09-10T06:41:08Z</time>
      </trkpt>
      <trkpt lat="46.53624" lon="0.33622">
        <ele>100.8</ele>
        <time>2023-09-10T06:41:11Z</time>
      </trkpt>
      <trkpt lat="46.53621" lon="0.33615">
        <ele>102.2</ele>
        <time>2023-09-10T06:41:15Z</time>
      </trkpt>
      <trkpt lat="46.53616" lon="0.33606">
        <ele>102.8</ele>
        <time>2023-09-10T06:41:19Z</time>
      </trkpt>
      <trkpt lat="46.53613" lon="0.336">
        <ele>103.2</ele>
        <time>2023-09-10T06:41:21Z</time>
      </trkpt>
      <trkpt lat="46.53605" lon="0.33588">
        <ele>104.4</ele>
        <time>2023-09-10T06:41:26Z</time>
      </trkpt>
      <trkpt lat="46.53603" lon="0.33586">
        <ele>104.6</ele>
        <time>2023-09-10T06:41:27Z</time>
      </trkpt>
      <trkpt lat="46.536" lon="0.33584">
        <ele>104.8</ele>
        <time>2023-09-10T06:41:28Z</time>
      </trkpt>
      <trkpt lat="46.53596" lon="0.33579">
        <ele>105.8</ele>
        <time>2023-09-10T06:41:30Z</time>
      </trkpt>
      <trkpt lat="46.53587" lon="0.33567">
        <ele>106.8</ele>
        <time>2023-09-10T06:41:34Z</time>
      </trkpt>
      <trkpt lat="46.53573" lon="0.33546">
        <ele>107.8</ele>
        <time>2023-09-10T06:41:41Z</time>
      </trkpt>
      <trkpt lat="46.53571" lon="0.33544">
        <ele>108</ele>
        <time>2023-09-10T06:41:42Z</time>
      </trkpt>
      <trkpt lat="46.53562" lon="0.33535">
        <ele>108.8</ele>
        <time>2023-09-10T06:41:47Z</time>
      </trkpt>
      <trkpt lat="46.5356" lon="0.33531">
        <ele>109.2</ele>
        <time>2023-09-10T06:41:49Z</time>
      </trkpt>
      <trkpt lat="46.53552" lon="0.33518">
        <ele>110</ele>
        <time>2023-09-10T06:41:54Z</time>
      </trkpt>
      <trkpt lat="46.5355" lon="0.33514">
        <ele>110.2</ele>
        <time>2023-09-10T06:41:55Z</time>
      </trkpt>
      <trkpt lat="46.53535" lon="0.33495">
        <ele>111</ele>
        <time>2023-09-10T06:42:01Z</time>
      </trkpt>
      <trkpt lat="46.53526" lon="0.33485">
        <ele>111.2</ele>
        <time>2023-09-10T06:42:05Z</time>
      </trkpt>
      <trkpt lat="46.53522" lon="0.33478">
        <ele>111.8</ele>
        <time>2023-09-10T06:42:08Z</time>
      </trkpt>
      <trkpt lat="46.53521" lon="0.33475">
        <ele>112</ele>
        <time>2023-09-10T06:42:09Z</time>
      </trkpt>
      <trkpt lat="46.53515" lon="0.33458">
        <ele>112.2</ele>
        <time>2023-09-10T06:42:13Z</time>
      </trkpt>
      <trkpt lat="46.53513" lon="0.33453">
        <ele>112.4</ele>
        <time>2023-09-10T06:42:14Z</time>
      </trkpt>
      <trkpt lat="46.53509" lon="0.33443">
        <ele>112.4</ele>
        <time>2023-09-10T06:42:16Z</time>
      </trkpt>
      <trkpt lat="46.53508" lon="0.33438">
        <ele>112.4</ele>
        <time>2023-09-10T06:42:17Z</time>
      </trkpt>
      <trkpt lat="46.53504" lon="0.33428">
        <ele>112.4</ele>
        <time>2023-09-10T06:42:19Z</time>
      </trkpt>
      <trkpt lat="46.5349" lon="0.33389">
        <ele>112.8</ele>
        <time>2023-09-10T06:42:24Z</time>
      </trkpt>
      <trkpt lat="46.53485" lon="0.33368">
        <ele>113.2</ele>
        <time>2023-09-10T06:42:28Z</time>
      </trkpt>
      <trkpt lat="46.53485" lon="0.33364">
        <ele>113.2</ele>
        <time>2023-09-10T06:42:29Z</time>
      </trkpt>
      <trkpt lat="46.53484" lon="0.3336">
        <ele>113.4</ele>
        <time>2023-09-10T06:42:30Z</time>
      </trkpt>
      <trkpt lat="46.53475" lon="0.33329">
        <ele>113.4</ele>
        <time>2023-09-10T06:42:34Z</time>
      </trkpt>
      <trkpt lat="46.53471" lon="0.33311">
        <ele>113.6</ele>
        <time>2023-09-10T06:42:36Z</time>
      </trkpt>
      <trkpt lat="46.53473" lon="0.33294">
        <ele>113.4</ele>
        <time>2023-09-10T06:42:39Z</time>
      </trkpt>
      <trkpt lat="46.53469" lon="0.33261">
        <ele>114.2</ele>
        <time>2023-09-10T06:42:45Z</time>
      </trkpt>
      <trkpt lat="46.53464" lon="0.33252">
        <ele>114.4</ele>
        <time>2023-09-10T06:42:46Z</time>
      </trkpt>
      <trkpt lat="46.53459" lon="0.33231">
        <ele>114.4</ele>
        <time>2023-09-10T06:42:49Z</time>
      </trkpt>
      <trkpt lat="46.53458" lon="0.33225">
        <ele>114.6</ele>
        <time>2023-09-10T06:42:50Z</time>
      </trkpt>
      <trkpt lat="46.53454" lon="0.33193">
        <ele>114.6</ele>
        <time>2023-09-10T06:42:55Z</time>
      </trkpt>
      <trkpt lat="46.53454" lon="0.33182">
        <ele>114.2</ele>
        <time>2023-09-10T06:42:57Z</time>
      </trkpt>
      <trkpt lat="46.53452" lon="0.33172">
        <ele>114</ele>
        <time>2023-09-10T06:42:59Z</time>
      </trkpt>
      <trkpt lat="46.5345" lon="0.33168">
        <ele>113.4</ele>
        <time>2023-09-10T06:43:00Z</time>
      </trkpt>
      <trkpt lat="46.53449" lon="0.33166">
        <ele>113</ele>
        <time>2023-09-10T06:43:01Z</time>
      </trkpt>
      <trkpt lat="46.53436" lon="0.33141">
        <ele>112.4</ele>
        <time>2023-09-10T06:43:05Z</time>
      </trkpt>
      <trkpt lat="46.5343" lon="0.33114">
        <ele>111.6</ele>
        <time>2023-09-10T06:43:11Z</time>
      </trkpt>
      <trkpt lat="46.53428" lon="0.33099">
        <ele>112</ele>
        <time>2023-09-10T06:43:15Z</time>
      </trkpt>
      <trkpt lat="46.53426" lon="0.33097">
        <ele>112.2</ele>
        <time>2023-09-10T06:43:16Z</time>
      </trkpt>
      <trkpt lat="46.53421" lon="0.33091">
        <ele>113.6</ele>
        <time>2023-09-10T06:43:20Z</time>
      </trkpt>
      <trkpt lat="46.53413" lon="0.33085">
        <ele>114.4</ele>
        <time>2023-09-10T06:43:22Z</time>
      </trkpt>
      <trkpt lat="46.53409" lon="0.33083">
        <ele>114.8</ele>
        <time>2023-09-10T06:43:24Z</time>
      </trkpt>
      <trkpt lat="46.53406" lon="0.33079">
        <ele>115.2</ele>
        <time>2023-09-10T06:43:26Z</time>
      </trkpt>
      <trkpt lat="46.53404" lon="0.33077">
        <ele>115.2</ele>
        <time>2023-09-10T06:43:27Z</time>
      </trkpt>
      <trkpt lat="46.53402" lon="0.33075">
        <ele>116</ele>
        <time>2023-09-10T06:43:28Z</time>
      </trkpt>
      <trkpt lat="46.53401" lon="0.33073">
        <ele>116.4</ele>
        <time>2023-09-10T06:43:29Z</time>
      </trkpt>
      <trkpt lat="46.53398" lon="0.33065">
        <ele>117.2</ele>
        <time>2023-09-10T06:43:31Z</time>
      </trkpt>
      <trkpt lat="46.53396" lon="0.3306">
        <ele>117.4</ele>
        <time>2023-09-10T06:43:32Z</time>
      </trkpt>
      <trkpt lat="46.53391" lon="0.33044">
        <ele>118.4</ele>
        <time>2023-09-10T06:43:36Z</time>
      </trkpt>
      <trkpt lat="46.53387" lon="0.33039">
        <ele>119</ele>
        <time>2023-09-10T06:43:38Z</time>
      </trkpt>
      <trkpt lat="46.53385" lon="0.33033">
        <ele>119.2</ele>
        <time>2023-09-10T06:43:40Z</time>
      </trkpt>
      <trkpt lat="46.53385" lon="0.33031">
        <ele>119.4</ele>
        <time>2023-09-10T06:43:41Z</time>
      </trkpt>
      <trkpt lat="46.53383" lon="0.33024">
        <ele>120.2</ele>
        <time>2023-09-10T06:43:43Z</time>
      </trkpt>
      <trkpt lat="46.53382" lon="0.33017">
        <ele>120.6</ele>
        <time>2023-09-10T06:43:45Z</time>
      </trkpt>
      <trkpt lat="46.53379" lon="0.33004">
        <ele>121</ele>
        <time>2023-09-10T06:43:49Z</time>
      </trkpt>
      <trkpt lat="46.53379" lon="0.33002">
        <ele>121.2</ele>
        <time>2023-09-10T06:43:50Z</time>
      </trkpt>
      <trkpt lat="46.53374" lon="0.3299">
        <ele>121.6</ele>
        <time>2023-09-10T06:43:54Z</time>
      </trkpt>
      <trkpt lat="46.53369" lon="0.32987">
        <ele>121.8</ele>
        <time>2023-09-10T06:43:56Z</time>
      </trkpt>
      <trkpt lat="46.53358" lon="0.32982">
        <ele>122.2</ele>
        <time>2023-09-10T06:43:59Z</time>
      </trkpt>
      <trkpt lat="46.53343" lon="0.32989">
        <ele>122.4</ele>
        <time>2023-09-10T06:44:05Z</time>
      </trkpt>
      <trkpt lat="46.53337" lon="0.3299">
        <ele>122.2</ele>
        <time>2023-09-10T06:44:07Z</time>
      </trkpt>
      <trkpt lat="46.5333" lon="0.32991">
        <ele>122.2</ele>
        <time>2023-09-10T06:44:09Z</time>
      </trkpt>
      <trkpt lat="46.53326" lon="0.32991">
        <ele>122</ele>
        <time>2023-09-10T06:44:10Z</time>
      </trkpt>
      <trkpt lat="46.53323" lon="0.32991">
        <ele>121.8</ele>
        <time>2023-09-10T06:44:11Z</time>
      </trkpt>
      <trkpt lat="46.5331" lon="0.32992">
        <ele>121.8</ele>
        <time>2023-09-10T06:44:14Z</time>
      </trkpt>
      <trkpt lat="46.53305" lon="0.32992">
        <ele>121.8</ele>
        <time>2023-09-10T06:44:15Z</time>
      </trkpt>
      <trkpt lat="46.53301" lon="0.32992">
        <ele>121.8</ele>
        <time>2023-09-10T06:44:16Z</time>
      </trkpt>
      <trkpt lat="46.53285" lon="0.32993">
        <ele>121.6</ele>
        <time>2023-09-10T06:44:20Z</time>
      </trkpt>
      <trkpt lat="46.53277" lon="0.32993">
        <ele>121.6</ele>
        <time>2023-09-10T06:44:23Z</time>
      </trkpt>
      <trkpt lat="46.53273" lon="0.32994">
        <ele>121.8</ele>
        <time>2023-09-10T06:44:25Z</time>
      </trkpt>
      <trkpt lat="46.53269" lon="0.32993">
        <ele>122</ele>
        <time>2023-09-10T06:44:27Z</time>
      </trkpt>
      <trkpt lat="46.53261" lon="0.32992">
        <ele>122.4</ele>
        <time>2023-09-10T06:44:29Z</time>
      </trkpt>
      <trkpt lat="46.53256" lon="0.32991">
        <ele>122.4</ele>
        <time>2023-09-10T06:44:30Z</time>
      </trkpt>
      <trkpt lat="46.5323" lon="0.32994">
        <ele>122.6</ele>
        <time>2023-09-10T06:44:35Z</time>
      </trkpt>
      <trkpt lat="46.53215" lon="0.32996">
        <ele>122.6</ele>
        <time>2023-09-10T06:44:38Z</time>
      </trkpt>
      <trkpt lat="46.53209" lon="0.32993">
        <ele>122.6</ele>
        <time>2023-09-10T06:44:40Z</time>
      </trkpt>
      <trkpt lat="46.53206" lon="0.32989">
        <ele>122.6</ele>
        <time>2023-09-10T06:44:42Z</time>
      </trkpt>
      <trkpt lat="46.53203" lon="0.32981">
        <ele>122.2</ele>
        <time>2023-09-10T06:44:44Z</time>
      </trkpt>
      <trkpt lat="46.532" lon="0.32967">
        <ele>121.8</ele>
        <time>2023-09-10T06:44:47Z</time>
      </trkpt>
      <trkpt lat="46.53198" lon="0.32958">
        <ele>121.6</ele>
        <time>2023-09-10T06:44:49Z</time>
      </trkpt>
      <trkpt lat="46.53197" lon="0.32954">
        <ele>121.4</ele>
        <time>2023-09-10T06:44:50Z</time>
      </trkpt>
      <trkpt lat="46.53191" lon="0.32934">
        <ele>120.6</ele>
        <time>2023-09-10T06:44:55Z</time>
      </trkpt>
      <trkpt lat="46.5319" lon="0.3293">
        <ele>120.8</ele>
        <time>2023-09-10T06:44:56Z</time>
      </trkpt>
      <trkpt lat="46.53182" lon="0.32916">
        <ele>121.4</ele>
        <time>2023-09-10T06:44:59Z</time>
      </trkpt>
      <trkpt lat="46.53177" lon="0.32903">
        <ele>121.6</ele>
        <time>2023-09-10T06:45:01Z</time>
      </trkpt>
      <trkpt lat="46.53165" lon="0.32876">
        <ele>122</ele>
        <time>2023-09-10T06:45:05Z</time>
      </trkpt>
      <trkpt lat="46.53158" lon="0.32865">
        <ele>122.2</ele>
        <time>2023-09-10T06:45:07Z</time>
      </trkpt>
      <trkpt lat="46.53147" lon="0.32854">
        <ele>122.4</ele>
        <time>2023-09-10T06:45:09Z</time>
      </trkpt>
      <trkpt lat="46.53135" lon="0.32848">
        <ele>122.4</ele>
        <time>2023-09-10T06:45:11Z</time>
      </trkpt>
      <trkpt lat="46.5311" lon="0.32832">
        <ele>122.6</ele>
        <time>2023-09-10T06:45:14Z</time>
      </trkpt>
      <trkpt lat="46.53104" lon="0.3283">
        <ele>122.8</ele>
        <time>2023-09-10T06:45:15Z</time>
      </trkpt>
      <trkpt lat="46.531" lon="0.3283">
        <ele>123</ele>
        <time>2023-09-10T06:45:16Z</time>
      </trkpt>
      <trkpt lat="46.53094" lon="0.32828">
        <ele>123</ele>
        <time>2023-09-10T06:45:17Z</time>
      </trkpt>
      <trkpt lat="46.53064" lon="0.32821">
        <ele>123.2</ele>
        <time>2023-09-10T06:45:22Z</time>
      </trkpt>
      <trkpt lat="46.53027" lon="0.32817">
        <ele>123.4</ele>
        <time>2023-09-10T06:45:28Z</time>
      </trkpt>
      <trkpt lat="46.52998" lon="0.32819">
        <ele>123</ele>
        <time>2023-09-10T06:45:33Z</time>
      </trkpt>
      <trkpt lat="46.52994" lon="0.32821">
        <ele>123</ele>
        <time>2023-09-10T06:45:34Z</time>
      </trkpt>
      <trkpt lat="46.52977" lon="0.32826">
        <ele>123</ele>
        <time>2023-09-10T06:45:37Z</time>
      </trkpt>
      <trkpt lat="46.52966" lon="0.32829">
        <ele>122.8</ele>
        <time>2023-09-10T06:45:39Z</time>
      </trkpt>
      <trkpt lat="46.52955" lon="0.32832">
        <ele>122.6</ele>
        <time>2023-09-10T06:45:41Z</time>
      </trkpt>
      <trkpt lat="46.52934" lon="0.32839">
        <ele>121.8</ele>
        <time>2023-09-10T06:45:45Z</time>
      </trkpt>
      <trkpt lat="46.52903" lon="0.32847">
        <ele>121.2</ele>
        <time>2023-09-10T06:45:50Z</time>
      </trkpt>
      <trkpt lat="46.52877" lon="0.32858">
        <ele>120.8</ele>
        <time>2023-09-10T06:45:54Z</time>
      </trkpt>
      <trkpt lat="46.52873" lon="0.32859">
        <ele>120.6</ele>
        <time>2023-09-10T06:45:55Z</time>
      </trkpt>
      <trkpt lat="46.5287" lon="0.32858">
        <ele>120.2</ele>
        <time>2023-09-10T06:45:56Z</time>
      </trkpt>
      <trkpt lat="46.52867" lon="0.32857">
        <ele>119.8</ele>
        <time>2023-09-10T06:45:58Z</time>
      </trkpt>
      <trkpt lat="46.52866" lon="0.32858">
        <ele>119.6</ele>
        <time>2023-09-10T06:45:59Z</time>
      </trkpt>
      <trkpt lat="46.52864" lon="0.32859">
        <ele>119.6</ele>
        <time>2023-09-10T06:46:02Z</time>
      </trkpt>
      <trkpt lat="46.52863" lon="0.32858">
        <ele>119.6</ele>
        <time>2023-09-10T06:46:03Z</time>
      </trkpt>
      <trkpt lat="46.52862" lon="0.32854">
        <ele>120.4</ele>
        <time>2023-09-10T06:46:05Z</time>
      </trkpt>
      <trkpt lat="46.52861" lon="0.3285">
        <ele>120.6</ele>
        <time>2023-09-10T06:46:06Z</time>
      </trkpt>
      <trkpt lat="46.52856" lon="0.32842">
        <ele>120.6</ele>
        <time>2023-09-10T06:46:07Z</time>
      </trkpt>
      <trkpt lat="46.52848" lon="0.32826">
        <ele>121</ele>
        <time>2023-09-10T06:46:09Z</time>
      </trkpt>
      <trkpt lat="46.52843" lon="0.32794">
        <ele>121.6</ele>
        <time>2023-09-10T06:46:14Z</time>
      </trkpt>
      <trkpt lat="46.5284" lon="0.32785">
        <ele>121.6</ele>
        <time>2023-09-10T06:46:16Z</time>
      </trkpt>
      <trkpt lat="46.52836" lon="0.32781">
        <ele>121.6</ele>
        <time>2023-09-10T06:46:17Z</time>
      </trkpt>
      <trkpt lat="46.52835" lon="0.32779">
        <ele>121.6</ele>
        <time>2023-09-10T06:46:18Z</time>
      </trkpt>
      <trkpt lat="46.52829" lon="0.32776">
        <ele>121</ele>
        <time>2023-09-10T06:46:21Z</time>
      </trkpt>
      <trkpt lat="46.52822" lon="0.32771">
        <ele>120.8</ele>
        <time>2023-09-10T06:46:22Z</time>
      </trkpt>
      <trkpt lat="46.52817" lon="0.32768">
        <ele>120.6</ele>
        <time>2023-09-10T06:46:23Z</time>
      </trkpt>
      <trkpt lat="46.52803" lon="0.32756">
        <ele>120.6</ele>
        <time>2023-09-10T06:46:26Z</time>
      </trkpt>
      <trkpt lat="46.52791" lon="0.32749">
        <ele>120.4</ele>
        <time>2023-09-10T06:46:29Z</time>
      </trkpt>
      <trkpt lat="46.52784" lon="0.32742">
        <ele>120.2</ele>
        <time>2023-09-10T06:46:31Z</time>
      </trkpt>
      <trkpt lat="46.52772" lon="0.32723">
        <ele>119.4</ele>
        <time>2023-09-10T06:46:34Z</time>
      </trkpt>
      <trkpt lat="46.5277" lon="0.32717">
        <ele>119.2</ele>
        <time>2023-09-10T06:46:35Z</time>
      </trkpt>
      <trkpt lat="46.52764" lon="0.32698">
        <ele>119</ele>
        <time>2023-09-10T06:46:38Z</time>
      </trkpt>
      <trkpt lat="46.52761" lon="0.32691">
        <ele>118.8</ele>
        <time>2023-09-10T06:46:39Z</time>
      </trkpt>
      <trkpt lat="46.52755" lon="0.32675">
        <ele>118.4</ele>
        <time>2023-09-10T06:46:42Z</time>
      </trkpt>
      <trkpt lat="46.52752" lon="0.32666">
        <ele>118.4</ele>
        <time>2023-09-10T06:46:44Z</time>
      </trkpt>
      <trkpt lat="46.52748" lon="0.3264">
        <ele>118.4</ele>
        <time>2023-09-10T06:46:50Z</time>
      </trkpt>
      <trkpt lat="46.52742" lon="0.32613">
        <ele>118.4</ele>
        <time>2023-09-10T06:46:54Z</time>
      </trkpt>
      <trkpt lat="46.5274" lon="0.32599">
        <ele>118.4</ele>
        <time>2023-09-10T06:46:56Z</time>
      </trkpt>
      <trkpt lat="46.52734" lon="0.32581">
        <ele>118.8</ele>
        <time>2023-09-10T06:46:58Z</time>
      </trkpt>
      <trkpt lat="46.52733" lon="0.32574">
        <ele>119</ele>
        <time>2023-09-10T06:46:59Z</time>
      </trkpt>
      <trkpt lat="46.52731" lon="0.32543">
        <ele>119.8</ele>
        <time>2023-09-10T06:47:03Z</time>
      </trkpt>
      <trkpt lat="46.52728" lon="0.32527">
        <ele>120</ele>
        <time>2023-09-10T06:47:05Z</time>
      </trkpt>
      <trkpt lat="46.52727" lon="0.32491">
        <ele>121</ele>
        <time>2023-09-10T06:47:10Z</time>
      </trkpt>
      <trkpt lat="46.52726" lon="0.32485">
        <ele>121.2</ele>
        <time>2023-09-10T06:47:11Z</time>
      </trkpt>
      <trkpt lat="46.52725" lon="0.32472">
        <ele>121.6</ele>
        <time>2023-09-10T06:47:13Z</time>
      </trkpt>
      <trkpt lat="46.52729" lon="0.3245">
        <ele>121.8</ele>
        <time>2023-09-10T06:47:16Z</time>
      </trkpt>
      <trkpt lat="46.52729" lon="0.32437">
        <ele>122.2</ele>
        <time>2023-09-10T06:47:18Z</time>
      </trkpt>
      <trkpt lat="46.52727" lon="0.32428">
        <ele>122.4</ele>
        <time>2023-09-10T06:47:19Z</time>
      </trkpt>
      <trkpt lat="46.52725" lon="0.32413">
        <ele>122.6</ele>
        <time>2023-09-10T06:47:21Z</time>
      </trkpt>
      <trkpt lat="46.52726" lon="0.32406">
        <ele>122.8</ele>
        <time>2023-09-10T06:47:22Z</time>
      </trkpt>
      <trkpt lat="46.52725" lon="0.3236">
        <ele>123.2</ele>
        <time>2023-09-10T06:47:28Z</time>
      </trkpt>
      <trkpt lat="46.52728" lon="0.32353">
        <ele>123.4</ele>
        <time>2023-09-10T06:47:29Z</time>
      </trkpt>
      <trkpt lat="46.5273" lon="0.32329">
        <ele>123.4</ele>
        <time>2023-09-10T06:47:32Z</time>
      </trkpt>
      <trkpt lat="46.5273" lon="0.32322">
        <ele>123.4</ele>
        <time>2023-09-10T06:47:33Z</time>
      </trkpt>
      <trkpt lat="46.52731" lon="0.32314">
        <ele>123.4</ele>
        <time>2023-09-10T06:47:34Z</time>
      </trkpt>
      <trkpt lat="46.52729" lon="0.3229">
        <ele>123.2</ele>
        <time>2023-09-10T06:47:38Z</time>
      </trkpt>
      <trkpt lat="46.52728" lon="0.32277">
        <ele>123.2</ele>
        <time>2023-09-10T06:47:42Z</time>
      </trkpt>
      <trkpt lat="46.52718" lon="0.32273">
        <ele>123.6</ele>
        <time>2023-09-10T06:47:47Z</time>
      </trkpt>
      <trkpt lat="46.5271" lon="0.3227">
        <ele>123.4</ele>
        <time>2023-09-10T06:47:49Z</time>
      </trkpt>
      <trkpt lat="46.52702" lon="0.32268">
        <ele>123.4</ele>
        <time>2023-09-10T06:47:51Z</time>
      </trkpt>
      <trkpt lat="46.52698" lon="0.32266">
        <ele>123.4</ele>
        <time>2023-09-10T06:47:52Z</time>
      </trkpt>
      <trkpt lat="46.52687" lon="0.32262">
        <ele>123.6</ele>
        <time>2023-09-10T06:47:55Z</time>
      </trkpt>
      <trkpt lat="46.52678" lon="0.32261">
        <ele>123.6</ele>
        <time>2023-09-10T06:47:57Z</time>
      </trkpt>
      <trkpt lat="46.52673" lon="0.3226">
        <ele>123.6</ele>
        <time>2023-09-10T06:47:58Z</time>
      </trkpt>
      <trkpt lat="46.52642" lon="0.32258">
        <ele>123.4</ele>
        <time>2023-09-10T06:48:04Z</time>
      </trkpt>
      <trkpt lat="46.52618" lon="0.32258">
        <ele>123.6</ele>
        <time>2023-09-10T06:48:09Z</time>
      </trkpt>
      <trkpt lat="46.52613" lon="0.32258">
        <ele>123.6</ele>
        <time>2023-09-10T06:48:10Z</time>
      </trkpt>
      <trkpt lat="46.52607" lon="0.32256">
        <ele>123.6</ele>
        <time>2023-09-10T06:48:11Z</time>
      </trkpt>
      <trkpt lat="46.52583" lon="0.32258">
        <ele>123.2</ele>
        <time>2023-09-10T06:48:16Z</time>
      </trkpt>
      <trkpt lat="46.5258" lon="0.32259">
        <ele>123.2</ele>
        <time>2023-09-10T06:48:17Z</time>
      </trkpt>
      <trkpt lat="46.52576" lon="0.32256">
        <ele>123.2</ele>
        <time>2023-09-10T06:48:19Z</time>
      </trkpt>
      <trkpt lat="46.52574" lon="0.32255">
        <ele>123.2</ele>
        <time>2023-09-10T06:48:20Z</time>
      </trkpt>
      <trkpt lat="46.52573" lon="0.32252">
        <ele>123.2</ele>
        <time>2023-09-10T06:48:21Z</time>
      </trkpt>
      <trkpt lat="46.52568" lon="0.32238">
        <ele>123.6</ele>
        <time>2023-09-10T06:48:25Z</time>
      </trkpt>
      <trkpt lat="46.52564" lon="0.32232">
        <ele>123.8</ele>
        <time>2023-09-10T06:48:27Z</time>
      </trkpt>
      <trkpt lat="46.52556" lon="0.32226">
        <ele>123.8</ele>
        <time>2023-09-10T06:48:29Z</time>
      </trkpt>
      <trkpt lat="46.52553" lon="0.32223">
        <ele>124</ele>
        <time>2023-09-10T06:48:30Z</time>
      </trkpt>
      <trkpt lat="46.52545" lon="0.32217">
        <ele>124</ele>
        <time>2023-09-10T06:48:32Z</time>
      </trkpt>
      <trkpt lat="46.52538" lon="0.32212">
        <ele>124.2</ele>
        <time>2023-09-10T06:48:34Z</time>
      </trkpt>
      <trkpt lat="46.52536" lon="0.32207">
        <ele>124.4</ele>
        <time>2023-09-10T06:48:35Z</time>
      </trkpt>
      <trkpt lat="46.52537" lon="0.32198">
        <ele>124.6</ele>
        <time>2023-09-10T06:48:37Z</time>
      </trkpt>
      <trkpt lat="46.52538" lon="0.32193">
        <ele>124.6</ele>
        <time>2023-09-10T06:48:38Z</time>
      </trkpt>
      <trkpt lat="46.52541" lon="0.32182">
        <ele>124.6</ele>
        <time>2023-09-10T06:48:40Z</time>
      </trkpt>
      <trkpt lat="46.52543" lon="0.32176">
        <ele>124.6</ele>
        <time>2023-09-10T06:48:41Z</time>
      </trkpt>
      <trkpt lat="46.52545" lon="0.32163">
        <ele>124.6</ele>
        <time>2023-09-10T06:48:43Z</time>
      </trkpt>
      <trkpt lat="46.52542" lon="0.32147">
        <ele>124.6</ele>
        <time>2023-09-10T06:48:45Z</time>
      </trkpt>
      <trkpt lat="46.52541" lon="0.32137">
        <ele>124.6</ele>
        <time>2023-09-10T06:48:47Z</time>
      </trkpt>
      <trkpt lat="46.5254" lon="0.32131">
        <ele>124.6</ele>
        <time>2023-09-10T06:48:49Z</time>
      </trkpt>
      <trkpt lat="46.5254" lon="0.32124">
        <ele>124.6</ele>
        <time>2023-09-10T06:48:52Z</time>
      </trkpt>
      <trkpt lat="46.52541" lon="0.32116">
        <ele>124.6</ele>
        <time>2023-09-10T06:48:54Z</time>
      </trkpt>
      <trkpt lat="46.52548" lon="0.32105">
        <ele>124.6</ele>
        <time>2023-09-10T06:48:57Z</time>
      </trkpt>
      <trkpt lat="46.52552" lon="0.32105">
        <ele>124.4</ele>
        <time>2023-09-10T06:48:58Z</time>
      </trkpt>
      <trkpt lat="46.5258" lon="0.32107">
        <ele>124.4</ele>
        <time>2023-09-10T06:49:04Z</time>
      </trkpt>
      <trkpt lat="46.52599" lon="0.32109">
        <ele>124.2</ele>
        <time>2023-09-10T06:49:08Z</time>
      </trkpt>
      <trkpt lat="46.52601" lon="0.32107">
        <ele>124</ele>
        <time>2023-09-10T06:49:09Z</time>
      </trkpt>
      <trkpt lat="46.52603" lon="0.3209">
        <ele>123.6</ele>
        <time>2023-09-10T06:49:13Z</time>
      </trkpt>
      <trkpt lat="46.52604" lon="0.32072">
        <ele>123.2</ele>
        <time>2023-09-10T06:49:16Z</time>
      </trkpt>
      <trkpt lat="46.52603" lon="0.32065">
        <ele>123</ele>
        <time>2023-09-10T06:49:17Z</time>
      </trkpt>
      <trkpt lat="46.52603" lon="0.32058">
        <ele>123</ele>
        <time>2023-09-10T06:49:18Z</time>
      </trkpt>
      <trkpt lat="46.52602" lon="0.3205">
        <ele>122.8</ele>
        <time>2023-09-10T06:49:19Z</time>
      </trkpt>
      <trkpt lat="46.52603" lon="0.32036">
        <ele>122.8</ele>
        <time>2023-09-10T06:49:21Z</time>
      </trkpt>
      <trkpt lat="46.52605" lon="0.32023">
        <ele>122.6</ele>
        <time>2023-09-10T06:49:23Z</time>
      </trkpt>
      <trkpt lat="46.52605" lon="0.32009">
        <ele>122.2</ele>
        <time>2023-09-10T06:49:25Z</time>
      </trkpt>
      <trkpt lat="46.52608" lon="0.32002">
        <ele>121.6</ele>
        <time>2023-09-10T06:49:26Z</time>
      </trkpt>
      <trkpt lat="46.52612" lon="0.31997">
        <ele>121</ele>
        <time>2023-09-10T06:49:27Z</time>
      </trkpt>
      <trkpt lat="46.52616" lon="0.31991">
        <ele>120.4</ele>
        <time>2023-09-10T06:49:28Z</time>
      </trkpt>
      <trkpt lat="46.52619" lon="0.31984">
        <ele>120.2</ele>
        <time>2023-09-10T06:49:29Z</time>
      </trkpt>
      <trkpt lat="46.52626" lon="0.31971">
        <ele>119.8</ele>
        <time>2023-09-10T06:49:31Z</time>
      </trkpt>
      <trkpt lat="46.52633" lon="0.31959">
        <ele>119</ele>
        <time>2023-09-10T06:49:33Z</time>
      </trkpt>
      <trkpt lat="46.52639" lon="0.3195">
        <ele>118.6</ele>
        <time>2023-09-10T06:49:35Z</time>
      </trkpt>
      <trkpt lat="46.52639" lon="0.31945">
        <ele>118</ele>
        <time>2023-09-10T06:49:37Z</time>
      </trkpt>
      <trkpt lat="46.52638" lon="0.31936">
        <ele>117.6</ele>
        <time>2023-09-10T06:49:39Z</time>
      </trkpt>
      <trkpt lat="46.52637" lon="0.31931">
        <ele>117.4</ele>
        <time>2023-09-10T06:49:40Z</time>
      </trkpt>
      <trkpt lat="46.52636" lon="0.3191">
        <ele>117</ele>
        <time>2023-09-10T06:49:45Z</time>
      </trkpt>
      <trkpt lat="46.52629" lon="0.31886">
        <ele>116.4</ele>
        <time>2023-09-10T06:49:50Z</time>
      </trkpt>
      <trkpt lat="46.52626" lon="0.3188">
        <ele>115.6</ele>
        <time>2023-09-10T06:49:51Z</time>
      </trkpt>
      <trkpt lat="46.52626" lon="0.31876">
        <ele>115</ele>
        <time>2023-09-10T06:49:52Z</time>
      </trkpt>
      <trkpt lat="46.5262" lon="0.31865">
        <ele>114.4</ele>
        <time>2023-09-10T06:49:53Z</time>
      </trkpt>
      <trkpt lat="46.52616" lon="0.3185">
        <ele>114.2</ele>
        <time>2023-09-10T06:49:55Z</time>
      </trkpt>
      <trkpt lat="46.52613" lon="0.3183">
        <ele>115.8</ele>
        <time>2023-09-10T06:50:00Z</time>
      </trkpt>
      <trkpt lat="46.52613" lon="0.31828">
        <ele>116.2</ele>
        <time>2023-09-10T06:50:01Z</time>
      </trkpt>
      <trkpt lat="46.52608" lon="0.31817">
        <ele>116.8</ele>
        <time>2023-09-10T06:50:03Z</time>
      </trkpt>
      <trkpt lat="46.52599" lon="0.31802">
        <ele>116.8</ele>
        <time>2023-09-10T06:50:05Z</time>
      </trkpt>
      <trkpt lat="46.52589" lon="0.31785">
        <ele>117</ele>
        <time>2023-09-10T06:50:07Z</time>
      </trkpt>
      <trkpt lat="46.52577" lon="0.31767">
        <ele>117.2</ele>
        <time>2023-09-10T06:50:10Z</time>
      </trkpt>
      <trkpt lat="46.52568" lon="0.31755">
        <ele>117.4</ele>
        <time>2023-09-10T06:50:12Z</time>
      </trkpt>
      <trkpt lat="46.52554" lon="0.31729">
        <ele>117.6</ele>
        <time>2023-09-10T06:50:14Z</time>
      </trkpt>
      <trkpt lat="46.52549" lon="0.31701">
        <ele>117</ele>
        <time>2023-09-10T06:50:18Z</time>
      </trkpt>
      <trkpt lat="46.5254" lon="0.31676">
        <ele>115.8</ele>
        <time>2023-09-10T06:50:21Z</time>
      </trkpt>
      <trkpt lat="46.52538" lon="0.3167">
        <ele>115</ele>
        <time>2023-09-10T06:50:22Z</time>
      </trkpt>
      <trkpt lat="46.52537" lon="0.31664">
        <ele>113.8</ele>
        <time>2023-09-10T06:50:23Z</time>
      </trkpt>
      <trkpt lat="46.52529" lon="0.31647">
        <ele>112.6</ele>
        <time>2023-09-10T06:50:25Z</time>
      </trkpt>
      <trkpt lat="46.52525" lon="0.31631">
        <ele>111.2</ele>
        <time>2023-09-10T06:50:28Z</time>
      </trkpt>
      <trkpt lat="46.52522" lon="0.31618">
        <ele>110.2</ele>
        <time>2023-09-10T06:50:30Z</time>
      </trkpt>
      <trkpt lat="46.52521" lon="0.31614">
        <ele>110</ele>
        <time>2023-09-10T06:50:31Z</time>
      </trkpt>
      <trkpt lat="46.52522" lon="0.3161">
        <ele>109.8</ele>
        <time>2023-09-10T06:50:32Z</time>
      </trkpt>
      <trkpt lat="46.52514" lon="0.31595">
        <ele>109.8</ele>
        <time>2023-09-10T06:50:35Z</time>
      </trkpt>
      <trkpt lat="46.52512" lon="0.31591">
        <ele>109.8</ele>
        <time>2023-09-10T06:50:36Z</time>
      </trkpt>
      <trkpt lat="46.52504" lon="0.3157">
        <ele>109.8</ele>
        <time>2023-09-10T06:50:40Z</time>
      </trkpt>
      <trkpt lat="46.52503" lon="0.31564">
        <ele>109.8</ele>
        <time>2023-09-10T06:50:41Z</time>
      </trkpt>
      <trkpt lat="46.52496" lon="0.31532">
        <ele>109.8</ele>
        <time>2023-09-10T06:50:47Z</time>
      </trkpt>
      <trkpt lat="46.52493" lon="0.31515">
        <ele>110.6</ele>
        <time>2023-09-10T06:50:52Z</time>
      </trkpt>
      <trkpt lat="46.52488" lon="0.31503">
        <ele>111</ele>
        <time>2023-09-10T06:50:54Z</time>
      </trkpt>
      <trkpt lat="46.52482" lon="0.31489">
        <ele>111.2</ele>
        <time>2023-09-10T06:50:57Z</time>
      </trkpt>
      <trkpt lat="46.52479" lon="0.31475">
        <ele>112.2</ele>
        <time>2023-09-10T06:51:00Z</time>
      </trkpt>
      <trkpt lat="46.52478" lon="0.31468">
        <ele>112.4</ele>
        <time>2023-09-10T06:51:01Z</time>
      </trkpt>
      <trkpt lat="46.52472" lon="0.3145">
        <ele>112.8</ele>
        <time>2023-09-10T06:51:04Z</time>
      </trkpt>
      <trkpt lat="46.5247" lon="0.31443">
        <ele>112.8</ele>
        <time>2023-09-10T06:51:05Z</time>
      </trkpt>
      <trkpt lat="46.52464" lon="0.31427">
        <ele>113</ele>
        <time>2023-09-10T06:51:07Z</time>
      </trkpt>
      <trkpt lat="46.52465" lon="0.31416">
        <ele>113</ele>
        <time>2023-09-10T06:51:09Z</time>
      </trkpt>
      <trkpt lat="46.52463" lon="0.31406">
        <ele>113.2</ele>
        <time>2023-09-10T06:51:11Z</time>
      </trkpt>
      <trkpt lat="46.52463" lon="0.31402">
        <ele>113.4</ele>
        <time>2023-09-10T06:51:12Z</time>
      </trkpt>
      <trkpt lat="46.52454" lon="0.31382">
        <ele>114.6</ele>
        <time>2023-09-10T06:51:15Z</time>
      </trkpt>
      <trkpt lat="46.52449" lon="0.31368">
        <ele>115.2</ele>
        <time>2023-09-10T06:51:17Z</time>
      </trkpt>
      <trkpt lat="46.52446" lon="0.31353">
        <ele>115.6</ele>
        <time>2023-09-10T06:51:19Z</time>
      </trkpt>
      <trkpt lat="46.5245" lon="0.31347">
        <ele>115.8</ele>
        <time>2023-09-10T06:51:21Z</time>
      </trkpt>
      <trkpt lat="46.52452" lon="0.31345">
        <ele>116.2</ele>
        <time>2023-09-10T06:51:22Z</time>
      </trkpt>
      <trkpt lat="46.5245" lon="0.31336">
        <ele>117</ele>
        <time>2023-09-10T06:51:24Z</time>
      </trkpt>
      <trkpt lat="46.52458" lon="0.31332">
        <ele>118</ele>
        <time>2023-09-10T06:51:27Z</time>
      </trkpt>
      <trkpt lat="46.52467" lon="0.31331">
        <ele>119.4</ele>
        <time>2023-09-10T06:51:31Z</time>
      </trkpt>
      <trkpt lat="46.52471" lon="0.31332">
        <ele>119.8</ele>
        <time>2023-09-10T06:51:33Z</time>
      </trkpt>
      <trkpt lat="46.52484" lon="0.31339">
        <ele>120.4</ele>
        <time>2023-09-10T06:51:39Z</time>
      </trkpt>
      <trkpt lat="46.52507" lon="0.31354">
        <ele>121.4</ele>
        <time>2023-09-10T06:51:45Z</time>
      </trkpt>
      <trkpt lat="46.52511" lon="0.31356">
        <ele>121.6</ele>
        <time>2023-09-10T06:51:46Z</time>
      </trkpt>
      <trkpt lat="46.5252" lon="0.31362">
        <ele>122.2</ele>
        <time>2023-09-10T06:51:48Z</time>
      </trkpt>
      <trkpt lat="46.52529" lon="0.31368">
        <ele>122.4</ele>
        <time>2023-09-10T06:51:50Z</time>
      </trkpt>
      <trkpt lat="46.52547" lon="0.31381">
        <ele>122.4</ele>
        <time>2023-09-10T06:51:54Z</time>
      </trkpt>
      <trkpt lat="46.52559" lon="0.31387">
        <ele>122.6</ele>
        <time>2023-09-10T06:51:56Z</time>
      </trkpt>
      <trkpt lat="46.52565" lon="0.3139">
        <ele>122.6</ele>
        <time>2023-09-10T06:51:57Z</time>
      </trkpt>
      <trkpt lat="46.52585" lon="0.314">
        <ele>122.8</ele>
        <time>2023-09-10T06:52:01Z</time>
      </trkpt>
      <trkpt lat="46.52594" lon="0.31403">
        <ele>123</ele>
        <time>2023-09-10T06:52:03Z</time>
      </trkpt>
      <trkpt lat="46.52619" lon="0.31411">
        <ele>123.4</ele>
        <time>2023-09-10T06:52:09Z</time>
      </trkpt>
      <trkpt lat="46.52625" lon="0.31412">
        <ele>123.6</ele>
        <time>2023-09-10T06:52:10Z</time>
      </trkpt>
      <trkpt lat="46.52634" lon="0.31414">
        <ele>123.6</ele>
        <time>2023-09-10T06:52:12Z</time>
      </trkpt>
      <trkpt lat="46.52645" lon="0.31417">
        <ele>123.6</ele>
        <time>2023-09-10T06:52:14Z</time>
      </trkpt>
      <trkpt lat="46.52675" lon="0.3142">
        <ele>124.2</ele>
        <time>2023-09-10T06:52:20Z</time>
      </trkpt>
      <trkpt lat="46.5268" lon="0.31421">
        <ele>124.2</ele>
        <time>2023-09-10T06:52:21Z</time>
      </trkpt>
      <trkpt lat="46.52695" lon="0.31429">
        <ele>124.2</ele>
        <time>2023-09-10T06:52:24Z</time>
      </trkpt>
      <trkpt lat="46.52699" lon="0.3143">
        <ele>124</ele>
        <time>2023-09-10T06:52:25Z</time>
      </trkpt>
      <trkpt lat="46.52704" lon="0.31429">
        <ele>124</ele>
        <time>2023-09-10T06:52:26Z</time>
      </trkpt>
      <trkpt lat="46.52713" lon="0.31421">
        <ele>124.2</ele>
        <time>2023-09-10T06:52:29Z</time>
      </trkpt>
      <trkpt lat="46.52726" lon="0.31411">
        <ele>124</ele>
        <time>2023-09-10T06:52:32Z</time>
      </trkpt>
      <trkpt lat="46.52738" lon="0.31408">
        <ele>124.2</ele>
        <time>2023-09-10T06:52:34Z</time>
      </trkpt>
      <trkpt lat="46.52759" lon="0.31402">
        <ele>124.4</ele>
        <time>2023-09-10T06:52:38Z</time>
      </trkpt>
      <trkpt lat="46.52774" lon="0.31398">
        <ele>124.2</ele>
        <time>2023-09-10T06:52:41Z</time>
      </trkpt>
      <trkpt lat="46.52788" lon="0.31384">
        <ele>124</ele>
        <time>2023-09-10T06:52:46Z</time>
      </trkpt>
      <trkpt lat="46.52788" lon="0.31374">
        <ele>124.2</ele>
        <time>2023-09-10T06:52:48Z</time>
      </trkpt>
      <trkpt lat="46.52789" lon="0.31371">
        <ele>124</ele>
        <time>2023-09-10T06:52:49Z</time>
      </trkpt>
      <trkpt lat="46.52785" lon="0.31335">
        <ele>123.6</ele>
        <time>2023-09-10T06:52:54Z</time>
      </trkpt>
      <trkpt lat="46.52782" lon="0.31293">
        <ele>122.8</ele>
        <time>2023-09-10T06:52:59Z</time>
      </trkpt>
      <trkpt lat="46.52781" lon="0.31281">
        <ele>122.4</ele>
        <time>2023-09-10T06:53:01Z</time>
      </trkpt>
      <trkpt lat="46.5278" lon="0.31276">
        <ele>122</ele>
        <time>2023-09-10T06:53:02Z</time>
      </trkpt>
      <trkpt lat="46.52781" lon="0.31273">
        <ele>121.8</ele>
        <time>2023-09-10T06:53:03Z</time>
      </trkpt>
      <trkpt lat="46.52786" lon="0.31266">
        <ele>121.2</ele>
        <time>2023-09-10T06:53:05Z</time>
      </trkpt>
      <trkpt lat="46.5279" lon="0.31258">
        <ele>120.8</ele>
        <time>2023-09-10T06:53:07Z</time>
      </trkpt>
      <trkpt lat="46.52793" lon="0.31255">
        <ele>120.2</ele>
        <time>2023-09-10T06:53:08Z</time>
      </trkpt>
      <trkpt lat="46.52797" lon="0.31251">
        <ele>119.8</ele>
        <time>2023-09-10T06:53:09Z</time>
      </trkpt>
      <trkpt lat="46.52798" lon="0.31248">
        <ele>118.6</ele>
        <time>2023-09-10T06:53:10Z</time>
      </trkpt>
      <trkpt lat="46.52799" lon="0.31245">
        <ele>117.8</ele>
        <time>2023-09-10T06:53:11Z</time>
      </trkpt>
      <trkpt lat="46.52799" lon="0.31242">
        <ele>116.6</ele>
        <time>2023-09-10T06:53:12Z</time>
      </trkpt>
      <trkpt lat="46.528" lon="0.3124">
        <ele>115.6</ele>
        <time>2023-09-10T06:53:13Z</time>
      </trkpt>
      <trkpt lat="46.52802" lon="0.31235">
        <ele>114.6</ele>
        <time>2023-09-10T06:53:15Z</time>
      </trkpt>
      <trkpt lat="46.52806" lon="0.31228">
        <ele>113.6</ele>
        <time>2023-09-10T06:53:19Z</time>
      </trkpt>
      <trkpt lat="46.52808" lon="0.31224">
        <ele>112.2</ele>
        <time>2023-09-10T06:53:21Z</time>
      </trkpt>
      <trkpt lat="46.52809" lon="0.3122">
        <ele>110.6</ele>
        <time>2023-09-10T06:53:23Z</time>
      </trkpt>
      <trkpt lat="46.52809" lon="0.31217">
        <ele>108.8</ele>
        <time>2023-09-10T06:53:25Z</time>
      </trkpt>
      <trkpt lat="46.5281" lon="0.31216">
        <ele>108.4</ele>
        <time>2023-09-10T06:53:26Z</time>
      </trkpt>
      <trkpt lat="46.5281" lon="0.31214">
        <ele>107.8</ele>
        <time>2023-09-10T06:53:28Z</time>
      </trkpt>
      <trkpt lat="46.5281" lon="0.31214">
        <ele>107.6</ele>
        <time>2023-09-10T06:53:29Z</time>
      </trkpt>
      <trkpt lat="46.52821" lon="0.3121">
        <ele>107.4</ele>
        <time>2023-09-10T06:53:37Z</time>
      </trkpt>
      <trkpt lat="46.52829" lon="0.31207">
        <ele>107.4</ele>
        <time>2023-09-10T06:53:46Z</time>
      </trkpt>
      <trkpt lat="46.52831" lon="0.312">
        <ele>107.4</ele>
        <time>2023-09-10T06:53:54Z</time>
      </trkpt>
      <trkpt lat="46.52832" lon="0.3119">
        <ele>107.4</ele>
        <time>2023-09-10T06:54:06Z</time>
      </trkpt>
      <trkpt lat="46.52833" lon="0.31187">
        <ele>107.4</ele>
        <time>2023-09-10T06:54:09Z</time>
      </trkpt>
      <trkpt lat="46.52833" lon="0.31181">
        <ele>97.2</ele>
        <time>2023-09-10T06:54:11Z</time>
      </trkpt>
      <trkpt lat="46.52833" lon="0.31178">
        <ele>97.2</ele>
        <time>2023-09-10T06:54:12Z</time>
      </trkpt>
      <trkpt lat="46.52833" lon="0.31173">
        <ele>96.2</ele>
        <time>2023-09-10T06:54:14Z</time>
      </trkpt>
      <trkpt lat="46.52834" lon="0.31171">
        <ele>95.6</ele>
        <time>2023-09-10T06:54:15Z</time>
      </trkpt>
      <trkpt lat="46.52835" lon="0.3117">
        <ele>94.6</ele>
        <time>2023-09-10T06:54:16Z</time>
      </trkpt>
      <trkpt lat="46.52837" lon="0.31169">
        <ele>94</ele>
        <time>2023-09-10T06:54:17Z</time>
      </trkpt>
      <trkpt lat="46.52839" lon="0.31168">
        <ele>93.2</ele>
        <time>2023-09-10T06:54:18Z</time>
      </trkpt>
      <trkpt lat="46.52845" lon="0.31166">
        <ele>91.2</ele>
        <time>2023-09-10T06:54:20Z</time>
      </trkpt>
      <trkpt lat="46.52852" lon="0.31167">
        <ele>89.4</ele>
        <time>2023-09-10T06:54:22Z</time>
      </trkpt>
      <trkpt lat="46.52855" lon="0.31169">
        <ele>88.4</ele>
        <time>2023-09-10T06:54:23Z</time>
      </trkpt>
      <trkpt lat="46.52863" lon="0.31177">
        <ele>86.8</ele>
        <time>2023-09-10T06:54:25Z</time>
      </trkpt>
      <trkpt lat="46.52867" lon="0.31181">
        <ele>86.4</ele>
        <time>2023-09-10T06:54:26Z</time>
      </trkpt>
      <trkpt lat="46.52867" lon="0.31181">
        <ele>85.6</ele>
        <time>2023-09-10T06:54:27Z</time>
      </trkpt>
      <trkpt lat="46.52883" lon="0.31202">
        <ele>85</ele>
        <time>2023-09-10T06:54:32Z</time>
      </trkpt>
      <trkpt lat="46.52883" lon="0.31205">
        <ele>84.8</ele>
        <time>2023-09-10T06:54:33Z</time>
      </trkpt>
      <trkpt lat="46.52887" lon="0.31214">
        <ele>85.4</ele>
        <time>2023-09-10T06:54:39Z</time>
      </trkpt>
      <trkpt lat="46.52889" lon="0.31218">
        <ele>86.6</ele>
        <time>2023-09-10T06:54:41Z</time>
      </trkpt>
      <trkpt lat="46.52891" lon="0.31222">
        <ele>88.2</ele>
        <time>2023-09-10T06:54:43Z</time>
      </trkpt>
      <trkpt lat="46.52894" lon="0.31229">
        <ele>89.4</ele>
        <time>2023-09-10T06:54:46Z</time>
      </trkpt>
      <trkpt lat="46.52897" lon="0.31234">
        <ele>90.6</ele>
        <time>2023-09-10T06:54:49Z</time>
      </trkpt>
      <trkpt lat="46.529" lon="0.31243">
        <ele>91.6</ele>
        <time>2023-09-10T06:54:52Z</time>
      </trkpt>
      <trkpt lat="46.52902" lon="0.31247">
        <ele>92.2</ele>
        <time>2023-09-10T06:54:54Z</time>
      </trkpt>
      <trkpt lat="46.52905" lon="0.31254">
        <ele>93</ele>
        <time>2023-09-10T06:54:57Z</time>
      </trkpt>
      <trkpt lat="46.52906" lon="0.31256">
        <ele>93.2</ele>
        <time>2023-09-10T06:54:58Z</time>
      </trkpt>
      <trkpt lat="46.52907" lon="0.31258">
        <ele>93.6</ele>
        <time>2023-09-10T06:54:59Z</time>
      </trkpt>
      <trkpt lat="46.52907" lon="0.31259">
        <ele>93.8</ele>
        <time>2023-09-10T06:55:00Z</time>
      </trkpt>
      <trkpt lat="46.52909" lon="0.31262">
        <ele>94.2</ele>
        <time>2023-09-10T06:55:01Z</time>
      </trkpt>
      <trkpt lat="46.52911" lon="0.31267">
        <ele>95.2</ele>
        <time>2023-09-10T06:55:04Z</time>
      </trkpt>
      <trkpt lat="46.52912" lon="0.31272">
        <ele>96</ele>
        <time>2023-09-10T06:55:07Z</time>
      </trkpt>
      <trkpt lat="46.52912" lon="0.31273">
        <ele>96.2</ele>
        <time>2023-09-10T06:55:08Z</time>
      </trkpt>
      <trkpt lat="46.52914" lon="0.31278">
        <ele>97</ele>
        <time>2023-09-10T06:55:12Z</time>
      </trkpt>
      <trkpt lat="46.52915" lon="0.3128">
        <ele>97.4</ele>
        <time>2023-09-10T06:55:13Z</time>
      </trkpt>
      <trkpt lat="46.52915" lon="0.31282">
        <ele>97.6</ele>
        <time>2023-09-10T06:55:14Z</time>
      </trkpt>
      <trkpt lat="46.52916" lon="0.31284">
        <ele>97.8</ele>
        <time>2023-09-10T06:55:15Z</time>
      </trkpt>
      <trkpt lat="46.52916" lon="0.31288">
        <ele>98.6</ele>
        <time>2023-09-10T06:55:17Z</time>
      </trkpt>
      <trkpt lat="46.52917" lon="0.31291">
        <ele>98.8</ele>
        <time>2023-09-10T06:55:19Z</time>
      </trkpt>
      <trkpt lat="46.52918" lon="0.31294">
        <ele>99.4</ele>
        <time>2023-09-10T06:55:21Z</time>
      </trkpt>
      <trkpt lat="46.52919" lon="0.31296">
        <ele>99.6</ele>
        <time>2023-09-10T06:55:22Z</time>
      </trkpt>
      <trkpt lat="46.52919" lon="0.31299">
        <ele>100</ele>
        <time>2023-09-10T06:55:24Z</time>
      </trkpt>
      <trkpt lat="46.5292" lon="0.31302">
        <ele>100.6</ele>
        <time>2023-09-10T06:55:26Z</time>
      </trkpt>
      <trkpt lat="46.52921" lon="0.31303">
        <ele>101</ele>
        <time>2023-09-10T06:55:27Z</time>
      </trkpt>
      <trkpt lat="46.52921" lon="0.31306">
        <ele>101.8</ele>
        <time>2023-09-10T06:55:29Z</time>
      </trkpt>
      <trkpt lat="46.52924" lon="0.31317">
        <ele>103</ele>
        <time>2023-09-10T06:55:35Z</time>
      </trkpt>
      <trkpt lat="46.52925" lon="0.31321">
        <ele>103.8</ele>
        <time>2023-09-10T06:55:38Z</time>
      </trkpt>
      <trkpt lat="46.52926" lon="0.31325">
        <ele>104</ele>
        <time>2023-09-10T06:55:40Z</time>
      </trkpt>
      <trkpt lat="46.52932" lon="0.31348">
        <ele>105.2</ele>
        <time>2023-09-10T06:55:48Z</time>
      </trkpt>
      <trkpt lat="46.52937" lon="0.31368">
        <ele>106</ele>
        <time>2023-09-10T06:55:54Z</time>
      </trkpt>
      <trkpt lat="46.52938" lon="0.31371">
        <ele>106.2</ele>
        <time>2023-09-10T06:55:55Z</time>
      </trkpt>
      <trkpt lat="46.52937" lon="0.31378">
        <ele>107.6</ele>
        <time>2023-09-10T06:55:59Z</time>
      </trkpt>
      <trkpt lat="46.52937" lon="0.31385">
        <ele>108.4</ele>
        <time>2023-09-10T06:56:02Z</time>
      </trkpt>
      <trkpt lat="46.52937" lon="0.31387">
        <ele>108.6</ele>
        <time>2023-09-10T06:56:03Z</time>
      </trkpt>
      <trkpt lat="46.52937" lon="0.31392">
        <ele>109.2</ele>
        <time>2023-09-10T06:56:05Z</time>
      </trkpt>
      <trkpt lat="46.52939" lon="0.31399">
        <ele>109.8</ele>
        <time>2023-09-10T06:56:07Z</time>
      </trkpt>
      <trkpt lat="46.52939" lon="0.31402">
        <ele>109.8</ele>
        <time>2023-09-10T06:56:08Z</time>
      </trkpt>
      <trkpt lat="46.52943" lon="0.31419">
        <ele>110.6</ele>
        <time>2023-09-10T06:56:14Z</time>
      </trkpt>
      <trkpt lat="46.52943" lon="0.31423">
        <ele>110.6</ele>
        <time>2023-09-10T06:56:15Z</time>
      </trkpt>
      <trkpt lat="46.52947" lon="0.31429">
        <ele>110.8</ele>
        <time>2023-09-10T06:56:17Z</time>
      </trkpt>
      <trkpt lat="46.52949" lon="0.31435">
        <ele>110.8</ele>
        <time>2023-09-10T06:56:19Z</time>
      </trkpt>
      <trkpt lat="46.52957" lon="0.31462">
        <ele>110.8</ele>
        <time>2023-09-10T06:56:25Z</time>
      </trkpt>
      <trkpt lat="46.52964" lon="0.3149">
        <ele>110.2</ele>
        <time>2023-09-10T06:56:31Z</time>
      </trkpt>
      <trkpt lat="46.52971" lon="0.31514">
        <ele>110.4</ele>
        <time>2023-09-10T06:56:36Z</time>
      </trkpt>
      <trkpt lat="46.52974" lon="0.31521">
        <ele>110.4</ele>
        <time>2023-09-10T06:56:38Z</time>
      </trkpt>
      <trkpt lat="46.52975" lon="0.31534">
        <ele>110.6</ele>
        <time>2023-09-10T06:56:41Z</time>
      </trkpt>
      <trkpt lat="46.52982" lon="0.31561">
        <ele>110.8</ele>
        <time>2023-09-10T06:56:46Z</time>
      </trkpt>
      <trkpt lat="46.52987" lon="0.31586">
        <ele>110.2</ele>
        <time>2023-09-10T06:56:51Z</time>
      </trkpt>
      <trkpt lat="46.52991" lon="0.316">
        <ele>108.8</ele>
        <time>2023-09-10T06:56:54Z</time>
      </trkpt>
      <trkpt lat="46.52993" lon="0.31612">
        <ele>107.8</ele>
        <time>2023-09-10T06:56:56Z</time>
      </trkpt>
      <trkpt lat="46.52995" lon="0.31618">
        <ele>107.6</ele>
        <time>2023-09-10T06:56:57Z</time>
      </trkpt>
      <trkpt lat="46.52997" lon="0.31621">
        <ele>107.4</ele>
        <time>2023-09-10T06:56:58Z</time>
      </trkpt>
      <trkpt lat="46.53" lon="0.31622">
        <ele>106.4</ele>
        <time>2023-09-10T06:57:00Z</time>
      </trkpt>
      <trkpt lat="46.53003" lon="0.31626">
        <ele>104.8</ele>
        <time>2023-09-10T06:57:02Z</time>
      </trkpt>
      <trkpt lat="46.53007" lon="0.31634">
        <ele>103.6</ele>
        <time>2023-09-10T06:57:04Z</time>
      </trkpt>
      <trkpt lat="46.5301" lon="0.31644">
        <ele>102.4</ele>
        <time>2023-09-10T06:57:07Z</time>
      </trkpt>
      <trkpt lat="46.53011" lon="0.31652">
        <ele>101</ele>
        <time>2023-09-10T06:57:09Z</time>
      </trkpt>
      <trkpt lat="46.53015" lon="0.31661">
        <ele>99.6</ele>
        <time>2023-09-10T06:57:11Z</time>
      </trkpt>
      <trkpt lat="46.53016" lon="0.31666">
        <ele>99.2</ele>
        <time>2023-09-10T06:57:12Z</time>
      </trkpt>
      <trkpt lat="46.53017" lon="0.3167">
        <ele>97.8</ele>
        <time>2023-09-10T06:57:13Z</time>
      </trkpt>
      <trkpt lat="46.53018" lon="0.31676">
        <ele>96.4</ele>
        <time>2023-09-10T06:57:14Z</time>
      </trkpt>
      <trkpt lat="46.53018" lon="0.31681">
        <ele>95.6</ele>
        <time>2023-09-10T06:57:15Z</time>
      </trkpt>
      <trkpt lat="46.53019" lon="0.31685">
        <ele>94.8</ele>
        <time>2023-09-10T06:57:16Z</time>
      </trkpt>
      <trkpt lat="46.5302" lon="0.31691">
        <ele>94.4</ele>
        <time>2023-09-10T06:57:17Z</time>
      </trkpt>
      <trkpt lat="46.53022" lon="0.31697">
        <ele>94.2</ele>
        <time>2023-09-10T06:57:18Z</time>
      </trkpt>
      <trkpt lat="46.53024" lon="0.31702">
        <ele>94</ele>
        <time>2023-09-10T06:57:19Z</time>
      </trkpt>
      <trkpt lat="46.53026" lon="0.31707">
        <ele>93.6</ele>
        <time>2023-09-10T06:57:20Z</time>
      </trkpt>
      <trkpt lat="46.53029" lon="0.31712">
        <ele>93.4</ele>
        <time>2023-09-10T06:57:21Z</time>
      </trkpt>
      <trkpt lat="46.53029" lon="0.31716">
        <ele>92.8</ele>
        <time>2023-09-10T06:57:22Z</time>
      </trkpt>
      <trkpt lat="46.53028" lon="0.3172">
        <ele>92.2</ele>
        <time>2023-09-10T06:57:23Z</time>
      </trkpt>
      <trkpt lat="46.53029" lon="0.31725">
        <ele>91</ele>
        <time>2023-09-10T06:57:24Z</time>
      </trkpt>
      <trkpt lat="46.5303" lon="0.31729">
        <ele>90.4</ele>
        <time>2023-09-10T06:57:25Z</time>
      </trkpt>
      <trkpt lat="46.53032" lon="0.31733">
        <ele>89.8</ele>
        <time>2023-09-10T06:57:26Z</time>
      </trkpt>
      <trkpt lat="46.53032" lon="0.31738">
        <ele>89.4</ele>
        <time>2023-09-10T06:57:27Z</time>
      </trkpt>
      <trkpt lat="46.53034" lon="0.31749">
        <ele>88.8</ele>
        <time>2023-09-10T06:57:29Z</time>
      </trkpt>
      <trkpt lat="46.53034" lon="0.31756">
        <ele>88.4</ele>
        <time>2023-09-10T06:57:30Z</time>
      </trkpt>
      <trkpt lat="46.53036" lon="0.3177">
        <ele>87.8</ele>
        <time>2023-09-10T06:57:32Z</time>
      </trkpt>
      <trkpt lat="46.53037" lon="0.31775">
        <ele>87.6</ele>
        <time>2023-09-10T06:57:33Z</time>
      </trkpt>
      <trkpt lat="46.53039" lon="0.3179">
        <ele>86.2</ele>
        <time>2023-09-10T06:57:36Z</time>
      </trkpt>
      <trkpt lat="46.53041" lon="0.31793">
        <ele>85.8</ele>
        <time>2023-09-10T06:57:37Z</time>
      </trkpt>
      <trkpt lat="46.53042" lon="0.318">
        <ele>85.4</ele>
        <time>2023-09-10T06:57:39Z</time>
      </trkpt>
      <trkpt lat="46.53042" lon="0.31802">
        <ele>85.2</ele>
        <time>2023-09-10T06:57:40Z</time>
      </trkpt>
      <trkpt lat="46.53044" lon="0.31809">
        <ele>85</ele>
        <time>2023-09-10T06:57:43Z</time>
      </trkpt>
      <trkpt lat="46.53044" lon="0.31813">
        <ele>84.4</ele>
        <time>2023-09-10T06:57:45Z</time>
      </trkpt>
      <trkpt lat="46.53045" lon="0.31815">
        <ele>84.2</ele>
        <time>2023-09-10T06:57:46Z</time>
      </trkpt>
      <trkpt lat="46.53044" lon="0.31816">
        <ele>83.6</ele>
        <time>2023-09-10T06:57:48Z</time>
      </trkpt>
      <trkpt lat="46.53044" lon="0.31818">
        <ele>83.2</ele>
        <time>2023-09-10T06:57:50Z</time>
      </trkpt>
      <trkpt lat="46.53044" lon="0.3182">
        <ele>83</ele>
        <time>2023-09-10T06:57:51Z</time>
      </trkpt>
      <trkpt lat="46.53047" lon="0.31834">
        <ele>82.2</ele>
        <time>2023-09-10T06:57:55Z</time>
      </trkpt>
      <trkpt lat="46.5305" lon="0.31839">
        <ele>81.4</ele>
        <time>2023-09-10T06:57:58Z</time>
      </trkpt>
      <trkpt lat="46.5305" lon="0.31839">
        <ele>81</ele>
        <time>2023-09-10T06:57:59Z</time>
      </trkpt>
      <trkpt lat="46.53049" lon="0.31841">
        <ele>81</ele>
        <time>2023-09-10T06:58:03Z</time>
      </trkpt>
      <trkpt lat="46.53048" lon="0.31842">
        <ele>81</ele>
        <time>2023-09-10T06:58:05Z</time>
      </trkpt>
      <trkpt lat="46.53045" lon="0.31846">
        <ele>82.2</ele>
        <time>2023-09-10T06:58:10Z</time>
      </trkpt>
      <trkpt lat="46.53044" lon="0.31847">
        <ele>82.4</ele>
        <time>2023-09-10T06:58:11Z</time>
      </trkpt>
      <trkpt lat="46.53041" lon="0.31848">
        <ele>83.2</ele>
        <time>2023-09-10T06:58:14Z</time>
      </trkpt>
      <trkpt lat="46.53039" lon="0.3185">
        <ele>84.4</ele>
        <time>2023-09-10T06:58:16Z</time>
      </trkpt>
      <trkpt lat="46.53037" lon="0.31851">
        <ele>85.2</ele>
        <time>2023-09-10T06:58:18Z</time>
      </trkpt>
      <trkpt lat="46.53036" lon="0.31852">
        <ele>85.6</ele>
        <time>2023-09-10T06:58:19Z</time>
      </trkpt>
      <trkpt lat="46.53035" lon="0.31854">
        <ele>86.2</ele>
        <time>2023-09-10T06:58:20Z</time>
      </trkpt>
      <trkpt lat="46.53034" lon="0.31856">
        <ele>86.8</ele>
        <time>2023-09-10T06:58:21Z</time>
      </trkpt>
      <trkpt lat="46.53032" lon="0.31862">
        <ele>88</ele>
        <time>2023-09-10T06:58:24Z</time>
      </trkpt>
      <trkpt lat="46.53029" lon="0.31866">
        <ele>89</ele>
        <time>2023-09-10T06:58:27Z</time>
      </trkpt>
      <trkpt lat="46.53027" lon="0.31868">
        <ele>90</ele>
        <time>2023-09-10T06:58:29Z</time>
      </trkpt>
      <trkpt lat="46.53026" lon="0.3187">
        <ele>90.4</ele>
        <time>2023-09-10T06:58:30Z</time>
      </trkpt>
      <trkpt lat="46.53023" lon="0.31876">
        <ele>91.6</ele>
        <time>2023-09-10T06:58:34Z</time>
      </trkpt>
      <trkpt lat="46.53021" lon="0.3188">
        <ele>92.6</ele>
        <time>2023-09-10T06:58:37Z</time>
      </trkpt>
      <trkpt lat="46.53021" lon="0.31883">
        <ele>92.8</ele>
        <time>2023-09-10T06:58:38Z</time>
      </trkpt>
      <trkpt lat="46.53018" lon="0.31886">
        <ele>94</ele>
        <time>2023-09-10T06:58:42Z</time>
      </trkpt>
      <trkpt lat="46.53017" lon="0.3189">
        <ele>94.8</ele>
        <time>2023-09-10T06:58:45Z</time>
      </trkpt>
      <trkpt lat="46.53017" lon="0.31893">
        <ele>95</ele>
        <time>2023-09-10T06:58:46Z</time>
      </trkpt>
      <trkpt lat="46.53015" lon="0.31897">
        <ele>95.6</ele>
        <time>2023-09-10T06:58:49Z</time>
      </trkpt>
      <trkpt lat="46.53014" lon="0.319">
        <ele>96.2</ele>
        <time>2023-09-10T06:58:51Z</time>
      </trkpt>
      <trkpt lat="46.53011" lon="0.31902">
        <ele>97.2</ele>
        <time>2023-09-10T06:58:54Z</time>
      </trkpt>
      <trkpt lat="46.53008" lon="0.31904">
        <ele>97.6</ele>
        <time>2023-09-10T06:58:56Z</time>
      </trkpt>
      <trkpt lat="46.53007" lon="0.31905">
        <ele>98</ele>
        <time>2023-09-10T06:58:57Z</time>
      </trkpt>
      <trkpt lat="46.53007" lon="0.31905">
        <ele>98.4</ele>
        <time>2023-09-10T06:58:58Z</time>
      </trkpt>
      <trkpt lat="46.53" lon="0.31913">
        <ele>99.6</ele>
        <time>2023-09-10T06:59:04Z</time>
      </trkpt>
      <trkpt lat="46.52999" lon="0.31915">
        <ele>100.2</ele>
        <time>2023-09-10T06:59:06Z</time>
      </trkpt>
      <trkpt lat="46.52997" lon="0.31917">
        <ele>100.8</ele>
        <time>2023-09-10T06:59:08Z</time>
      </trkpt>
      <trkpt lat="46.52997" lon="0.31918">
        <ele>101.2</ele>
        <time>2023-09-10T06:59:09Z</time>
      </trkpt>
      <trkpt lat="46.52995" lon="0.3192">
        <ele>101.6</ele>
        <time>2023-09-10T06:59:11Z</time>
      </trkpt>
      <trkpt lat="46.52995" lon="0.31922">
        <ele>101.8</ele>
        <time>2023-09-10T06:59:12Z</time>
      </trkpt>
      <trkpt lat="46.52991" lon="0.31928">
        <ele>103</ele>
        <time>2023-09-10T06:59:17Z</time>
      </trkpt>
      <trkpt lat="46.52988" lon="0.31931">
        <ele>103.4</ele>
        <time>2023-09-10T06:59:20Z</time>
      </trkpt>
      <trkpt lat="46.52986" lon="0.31936">
        <ele>104</ele>
        <time>2023-09-10T06:59:23Z</time>
      </trkpt>
      <trkpt lat="46.52982" lon="0.31941">
        <ele>105</ele>
        <time>2023-09-10T06:59:27Z</time>
      </trkpt>
      <trkpt lat="46.5298" lon="0.31949">
        <ele>105.6</ele>
        <time>2023-09-10T06:59:31Z</time>
      </trkpt>
      <trkpt lat="46.52979" lon="0.3195">
        <ele>105.6</ele>
        <time>2023-09-10T06:59:32Z</time>
      </trkpt>
      <trkpt lat="46.52978" lon="0.31955">
        <ele>106.2</ele>
        <time>2023-09-10T06:59:35Z</time>
      </trkpt>
      <trkpt lat="46.52975" lon="0.31965">
        <ele>107.2</ele>
        <time>2023-09-10T06:59:42Z</time>
      </trkpt>
      <trkpt lat="46.52975" lon="0.31968">
        <ele>107.4</ele>
        <time>2023-09-10T06:59:44Z</time>
      </trkpt>
      <trkpt lat="46.52975" lon="0.3197">
        <ele>107.6</ele>
        <time>2023-09-10T06:59:45Z</time>
      </trkpt>
      <trkpt lat="46.52976" lon="0.31974">
        <ele>107.8</ele>
        <time>2023-09-10T06:59:47Z</time>
      </trkpt>
      <trkpt lat="46.52981" lon="0.31979">
        <ele>107.8</ele>
        <time>2023-09-10T06:59:51Z</time>
      </trkpt>
      <trkpt lat="46.52983" lon="0.31979">
        <ele>107.8</ele>
        <time>2023-09-10T06:59:52Z</time>
      </trkpt>
      <trkpt lat="46.52991" lon="0.31982">
        <ele>105.6</ele>
        <time>2023-09-10T06:59:56Z</time>
      </trkpt>
      <trkpt lat="46.52992" lon="0.31984">
        <ele>105.2</ele>
        <time>2023-09-10T06:59:57Z</time>
      </trkpt>
      <trkpt lat="46.52995" lon="0.31992">
        <ele>104.2</ele>
        <time>2023-09-10T07:00:00Z</time>
      </trkpt>
      <trkpt lat="46.52998" lon="0.32004">
        <ele>103.6</ele>
        <time>2023-09-10T07:00:04Z</time>
      </trkpt>
      <trkpt lat="46.52996" lon="0.32017">
        <ele>104.8</ele>
        <time>2023-09-10T07:00:10Z</time>
      </trkpt>
      <trkpt lat="46.52996" lon="0.32023">
        <ele>105.2</ele>
        <time>2023-09-10T07:00:12Z</time>
      </trkpt>
      <trkpt lat="46.52998" lon="0.32034">
        <ele>106</ele>
        <time>2023-09-10T07:00:16Z</time>
      </trkpt>
      <trkpt lat="46.53007" lon="0.3205">
        <ele>105.8</ele>
        <time>2023-09-10T07:00:20Z</time>
      </trkpt>
      <trkpt lat="46.53009" lon="0.32054">
        <ele>105.6</ele>
        <time>2023-09-10T07:00:21Z</time>
      </trkpt>
      <trkpt lat="46.53012" lon="0.3206">
        <ele>105.4</ele>
        <time>2023-09-10T07:00:23Z</time>
      </trkpt>
      <trkpt lat="46.53016" lon="0.32068">
        <ele>105.2</ele>
        <time>2023-09-10T07:00:25Z</time>
      </trkpt>
      <trkpt lat="46.53017" lon="0.32071">
        <ele>105</ele>
        <time>2023-09-10T07:00:26Z</time>
      </trkpt>
      <trkpt lat="46.53026" lon="0.32082">
        <ele>104.4</ele>
        <time>2023-09-10T07:00:30Z</time>
      </trkpt>
      <trkpt lat="46.53029" lon="0.32085">
        <ele>104.2</ele>
        <time>2023-09-10T07:00:31Z</time>
      </trkpt>
      <trkpt lat="46.53033" lon="0.32088">
        <ele>103.8</ele>
        <time>2023-09-10T07:00:32Z</time>
      </trkpt>
      <trkpt lat="46.53038" lon="0.32093">
        <ele>103</ele>
        <time>2023-09-10T07:00:34Z</time>
      </trkpt>
      <trkpt lat="46.53039" lon="0.32096">
        <ele>102.4</ele>
        <time>2023-09-10T07:00:35Z</time>
      </trkpt>
      <trkpt lat="46.53042" lon="0.32102">
        <ele>101.6</ele>
        <time>2023-09-10T07:00:37Z</time>
      </trkpt>
      <trkpt lat="46.53051" lon="0.32115">
        <ele>101.6</ele>
        <time>2023-09-10T07:00:42Z</time>
      </trkpt>
      <trkpt lat="46.53062" lon="0.32126">
        <ele>101.4</ele>
        <time>2023-09-10T07:00:47Z</time>
      </trkpt>
      <trkpt lat="46.53074" lon="0.32136">
        <ele>101.4</ele>
        <time>2023-09-10T07:00:52Z</time>
      </trkpt>
      <trkpt lat="46.53088" lon="0.32147">
        <ele>100.4</ele>
        <time>2023-09-10T07:00:56Z</time>
      </trkpt>
      <trkpt lat="46.53092" lon="0.3215">
        <ele>100.4</ele>
        <time>2023-09-10T07:00:57Z</time>
      </trkpt>
      <trkpt lat="46.53109" lon="0.32155">
        <ele>99.8</ele>
        <time>2023-09-10T07:01:03Z</time>
      </trkpt>
      <trkpt lat="46.53112" lon="0.32158">
        <ele>99.2</ele>
        <time>2023-09-10T07:01:04Z</time>
      </trkpt>
      <trkpt lat="46.53114" lon="0.32159">
        <ele>99</ele>
        <time>2023-09-10T07:01:05Z</time>
      </trkpt>
      <trkpt lat="46.5312" lon="0.32162">
        <ele>98.6</ele>
        <time>2023-09-10T07:01:07Z</time>
      </trkpt>
      <trkpt lat="46.53134" lon="0.32165">
        <ele>98.6</ele>
        <time>2023-09-10T07:01:12Z</time>
      </trkpt>
      <trkpt lat="46.5315" lon="0.3217">
        <ele>98.2</ele>
        <time>2023-09-10T07:01:16Z</time>
      </trkpt>
      <trkpt lat="46.53154" lon="0.3217">
        <ele>98</ele>
        <time>2023-09-10T07:01:17Z</time>
      </trkpt>
      <trkpt lat="46.53158" lon="0.32172">
        <ele>98</ele>
        <time>2023-09-10T07:01:18Z</time>
      </trkpt>
      <trkpt lat="46.53169" lon="0.32174">
        <ele>96.8</ele>
        <time>2023-09-10T07:01:21Z</time>
      </trkpt>
      <trkpt lat="46.53172" lon="0.32174">
        <ele>96</ele>
        <time>2023-09-10T07:01:22Z</time>
      </trkpt>
      <trkpt lat="46.53175" lon="0.32175">
        <ele>95.4</ele>
        <time>2023-09-10T07:01:23Z</time>
      </trkpt>
      <trkpt lat="46.53184" lon="0.32176">
        <ele>94.2</ele>
        <time>2023-09-10T07:01:26Z</time>
      </trkpt>
      <trkpt lat="46.53187" lon="0.32175">
        <ele>93.8</ele>
        <time>2023-09-10T07:01:27Z</time>
      </trkpt>
      <trkpt lat="46.5319" lon="0.32174">
        <ele>93</ele>
        <time>2023-09-10T07:01:28Z</time>
      </trkpt>
      <trkpt lat="46.53198" lon="0.32176">
        <ele>91.2</ele>
        <time>2023-09-10T07:01:31Z</time>
      </trkpt>
      <trkpt lat="46.53199" lon="0.32177">
        <ele>90.8</ele>
        <time>2023-09-10T07:01:32Z</time>
      </trkpt>
      <trkpt lat="46.53205" lon="0.32178">
        <ele>90</ele>
        <time>2023-09-10T07:01:35Z</time>
      </trkpt>
      <trkpt lat="46.5321" lon="0.32179">
        <ele>89.6</ele>
        <time>2023-09-10T07:01:38Z</time>
      </trkpt>
      <trkpt lat="46.53213" lon="0.32182">
        <ele>89.2</ele>
        <time>2023-09-10T07:01:39Z</time>
      </trkpt>
      <trkpt lat="46.53215" lon="0.32184">
        <ele>89</ele>
        <time>2023-09-10T07:01:40Z</time>
      </trkpt>
      <trkpt lat="46.53222" lon="0.32192">
        <ele>88.6</ele>
        <time>2023-09-10T07:01:43Z</time>
      </trkpt>
      <trkpt lat="46.53233" lon="0.32198">
        <ele>88</ele>
        <time>2023-09-10T07:01:47Z</time>
      </trkpt>
      <trkpt lat="46.53238" lon="0.32204">
        <ele>87.8</ele>
        <time>2023-09-10T07:01:49Z</time>
      </trkpt>
      <trkpt lat="46.5325" lon="0.3222">
        <ele>88</ele>
        <time>2023-09-10T07:01:54Z</time>
      </trkpt>
      <trkpt lat="46.53261" lon="0.32228">
        <ele>86.8</ele>
        <time>2023-09-10T07:01:59Z</time>
      </trkpt>
      <trkpt lat="46.53263" lon="0.32229">
        <ele>86.6</ele>
        <time>2023-09-10T07:02:00Z</time>
      </trkpt>
      <trkpt lat="46.53275" lon="0.32248">
        <ele>86.8</ele>
        <time>2023-09-10T07:02:06Z</time>
      </trkpt>
      <trkpt lat="46.53277" lon="0.3225">
        <ele>87</ele>
        <time>2023-09-10T07:02:07Z</time>
      </trkpt>
      <trkpt lat="46.53281" lon="0.32254">
        <ele>87.4</ele>
        <time>2023-09-10T07:02:09Z</time>
      </trkpt>
      <trkpt lat="46.53286" lon="0.32259">
        <ele>87.2</ele>
        <time>2023-09-10T07:02:11Z</time>
      </trkpt>
      <trkpt lat="46.53301" lon="0.32272">
        <ele>86.8</ele>
        <time>2023-09-10T07:02:16Z</time>
      </trkpt>
      <trkpt lat="46.53308" lon="0.32277">
        <ele>85.6</ele>
        <time>2023-09-10T07:02:19Z</time>
      </trkpt>
      <trkpt lat="46.53312" lon="0.32279">
        <ele>84.8</ele>
        <time>2023-09-10T07:02:21Z</time>
      </trkpt>
      <trkpt lat="46.53314" lon="0.3228">
        <ele>84.4</ele>
        <time>2023-09-10T07:02:22Z</time>
      </trkpt>
      <trkpt lat="46.53317" lon="0.32284">
        <ele>83.2</ele>
        <time>2023-09-10T07:02:24Z</time>
      </trkpt>
      <trkpt lat="46.53319" lon="0.32286">
        <ele>83</ele>
        <time>2023-09-10T07:02:25Z</time>
      </trkpt>
      <trkpt lat="46.53327" lon="0.32296">
        <ele>82.4</ele>
        <time>2023-09-10T07:02:28Z</time>
      </trkpt>
      <trkpt lat="46.53329" lon="0.32298">
        <ele>82.2</ele>
        <time>2023-09-10T07:02:29Z</time>
      </trkpt>
      <trkpt lat="46.53337" lon="0.3231">
        <ele>81</ele>
        <time>2023-09-10T07:02:33Z</time>
      </trkpt>
      <trkpt lat="46.5334" lon="0.32317">
        <ele>80.8</ele>
        <time>2023-09-10T07:02:35Z</time>
      </trkpt>
      <trkpt lat="46.53356" lon="0.32337">
        <ele>79.4</ele>
        <time>2023-09-10T07:02:40Z</time>
      </trkpt>
      <trkpt lat="46.5336" lon="0.3234">
        <ele>78.6</ele>
        <time>2023-09-10T07:02:42Z</time>
      </trkpt>
      <trkpt lat="46.53363" lon="0.32341">
        <ele>78</ele>
        <time>2023-09-10T07:02:43Z</time>
      </trkpt>
      <trkpt lat="46.53367" lon="0.32342">
        <ele>77.6</ele>
        <time>2023-09-10T07:02:44Z</time>
      </trkpt>
      <trkpt lat="46.53371" lon="0.32343">
        <ele>77</ele>
        <time>2023-09-10T07:02:46Z</time>
      </trkpt>
      <trkpt lat="46.53375" lon="0.32345">
        <ele>76.6</ele>
        <time>2023-09-10T07:02:49Z</time>
      </trkpt>
      <trkpt lat="46.53378" lon="0.32349">
        <ele>76.6</ele>
        <time>2023-09-10T07:02:52Z</time>
      </trkpt>
      <trkpt lat="46.5338" lon="0.32355">
        <ele>76.6</ele>
        <time>2023-09-10T07:02:56Z</time>
      </trkpt>
      <trkpt lat="46.53385" lon="0.32363">
        <ele>76.8</ele>
        <time>2023-09-10T07:03:03Z</time>
      </trkpt>
      <trkpt lat="46.53389" lon="0.32375">
        <ele>76.4</ele>
        <time>2023-09-10T07:03:11Z</time>
      </trkpt>
      <trkpt lat="46.53391" lon="0.32382">
        <ele>76</ele>
        <time>2023-09-10T07:03:19Z</time>
      </trkpt>
      <trkpt lat="46.53397" lon="0.3239">
        <ele>76.6</ele>
        <time>2023-09-10T07:03:26Z</time>
      </trkpt>
      <trkpt lat="46.534" lon="0.32394">
        <ele>76.8</ele>
        <time>2023-09-10T07:03:34Z</time>
      </trkpt>
      <trkpt lat="46.53402" lon="0.32399">
        <ele>76.8</ele>
        <time>2023-09-10T07:03:42Z</time>
      </trkpt>
      <trkpt lat="46.53406" lon="0.32403">
        <ele>76.4</ele>
        <time>2023-09-10T07:03:50Z</time>
      </trkpt>
      <trkpt lat="46.53418" lon="0.3241">
        <ele>76.4</ele>
        <time>2023-09-10T07:03:57Z</time>
      </trkpt>
      <trkpt lat="46.53429" lon="0.3241">
        <ele>77</ele>
        <time>2023-09-10T07:04:02Z</time>
      </trkpt>
      <trkpt lat="46.53434" lon="0.32411">
        <ele>77</ele>
        <time>2023-09-10T07:04:04Z</time>
      </trkpt>
      <trkpt lat="46.53447" lon="0.32416">
        <ele>77.6</ele>
        <time>2023-09-10T07:04:11Z</time>
      </trkpt>
      <trkpt lat="46.53458" lon="0.32418">
        <ele>77.6</ele>
        <time>2023-09-10T07:04:17Z</time>
      </trkpt>
      <trkpt lat="46.53468" lon="0.32429">
        <ele>77.6</ele>
        <time>2023-09-10T07:04:23Z</time>
      </trkpt>
      <trkpt lat="46.5347" lon="0.3243">
        <ele>77.8</ele>
        <time>2023-09-10T07:04:24Z</time>
      </trkpt>
      <trkpt lat="46.53473" lon="0.32434">
        <ele>77.8</ele>
        <time>2023-09-10T07:04:28Z</time>
      </trkpt>
      <trkpt lat="46.53471" lon="0.32439">
        <ele>77.4</ele>
        <time>2023-09-10T07:04:30Z</time>
      </trkpt>
      <trkpt lat="46.53465" lon="0.32447">
        <ele>76.8</ele>
        <time>2023-09-10T07:04:35Z</time>
      </trkpt>
      <trkpt lat="46.53457" lon="0.32456">
        <ele>76.8</ele>
        <time>2023-09-10T07:04:42Z</time>
      </trkpt>
      <trkpt lat="46.53448" lon="0.32459">
        <ele>78.4</ele>
        <time>2023-09-10T07:04:48Z</time>
      </trkpt>
      <trkpt lat="46.53445" lon="0.3246">
        <ele>79</ele>
        <time>2023-09-10T07:04:50Z</time>
      </trkpt>
      <trkpt lat="46.53442" lon="0.3246">
        <ele>79.6</ele>
        <time>2023-09-10T07:04:52Z</time>
      </trkpt>
      <trkpt lat="46.53438" lon="0.3246">
        <ele>80.6</ele>
        <time>2023-09-10T07:04:54Z</time>
      </trkpt>
      <trkpt lat="46.53436" lon="0.32464">
        <ele>81.4</ele>
        <time>2023-09-10T07:04:57Z</time>
      </trkpt>
      <trkpt lat="46.53436" lon="0.32465">
        <ele>81.4</ele>
        <time>2023-09-10T07:04:58Z</time>
      </trkpt>
      <trkpt lat="46.53433" lon="0.32465">
        <ele>81.6</ele>
        <time>2023-09-10T07:05:06Z</time>
      </trkpt>
      <trkpt lat="46.53433" lon="0.32465">
        <ele>81.6</ele>
        <time>2023-09-10T07:05:07Z</time>
      </trkpt>
      <trkpt lat="46.53429" lon="0.32465">
        <ele>82.4</ele>
        <time>2023-09-10T07:05:14Z</time>
      </trkpt>
      <trkpt lat="46.53426" lon="0.32463">
        <ele>82.4</ele>
        <time>2023-09-10T07:05:24Z</time>
      </trkpt>
      <trkpt lat="46.53426" lon="0.32464">
        <ele>82.8</ele>
        <time>2023-09-10T07:05:26Z</time>
      </trkpt>
      <trkpt lat="46.53422" lon="0.32463">
        <ele>84</ele>
        <time>2023-09-10T07:05:36Z</time>
      </trkpt>
      <trkpt lat="46.53422" lon="0.32463">
        <ele>84</ele>
        <time>2023-09-10T07:05:37Z</time>
      </trkpt>
      <trkpt lat="46.53419" lon="0.3246">
        <ele>85</ele>
        <time>2023-09-10T07:05:43Z</time>
      </trkpt>
      <trkpt lat="46.53415" lon="0.32458">
        <ele>85</ele>
        <time>2023-09-10T07:05:49Z</time>
      </trkpt>
      <trkpt lat="46.53412" lon="0.32457">
        <ele>85.4</ele>
        <time>2023-09-10T07:05:54Z</time>
      </trkpt>
      <trkpt lat="46.53409" lon="0.32455">
        <ele>85.8</ele>
        <time>2023-09-10T07:05:58Z</time>
      </trkpt>
      <trkpt lat="46.53407" lon="0.32455">
        <ele>86.2</ele>
        <time>2023-09-10T07:06:00Z</time>
      </trkpt>
      <trkpt lat="46.53405" lon="0.32453">
        <ele>86.6</ele>
        <time>2023-09-10T07:06:02Z</time>
      </trkpt>
      <trkpt lat="46.53404" lon="0.32452">
        <ele>86.8</ele>
        <time>2023-09-10T07:06:04Z</time>
      </trkpt>
      <trkpt lat="46.53402" lon="0.32451">
        <ele>87.2</ele>
        <time>2023-09-10T07:06:07Z</time>
      </trkpt>
      <trkpt lat="46.53401" lon="0.3245">
        <ele>87.4</ele>
        <time>2023-09-10T07:06:09Z</time>
      </trkpt>
      <trkpt lat="46.534" lon="0.32446">
        <ele>87.2</ele>
        <time>2023-09-10T07:06:23Z</time>
      </trkpt>
      <trkpt lat="46.53398" lon="0.32444">
        <ele>87.2</ele>
        <time>2023-09-10T07:06:30Z</time>
      </trkpt>
      <trkpt lat="46.53396" lon="0.32441">
        <ele>87.8</ele>
        <time>2023-09-10T07:06:36Z</time>
      </trkpt>
      <trkpt lat="46.5339" lon="0.32439">
        <ele>88.4</ele>
        <time>2023-09-10T07:06:45Z</time>
      </trkpt>
      <trkpt lat="46.53388" lon="0.32439">
        <ele>89</ele>
        <time>2023-09-10T07:06:47Z</time>
      </trkpt>
      <trkpt lat="46.53387" lon="0.32439">
        <ele>89.6</ele>
        <time>2023-09-10T07:06:49Z</time>
      </trkpt>
      <trkpt lat="46.53383" lon="0.32439">
        <ele>90.6</ele>
        <time>2023-09-10T07:06:54Z</time>
      </trkpt>
      <trkpt lat="46.5338" lon="0.32441">
        <ele>91.2</ele>
        <time>2023-09-10T07:06:58Z</time>
      </trkpt>
      <trkpt lat="46.53379" lon="0.32441">
        <ele>91.4</ele>
        <time>2023-09-10T07:06:59Z</time>
      </trkpt>
      <trkpt lat="46.53378" lon="0.32441">
        <ele>92</ele>
        <time>2023-09-10T07:07:01Z</time>
      </trkpt>
      <trkpt lat="46.53376" lon="0.32442">
        <ele>92.4</ele>
        <time>2023-09-10T07:07:04Z</time>
      </trkpt>
      <trkpt lat="46.53375" lon="0.32442">
        <ele>92.4</ele>
        <time>2023-09-10T07:07:06Z</time>
      </trkpt>
      <trkpt lat="46.53371" lon="0.32443">
        <ele>92.8</ele>
        <time>2023-09-10T07:07:11Z</time>
      </trkpt>
      <trkpt lat="46.5337" lon="0.32443">
        <ele>92.8</ele>
        <time>2023-09-10T07:07:12Z</time>
      </trkpt>
      <trkpt lat="46.53367" lon="0.32444">
        <ele>93</ele>
        <time>2023-09-10T07:07:15Z</time>
      </trkpt>
      <trkpt lat="46.53365" lon="0.32448">
        <ele>94.6</ele>
        <time>2023-09-10T07:07:19Z</time>
      </trkpt>
      <trkpt lat="46.53366" lon="0.32452">
        <ele>95.6</ele>
        <time>2023-09-10T07:07:22Z</time>
      </trkpt>
      <trkpt lat="46.53366" lon="0.32451">
        <ele>95.8</ele>
        <time>2023-09-10T07:07:23Z</time>
      </trkpt>
      <trkpt lat="46.53369" lon="0.32452">
        <ele>96</ele>
        <time>2023-09-10T07:07:26Z</time>
      </trkpt>
      <trkpt lat="46.5337" lon="0.32453">
        <ele>95.6</ele>
        <time>2023-09-10T07:07:28Z</time>
      </trkpt>
      <trkpt lat="46.53371" lon="0.32453">
        <ele>95.4</ele>
        <time>2023-09-10T07:07:29Z</time>
      </trkpt>
      <trkpt lat="46.53372" lon="0.32455">
        <ele>95.2</ele>
        <time>2023-09-10T07:07:31Z</time>
      </trkpt>
      <trkpt lat="46.53376" lon="0.3246">
        <ele>95.4</ele>
        <time>2023-09-10T07:07:35Z</time>
      </trkpt>
      <trkpt lat="46.53382" lon="0.32465">
        <ele>95.8</ele>
        <time>2023-09-10T07:07:39Z</time>
      </trkpt>
      <trkpt lat="46.53397" lon="0.32471">
        <ele>95</ele>
        <time>2023-09-10T07:07:46Z</time>
      </trkpt>
      <trkpt lat="46.53401" lon="0.32474">
        <ele>94</ele>
        <time>2023-09-10T07:07:47Z</time>
      </trkpt>
      <trkpt lat="46.53408" lon="0.32476">
        <ele>92.8</ele>
        <time>2023-09-10T07:07:49Z</time>
      </trkpt>
      <trkpt lat="46.53412" lon="0.32479">
        <ele>91.8</ele>
        <time>2023-09-10T07:07:51Z</time>
      </trkpt>
      <trkpt lat="46.53421" lon="0.32484">
        <ele>90.4</ele>
        <time>2023-09-10T07:07:56Z</time>
      </trkpt>
      <trkpt lat="46.53426" lon="0.32489">
        <ele>90.2</ele>
        <time>2023-09-10T07:07:59Z</time>
      </trkpt>
      <trkpt lat="46.53434" lon="0.32494">
        <ele>91.4</ele>
        <time>2023-09-10T07:08:05Z</time>
      </trkpt>
      <trkpt lat="46.53447" lon="0.32501">
        <ele>91.2</ele>
        <time>2023-09-10T07:08:11Z</time>
      </trkpt>
      <trkpt lat="46.5346" lon="0.32504">
        <ele>91</ele>
        <time>2023-09-10T07:08:18Z</time>
      </trkpt>
      <trkpt lat="46.53465" lon="0.32505">
        <ele>90</ele>
        <time>2023-09-10T07:08:23Z</time>
      </trkpt>
      <trkpt lat="46.53466" lon="0.32506">
        <ele>90</ele>
        <time>2023-09-10T07:08:24Z</time>
      </trkpt>
      <trkpt lat="46.53478" lon="0.32515">
        <ele>90.2</ele>
        <time>2023-09-10T07:08:30Z</time>
      </trkpt>
      <trkpt lat="46.53479" lon="0.32516">
        <ele>90.2</ele>
        <time>2023-09-10T07:08:31Z</time>
      </trkpt>
      <trkpt lat="46.53489" lon="0.32521">
        <ele>91</ele>
        <time>2023-09-10T07:08:37Z</time>
      </trkpt>
      <trkpt lat="46.53492" lon="0.32521">
        <ele>91.4</ele>
        <time>2023-09-10T07:08:39Z</time>
      </trkpt>
      <trkpt lat="46.53503" lon="0.32527">
        <ele>91.2</ele>
        <time>2023-09-10T07:08:45Z</time>
      </trkpt>
      <trkpt lat="46.53509" lon="0.32531">
        <ele>91.6</ele>
        <time>2023-09-10T07:08:48Z</time>
      </trkpt>
      <trkpt lat="46.5352" lon="0.32536">
        <ele>92.6</ele>
        <time>2023-09-10T07:08:53Z</time>
      </trkpt>
      <trkpt lat="46.5353" lon="0.32543">
        <ele>93.8</ele>
        <time>2023-09-10T07:08:59Z</time>
      </trkpt>
      <trkpt lat="46.53533" lon="0.32549">
        <ele>94.8</ele>
        <time>2023-09-10T07:09:02Z</time>
      </trkpt>
      <trkpt lat="46.53534" lon="0.32551">
        <ele>95.4</ele>
        <time>2023-09-10T07:09:04Z</time>
      </trkpt>
      <trkpt lat="46.53534" lon="0.32551">
        <ele>95.6</ele>
        <time>2023-09-10T07:09:05Z</time>
      </trkpt>
      <trkpt lat="46.53536" lon="0.32552">
        <ele>96</ele>
        <time>2023-09-10T07:09:07Z</time>
      </trkpt>
      <trkpt lat="46.53538" lon="0.32557">
        <ele>97</ele>
        <time>2023-09-10T07:09:12Z</time>
      </trkpt>
      <trkpt lat="46.53538" lon="0.32558">
        <ele>97.4</ele>
        <time>2023-09-10T07:09:13Z</time>
      </trkpt>
      <trkpt lat="46.5354" lon="0.32565">
        <ele>98.2</ele>
        <time>2023-09-10T07:09:17Z</time>
      </trkpt>
      <trkpt lat="46.53543" lon="0.32574">
        <ele>99.2</ele>
        <time>2023-09-10T07:09:25Z</time>
      </trkpt>
      <trkpt lat="46.53542" lon="0.32575">
        <ele>99.2</ele>
        <time>2023-09-10T07:09:26Z</time>
      </trkpt>
      <trkpt lat="46.53543" lon="0.32578">
        <ele>100.2</ele>
        <time>2023-09-10T07:09:30Z</time>
      </trkpt>
      <trkpt lat="46.53544" lon="0.32582">
        <ele>101</ele>
        <time>2023-09-10T07:09:35Z</time>
      </trkpt>
      <trkpt lat="46.53544" lon="0.32583">
        <ele>101.4</ele>
        <time>2023-09-10T07:09:37Z</time>
      </trkpt>
      <trkpt lat="46.53545" lon="0.32587">
        <ele>101.8</ele>
        <time>2023-09-10T07:09:40Z</time>
      </trkpt>
      <trkpt lat="46.53547" lon="0.3259">
        <ele>102.4</ele>
        <time>2023-09-10T07:09:43Z</time>
      </trkpt>
      <trkpt lat="46.53548" lon="0.32595">
        <ele>103.4</ele>
        <time>2023-09-10T07:09:48Z</time>
      </trkpt>
      <trkpt lat="46.5355" lon="0.32597">
        <ele>103.8</ele>
        <time>2023-09-10T07:09:50Z</time>
      </trkpt>
      <trkpt lat="46.53551" lon="0.32599">
        <ele>104</ele>
        <time>2023-09-10T07:09:54Z</time>
      </trkpt>
      <trkpt lat="46.53556" lon="0.32604">
        <ele>103.8</ele>
        <time>2023-09-10T07:10:06Z</time>
      </trkpt>
      <trkpt lat="46.53557" lon="0.32606">
        <ele>104</ele>
        <time>2023-09-10T07:10:07Z</time>
      </trkpt>
      <trkpt lat="46.53557" lon="0.32611">
        <ele>104.4</ele>
        <time>2023-09-10T07:10:11Z</time>
      </trkpt>
      <trkpt lat="46.53557" lon="0.32613">
        <ele>104.6</ele>
        <time>2023-09-10T07:10:12Z</time>
      </trkpt>
      <trkpt lat="46.53556" lon="0.32617">
        <ele>105.6</ele>
        <time>2023-09-10T07:10:15Z</time>
      </trkpt>
      <trkpt lat="46.53555" lon="0.32621">
        <ele>106</ele>
        <time>2023-09-10T07:10:17Z</time>
      </trkpt>
      <trkpt lat="46.53553" lon="0.32625">
        <ele>106.6</ele>
        <time>2023-09-10T07:10:19Z</time>
      </trkpt>
      <trkpt lat="46.53552" lon="0.32631">
        <ele>107.6</ele>
        <time>2023-09-10T07:10:22Z</time>
      </trkpt>
      <trkpt lat="46.5355" lon="0.32639">
        <ele>108.8</ele>
        <time>2023-09-10T07:10:27Z</time>
      </trkpt>
      <trkpt lat="46.5355" lon="0.32641">
        <ele>109</ele>
        <time>2023-09-10T07:10:28Z</time>
      </trkpt>
      <trkpt lat="46.53548" lon="0.32645">
        <ele>110</ele>
        <time>2023-09-10T07:10:31Z</time>
      </trkpt>
      <trkpt lat="46.53544" lon="0.32656">
        <ele>111.2</ele>
        <time>2023-09-10T07:10:37Z</time>
      </trkpt>
      <trkpt lat="46.53542" lon="0.32661">
        <ele>111.8</ele>
        <time>2023-09-10T07:10:41Z</time>
      </trkpt>
      <trkpt lat="46.53541" lon="0.32664">
        <ele>112.2</ele>
        <time>2023-09-10T07:10:43Z</time>
      </trkpt>
      <trkpt lat="46.53539" lon="0.32671">
        <ele>113.2</ele>
        <time>2023-09-10T07:10:47Z</time>
      </trkpt>
      <trkpt lat="46.53536" lon="0.32682">
        <ele>114.2</ele>
        <time>2023-09-10T07:10:52Z</time>
      </trkpt>
      <trkpt lat="46.53535" lon="0.32685">
        <ele>114.4</ele>
        <time>2023-09-10T07:10:53Z</time>
      </trkpt>
      <trkpt lat="46.53531" lon="0.32694">
        <ele>115.2</ele>
        <time>2023-09-10T07:10:58Z</time>
      </trkpt>
      <trkpt lat="46.53534" lon="0.32707">
        <ele>116.2</ele>
        <time>2023-09-10T07:11:03Z</time>
      </trkpt>
      <trkpt lat="46.53543" lon="0.32719">
        <ele>116.2</ele>
        <time>2023-09-10T07:11:10Z</time>
      </trkpt>
      <trkpt lat="46.53555" lon="0.32731">
        <ele>116.2</ele>
        <time>2023-09-10T07:11:17Z</time>
      </trkpt>
      <trkpt lat="46.53574" lon="0.32741">
        <ele>115.8</ele>
        <time>2023-09-10T07:11:24Z</time>
      </trkpt>
      <trkpt lat="46.5359" lon="0.32745">
        <ele>115</ele>
        <time>2023-09-10T07:11:30Z</time>
      </trkpt>
      <trkpt lat="46.53611" lon="0.3275">
        <ele>114.6</ele>
        <time>2023-09-10T07:11:37Z</time>
      </trkpt>
      <trkpt lat="46.5363" lon="0.3275">
        <ele>114.2</ele>
        <time>2023-09-10T07:11:42Z</time>
      </trkpt>
      <trkpt lat="46.53639" lon="0.32749">
        <ele>113.8</ele>
        <time>2023-09-10T07:11:44Z</time>
      </trkpt>
      <trkpt lat="46.53652" lon="0.32747">
        <ele>113</ele>
        <time>2023-09-10T07:11:47Z</time>
      </trkpt>
      <trkpt lat="46.53658" lon="0.32747">
        <ele>112.6</ele>
        <time>2023-09-10T07:11:48Z</time>
      </trkpt>
      <trkpt lat="46.53669" lon="0.32749">
        <ele>112</ele>
        <time>2023-09-10T07:11:50Z</time>
      </trkpt>
      <trkpt lat="46.53692" lon="0.32754">
        <ele>111</ele>
        <time>2023-09-10T07:11:54Z</time>
      </trkpt>
      <trkpt lat="46.53698" lon="0.32755">
        <ele>110.6</ele>
        <time>2023-09-10T07:11:55Z</time>
      </trkpt>
      <trkpt lat="46.53714" lon="0.32756">
        <ele>109.8</ele>
        <time>2023-09-10T07:11:58Z</time>
      </trkpt>
      <trkpt lat="46.53727" lon="0.32757">
        <ele>109.4</ele>
        <time>2023-09-10T07:12:00Z</time>
      </trkpt>
      <trkpt lat="46.53747" lon="0.32758">
        <ele>109</ele>
        <time>2023-09-10T07:12:03Z</time>
      </trkpt>
      <trkpt lat="46.53753" lon="0.32759">
        <ele>108.8</ele>
        <time>2023-09-10T07:12:04Z</time>
      </trkpt>
      <trkpt lat="46.53759" lon="0.3276">
        <ele>108.6</ele>
        <time>2023-09-10T07:12:05Z</time>
      </trkpt>
      <trkpt lat="46.53787" lon="0.32763">
        <ele>108</ele>
        <time>2023-09-10T07:12:10Z</time>
      </trkpt>
      <trkpt lat="46.53793" lon="0.32766">
        <ele>107.6</ele>
        <time>2023-09-10T07:12:11Z</time>
      </trkpt>
      <trkpt lat="46.5381" lon="0.32772">
        <ele>107.4</ele>
        <time>2023-09-10T07:12:14Z</time>
      </trkpt>
      <trkpt lat="46.53821" lon="0.32776">
        <ele>107</ele>
        <time>2023-09-10T07:12:16Z</time>
      </trkpt>
      <trkpt lat="46.53836" lon="0.32783">
        <ele>106.6</ele>
        <time>2023-09-10T07:12:19Z</time>
      </trkpt>
      <trkpt lat="46.53843" lon="0.32787">
        <ele>106.4</ele>
        <time>2023-09-10T07:12:21Z</time>
      </trkpt>
      <trkpt lat="46.53847" lon="0.3279">
        <ele>106.4</ele>
        <time>2023-09-10T07:12:22Z</time>
      </trkpt>
      <trkpt lat="46.53853" lon="0.32795">
        <ele>106.4</ele>
        <time>2023-09-10T07:12:24Z</time>
      </trkpt>
      <trkpt lat="46.53861" lon="0.32797">
        <ele>106.6</ele>
        <time>2023-09-10T07:12:26Z</time>
      </trkpt>
      <trkpt lat="46.53883" lon="0.32805">
        <ele>106.4</ele>
        <time>2023-09-10T07:12:32Z</time>
      </trkpt>
      <trkpt lat="46.53898" lon="0.3281">
        <ele>105.8</ele>
        <time>2023-09-10T07:12:36Z</time>
      </trkpt>
      <trkpt lat="46.53901" lon="0.3281">
        <ele>105.6</ele>
        <time>2023-09-10T07:12:37Z</time>
      </trkpt>
      <trkpt lat="46.53905" lon="0.32809">
        <ele>105.2</ele>
        <time>2023-09-10T07:12:38Z</time>
      </trkpt>
      <trkpt lat="46.53918" lon="0.32808">
        <ele>104.2</ele>
        <time>2023-09-10T07:12:41Z</time>
      </trkpt>
      <trkpt lat="46.53927" lon="0.32808">
        <ele>103.4</ele>
        <time>2023-09-10T07:12:43Z</time>
      </trkpt>
      <trkpt lat="46.53932" lon="0.32807">
        <ele>103</ele>
        <time>2023-09-10T07:12:44Z</time>
      </trkpt>
      <trkpt lat="46.53943" lon="0.32805">
        <ele>102</ele>
        <time>2023-09-10T07:12:47Z</time>
      </trkpt>
      <trkpt lat="46.5395" lon="0.32805">
        <ele>101.4</ele>
        <time>2023-09-10T07:12:49Z</time>
      </trkpt>
      <trkpt lat="46.53959" lon="0.32808">
        <ele>100.6</ele>
        <time>2023-09-10T07:12:52Z</time>
      </trkpt>
      <trkpt lat="46.53963" lon="0.3281">
        <ele>100.6</ele>
        <time>2023-09-10T07:12:54Z</time>
      </trkpt>
      <trkpt lat="46.53976" lon="0.32818">
        <ele>100.8</ele>
        <time>2023-09-10T07:13:01Z</time>
      </trkpt>
      <trkpt lat="46.53975" lon="0.32823">
        <ele>101.8</ele>
        <time>2023-09-10T07:13:04Z</time>
      </trkpt>
      <trkpt lat="46.53974" lon="0.32824">
        <ele>102.2</ele>
        <time>2023-09-10T07:13:05Z</time>
      </trkpt>
      <trkpt lat="46.53971" lon="0.32826">
        <ele>102.8</ele>
        <time>2023-09-10T07:13:08Z</time>
      </trkpt>
      <trkpt lat="46.5397" lon="0.3283">
        <ele>103.6</ele>
        <time>2023-09-10T07:13:11Z</time>
      </trkpt>
      <trkpt lat="46.5397" lon="0.32831">
        <ele>103.8</ele>
        <time>2023-09-10T07:13:12Z</time>
      </trkpt>
      <trkpt lat="46.53969" lon="0.32832">
        <ele>104</ele>
        <time>2023-09-10T07:13:13Z</time>
      </trkpt>
      <trkpt lat="46.53966" lon="0.32833">
        <ele>104.4</ele>
        <time>2023-09-10T07:13:15Z</time>
      </trkpt>
      <trkpt lat="46.53965" lon="0.32835">
        <ele>104.6</ele>
        <time>2023-09-10T07:13:17Z</time>
      </trkpt>
      <trkpt lat="46.53963" lon="0.32836">
        <ele>104.6</ele>
        <time>2023-09-10T07:13:19Z</time>
      </trkpt>
      <trkpt lat="46.5396" lon="0.32836">
        <ele>104.8</ele>
        <time>2023-09-10T07:13:21Z</time>
      </trkpt>
      <trkpt lat="46.53957" lon="0.32838">
        <ele>105.2</ele>
        <time>2023-09-10T07:13:23Z</time>
      </trkpt>
      <trkpt lat="46.53956" lon="0.32842">
        <ele>105.6</ele>
        <time>2023-09-10T07:13:26Z</time>
      </trkpt>
      <trkpt lat="46.53954" lon="0.32844">
        <ele>105.8</ele>
        <time>2023-09-10T07:13:27Z</time>
      </trkpt>
      <trkpt lat="46.53946" lon="0.32851">
        <ele>106.2</ele>
        <time>2023-09-10T07:13:32Z</time>
      </trkpt>
      <trkpt lat="46.53938" lon="0.32854">
        <ele>107</ele>
        <time>2023-09-10T07:13:36Z</time>
      </trkpt>
      <trkpt lat="46.53937" lon="0.32855">
        <ele>107.2</ele>
        <time>2023-09-10T07:13:37Z</time>
      </trkpt>
      <trkpt lat="46.53927" lon="0.32859">
        <ele>108</ele>
        <time>2023-09-10T07:13:42Z</time>
      </trkpt>
      <trkpt lat="46.53925" lon="0.3286">
        <ele>108.2</ele>
        <time>2023-09-10T07:13:43Z</time>
      </trkpt>
      <trkpt lat="46.53914" lon="0.32868">
        <ele>108.8</ele>
        <time>2023-09-10T07:13:48Z</time>
      </trkpt>
      <trkpt lat="46.5391" lon="0.32871">
        <ele>109.2</ele>
        <time>2023-09-10T07:13:50Z</time>
      </trkpt>
      <trkpt lat="46.53908" lon="0.32874">
        <ele>109.2</ele>
        <time>2023-09-10T07:13:51Z</time>
      </trkpt>
      <trkpt lat="46.53908" lon="0.3288">
        <ele>109.4</ele>
        <time>2023-09-10T07:13:53Z</time>
      </trkpt>
      <trkpt lat="46.53906" lon="0.32892">
        <ele>107.8</ele>
        <time>2023-09-10T07:13:58Z</time>
      </trkpt>
      <trkpt lat="46.53904" lon="0.32894">
        <ele>107.4</ele>
        <time>2023-09-10T07:13:59Z</time>
      </trkpt>
      <trkpt lat="46.53902" lon="0.32896">
        <ele>106.8</ele>
        <time>2023-09-10T07:14:00Z</time>
      </trkpt>
      <trkpt lat="46.53895" lon="0.32903">
        <ele>106.4</ele>
        <time>2023-09-10T07:14:04Z</time>
      </trkpt>
      <trkpt lat="46.53883" lon="0.32916">
        <ele>106.4</ele>
        <time>2023-09-10T07:14:10Z</time>
      </trkpt>
      <trkpt lat="46.53881" lon="0.3292">
        <ele>106.2</ele>
        <time>2023-09-10T07:14:12Z</time>
      </trkpt>
      <trkpt lat="46.53877" lon="0.32931">
        <ele>105.4</ele>
        <time>2023-09-10T07:14:15Z</time>
      </trkpt>
      <trkpt lat="46.53874" lon="0.32938">
        <ele>104.6</ele>
        <time>2023-09-10T07:14:17Z</time>
      </trkpt>
      <trkpt lat="46.53868" lon="0.32944">
        <ele>104.2</ele>
        <time>2023-09-10T07:14:19Z</time>
      </trkpt>
      <trkpt lat="46.53861" lon="0.32952">
        <ele>103.2</ele>
        <time>2023-09-10T07:14:21Z</time>
      </trkpt>
      <trkpt lat="46.53858" lon="0.32955">
        <ele>102.6</ele>
        <time>2023-09-10T07:14:22Z</time>
      </trkpt>
      <trkpt lat="46.53856" lon="0.32957">
        <ele>102.4</ele>
        <time>2023-09-10T07:14:23Z</time>
      </trkpt>
      <trkpt lat="46.53853" lon="0.32966">
        <ele>102</ele>
        <time>2023-09-10T07:14:25Z</time>
      </trkpt>
      <trkpt lat="46.53853" lon="0.3297">
        <ele>101.6</ele>
        <time>2023-09-10T07:14:26Z</time>
      </trkpt>
      <trkpt lat="46.53854" lon="0.32978">
        <ele>100.4</ele>
        <time>2023-09-10T07:14:28Z</time>
      </trkpt>
      <trkpt lat="46.53853" lon="0.3298">
        <ele>99.6</ele>
        <time>2023-09-10T07:14:29Z</time>
      </trkpt>
      <trkpt lat="46.53852" lon="0.32982">
        <ele>99</ele>
        <time>2023-09-10T07:14:30Z</time>
      </trkpt>
      <trkpt lat="46.53852" lon="0.32987">
        <ele>97.6</ele>
        <time>2023-09-10T07:14:32Z</time>
      </trkpt>
      <trkpt lat="46.53853" lon="0.32992">
        <ele>96.2</ele>
        <time>2023-09-10T07:14:34Z</time>
      </trkpt>
      <trkpt lat="46.53853" lon="0.32999">
        <ele>95</ele>
        <time>2023-09-10T07:14:36Z</time>
      </trkpt>
      <trkpt lat="46.53854" lon="0.33009">
        <ele>94</ele>
        <time>2023-09-10T07:14:37Z</time>
      </trkpt>
      <trkpt lat="46.53855" lon="0.33013">
        <ele>93.6</ele>
        <time>2023-09-10T07:14:38Z</time>
      </trkpt>
      <trkpt lat="46.53857" lon="0.3302">
        <ele>92.2</ele>
        <time>2023-09-10T07:14:40Z</time>
      </trkpt>
      <trkpt lat="46.53859" lon="0.33028">
        <ele>90</ele>
        <time>2023-09-10T07:14:42Z</time>
      </trkpt>
      <trkpt lat="46.53859" lon="0.33032">
        <ele>89</ele>
        <time>2023-09-10T07:14:43Z</time>
      </trkpt>
      <trkpt lat="46.5386" lon="0.33036">
        <ele>87</ele>
        <time>2023-09-10T07:14:44Z</time>
      </trkpt>
      <trkpt lat="46.53862" lon="0.33041">
        <ele>86</ele>
        <time>2023-09-10T07:14:45Z</time>
      </trkpt>
      <trkpt lat="46.53865" lon="0.33051">
        <ele>84</ele>
        <time>2023-09-10T07:14:47Z</time>
      </trkpt>
      <trkpt lat="46.53866" lon="0.33058">
        <ele>82.2</ele>
        <time>2023-09-10T07:14:48Z</time>
      </trkpt>
      <trkpt lat="46.53867" lon="0.33061">
        <ele>80.4</ele>
        <time>2023-09-10T07:14:49Z</time>
      </trkpt>
      <trkpt lat="46.53867" lon="0.33064">
        <ele>79.4</ele>
        <time>2023-09-10T07:14:50Z</time>
      </trkpt>
      <trkpt lat="46.53867" lon="0.33066">
        <ele>78.8</ele>
        <time>2023-09-10T07:14:51Z</time>
      </trkpt>
      <trkpt lat="46.53867" lon="0.33068">
        <ele>78.2</ele>
        <time>2023-09-10T07:14:53Z</time>
      </trkpt>
      <trkpt lat="46.53867" lon="0.33071">
        <ele>77.8</ele>
        <time>2023-09-10T07:14:57Z</time>
      </trkpt>
      <trkpt lat="46.53866" lon="0.33083">
        <ele>77.8</ele>
        <time>2023-09-10T07:15:08Z</time>
      </trkpt>
      <trkpt lat="46.53864" lon="0.33086">
        <ele>78</ele>
        <time>2023-09-10T07:15:12Z</time>
      </trkpt>
      <trkpt lat="46.53861" lon="0.33091">
        <ele>78.8</ele>
        <time>2023-09-10T07:15:16Z</time>
      </trkpt>
      <trkpt lat="46.5386" lon="0.33093">
        <ele>79.4</ele>
        <time>2023-09-10T07:15:18Z</time>
      </trkpt>
      <trkpt lat="46.53858" lon="0.33094">
        <ele>79.8</ele>
        <time>2023-09-10T07:15:20Z</time>
      </trkpt>
      <trkpt lat="46.53856" lon="0.33097">
        <ele>80.4</ele>
        <time>2023-09-10T07:15:23Z</time>
      </trkpt>
      <trkpt lat="46.53856" lon="0.33098">
        <ele>80.4</ele>
        <time>2023-09-10T07:15:24Z</time>
      </trkpt>
      <trkpt lat="46.53855" lon="0.33101">
        <ele>80.6</ele>
        <time>2023-09-10T07:15:32Z</time>
      </trkpt>
      <trkpt lat="46.53855" lon="0.33101">
        <ele>80.8</ele>
        <time>2023-09-10T07:15:47Z</time>
      </trkpt>
      <trkpt lat="46.53853" lon="0.33099">
        <ele>81</ele>
        <time>2023-09-10T07:16:05Z</time>
      </trkpt>
      <trkpt lat="46.5385" lon="0.33096">
        <ele>80.8</ele>
        <time>2023-09-10T07:16:21Z</time>
      </trkpt>
      <trkpt lat="46.53846" lon="0.33104">
        <ele>81.4</ele>
        <time>2023-09-10T07:16:36Z</time>
      </trkpt>
      <trkpt lat="46.53846" lon="0.33106">
        <ele>81.8</ele>
        <time>2023-09-10T07:16:37Z</time>
      </trkpt>
      <trkpt lat="46.53845" lon="0.33107">
        <ele>82</ele>
        <time>2023-09-10T07:16:38Z</time>
      </trkpt>
      <trkpt lat="46.53843" lon="0.3311">
        <ele>82.2</ele>
        <time>2023-09-10T07:16:40Z</time>
      </trkpt>
      <trkpt lat="46.53841" lon="0.33112">
        <ele>83</ele>
        <time>2023-09-10T07:16:42Z</time>
      </trkpt>
      <trkpt lat="46.5384" lon="0.33115">
        <ele>83.8</ele>
        <time>2023-09-10T07:16:45Z</time>
      </trkpt>
      <trkpt lat="46.53839" lon="0.33116">
        <ele>84</ele>
        <time>2023-09-10T07:16:46Z</time>
      </trkpt>
      <trkpt lat="46.53838" lon="0.33119">
        <ele>84.4</ele>
        <time>2023-09-10T07:16:48Z</time>
      </trkpt>
      <trkpt lat="46.53837" lon="0.33121">
        <ele>84.8</ele>
        <time>2023-09-10T07:16:50Z</time>
      </trkpt>
      <trkpt lat="46.53836" lon="0.33123">
        <ele>85.4</ele>
        <time>2023-09-10T07:16:52Z</time>
      </trkpt>
      <trkpt lat="46.53835" lon="0.33124">
        <ele>85.6</ele>
        <time>2023-09-10T07:16:53Z</time>
      </trkpt>
      <trkpt lat="46.53834" lon="0.33125">
        <ele>86</ele>
        <time>2023-09-10T07:16:55Z</time>
      </trkpt>
      <trkpt lat="46.53832" lon="0.33126">
        <ele>86.6</ele>
        <time>2023-09-10T07:16:58Z</time>
      </trkpt>
      <trkpt lat="46.53832" lon="0.33128">
        <ele>87.2</ele>
        <time>2023-09-10T07:17:01Z</time>
      </trkpt>
      <trkpt lat="46.53833" lon="0.33132">
        <ele>87.4</ele>
        <time>2023-09-10T07:17:17Z</time>
      </trkpt>
      <trkpt lat="46.53832" lon="0.33135">
        <ele>87.6</ele>
        <time>2023-09-10T07:17:23Z</time>
      </trkpt>
      <trkpt lat="46.53829" lon="0.3314">
        <ele>88</ele>
        <time>2023-09-10T07:17:29Z</time>
      </trkpt>
      <trkpt lat="46.53826" lon="0.33143">
        <ele>88.6</ele>
        <time>2023-09-10T07:17:32Z</time>
      </trkpt>
      <trkpt lat="46.53826" lon="0.33143">
        <ele>88.8</ele>
        <time>2023-09-10T07:17:33Z</time>
      </trkpt>
      <trkpt lat="46.53825" lon="0.33146">
        <ele>88.8</ele>
        <time>2023-09-10T07:17:35Z</time>
      </trkpt>
      <trkpt lat="46.53823" lon="0.33149">
        <ele>89.8</ele>
        <time>2023-09-10T07:17:38Z</time>
      </trkpt>
      <trkpt lat="46.53822" lon="0.33151">
        <ele>90.4</ele>
        <time>2023-09-10T07:17:40Z</time>
      </trkpt>
      <trkpt lat="46.5382" lon="0.33153">
        <ele>91</ele>
        <time>2023-09-10T07:17:42Z</time>
      </trkpt>
      <trkpt lat="46.53817" lon="0.33156">
        <ele>91.6</ele>
        <time>2023-09-10T07:17:45Z</time>
      </trkpt>
      <trkpt lat="46.53815" lon="0.33158">
        <ele>92.2</ele>
        <time>2023-09-10T07:17:47Z</time>
      </trkpt>
      <trkpt lat="46.53813" lon="0.3316">
        <ele>92.8</ele>
        <time>2023-09-10T07:17:49Z</time>
      </trkpt>
      <trkpt lat="46.53812" lon="0.33161">
        <ele>93.4</ele>
        <time>2023-09-10T07:17:50Z</time>
      </trkpt>
      <trkpt lat="46.5381" lon="0.33163">
        <ele>94</ele>
        <time>2023-09-10T07:17:52Z</time>
      </trkpt>
      <trkpt lat="46.53807" lon="0.33167">
        <ele>94.2</ele>
        <time>2023-09-10T07:17:54Z</time>
      </trkpt>
      <trkpt lat="46.53805" lon="0.33169">
        <ele>94.4</ele>
        <time>2023-09-10T07:17:56Z</time>
      </trkpt>
      <trkpt lat="46.53798" lon="0.33174">
        <ele>95.4</ele>
        <time>2023-09-10T07:18:01Z</time>
      </trkpt>
      <trkpt lat="46.53797" lon="0.33175">
        <ele>96</ele>
        <time>2023-09-10T07:18:02Z</time>
      </trkpt>
      <trkpt lat="46.53794" lon="0.33175">
        <ele>96.6</ele>
        <time>2023-09-10T07:18:04Z</time>
      </trkpt>
      <trkpt lat="46.5379" lon="0.33177">
        <ele>97.8</ele>
        <time>2023-09-10T07:18:06Z</time>
      </trkpt>
      <trkpt lat="46.53781" lon="0.33184">
        <ele>99</ele>
        <time>2023-09-10T07:18:12Z</time>
      </trkpt>
      <trkpt lat="46.53778" lon="0.33186">
        <ele>99.4</ele>
        <time>2023-09-10T07:18:15Z</time>
      </trkpt>
      <trkpt lat="46.53776" lon="0.3319">
        <ele>100</ele>
        <time>2023-09-10T07:18:17Z</time>
      </trkpt>
      <trkpt lat="46.53771" lon="0.33197">
        <ele>101</ele>
        <time>2023-09-10T07:18:22Z</time>
      </trkpt>
      <trkpt lat="46.53769" lon="0.332">
        <ele>101.6</ele>
        <time>2023-09-10T07:18:24Z</time>
      </trkpt>
      <trkpt lat="46.53766" lon="0.33203">
        <ele>102.2</ele>
        <time>2023-09-10T07:18:27Z</time>
      </trkpt>
      <trkpt lat="46.53765" lon="0.33218">
        <ele>103.2</ele>
        <time>2023-09-10T07:18:33Z</time>
      </trkpt>
      <trkpt lat="46.53764" lon="0.33222">
        <ele>103.2</ele>
        <time>2023-09-10T07:18:35Z</time>
      </trkpt>
      <trkpt lat="46.53764" lon="0.33245">
        <ele>102.8</ele>
        <time>2023-09-10T07:18:44Z</time>
      </trkpt>
      <trkpt lat="46.53762" lon="0.33262">
        <ele>102.4</ele>
        <time>2023-09-10T07:18:49Z</time>
      </trkpt>
      <trkpt lat="46.53762" lon="0.33266">
        <ele>102.2</ele>
        <time>2023-09-10T07:18:50Z</time>
      </trkpt>
      <trkpt lat="46.53763" lon="0.33278">
        <ele>101.6</ele>
        <time>2023-09-10T07:18:53Z</time>
      </trkpt>
      <trkpt lat="46.53763" lon="0.33281">
        <ele>101.2</ele>
        <time>2023-09-10T07:18:54Z</time>
      </trkpt>
      <trkpt lat="46.53763" lon="0.33299">
        <ele>100.8</ele>
        <time>2023-09-10T07:18:59Z</time>
      </trkpt>
      <trkpt lat="46.53763" lon="0.33304">
        <ele>100.6</ele>
        <time>2023-09-10T07:19:01Z</time>
      </trkpt>
      <trkpt lat="46.53763" lon="0.33311">
        <ele>100</ele>
        <time>2023-09-10T07:19:03Z</time>
      </trkpt>
      <trkpt lat="46.53763" lon="0.33314">
        <ele>99.2</ele>
        <time>2023-09-10T07:19:04Z</time>
      </trkpt>
      <trkpt lat="46.53763" lon="0.33317">
        <ele>98.8</ele>
        <time>2023-09-10T07:19:05Z</time>
      </trkpt>
      <trkpt lat="46.53764" lon="0.33328">
        <ele>97.8</ele>
        <time>2023-09-10T07:19:08Z</time>
      </trkpt>
      <trkpt lat="46.53763" lon="0.33331">
        <ele>97.6</ele>
        <time>2023-09-10T07:19:09Z</time>
      </trkpt>
      <trkpt lat="46.53763" lon="0.33334">
        <ele>97.2</ele>
        <time>2023-09-10T07:19:10Z</time>
      </trkpt>
      <trkpt lat="46.53759" lon="0.33345">
        <ele>96.2</ele>
        <time>2023-09-10T07:19:13Z</time>
      </trkpt>
      <trkpt lat="46.53758" lon="0.33355">
        <ele>95.2</ele>
        <time>2023-09-10T07:19:16Z</time>
      </trkpt>
      <trkpt lat="46.5375" lon="0.33372">
        <ele>94.8</ele>
        <time>2023-09-10T07:19:21Z</time>
      </trkpt>
      <trkpt lat="46.5375" lon="0.33375">
        <ele>95</ele>
        <time>2023-09-10T07:19:22Z</time>
      </trkpt>
      <trkpt lat="46.53748" lon="0.33389">
        <ele>95</ele>
        <time>2023-09-10T07:19:26Z</time>
      </trkpt>
      <trkpt lat="46.5375" lon="0.33398">
        <ele>95</ele>
        <time>2023-09-10T07:19:28Z</time>
      </trkpt>
      <trkpt lat="46.53751" lon="0.33406">
        <ele>94.4</ele>
        <time>2023-09-10T07:19:30Z</time>
      </trkpt>
      <trkpt lat="46.53751" lon="0.33407">
        <ele>94</ele>
        <time>2023-09-10T07:19:31Z</time>
      </trkpt>
      <trkpt lat="46.53751" lon="0.33408">
        <ele>93</ele>
        <time>2023-09-10T07:19:34Z</time>
      </trkpt>
      <trkpt lat="46.53751" lon="0.33406">
        <ele>92.8</ele>
        <time>2023-09-10T07:19:35Z</time>
      </trkpt>
      <trkpt lat="46.5375" lon="0.33398">
        <ele>92.2</ele>
        <time>2023-09-10T07:19:40Z</time>
      </trkpt>
      <trkpt lat="46.53749" lon="0.33395">
        <ele>92</ele>
        <time>2023-09-10T07:19:42Z</time>
      </trkpt>
      <trkpt lat="46.53751" lon="0.33387">
        <ele>93</ele>
        <time>2023-09-10T07:19:45Z</time>
      </trkpt>
      <trkpt lat="46.5376" lon="0.33377">
        <ele>91.2</ele>
        <time>2023-09-10T07:19:50Z</time>
      </trkpt>
      <trkpt lat="46.53761" lon="0.33374">
        <ele>90.6</ele>
        <time>2023-09-10T07:19:51Z</time>
      </trkpt>
      <trkpt lat="46.53763" lon="0.33369">
        <ele>90</ele>
        <time>2023-09-10T07:19:53Z</time>
      </trkpt>
      <trkpt lat="46.53766" lon="0.33363">
        <ele>88.6</ele>
        <time>2023-09-10T07:19:55Z</time>
      </trkpt>
      <trkpt lat="46.5377" lon="0.33358">
        <ele>87</ele>
        <time>2023-09-10T07:19:57Z</time>
      </trkpt>
      <trkpt lat="46.53772" lon="0.33356">
        <ele>85.8</ele>
        <time>2023-09-10T07:19:58Z</time>
      </trkpt>
      <trkpt lat="46.53773" lon="0.33352">
        <ele>84.4</ele>
        <time>2023-09-10T07:20:00Z</time>
      </trkpt>
      <trkpt lat="46.53773" lon="0.33339">
        <ele>83.4</ele>
        <time>2023-09-10T07:20:04Z</time>
      </trkpt>
      <trkpt lat="46.53772" lon="0.3333">
        <ele>83</ele>
        <time>2023-09-10T07:20:06Z</time>
      </trkpt>
      <trkpt lat="46.53773" lon="0.33321">
        <ele>82.8</ele>
        <time>2023-09-10T07:20:08Z</time>
      </trkpt>
      <trkpt lat="46.53777" lon="0.3331">
        <ele>82.6</ele>
        <time>2023-09-10T07:20:11Z</time>
      </trkpt>
      <trkpt lat="46.5378" lon="0.33303">
        <ele>82.4</ele>
        <time>2023-09-10T07:20:12Z</time>
      </trkpt>
      <trkpt lat="46.53787" lon="0.33289">
        <ele>82.2</ele>
        <time>2023-09-10T07:20:14Z</time>
      </trkpt>
      <trkpt lat="46.53788" lon="0.33282">
        <ele>81.6</ele>
        <time>2023-09-10T07:20:15Z</time>
      </trkpt>
      <trkpt lat="46.53791" lon="0.33275">
        <ele>81</ele>
        <time>2023-09-10T07:20:16Z</time>
      </trkpt>
      <trkpt lat="46.53796" lon="0.33267">
        <ele>80.8</ele>
        <time>2023-09-10T07:20:17Z</time>
      </trkpt>
      <trkpt lat="46.53802" lon="0.33248">
        <ele>79.6</ele>
        <time>2023-09-10T07:20:20Z</time>
      </trkpt>
      <trkpt lat="46.53805" lon="0.33241">
        <ele>79.4</ele>
        <time>2023-09-10T07:20:21Z</time>
      </trkpt>
      <trkpt lat="46.53804" lon="0.33233">
        <ele>79.2</ele>
        <time>2023-09-10T07:20:22Z</time>
      </trkpt>
      <trkpt lat="46.53808" lon="0.33216">
        <ele>78.8</ele>
        <time>2023-09-10T07:20:24Z</time>
      </trkpt>
      <trkpt lat="46.53809" lon="0.33208">
        <ele>78.4</ele>
        <time>2023-09-10T07:20:25Z</time>
      </trkpt>
      <trkpt lat="46.53817" lon="0.33186">
        <ele>77.6</ele>
        <time>2023-09-10T07:20:27Z</time>
      </trkpt>
      <trkpt lat="46.53821" lon="0.33177">
        <ele>77.2</ele>
        <time>2023-09-10T07:20:28Z</time>
      </trkpt>
      <trkpt lat="46.53829" lon="0.33159">
        <ele>76.2</ele>
        <time>2023-09-10T07:20:30Z</time>
      </trkpt>
      <trkpt lat="46.53833" lon="0.33151">
        <ele>76</ele>
        <time>2023-09-10T07:20:31Z</time>
      </trkpt>
      <trkpt lat="46.53849" lon="0.33111">
        <ele>75.2</ele>
        <time>2023-09-10T07:20:36Z</time>
      </trkpt>
      <trkpt lat="46.53859" lon="0.33093">
        <ele>74.8</ele>
        <time>2023-09-10T07:20:39Z</time>
      </trkpt>
      <trkpt lat="46.53871" lon="0.33071">
        <ele>74.4</ele>
        <time>2023-09-10T07:20:42Z</time>
      </trkpt>
      <trkpt lat="46.53873" lon="0.33065">
        <ele>74.4</ele>
        <time>2023-09-10T07:20:43Z</time>
      </trkpt>
      <trkpt lat="46.5389" lon="0.33032">
        <ele>73.8</ele>
        <time>2023-09-10T07:20:48Z</time>
      </trkpt>
      <trkpt lat="46.53895" lon="0.33025">
        <ele>73.8</ele>
        <time>2023-09-10T07:20:49Z</time>
      </trkpt>
      <trkpt lat="46.5391" lon="0.33001">
        <ele>73.8</ele>
        <time>2023-09-10T07:20:54Z</time>
      </trkpt>
      <trkpt lat="46.53912" lon="0.32996">
        <ele>73.8</ele>
        <time>2023-09-10T07:20:55Z</time>
      </trkpt>
      <trkpt lat="46.53916" lon="0.3299">
        <ele>73.8</ele>
        <time>2023-09-10T07:20:56Z</time>
      </trkpt>
      <trkpt lat="46.5392" lon="0.3298">
        <ele>74</ele>
        <time>2023-09-10T07:20:58Z</time>
      </trkpt>
      <trkpt lat="46.53924" lon="0.3297">
        <ele>74</ele>
        <time>2023-09-10T07:21:00Z</time>
      </trkpt>
      <trkpt lat="46.53927" lon="0.32962">
        <ele>73.6</ele>
        <time>2023-09-10T07:21:02Z</time>
      </trkpt>
      <trkpt lat="46.53931" lon="0.32955">
        <ele>73.6</ele>
        <time>2023-09-10T07:21:04Z</time>
      </trkpt>
      <trkpt lat="46.53934" lon="0.32948">
        <ele>73.6</ele>
        <time>2023-09-10T07:21:06Z</time>
      </trkpt>
      <trkpt lat="46.53936" lon="0.32944">
        <ele>73.4</ele>
        <time>2023-09-10T07:21:07Z</time>
      </trkpt>
      <trkpt lat="46.53943" lon="0.3294">
        <ele>72.8</ele>
        <time>2023-09-10T07:21:09Z</time>
      </trkpt>
      <trkpt lat="46.53945" lon="0.32936">
        <ele>72.8</ele>
        <time>2023-09-10T07:21:10Z</time>
      </trkpt>
      <trkpt lat="46.53949" lon="0.32932">
        <ele>72.6</ele>
        <time>2023-09-10T07:21:11Z</time>
      </trkpt>
      <trkpt lat="46.53955" lon="0.32925">
        <ele>72.6</ele>
        <time>2023-09-10T07:21:13Z</time>
      </trkpt>
      <trkpt lat="46.53963" lon="0.32919">
        <ele>72.8</ele>
        <time>2023-09-10T07:21:15Z</time>
      </trkpt>
      <trkpt lat="46.53969" lon="0.32916">
        <ele>73</ele>
        <time>2023-09-10T07:21:16Z</time>
      </trkpt>
      <trkpt lat="46.53998" lon="0.32908">
        <ele>73</ele>
        <time>2023-09-10T07:21:21Z</time>
      </trkpt>
      <trkpt lat="46.54027" lon="0.32898">
        <ele>73</ele>
        <time>2023-09-10T07:21:27Z</time>
      </trkpt>
      <trkpt lat="46.5404" lon="0.32894">
        <ele>73.8</ele>
        <time>2023-09-10T07:21:30Z</time>
      </trkpt>
      <trkpt lat="46.54048" lon="0.32889">
        <ele>74</ele>
        <time>2023-09-10T07:21:32Z</time>
      </trkpt>
      <trkpt lat="46.54052" lon="0.32887">
        <ele>74.2</ele>
        <time>2023-09-10T07:21:33Z</time>
      </trkpt>
      <trkpt lat="46.54062" lon="0.32883">
        <ele>74.6</ele>
        <time>2023-09-10T07:21:35Z</time>
      </trkpt>
      <trkpt lat="46.54063" lon="0.32878">
        <ele>75</ele>
        <time>2023-09-10T07:21:36Z</time>
      </trkpt>
      <trkpt lat="46.54065" lon="0.32874">
        <ele>75.4</ele>
        <time>2023-09-10T07:21:37Z</time>
      </trkpt>
      <trkpt lat="46.54077" lon="0.32859">
        <ele>75.8</ele>
        <time>2023-09-10T07:21:41Z</time>
      </trkpt>
      <trkpt lat="46.54081" lon="0.32852">
        <ele>75.8</ele>
        <time>2023-09-10T07:21:42Z</time>
      </trkpt>
      <trkpt lat="46.54086" lon="0.32846">
        <ele>75.8</ele>
        <time>2023-09-10T07:21:43Z</time>
      </trkpt>
      <trkpt lat="46.54097" lon="0.32833">
        <ele>75.2</ele>
        <time>2023-09-10T07:21:45Z</time>
      </trkpt>
      <trkpt lat="46.54103" lon="0.32829">
        <ele>74.6</ele>
        <time>2023-09-10T07:21:46Z</time>
      </trkpt>
      <trkpt lat="46.54109" lon="0.32827">
        <ele>74.2</ele>
        <time>2023-09-10T07:21:47Z</time>
      </trkpt>
      <trkpt lat="46.54115" lon="0.32825">
        <ele>73.8</ele>
        <time>2023-09-10T07:21:48Z</time>
      </trkpt>
      <trkpt lat="46.54121" lon="0.32821">
        <ele>73.6</ele>
        <time>2023-09-10T07:21:49Z</time>
      </trkpt>
      <trkpt lat="46.54127" lon="0.32817">
        <ele>73.6</ele>
        <time>2023-09-10T07:21:50Z</time>
      </trkpt>
      <trkpt lat="46.54133" lon="0.32814">
        <ele>73.4</ele>
        <time>2023-09-10T07:21:51Z</time>
      </trkpt>
      <trkpt lat="46.54162" lon="0.32797">
        <ele>73.4</ele>
        <time>2023-09-10T07:21:56Z</time>
      </trkpt>
      <trkpt lat="46.54166" lon="0.32792">
        <ele>73.4</ele>
        <time>2023-09-10T07:21:57Z</time>
      </trkpt>
      <trkpt lat="46.54173" lon="0.32785">
        <ele>73.2</ele>
        <time>2023-09-10T07:21:59Z</time>
      </trkpt>
      <trkpt lat="46.54176" lon="0.32783">
        <ele>73.2</ele>
        <time>2023-09-10T07:22:00Z</time>
      </trkpt>
      <trkpt lat="46.54179" lon="0.32778">
        <ele>72.8</ele>
        <time>2023-09-10T07:22:02Z</time>
      </trkpt>
      <trkpt lat="46.54183" lon="0.32768">
        <ele>73</ele>
        <time>2023-09-10T07:22:05Z</time>
      </trkpt>
      <trkpt lat="46.54187" lon="0.32757">
        <ele>73.2</ele>
        <time>2023-09-10T07:22:09Z</time>
      </trkpt>
      <trkpt lat="46.54186" lon="0.32754">
        <ele>73.2</ele>
        <time>2023-09-10T07:22:10Z</time>
      </trkpt>
      <trkpt lat="46.54188" lon="0.32742">
        <ele>73.4</ele>
        <time>2023-09-10T07:22:16Z</time>
      </trkpt>
      <trkpt lat="46.54193" lon="0.32731">
        <ele>73.4</ele>
        <time>2023-09-10T07:22:21Z</time>
      </trkpt>
      <trkpt lat="46.54192" lon="0.32727">
        <ele>73.4</ele>
        <time>2023-09-10T07:22:23Z</time>
      </trkpt>
      <trkpt lat="46.54181" lon="0.32722">
        <ele>73.4</ele>
        <time>2023-09-10T07:22:29Z</time>
      </trkpt>
      <trkpt lat="46.54164" lon="0.32717">
        <ele>73.2</ele>
        <time>2023-09-10T07:22:34Z</time>
      </trkpt>
      <trkpt lat="46.54144" lon="0.32709">
        <ele>73.2</ele>
        <time>2023-09-10T07:22:39Z</time>
      </trkpt>
      <trkpt lat="46.54109" lon="0.32712">
        <ele>73.8</ele>
        <time>2023-09-10T07:22:47Z</time>
      </trkpt>
      <trkpt lat="46.54097" lon="0.32715">
        <ele>73.8</ele>
        <time>2023-09-10T07:22:50Z</time>
      </trkpt>
      <trkpt lat="46.54085" lon="0.32716">
        <ele>73.8</ele>
        <time>2023-09-10T07:22:53Z</time>
      </trkpt>
      <trkpt lat="46.54052" lon="0.32716">
        <ele>73.8</ele>
        <time>2023-09-10T07:23:01Z</time>
      </trkpt>
      <trkpt lat="46.54043" lon="0.32718">
        <ele>73.6</ele>
        <time>2023-09-10T07:23:03Z</time>
      </trkpt>
      <trkpt lat="46.54017" lon="0.3272">
        <ele>73.6</ele>
        <time>2023-09-10T07:23:09Z</time>
      </trkpt>
      <trkpt lat="46.53997" lon="0.32718">
        <ele>73.8</ele>
        <time>2023-09-10T07:23:14Z</time>
      </trkpt>
      <trkpt lat="46.53993" lon="0.32717">
        <ele>73.8</ele>
        <time>2023-09-10T07:23:15Z</time>
      </trkpt>
      <trkpt lat="46.5398" lon="0.3271">
        <ele>74</ele>
        <time>2023-09-10T07:23:18Z</time>
      </trkpt>
      <trkpt lat="46.5397" lon="0.32703">
        <ele>73.8</ele>
        <time>2023-09-10T07:23:21Z</time>
      </trkpt>
      <trkpt lat="46.53963" lon="0.32701">
        <ele>73.6</ele>
        <time>2023-09-10T07:23:26Z</time>
      </trkpt>
      <trkpt lat="46.53962" lon="0.32699">
        <ele>73.8</ele>
        <time>2023-09-10T07:23:30Z</time>
      </trkpt>
      <trkpt lat="46.53962" lon="0.32698">
        <ele>73.6</ele>
        <time>2023-09-10T07:23:32Z</time>
      </trkpt>
      <trkpt lat="46.53964" lon="0.32701">
        <ele>73.8</ele>
        <time>2023-09-10T07:23:36Z</time>
      </trkpt>
      <trkpt lat="46.53966" lon="0.32706">
        <ele>74</ele>
        <time>2023-09-10T07:23:40Z</time>
      </trkpt>
      <trkpt lat="46.53968" lon="0.32707">
        <ele>74.2</ele>
        <time>2023-09-10T07:23:42Z</time>
      </trkpt>
      <trkpt lat="46.53971" lon="0.32704">
        <ele>75</ele>
        <time>2023-09-10T07:23:47Z</time>
      </trkpt>
      <trkpt lat="46.53972" lon="0.32703">
        <ele>75.4</ele>
        <time>2023-09-10T07:23:48Z</time>
      </trkpt>
      <trkpt lat="46.53974" lon="0.32702">
        <ele>76</ele>
        <time>2023-09-10T07:23:50Z</time>
      </trkpt>
      <trkpt lat="46.53978" lon="0.32699">
        <ele>77</ele>
        <time>2023-09-10T07:23:54Z</time>
      </trkpt>
      <trkpt lat="46.53982" lon="0.32694">
        <ele>78.4</ele>
        <time>2023-09-10T07:23:58Z</time>
      </trkpt>
      <trkpt lat="46.53984" lon="0.32693">
        <ele>78.8</ele>
        <time>2023-09-10T07:24:00Z</time>
      </trkpt>
      <trkpt lat="46.53986" lon="0.32691">
        <ele>79.4</ele>
        <time>2023-09-10T07:24:02Z</time>
      </trkpt>
      <trkpt lat="46.53991" lon="0.32686">
        <ele>80.6</ele>
        <time>2023-09-10T07:24:06Z</time>
      </trkpt>
      <trkpt lat="46.53994" lon="0.32682">
        <ele>81.8</ele>
        <time>2023-09-10T07:24:09Z</time>
      </trkpt>
      <trkpt lat="46.53997" lon="0.3268">
        <ele>82.6</ele>
        <time>2023-09-10T07:24:12Z</time>
      </trkpt>
      <trkpt lat="46.53999" lon="0.32679">
        <ele>83</ele>
        <time>2023-09-10T07:24:13Z</time>
      </trkpt>
      <trkpt lat="46.54002" lon="0.32676">
        <ele>84.2</ele>
        <time>2023-09-10T07:24:16Z</time>
      </trkpt>
      <trkpt lat="46.54006" lon="0.32674">
        <ele>85.2</ele>
        <time>2023-09-10T07:24:19Z</time>
      </trkpt>
      <trkpt lat="46.54014" lon="0.32673">
        <ele>86.4</ele>
        <time>2023-09-10T07:24:24Z</time>
      </trkpt>
      <trkpt lat="46.54017" lon="0.32672">
        <ele>86.8</ele>
        <time>2023-09-10T07:24:26Z</time>
      </trkpt>
      <trkpt lat="46.54025" lon="0.32665">
        <ele>87.6</ele>
        <time>2023-09-10T07:24:32Z</time>
      </trkpt>
      <trkpt lat="46.54029" lon="0.32661">
        <ele>88.6</ele>
        <time>2023-09-10T07:24:37Z</time>
      </trkpt>
      <trkpt lat="46.54033" lon="0.32654">
        <ele>89.6</ele>
        <time>2023-09-10T07:24:43Z</time>
      </trkpt>
      <trkpt lat="46.54034" lon="0.32653">
        <ele>90</ele>
        <time>2023-09-10T07:24:44Z</time>
      </trkpt>
      <trkpt lat="46.54035" lon="0.3265">
        <ele>90.6</ele>
        <time>2023-09-10T07:24:46Z</time>
      </trkpt>
      <trkpt lat="46.54038" lon="0.32646">
        <ele>91.4</ele>
        <time>2023-09-10T07:24:49Z</time>
      </trkpt>
      <trkpt lat="46.54039" lon="0.32645">
        <ele>91.6</ele>
        <time>2023-09-10T07:24:50Z</time>
      </trkpt>
      <trkpt lat="46.54039" lon="0.32644">
        <ele>91.8</ele>
        <time>2023-09-10T07:24:51Z</time>
      </trkpt>
      <trkpt lat="46.5404" lon="0.32642">
        <ele>92</ele>
        <time>2023-09-10T07:24:52Z</time>
      </trkpt>
      <trkpt lat="46.54041" lon="0.32639">
        <ele>92.4</ele>
        <time>2023-09-10T07:24:54Z</time>
      </trkpt>
      <trkpt lat="46.54043" lon="0.32637">
        <ele>92.8</ele>
        <time>2023-09-10T07:24:56Z</time>
      </trkpt>
      <trkpt lat="46.54045" lon="0.32635">
        <ele>93</ele>
        <time>2023-09-10T07:24:57Z</time>
      </trkpt>
      <trkpt lat="46.54048" lon="0.3263">
        <ele>93.6</ele>
        <time>2023-09-10T07:25:00Z</time>
      </trkpt>
      <trkpt lat="46.5405" lon="0.32628">
        <ele>94</ele>
        <time>2023-09-10T07:25:02Z</time>
      </trkpt>
      <trkpt lat="46.54057" lon="0.32623">
        <ele>95</ele>
        <time>2023-09-10T07:25:08Z</time>
      </trkpt>
      <trkpt lat="46.54059" lon="0.32623">
        <ele>95.4</ele>
        <time>2023-09-10T07:25:09Z</time>
      </trkpt>
      <trkpt lat="46.54062" lon="0.32621">
        <ele>95.8</ele>
        <time>2023-09-10T07:25:12Z</time>
      </trkpt>
      <trkpt lat="46.54065" lon="0.3262">
        <ele>96.6</ele>
        <time>2023-09-10T07:25:14Z</time>
      </trkpt>
      <trkpt lat="46.54071" lon="0.32617">
        <ele>97.8</ele>
        <time>2023-09-10T07:25:19Z</time>
      </trkpt>
      <trkpt lat="46.54078" lon="0.32615">
        <ele>99</ele>
        <time>2023-09-10T07:25:24Z</time>
      </trkpt>
      <trkpt lat="46.5408" lon="0.32613">
        <ele>99.4</ele>
        <time>2023-09-10T07:25:26Z</time>
      </trkpt>
      <trkpt lat="46.54084" lon="0.32612">
        <ele>100</ele>
        <time>2023-09-10T07:25:29Z</time>
      </trkpt>
      <trkpt lat="46.54092" lon="0.3261">
        <ele>101.2</ele>
        <time>2023-09-10T07:25:35Z</time>
      </trkpt>
      <trkpt lat="46.541" lon="0.32607">
        <ele>102.4</ele>
        <time>2023-09-10T07:25:40Z</time>
      </trkpt>
      <trkpt lat="46.54106" lon="0.32607">
        <ele>103.4</ele>
        <time>2023-09-10T07:25:44Z</time>
      </trkpt>
      <trkpt lat="46.54113" lon="0.32605">
        <ele>104.4</ele>
        <time>2023-09-10T07:25:49Z</time>
      </trkpt>
      <trkpt lat="46.54114" lon="0.32604">
        <ele>104.4</ele>
        <time>2023-09-10T07:25:50Z</time>
      </trkpt>
      <trkpt lat="46.54115" lon="0.326">
        <ele>105</ele>
        <time>2023-09-10T07:25:54Z</time>
      </trkpt>
      <trkpt lat="46.54115" lon="0.32598">
        <ele>105.6</ele>
        <time>2023-09-10T07:25:57Z</time>
      </trkpt>
      <trkpt lat="46.54114" lon="0.32597">
        <ele>105.8</ele>
        <time>2023-09-10T07:25:58Z</time>
      </trkpt>
      <trkpt lat="46.54114" lon="0.32596">
        <ele>106</ele>
        <time>2023-09-10T07:25:59Z</time>
      </trkpt>
      <trkpt lat="46.54112" lon="0.32594">
        <ele>106.4</ele>
        <time>2023-09-10T07:26:01Z</time>
      </trkpt>
      <trkpt lat="46.54111" lon="0.3259">
        <ele>106.6</ele>
        <time>2023-09-10T07:26:03Z</time>
      </trkpt>
      <trkpt lat="46.54111" lon="0.32587">
        <ele>106.8</ele>
        <time>2023-09-10T07:26:05Z</time>
      </trkpt>
      <trkpt lat="46.54108" lon="0.32582">
        <ele>107.6</ele>
        <time>2023-09-10T07:26:09Z</time>
      </trkpt>
      <trkpt lat="46.54101" lon="0.32577">
        <ele>107.6</ele>
        <time>2023-09-10T07:26:14Z</time>
      </trkpt>
      <trkpt lat="46.54096" lon="0.32574">
        <ele>107.2</ele>
        <time>2023-09-10T07:26:16Z</time>
      </trkpt>
      <trkpt lat="46.54082" lon="0.32563">
        <ele>107</ele>
        <time>2023-09-10T07:26:21Z</time>
      </trkpt>
      <trkpt lat="46.54065" lon="0.32559">
        <ele>106.8</ele>
        <time>2023-09-10T07:26:28Z</time>
      </trkpt>
      <trkpt lat="46.54053" lon="0.32548">
        <ele>107.6</ele>
        <time>2023-09-10T07:26:34Z</time>
      </trkpt>
      <trkpt lat="46.54053" lon="0.32545">
        <ele>107.8</ele>
        <time>2023-09-10T07:26:35Z</time>
      </trkpt>
      <trkpt lat="46.54052" lon="0.32543">
        <ele>108</ele>
        <time>2023-09-10T07:26:36Z</time>
      </trkpt>
      <trkpt lat="46.54052" lon="0.32541">
        <ele>108.2</ele>
        <time>2023-09-10T07:26:37Z</time>
      </trkpt>
      <trkpt lat="46.54049" lon="0.32532">
        <ele>109</ele>
        <time>2023-09-10T07:26:40Z</time>
      </trkpt>
      <trkpt lat="46.54047" lon="0.32525">
        <ele>110</ele>
        <time>2023-09-10T07:26:43Z</time>
      </trkpt>
      <trkpt lat="46.54048" lon="0.32514">
        <ele>111</ele>
        <time>2023-09-10T07:26:47Z</time>
      </trkpt>
      <trkpt lat="46.54047" lon="0.32512">
        <ele>111.2</ele>
        <time>2023-09-10T07:26:48Z</time>
      </trkpt>
      <trkpt lat="46.54046" lon="0.32501">
        <ele>112.4</ele>
        <time>2023-09-10T07:26:52Z</time>
      </trkpt>
      <trkpt lat="46.54045" lon="0.32493">
        <ele>112.6</ele>
        <time>2023-09-10T07:26:54Z</time>
      </trkpt>
      <trkpt lat="46.54045" lon="0.32486">
        <ele>113</ele>
        <time>2023-09-10T07:26:56Z</time>
      </trkpt>
      <trkpt lat="46.54046" lon="0.32484">
        <ele>113.6</ele>
        <time>2023-09-10T07:26:57Z</time>
      </trkpt>
      <trkpt lat="46.54048" lon="0.32482">
        <ele>114</ele>
        <time>2023-09-10T07:26:58Z</time>
      </trkpt>
      <trkpt lat="46.5405" lon="0.3248">
        <ele>114.2</ele>
        <time>2023-09-10T07:26:59Z</time>
      </trkpt>
      <trkpt lat="46.54057" lon="0.32478">
        <ele>114.6</ele>
        <time>2023-09-10T07:27:03Z</time>
      </trkpt>
      <trkpt lat="46.54072" lon="0.32478">
        <ele>114</ele>
        <time>2023-09-10T07:27:09Z</time>
      </trkpt>
      <trkpt lat="46.54079" lon="0.32477">
        <ele>113.8</ele>
        <time>2023-09-10T07:27:12Z</time>
      </trkpt>
      <trkpt lat="46.54086" lon="0.32477">
        <ele>113.8</ele>
        <time>2023-09-10T07:27:14Z</time>
      </trkpt>
      <trkpt lat="46.54102" lon="0.32478">
        <ele>114.2</ele>
        <time>2023-09-10T07:27:19Z</time>
      </trkpt>
      <trkpt lat="46.5411" lon="0.32481">
        <ele>114.8</ele>
        <time>2023-09-10T07:27:22Z</time>
      </trkpt>
      <trkpt lat="46.5412" lon="0.32485">
        <ele>115.2</ele>
        <time>2023-09-10T07:27:25Z</time>
      </trkpt>
      <trkpt lat="46.5413" lon="0.32486">
        <ele>115.8</ele>
        <time>2023-09-10T07:27:28Z</time>
      </trkpt>
      <trkpt lat="46.54138" lon="0.32488">
        <ele>115.8</ele>
        <time>2023-09-10T07:27:31Z</time>
      </trkpt>
      <trkpt lat="46.54147" lon="0.32498">
        <ele>116.4</ele>
        <time>2023-09-10T07:27:36Z</time>
      </trkpt>
      <trkpt lat="46.54152" lon="0.32503">
        <ele>116.2</ele>
        <time>2023-09-10T07:27:39Z</time>
      </trkpt>
      <trkpt lat="46.54158" lon="0.32506">
        <ele>116</ele>
        <time>2023-09-10T07:27:42Z</time>
      </trkpt>
      <trkpt lat="46.5416" lon="0.32506">
        <ele>116</ele>
        <time>2023-09-10T07:27:43Z</time>
      </trkpt>
      <trkpt lat="46.54164" lon="0.32503">
        <ele>116</ele>
        <time>2023-09-10T07:27:46Z</time>
      </trkpt>
      <trkpt lat="46.54172" lon="0.32502">
        <ele>116.8</ele>
        <time>2023-09-10T07:27:49Z</time>
      </trkpt>
      <trkpt lat="46.54181" lon="0.32501">
        <ele>117.2</ele>
        <time>2023-09-10T07:27:52Z</time>
      </trkpt>
      <trkpt lat="46.54194" lon="0.32502">
        <ele>118.2</ele>
        <time>2023-09-10T07:27:56Z</time>
      </trkpt>
      <trkpt lat="46.54201" lon="0.32504">
        <ele>118.4</ele>
        <time>2023-09-10T07:27:58Z</time>
      </trkpt>
      <trkpt lat="46.54213" lon="0.32504">
        <ele>118.8</ele>
        <time>2023-09-10T07:28:01Z</time>
      </trkpt>
      <trkpt lat="46.54229" lon="0.32505">
        <ele>119</ele>
        <time>2023-09-10T07:28:05Z</time>
      </trkpt>
      <trkpt lat="46.54234" lon="0.32506">
        <ele>119.2</ele>
        <time>2023-09-10T07:28:06Z</time>
      </trkpt>
      <trkpt lat="46.54242" lon="0.32506">
        <ele>119.4</ele>
        <time>2023-09-10T07:28:08Z</time>
      </trkpt>
      <trkpt lat="46.54251" lon="0.32505">
        <ele>120.2</ele>
        <time>2023-09-10T07:28:11Z</time>
      </trkpt>
      <trkpt lat="46.54256" lon="0.32506">
        <ele>120.2</ele>
        <time>2023-09-10T07:28:12Z</time>
      </trkpt>
      <trkpt lat="46.54277" lon="0.32503">
        <ele>120.6</ele>
        <time>2023-09-10T07:28:18Z</time>
      </trkpt>
      <trkpt lat="46.54283" lon="0.32502">
        <ele>120.6</ele>
        <time>2023-09-10T07:28:20Z</time>
      </trkpt>
      <trkpt lat="46.54289" lon="0.32499">
        <ele>120.6</ele>
        <time>2023-09-10T07:28:22Z</time>
      </trkpt>
      <trkpt lat="46.54296" lon="0.32498">
        <ele>120.6</ele>
        <time>2023-09-10T07:28:24Z</time>
      </trkpt>
      <trkpt lat="46.54317" lon="0.32493">
        <ele>121.2</ele>
        <time>2023-09-10T07:28:29Z</time>
      </trkpt>
      <trkpt lat="46.54324" lon="0.3249">
        <ele>121.4</ele>
        <time>2023-09-10T07:28:31Z</time>
      </trkpt>
      <trkpt lat="46.54329" lon="0.32489">
        <ele>121.4</ele>
        <time>2023-09-10T07:28:32Z</time>
      </trkpt>
      <trkpt lat="46.54332" lon="0.32488">
        <ele>121.4</ele>
        <time>2023-09-10T07:28:33Z</time>
      </trkpt>
      <trkpt lat="46.54356" lon="0.32486">
        <ele>122</ele>
        <time>2023-09-10T07:28:39Z</time>
      </trkpt>
      <trkpt lat="46.5437" lon="0.32485">
        <ele>122</ele>
        <time>2023-09-10T07:28:42Z</time>
      </trkpt>
      <trkpt lat="46.54394" lon="0.32487">
        <ele>121.8</ele>
        <time>2023-09-10T07:28:46Z</time>
      </trkpt>
      <trkpt lat="46.54414" lon="0.32487">
        <ele>121.8</ele>
        <time>2023-09-10T07:28:50Z</time>
      </trkpt>
      <trkpt lat="46.54422" lon="0.32483">
        <ele>121.6</ele>
        <time>2023-09-10T07:28:54Z</time>
      </trkpt>
      <trkpt lat="46.54441" lon="0.32479">
        <ele>121</ele>
        <time>2023-09-10T07:29:01Z</time>
      </trkpt>
      <trkpt lat="46.54454" lon="0.32473">
        <ele>121</ele>
        <time>2023-09-10T07:29:09Z</time>
      </trkpt>
      <trkpt lat="46.54469" lon="0.3248">
        <ele>121</ele>
        <time>2023-09-10T07:29:20Z</time>
      </trkpt>
      <trkpt lat="46.54479" lon="0.32479">
        <ele>121</ele>
        <time>2023-09-10T07:29:26Z</time>
      </trkpt>
      <trkpt lat="46.54486" lon="0.32469">
        <ele>121</ele>
        <time>2023-09-10T07:29:31Z</time>
      </trkpt>
      <trkpt lat="46.54487" lon="0.32468">
        <ele>121</ele>
        <time>2023-09-10T07:29:32Z</time>
      </trkpt>
      <trkpt lat="46.54494" lon="0.32466">
        <ele>120.6</ele>
        <time>2023-09-10T07:29:35Z</time>
      </trkpt>
      <trkpt lat="46.54498" lon="0.32465">
        <ele>120.6</ele>
        <time>2023-09-10T07:29:37Z</time>
      </trkpt>
      <trkpt lat="46.54503" lon="0.32467">
        <ele>120.6</ele>
        <time>2023-09-10T07:29:39Z</time>
      </trkpt>
      <trkpt lat="46.54506" lon="0.3247">
        <ele>120.4</ele>
        <time>2023-09-10T07:29:40Z</time>
      </trkpt>
      <trkpt lat="46.54518" lon="0.32487">
        <ele>120.2</ele>
        <time>2023-09-10T07:29:46Z</time>
      </trkpt>
      <trkpt lat="46.5452" lon="0.3249">
        <ele>120.2</ele>
        <time>2023-09-10T07:29:47Z</time>
      </trkpt>
      <trkpt lat="46.54519" lon="0.32492">
        <ele>120</ele>
        <time>2023-09-10T07:29:48Z</time>
      </trkpt>
      <trkpt lat="46.54518" lon="0.32496">
        <ele>119.4</ele>
        <time>2023-09-10T07:29:50Z</time>
      </trkpt>
      <trkpt lat="46.54516" lon="0.32497">
        <ele>119.2</ele>
        <time>2023-09-10T07:29:51Z</time>
      </trkpt>
      <trkpt lat="46.54515" lon="0.32498">
        <ele>119</ele>
        <time>2023-09-10T07:29:52Z</time>
      </trkpt>
      <trkpt lat="46.54505" lon="0.32504">
        <ele>118.8</ele>
        <time>2023-09-10T07:29:57Z</time>
      </trkpt>
      <trkpt lat="46.54493" lon="0.32513">
        <ele>118.8</ele>
        <time>2023-09-10T07:30:03Z</time>
      </trkpt>
      <trkpt lat="46.54492" lon="0.32516">
        <ele>118.8</ele>
        <time>2023-09-10T07:30:04Z</time>
      </trkpt>
      <trkpt lat="46.54491" lon="0.32521">
        <ele>118.8</ele>
        <time>2023-09-10T07:30:06Z</time>
      </trkpt>
      <trkpt lat="46.54492" lon="0.32524">
        <ele>118.8</ele>
        <time>2023-09-10T07:30:07Z</time>
      </trkpt>
      <trkpt lat="46.54495" lon="0.32537">
        <ele>117.8</ele>
        <time>2023-09-10T07:30:10Z</time>
      </trkpt>
      <trkpt lat="46.54496" lon="0.32542">
        <ele>117.4</ele>
        <time>2023-09-10T07:30:11Z</time>
      </trkpt>
      <trkpt lat="46.54497" lon="0.32545">
        <ele>117.2</ele>
        <time>2023-09-10T07:30:12Z</time>
      </trkpt>
      <trkpt lat="46.54501" lon="0.32551">
        <ele>116.8</ele>
        <time>2023-09-10T07:30:14Z</time>
      </trkpt>
      <trkpt lat="46.54504" lon="0.32564">
        <ele>115.8</ele>
        <time>2023-09-10T07:30:17Z</time>
      </trkpt>
      <trkpt lat="46.54503" lon="0.32568">
        <ele>115.6</ele>
        <time>2023-09-10T07:30:18Z</time>
      </trkpt>
      <trkpt lat="46.54502" lon="0.32569">
        <ele>115.2</ele>
        <time>2023-09-10T07:30:19Z</time>
      </trkpt>
      <trkpt lat="46.54497" lon="0.3257">
        <ele>114.6</ele>
        <time>2023-09-10T07:30:21Z</time>
      </trkpt>
      <trkpt lat="46.54493" lon="0.32572">
        <ele>114.4</ele>
        <time>2023-09-10T07:30:23Z</time>
      </trkpt>
      <trkpt lat="46.54487" lon="0.32579">
        <ele>114.4</ele>
        <time>2023-09-10T07:30:26Z</time>
      </trkpt>
      <trkpt lat="46.54485" lon="0.3258">
        <ele>114.6</ele>
        <time>2023-09-10T07:30:27Z</time>
      </trkpt>
      <trkpt lat="46.54483" lon="0.3258">
        <ele>114.6</ele>
        <time>2023-09-10T07:30:28Z</time>
      </trkpt>
      <trkpt lat="46.54477" lon="0.3258">
        <ele>114.2</ele>
        <time>2023-09-10T07:30:30Z</time>
      </trkpt>
      <trkpt lat="46.5447" lon="0.32581">
        <ele>114</ele>
        <time>2023-09-10T07:30:32Z</time>
      </trkpt>
      <trkpt lat="46.54467" lon="0.32584">
        <ele>114.2</ele>
        <time>2023-09-10T07:30:33Z</time>
      </trkpt>
      <trkpt lat="46.54456" lon="0.32592">
        <ele>113.8</ele>
        <time>2023-09-10T07:30:36Z</time>
      </trkpt>
      <trkpt lat="46.54448" lon="0.32597">
        <ele>113.4</ele>
        <time>2023-09-10T07:30:39Z</time>
      </trkpt>
      <trkpt lat="46.54444" lon="0.326">
        <ele>112.4</ele>
        <time>2023-09-10T07:30:41Z</time>
      </trkpt>
      <trkpt lat="46.54442" lon="0.32602">
        <ele>112</ele>
        <time>2023-09-10T07:30:42Z</time>
      </trkpt>
      <trkpt lat="46.54428" lon="0.3261">
        <ele>110.8</ele>
        <time>2023-09-10T07:30:48Z</time>
      </trkpt>
      <trkpt lat="46.54424" lon="0.32616">
        <ele>110.8</ele>
        <time>2023-09-10T07:30:49Z</time>
      </trkpt>
      <trkpt lat="46.54414" lon="0.32624">
        <ele>109.8</ele>
        <time>2023-09-10T07:30:52Z</time>
      </trkpt>
      <trkpt lat="46.54404" lon="0.32634">
        <ele>108.8</ele>
        <time>2023-09-10T07:30:55Z</time>
      </trkpt>
      <trkpt lat="46.54402" lon="0.32638">
        <ele>108.8</ele>
        <time>2023-09-10T07:30:56Z</time>
      </trkpt>
      <trkpt lat="46.54401" lon="0.32643">
        <ele>108.6</ele>
        <time>2023-09-10T07:30:57Z</time>
      </trkpt>
      <trkpt lat="46.54401" lon="0.32649">
        <ele>108.2</ele>
        <time>2023-09-10T07:30:59Z</time>
      </trkpt>
      <trkpt lat="46.54401" lon="0.3265">
        <ele>108</ele>
        <time>2023-09-10T07:31:00Z</time>
      </trkpt>
      <trkpt lat="46.54402" lon="0.32652">
        <ele>107.8</ele>
        <time>2023-09-10T07:31:01Z</time>
      </trkpt>
      <trkpt lat="46.54403" lon="0.32655">
        <ele>107.2</ele>
        <time>2023-09-10T07:31:02Z</time>
      </trkpt>
      <trkpt lat="46.54402" lon="0.32661">
        <ele>106</ele>
        <time>2023-09-10T07:31:04Z</time>
      </trkpt>
      <trkpt lat="46.54398" lon="0.32664">
        <ele>105.4</ele>
        <time>2023-09-10T07:31:06Z</time>
      </trkpt>
      <trkpt lat="46.54396" lon="0.32666">
        <ele>104.4</ele>
        <time>2023-09-10T07:31:08Z</time>
      </trkpt>
      <trkpt lat="46.54395" lon="0.32665">
        <ele>103.8</ele>
        <time>2023-09-10T07:31:09Z</time>
      </trkpt>
      <trkpt lat="46.54394" lon="0.32668">
        <ele>103.2</ele>
        <time>2023-09-10T07:31:11Z</time>
      </trkpt>
      <trkpt lat="46.5439" lon="0.32677">
        <ele>102.6</ele>
        <time>2023-09-10T07:31:17Z</time>
      </trkpt>
      <trkpt lat="46.54391" lon="0.32678">
        <ele>103</ele>
        <time>2023-09-10T07:31:30Z</time>
      </trkpt>
      <trkpt lat="46.54392" lon="0.32678">
        <ele>103.2</ele>
        <time>2023-09-10T07:31:32Z</time>
      </trkpt>
      <trkpt lat="46.54393" lon="0.32677">
        <ele>104.2</ele>
        <time>2023-09-10T07:31:39Z</time>
      </trkpt>
      <trkpt lat="46.54394" lon="0.32676">
        <ele>104.6</ele>
        <time>2023-09-10T07:31:43Z</time>
      </trkpt>
      <trkpt lat="46.54398" lon="0.32685">
        <ele>105</ele>
        <time>2023-09-10T07:31:52Z</time>
      </trkpt>
      <trkpt lat="46.54407" lon="0.32689">
        <ele>104.6</ele>
        <time>2023-09-10T07:31:57Z</time>
      </trkpt>
      <trkpt lat="46.54413" lon="0.32689">
        <ele>105.4</ele>
        <time>2023-09-10T07:32:00Z</time>
      </trkpt>
      <trkpt lat="46.54418" lon="0.32689">
        <ele>106</ele>
        <time>2023-09-10T07:32:03Z</time>
      </trkpt>
      <trkpt lat="46.54425" lon="0.32689">
        <ele>106.4</ele>
        <time>2023-09-10T07:32:06Z</time>
      </trkpt>
      <trkpt lat="46.54434" lon="0.32687">
        <ele>106.8</ele>
        <time>2023-09-10T07:32:09Z</time>
      </trkpt>
      <trkpt lat="46.54446" lon="0.32684">
        <ele>107.4</ele>
        <time>2023-09-10T07:32:14Z</time>
      </trkpt>
      <trkpt lat="46.54448" lon="0.32684">
        <ele>107.6</ele>
        <time>2023-09-10T07:32:15Z</time>
      </trkpt>
      <trkpt lat="46.5446" lon="0.32679">
        <ele>108.8</ele>
        <time>2023-09-10T07:32:20Z</time>
      </trkpt>
      <trkpt lat="46.54471" lon="0.32677">
        <ele>110</ele>
        <time>2023-09-10T07:32:24Z</time>
      </trkpt>
      <trkpt lat="46.54476" lon="0.32676">
        <ele>110.2</ele>
        <time>2023-09-10T07:32:26Z</time>
      </trkpt>
      <trkpt lat="46.54492" lon="0.32673">
        <ele>111</ele>
        <time>2023-09-10T07:32:31Z</time>
      </trkpt>
      <trkpt lat="46.54494" lon="0.32672">
        <ele>111</ele>
        <time>2023-09-10T07:32:32Z</time>
      </trkpt>
      <trkpt lat="46.545" lon="0.32674">
        <ele>111.2</ele>
        <time>2023-09-10T07:32:34Z</time>
      </trkpt>
      <trkpt lat="46.54505" lon="0.32679">
        <ele>111.2</ele>
        <time>2023-09-10T07:32:37Z</time>
      </trkpt>
      <trkpt lat="46.54509" lon="0.32684">
        <ele>111</ele>
        <time>2023-09-10T07:32:40Z</time>
      </trkpt>
      <trkpt lat="46.54513" lon="0.32689">
        <ele>111.4</ele>
        <time>2023-09-10T07:32:43Z</time>
      </trkpt>
      <trkpt lat="46.54514" lon="0.32693">
        <ele>112</ele>
        <time>2023-09-10T07:32:45Z</time>
      </trkpt>
      <trkpt lat="46.54517" lon="0.32697">
        <ele>112.4</ele>
        <time>2023-09-10T07:32:47Z</time>
      </trkpt>
      <trkpt lat="46.54521" lon="0.32702">
        <ele>112.6</ele>
        <time>2023-09-10T07:32:49Z</time>
      </trkpt>
      <trkpt lat="46.54527" lon="0.32706">
        <ele>113</ele>
        <time>2023-09-10T07:32:52Z</time>
      </trkpt>
      <trkpt lat="46.54531" lon="0.32709">
        <ele>113.4</ele>
        <time>2023-09-10T07:32:55Z</time>
      </trkpt>
      <trkpt lat="46.54537" lon="0.32712">
        <ele>114.4</ele>
        <time>2023-09-10T07:32:58Z</time>
      </trkpt>
      <trkpt lat="46.54541" lon="0.32716">
        <ele>114.8</ele>
        <time>2023-09-10T07:33:00Z</time>
      </trkpt>
      <trkpt lat="46.54549" lon="0.32728">
        <ele>115.4</ele>
        <time>2023-09-10T07:33:06Z</time>
      </trkpt>
      <trkpt lat="46.5455" lon="0.3273">
        <ele>115.6</ele>
        <time>2023-09-10T07:33:07Z</time>
      </trkpt>
      <trkpt lat="46.54556" lon="0.32739">
        <ele>116.6</ele>
        <time>2023-09-10T07:33:11Z</time>
      </trkpt>
      <trkpt lat="46.54559" lon="0.32745">
        <ele>117</ele>
        <time>2023-09-10T07:33:13Z</time>
      </trkpt>
      <trkpt lat="46.5457" lon="0.3276">
        <ele>117.6</ele>
        <time>2023-09-10T07:33:20Z</time>
      </trkpt>
      <trkpt lat="46.54573" lon="0.32763">
        <ele>117.6</ele>
        <time>2023-09-10T07:33:21Z</time>
      </trkpt>
      <trkpt lat="46.54583" lon="0.32777">
        <ele>118.2</ele>
        <time>2023-09-10T07:33:25Z</time>
      </trkpt>
      <trkpt lat="46.54594" lon="0.32795">
        <ele>119</ele>
        <time>2023-09-10T07:33:32Z</time>
      </trkpt>
      <trkpt lat="46.54596" lon="0.32797">
        <ele>119.2</ele>
        <time>2023-09-10T07:33:33Z</time>
      </trkpt>
      <trkpt lat="46.54609" lon="0.32819">
        <ele>120</ele>
        <time>2023-09-10T07:33:40Z</time>
      </trkpt>
      <trkpt lat="46.5462" lon="0.32831">
        <ele>120.6</ele>
        <time>2023-09-10T07:33:45Z</time>
      </trkpt>
      <trkpt lat="46.54632" lon="0.32847">
        <ele>120.8</ele>
        <time>2023-09-10T07:33:50Z</time>
      </trkpt>
      <trkpt lat="46.54643" lon="0.32861">
        <ele>121</ele>
        <time>2023-09-10T07:33:55Z</time>
      </trkpt>
      <trkpt lat="46.54645" lon="0.32862">
        <ele>121</ele>
        <time>2023-09-10T07:33:56Z</time>
      </trkpt>
      <trkpt lat="46.54647" lon="0.32863">
        <ele>121.2</ele>
        <time>2023-09-10T07:33:57Z</time>
      </trkpt>
      <trkpt lat="46.54663" lon="0.32876">
        <ele>121.8</ele>
        <time>2023-09-10T07:34:03Z</time>
      </trkpt>
      <trkpt lat="46.54666" lon="0.32886">
        <ele>121.8</ele>
        <time>2023-09-10T07:34:07Z</time>
      </trkpt>
      <trkpt lat="46.54666" lon="0.32889">
        <ele>121.8</ele>
        <time>2023-09-10T07:34:08Z</time>
      </trkpt>
      <trkpt lat="46.54673" lon="0.32903">
        <ele>121.6</ele>
        <time>2023-09-10T07:34:11Z</time>
      </trkpt>
      <trkpt lat="46.54691" lon="0.32927">
        <ele>122.2</ele>
        <time>2023-09-10T07:34:17Z</time>
      </trkpt>
      <trkpt lat="46.54697" lon="0.32936">
        <ele>122.2</ele>
        <time>2023-09-10T07:34:19Z</time>
      </trkpt>
      <trkpt lat="46.54703" lon="0.32941">
        <ele>122.2</ele>
        <time>2023-09-10T07:34:21Z</time>
      </trkpt>
      <trkpt lat="46.54706" lon="0.32942">
        <ele>122</ele>
        <time>2023-09-10T07:34:22Z</time>
      </trkpt>
      <trkpt lat="46.54708" lon="0.32941">
        <ele>122</ele>
        <time>2023-09-10T07:34:23Z</time>
      </trkpt>
      <trkpt lat="46.54713" lon="0.32934">
        <ele>122</ele>
        <time>2023-09-10T07:34:26Z</time>
      </trkpt>
      <trkpt lat="46.54716" lon="0.3293">
        <ele>122.4</ele>
        <time>2023-09-10T07:34:28Z</time>
      </trkpt>
      <trkpt lat="46.54719" lon="0.32926">
        <ele>122.6</ele>
        <time>2023-09-10T07:34:30Z</time>
      </trkpt>
      <trkpt lat="46.54723" lon="0.32924">
        <ele>122.6</ele>
        <time>2023-09-10T07:34:32Z</time>
      </trkpt>
      <trkpt lat="46.54727" lon="0.32922">
        <ele>122.6</ele>
        <time>2023-09-10T07:34:34Z</time>
      </trkpt>
      <trkpt lat="46.54732" lon="0.32918">
        <ele>122.6</ele>
        <time>2023-09-10T07:34:36Z</time>
      </trkpt>
      <trkpt lat="46.54736" lon="0.32912">
        <ele>122.4</ele>
        <time>2023-09-10T07:34:38Z</time>
      </trkpt>
      <trkpt lat="46.5474" lon="0.32902">
        <ele>122.2</ele>
        <time>2023-09-10T07:34:41Z</time>
      </trkpt>
      <trkpt lat="46.54745" lon="0.32895">
        <ele>122.4</ele>
        <time>2023-09-10T07:34:43Z</time>
      </trkpt>
      <trkpt lat="46.54753" lon="0.32885">
        <ele>122.4</ele>
        <time>2023-09-10T07:34:46Z</time>
      </trkpt>
      <trkpt lat="46.54765" lon="0.32878">
        <ele>122.4</ele>
        <time>2023-09-10T07:34:49Z</time>
      </trkpt>
      <trkpt lat="46.54791" lon="0.32892">
        <ele>122.6</ele>
        <time>2023-09-10T07:34:53Z</time>
      </trkpt>
      <trkpt lat="46.54799" lon="0.32905">
        <ele>122.6</ele>
        <time>2023-09-10T07:34:56Z</time>
      </trkpt>
      <trkpt lat="46.54801" lon="0.32915">
        <ele>122.6</ele>
        <time>2023-09-10T07:34:58Z</time>
      </trkpt>
      <trkpt lat="46.54805" lon="0.3295">
        <ele>122.4</ele>
        <time>2023-09-10T07:35:05Z</time>
      </trkpt>
      <trkpt lat="46.54806" lon="0.32954">
        <ele>122.4</ele>
        <time>2023-09-10T07:35:06Z</time>
      </trkpt>
      <trkpt lat="46.54808" lon="0.32963">
        <ele>122.2</ele>
        <time>2023-09-10T07:35:08Z</time>
      </trkpt>
      <trkpt lat="46.54809" lon="0.32977">
        <ele>121.8</ele>
        <time>2023-09-10T07:35:11Z</time>
      </trkpt>
      <trkpt lat="46.54809" lon="0.32982">
        <ele>121.8</ele>
        <time>2023-09-10T07:35:12Z</time>
      </trkpt>
      <trkpt lat="46.54811" lon="0.33">
        <ele>121.6</ele>
        <time>2023-09-10T07:35:15Z</time>
      </trkpt>
      <trkpt lat="46.54813" lon="0.33005">
        <ele>121.8</ele>
        <time>2023-09-10T07:35:16Z</time>
      </trkpt>
      <trkpt lat="46.54818" lon="0.33031">
        <ele>121</ele>
        <time>2023-09-10T07:35:20Z</time>
      </trkpt>
      <trkpt lat="46.5482" lon="0.33037">
        <ele>120.8</ele>
        <time>2023-09-10T07:35:21Z</time>
      </trkpt>
      <trkpt lat="46.54821" lon="0.33044">
        <ele>120.8</ele>
        <time>2023-09-10T07:35:22Z</time>
      </trkpt>
      <trkpt lat="46.54823" lon="0.33058">
        <ele>120.2</ele>
        <time>2023-09-10T07:35:24Z</time>
      </trkpt>
      <trkpt lat="46.54826" lon="0.33075">
        <ele>119.8</ele>
        <time>2023-09-10T07:35:26Z</time>
      </trkpt>
      <trkpt lat="46.54829" lon="0.33085">
        <ele>119.8</ele>
        <time>2023-09-10T07:35:27Z</time>
      </trkpt>
      <trkpt lat="46.54835" lon="0.33103">
        <ele>118.6</ele>
        <time>2023-09-10T07:35:29Z</time>
      </trkpt>
      <trkpt lat="46.54845" lon="0.33136">
        <ele>117.6</ele>
        <time>2023-09-10T07:35:33Z</time>
      </trkpt>
      <trkpt lat="46.54852" lon="0.33158">
        <ele>116.4</ele>
        <time>2023-09-10T07:35:36Z</time>
      </trkpt>
      <trkpt lat="46.54858" lon="0.33172">
        <ele>115.4</ele>
        <time>2023-09-10T07:35:38Z</time>
      </trkpt>
      <trkpt lat="46.5486" lon="0.33177">
        <ele>114.2</ele>
        <time>2023-09-10T07:35:39Z</time>
      </trkpt>
      <trkpt lat="46.54866" lon="0.33187">
        <ele>113</ele>
        <time>2023-09-10T07:35:41Z</time>
      </trkpt>
      <trkpt lat="46.54871" lon="0.33196">
        <ele>111.6</ele>
        <time>2023-09-10T07:35:43Z</time>
      </trkpt>
      <trkpt lat="46.54873" lon="0.33199">
        <ele>110.6</ele>
        <time>2023-09-10T07:35:44Z</time>
      </trkpt>
      <trkpt lat="46.54876" lon="0.33203">
        <ele>109.8</ele>
        <time>2023-09-10T07:35:45Z</time>
      </trkpt>
      <trkpt lat="46.54879" lon="0.33208">
        <ele>109.2</ele>
        <time>2023-09-10T07:35:46Z</time>
      </trkpt>
      <trkpt lat="46.54879" lon="0.33208">
        <ele>108.6</ele>
        <time>2023-09-10T07:35:47Z</time>
      </trkpt>
      <trkpt lat="46.54884" lon="0.33217">
        <ele>108.6</ele>
        <time>2023-09-10T07:35:48Z</time>
      </trkpt>
      <trkpt lat="46.54889" lon="0.33228">
        <ele>107.2</ele>
        <time>2023-09-10T07:35:50Z</time>
      </trkpt>
      <trkpt lat="46.54893" lon="0.33233">
        <ele>106</ele>
        <time>2023-09-10T07:35:51Z</time>
      </trkpt>
      <trkpt lat="46.54896" lon="0.33239">
        <ele>105</ele>
        <time>2023-09-10T07:35:52Z</time>
      </trkpt>
      <trkpt lat="46.54903" lon="0.33248">
        <ele>104</ele>
        <time>2023-09-10T07:35:54Z</time>
      </trkpt>
      <trkpt lat="46.54906" lon="0.33252">
        <ele>102.8</ele>
        <time>2023-09-10T07:35:55Z</time>
      </trkpt>
      <trkpt lat="46.54913" lon="0.33262">
        <ele>101.4</ele>
        <time>2023-09-10T07:35:57Z</time>
      </trkpt>
      <trkpt lat="46.54919" lon="0.33271">
        <ele>98.8</ele>
        <time>2023-09-10T07:36:00Z</time>
      </trkpt>
      <trkpt lat="46.5492" lon="0.33272">
        <ele>97.8</ele>
        <time>2023-09-10T07:36:01Z</time>
      </trkpt>
      <trkpt lat="46.54921" lon="0.33277">
        <ele>96.8</ele>
        <time>2023-09-10T07:36:03Z</time>
      </trkpt>
      <trkpt lat="46.5492" lon="0.33284">
        <ele>96</ele>
        <time>2023-09-10T07:36:05Z</time>
      </trkpt>
      <trkpt lat="46.54919" lon="0.3329">
        <ele>95.6</ele>
        <time>2023-09-10T07:36:06Z</time>
      </trkpt>
      <trkpt lat="46.54916" lon="0.33295">
        <ele>94.8</ele>
        <time>2023-09-10T07:36:07Z</time>
      </trkpt>
      <trkpt lat="46.54914" lon="0.33299">
        <ele>93.6</ele>
        <time>2023-09-10T07:36:08Z</time>
      </trkpt>
      <trkpt lat="46.5491" lon="0.33302">
        <ele>92.2</ele>
        <time>2023-09-10T07:36:09Z</time>
      </trkpt>
      <trkpt lat="46.54907" lon="0.33305">
        <ele>91.4</ele>
        <time>2023-09-10T07:36:10Z</time>
      </trkpt>
      <trkpt lat="46.54904" lon="0.33308">
        <ele>90.8</ele>
        <time>2023-09-10T07:36:11Z</time>
      </trkpt>
      <trkpt lat="46.54887" lon="0.33324">
        <ele>90.2</ele>
        <time>2023-09-10T07:36:16Z</time>
      </trkpt>
      <trkpt lat="46.54877" lon="0.33346">
        <ele>90.4</ele>
        <time>2023-09-10T07:36:18Z</time>
      </trkpt>
      <trkpt lat="46.5487" lon="0.3336">
        <ele>90.4</ele>
        <time>2023-09-10T07:36:20Z</time>
      </trkpt>
      <trkpt lat="46.54858" lon="0.33375">
        <ele>90.4</ele>
        <time>2023-09-10T07:36:23Z</time>
      </trkpt>
      <trkpt lat="46.54843" lon="0.33392">
        <ele>90.4</ele>
        <time>2023-09-10T07:36:27Z</time>
      </trkpt>
      <trkpt lat="46.54837" lon="0.33401">
        <ele>90.4</ele>
        <time>2023-09-10T07:36:29Z</time>
      </trkpt>
      <trkpt lat="46.54825" lon="0.33422">
        <ele>90.6</ele>
        <time>2023-09-10T07:36:33Z</time>
      </trkpt>
      <trkpt lat="46.54802" lon="0.33463">
        <ele>90.4</ele>
        <time>2023-09-10T07:36:41Z</time>
      </trkpt>
      <trkpt lat="46.54775" lon="0.33515">
        <ele>90</ele>
        <time>2023-09-10T07:36:50Z</time>
      </trkpt>
      <trkpt lat="46.5475" lon="0.33564">
        <ele>90.4</ele>
        <time>2023-09-10T07:36:58Z</time>
      </trkpt>
      <trkpt lat="46.54725" lon="0.33607">
        <ele>90.8</ele>
        <time>2023-09-10T07:37:06Z</time>
      </trkpt>
      <trkpt lat="46.54705" lon="0.33632">
        <ele>91</ele>
        <time>2023-09-10T07:37:12Z</time>
      </trkpt>
      <trkpt lat="46.54694" lon="0.33642">
        <ele>90.4</ele>
        <time>2023-09-10T07:37:17Z</time>
      </trkpt>
      <trkpt lat="46.54679" lon="0.33647">
        <ele>90.2</ele>
        <time>2023-09-10T07:37:22Z</time>
      </trkpt>
      <trkpt lat="46.54662" lon="0.33647">
        <ele>90.4</ele>
        <time>2023-09-10T07:37:26Z</time>
      </trkpt>
      <trkpt lat="46.54658" lon="0.33646">
        <ele>90.4</ele>
        <time>2023-09-10T07:37:27Z</time>
      </trkpt>
      <trkpt lat="46.54645" lon="0.33642">
        <ele>90.6</ele>
        <time>2023-09-10T07:37:30Z</time>
      </trkpt>
      <trkpt lat="46.54633" lon="0.33633">
        <ele>90.8</ele>
        <time>2023-09-10T07:37:33Z</time>
      </trkpt>
      <trkpt lat="46.54603" lon="0.33609">
        <ele>91.8</ele>
        <time>2023-09-10T07:37:41Z</time>
      </trkpt>
      <trkpt lat="46.54597" lon="0.33611">
        <ele>92.4</ele>
        <time>2023-09-10T07:37:43Z</time>
      </trkpt>
      <trkpt lat="46.54595" lon="0.33614">
        <ele>92.4</ele>
        <time>2023-09-10T07:37:44Z</time>
      </trkpt>
      <trkpt lat="46.54593" lon="0.33621">
        <ele>93.4</ele>
        <time>2023-09-10T07:37:46Z</time>
      </trkpt>
      <trkpt lat="46.54593" lon="0.33627">
        <ele>94.6</ele>
        <time>2023-09-10T07:37:48Z</time>
      </trkpt>
      <trkpt lat="46.54592" lon="0.33629">
        <ele>94.8</ele>
        <time>2023-09-10T07:37:49Z</time>
      </trkpt>
      <trkpt lat="46.5459" lon="0.33633">
        <ele>95.6</ele>
        <time>2023-09-10T07:37:51Z</time>
      </trkpt>
      <trkpt lat="46.54589" lon="0.33643">
        <ele>96.8</ele>
        <time>2023-09-10T07:37:54Z</time>
      </trkpt>
      <trkpt lat="46.54586" lon="0.33654">
        <ele>98</ele>
        <time>2023-09-10T07:37:57Z</time>
      </trkpt>
      <trkpt lat="46.54583" lon="0.33657">
        <ele>98.4</ele>
        <time>2023-09-10T07:37:58Z</time>
      </trkpt>
      <trkpt lat="46.54581" lon="0.33657">
        <ele>99</ele>
        <time>2023-09-10T07:37:59Z</time>
      </trkpt>
      <trkpt lat="46.54578" lon="0.33656">
        <ele>99.2</ele>
        <time>2023-09-10T07:38:00Z</time>
      </trkpt>
      <trkpt lat="46.54567" lon="0.33651">
        <ele>99.4</ele>
        <time>2023-09-10T07:38:03Z</time>
      </trkpt>
      <trkpt lat="46.54543" lon="0.3364">
        <ele>99.6</ele>
        <time>2023-09-10T07:38:09Z</time>
      </trkpt>
      <trkpt lat="46.54512" lon="0.33622">
        <ele>99.4</ele>
        <time>2023-09-10T07:38:16Z</time>
      </trkpt>
      <trkpt lat="46.54502" lon="0.33618">
        <ele>99.4</ele>
        <time>2023-09-10T07:38:18Z</time>
      </trkpt>
      <trkpt lat="46.54481" lon="0.33613">
        <ele>99</ele>
        <time>2023-09-10T07:38:22Z</time>
      </trkpt>
      <trkpt lat="46.54467" lon="0.33613">
        <ele>98.8</ele>
        <time>2023-09-10T07:38:25Z</time>
      </trkpt>
      <trkpt lat="46.54454" lon="0.33614">
        <ele>98.6</ele>
        <time>2023-09-10T07:38:28Z</time>
      </trkpt>
      <trkpt lat="46.54424" lon="0.33616">
        <ele>98</ele>
        <time>2023-09-10T07:38:34Z</time>
      </trkpt>
      <trkpt lat="46.54412" lon="0.33615">
        <ele>97.6</ele>
        <time>2023-09-10T07:38:36Z</time>
      </trkpt>
      <trkpt lat="46.54395" lon="0.33615">
        <ele>97</ele>
        <time>2023-09-10T07:38:39Z</time>
      </trkpt>
      <trkpt lat="46.54375" lon="0.33616">
        <ele>96.8</ele>
        <time>2023-09-10T07:38:43Z</time>
      </trkpt>
      <trkpt lat="46.54344" lon="0.33614">
        <ele>97.6</ele>
        <time>2023-09-10T07:38:50Z</time>
      </trkpt>
      <trkpt lat="46.54332" lon="0.33617">
        <ele>97.8</ele>
        <time>2023-09-10T07:38:53Z</time>
      </trkpt>
      <trkpt lat="46.54332" lon="0.33617">
        <ele>98</ele>
        <time>2023-09-10T07:38:54Z</time>
      </trkpt>
      <trkpt lat="46.54324" lon="0.33621">
        <ele>98</ele>
        <time>2023-09-10T07:38:55Z</time>
      </trkpt>
      <trkpt lat="46.5432" lon="0.33624">
        <ele>98.2</ele>
        <time>2023-09-10T07:38:56Z</time>
      </trkpt>
      <trkpt lat="46.54316" lon="0.33626">
        <ele>98.6</ele>
        <time>2023-09-10T07:38:57Z</time>
      </trkpt>
      <trkpt lat="46.54302" lon="0.33639">
        <ele>99.2</ele>
        <time>2023-09-10T07:39:01Z</time>
      </trkpt>
      <trkpt lat="46.54295" lon="0.33644">
        <ele>99.4</ele>
        <time>2023-09-10T07:39:03Z</time>
      </trkpt>
      <trkpt lat="46.54279" lon="0.3366">
        <ele>100.2</ele>
        <time>2023-09-10T07:39:08Z</time>
      </trkpt>
      <trkpt lat="46.54268" lon="0.33671">
        <ele>100.6</ele>
        <time>2023-09-10T07:39:11Z</time>
      </trkpt>
      <trkpt lat="46.54258" lon="0.3368">
        <ele>101.2</ele>
        <time>2023-09-10T07:39:14Z</time>
      </trkpt>
      <trkpt lat="46.54241" lon="0.33698">
        <ele>102.2</ele>
        <time>2023-09-10T07:39:19Z</time>
      </trkpt>
      <trkpt lat="46.54238" lon="0.33701">
        <ele>102.4</ele>
        <time>2023-09-10T07:39:20Z</time>
      </trkpt>
      <trkpt lat="46.54226" lon="0.33714">
        <ele>103</ele>
        <time>2023-09-10T07:39:24Z</time>
      </trkpt>
      <trkpt lat="46.54224" lon="0.33718">
        <ele>103.4</ele>
        <time>2023-09-10T07:39:25Z</time>
      </trkpt>
      <trkpt lat="46.54221" lon="0.33721">
        <ele>103.8</ele>
        <time>2023-09-10T07:39:26Z</time>
      </trkpt>
      <trkpt lat="46.54219" lon="0.33726">
        <ele>104</ele>
        <time>2023-09-10T07:39:27Z</time>
      </trkpt>
      <trkpt lat="46.54212" lon="0.33741">
        <ele>104</ele>
        <time>2023-09-10T07:39:30Z</time>
      </trkpt>
      <trkpt lat="46.54208" lon="0.33752">
        <ele>104.2</ele>
        <time>2023-09-10T07:39:32Z</time>
      </trkpt>
      <trkpt lat="46.54203" lon="0.33767">
        <ele>104.6</ele>
        <time>2023-09-10T07:39:35Z</time>
      </trkpt>
      <trkpt lat="46.54196" lon="0.3379">
        <ele>105</ele>
        <time>2023-09-10T07:39:40Z</time>
      </trkpt>
      <trkpt lat="46.54186" lon="0.33816">
        <ele>105.6</ele>
        <time>2023-09-10T07:39:46Z</time>
      </trkpt>
      <trkpt lat="46.54185" lon="0.33822">
        <ele>105.6</ele>
        <time>2023-09-10T07:39:47Z</time>
      </trkpt>
      <trkpt lat="46.54186" lon="0.33855">
        <ele>106.8</ele>
        <time>2023-09-10T07:39:53Z</time>
      </trkpt>
      <trkpt lat="46.54189" lon="0.33878">
        <ele>107.8</ele>
        <time>2023-09-10T07:39:58Z</time>
      </trkpt>
      <trkpt lat="46.5419" lon="0.33882">
        <ele>108</ele>
        <time>2023-09-10T07:39:59Z</time>
      </trkpt>
      <trkpt lat="46.54194" lon="0.33904">
        <ele>109</ele>
        <time>2023-09-10T07:40:04Z</time>
      </trkpt>
      <trkpt lat="46.54196" lon="0.33914">
        <ele>109.2</ele>
        <time>2023-09-10T07:40:06Z</time>
      </trkpt>
      <trkpt lat="46.54198" lon="0.3393">
        <ele>110</ele>
        <time>2023-09-10T07:40:09Z</time>
      </trkpt>
      <trkpt lat="46.54198" lon="0.33944">
        <ele>110.6</ele>
        <time>2023-09-10T07:40:13Z</time>
      </trkpt>
      <trkpt lat="46.54194" lon="0.33955">
        <ele>110.8</ele>
        <time>2023-09-10T07:40:18Z</time>
      </trkpt>
      <trkpt lat="46.5419" lon="0.33974">
        <ele>110.6</ele>
        <time>2023-09-10T07:40:23Z</time>
      </trkpt>
      <trkpt lat="46.5419" lon="0.33983">
        <ele>110.2</ele>
        <time>2023-09-10T07:40:25Z</time>
      </trkpt>
      <trkpt lat="46.54192" lon="0.33991">
        <ele>110</ele>
        <time>2023-09-10T07:40:27Z</time>
      </trkpt>
      <trkpt lat="46.54193" lon="0.33995">
        <ele>110</ele>
        <time>2023-09-10T07:40:28Z</time>
      </trkpt>
      <trkpt lat="46.54194" lon="0.34013">
        <ele>110.2</ele>
        <time>2023-09-10T07:40:33Z</time>
      </trkpt>
      <trkpt lat="46.54189" lon="0.34031">
        <ele>110.4</ele>
        <time>2023-09-10T07:40:38Z</time>
      </trkpt>
      <trkpt lat="46.54187" lon="0.34051">
        <ele>110.4</ele>
        <time>2023-09-10T07:40:42Z</time>
      </trkpt>
      <trkpt lat="46.54187" lon="0.34056">
        <ele>110.4</ele>
        <time>2023-09-10T07:40:43Z</time>
      </trkpt>
      <trkpt lat="46.54188" lon="0.3406">
        <ele>110.4</ele>
        <time>2023-09-10T07:40:44Z</time>
      </trkpt>
      <trkpt lat="46.54187" lon="0.34065">
        <ele>110.6</ele>
        <time>2023-09-10T07:40:46Z</time>
      </trkpt>
      <trkpt lat="46.54186" lon="0.34068">
        <ele>110.8</ele>
        <time>2023-09-10T07:40:47Z</time>
      </trkpt>
      <trkpt lat="46.54183" lon="0.34084">
        <ele>110</ele>
        <time>2023-09-10T07:40:52Z</time>
      </trkpt>
      <trkpt lat="46.54176" lon="0.34098">
        <ele>111</ele>
        <time>2023-09-10T07:40:57Z</time>
      </trkpt>
      <trkpt lat="46.54174" lon="0.34101">
        <ele>111.2</ele>
        <time>2023-09-10T07:40:58Z</time>
      </trkpt>
      <trkpt lat="46.54166" lon="0.34123">
        <ele>110.6</ele>
        <time>2023-09-10T07:41:03Z</time>
      </trkpt>
      <trkpt lat="46.54163" lon="0.34126">
        <ele>110</ele>
        <time>2023-09-10T07:41:04Z</time>
      </trkpt>
      <trkpt lat="46.54162" lon="0.34129">
        <ele>109.6</ele>
        <time>2023-09-10T07:41:05Z</time>
      </trkpt>
      <trkpt lat="46.54157" lon="0.34139">
        <ele>108.8</ele>
        <time>2023-09-10T07:41:07Z</time>
      </trkpt>
      <trkpt lat="46.54155" lon="0.34155">
        <ele>108.4</ele>
        <time>2023-09-10T07:41:10Z</time>
      </trkpt>
      <trkpt lat="46.54153" lon="0.34168">
        <ele>108.2</ele>
        <time>2023-09-10T07:41:12Z</time>
      </trkpt>
      <trkpt lat="46.5415" lon="0.34185">
        <ele>108.2</ele>
        <time>2023-09-10T07:41:15Z</time>
      </trkpt>
      <trkpt lat="46.54144" lon="0.34199">
        <ele>108.6</ele>
        <time>2023-09-10T07:41:19Z</time>
      </trkpt>
      <trkpt lat="46.54135" lon="0.34219">
        <ele>109</ele>
        <time>2023-09-10T07:41:24Z</time>
      </trkpt>
      <trkpt lat="46.54132" lon="0.34223">
        <ele>109</ele>
        <time>2023-09-10T07:41:25Z</time>
      </trkpt>
      <trkpt lat="46.54129" lon="0.34229">
        <ele>108.6</ele>
        <time>2023-09-10T07:41:27Z</time>
      </trkpt>
      <trkpt lat="46.54124" lon="0.34235">
        <ele>108</ele>
        <time>2023-09-10T07:41:29Z</time>
      </trkpt>
      <trkpt lat="46.54121" lon="0.34238">
        <ele>107.8</ele>
        <time>2023-09-10T07:41:30Z</time>
      </trkpt>
      <trkpt lat="46.54116" lon="0.34246">
        <ele>107.2</ele>
        <time>2023-09-10T07:41:32Z</time>
      </trkpt>
      <trkpt lat="46.54114" lon="0.3425">
        <ele>106.4</ele>
        <time>2023-09-10T07:41:33Z</time>
      </trkpt>
      <trkpt lat="46.54114" lon="0.34253">
        <ele>105.8</ele>
        <time>2023-09-10T07:41:34Z</time>
      </trkpt>
      <trkpt lat="46.54112" lon="0.34256">
        <ele>105.6</ele>
        <time>2023-09-10T07:41:35Z</time>
      </trkpt>
      <trkpt lat="46.54111" lon="0.3426">
        <ele>105.4</ele>
        <time>2023-09-10T07:41:36Z</time>
      </trkpt>
      <trkpt lat="46.54106" lon="0.34271">
        <ele>104.6</ele>
        <time>2023-09-10T07:41:39Z</time>
      </trkpt>
      <trkpt lat="46.54105" lon="0.34275">
        <ele>104.2</ele>
        <time>2023-09-10T07:41:40Z</time>
      </trkpt>
      <trkpt lat="46.54103" lon="0.34284">
        <ele>103.2</ele>
        <time>2023-09-10T07:41:43Z</time>
      </trkpt>
      <trkpt lat="46.54102" lon="0.34302">
        <ele>103.4</ele>
        <time>2023-09-10T07:41:48Z</time>
      </trkpt>
      <trkpt lat="46.54103" lon="0.34305">
        <ele>102.8</ele>
        <time>2023-09-10T07:41:51Z</time>
      </trkpt>
      <trkpt lat="46.54104" lon="0.34305">
        <ele>102.8</ele>
        <time>2023-09-10T07:41:52Z</time>
      </trkpt>
      <trkpt lat="46.54109" lon="0.343">
        <ele>104.6</ele>
        <time>2023-09-10T07:41:58Z</time>
      </trkpt>
      <trkpt lat="46.54112" lon="0.34298">
        <ele>105.6</ele>
        <time>2023-09-10T07:42:01Z</time>
      </trkpt>
      <trkpt lat="46.54115" lon="0.34295">
        <ele>107</ele>
        <time>2023-09-10T07:42:04Z</time>
      </trkpt>
      <trkpt lat="46.5412" lon="0.34291">
        <ele>107.6</ele>
        <time>2023-09-10T07:42:07Z</time>
      </trkpt>
      <trkpt lat="46.54122" lon="0.3429">
        <ele>108</ele>
        <time>2023-09-10T07:42:08Z</time>
      </trkpt>
      <trkpt lat="46.54129" lon="0.34284">
        <ele>109.2</ele>
        <time>2023-09-10T07:42:13Z</time>
      </trkpt>
      <trkpt lat="46.5413" lon="0.34283">
        <ele>109.6</ele>
        <time>2023-09-10T07:42:14Z</time>
      </trkpt>
      <trkpt lat="46.54135" lon="0.34282">
        <ele>109.8</ele>
        <time>2023-09-10T07:42:16Z</time>
      </trkpt>
      <trkpt lat="46.54139" lon="0.3428">
        <ele>110.4</ele>
        <time>2023-09-10T07:42:18Z</time>
      </trkpt>
      <trkpt lat="46.54142" lon="0.34279">
        <ele>110.6</ele>
        <time>2023-09-10T07:42:19Z</time>
      </trkpt>
      <trkpt lat="46.54153" lon="0.34276">
        <ele>111.4</ele>
        <time>2023-09-10T07:42:23Z</time>
      </trkpt>
      <trkpt lat="46.54159" lon="0.34274">
        <ele>111.6</ele>
        <time>2023-09-10T07:42:25Z</time>
      </trkpt>
      <trkpt lat="46.5417" lon="0.34272">
        <ele>112.4</ele>
        <time>2023-09-10T07:42:29Z</time>
      </trkpt>
      <trkpt lat="46.54176" lon="0.34271">
        <ele>112.8</ele>
        <time>2023-09-10T07:42:31Z</time>
      </trkpt>
      <trkpt lat="46.5418" lon="0.34272">
        <ele>112.8</ele>
        <time>2023-09-10T07:42:32Z</time>
      </trkpt>
      <trkpt lat="46.54201" lon="0.34275">
        <ele>113.4</ele>
        <time>2023-09-10T07:42:37Z</time>
      </trkpt>
      <trkpt lat="46.54205" lon="0.34276">
        <ele>113.6</ele>
        <time>2023-09-10T07:42:38Z</time>
      </trkpt>
      <trkpt lat="46.54232" lon="0.34282">
        <ele>113.6</ele>
        <time>2023-09-10T07:42:45Z</time>
      </trkpt>
      <trkpt lat="46.54247" lon="0.34285">
        <ele>113.2</ele>
        <time>2023-09-10T07:42:49Z</time>
      </trkpt>
      <trkpt lat="46.54255" lon="0.34288">
        <ele>113.2</ele>
        <time>2023-09-10T07:42:51Z</time>
      </trkpt>
      <trkpt lat="46.54281" lon="0.34295">
        <ele>113</ele>
        <time>2023-09-10T07:42:57Z</time>
      </trkpt>
      <trkpt lat="46.54291" lon="0.34297">
        <ele>112.8</ele>
        <time>2023-09-10T07:43:01Z</time>
      </trkpt>
      <trkpt lat="46.54294" lon="0.34298">
        <ele>112.6</ele>
        <time>2023-09-10T07:43:03Z</time>
      </trkpt>
      <trkpt lat="46.54296" lon="0.34298">
        <ele>112.4</ele>
        <time>2023-09-10T07:43:06Z</time>
      </trkpt>
      <trkpt lat="46.54297" lon="0.343">
        <ele>112</ele>
        <time>2023-09-10T07:43:19Z</time>
      </trkpt>
      <trkpt lat="46.54299" lon="0.34301">
        <ele>112.2</ele>
        <time>2023-09-10T07:43:37Z</time>
      </trkpt>
      <trkpt lat="46.543" lon="0.343">
        <ele>112</ele>
        <time>2023-09-10T07:43:59Z</time>
      </trkpt>
      <trkpt lat="46.543" lon="0.343">
        <ele>111.6</ele>
        <time>2023-09-10T07:44:29Z</time>
      </trkpt>
      <trkpt lat="46.54307" lon="0.343">
        <ele>111.8</ele>
        <time>2023-09-10T07:44:42Z</time>
      </trkpt>
      <trkpt lat="46.54319" lon="0.34306">
        <ele>111.8</ele>
        <time>2023-09-10T07:44:46Z</time>
      </trkpt>
      <trkpt lat="46.54324" lon="0.34314">
        <ele>111.4</ele>
        <time>2023-09-10T07:44:48Z</time>
      </trkpt>
      <trkpt lat="46.54334" lon="0.3433">
        <ele>111.2</ele>
        <time>2023-09-10T07:44:51Z</time>
      </trkpt>
      <trkpt lat="46.54349" lon="0.34357">
        <ele>111.4</ele>
        <time>2023-09-10T07:44:56Z</time>
      </trkpt>
      <trkpt lat="46.54355" lon="0.34368">
        <ele>111.4</ele>
        <time>2023-09-10T07:44:58Z</time>
      </trkpt>
      <trkpt lat="46.54374" lon="0.34405">
        <ele>111.4</ele>
        <time>2023-09-10T07:45:05Z</time>
      </trkpt>
      <trkpt lat="46.54394" lon="0.34442">
        <ele>111.6</ele>
        <time>2023-09-10T07:45:13Z</time>
      </trkpt>
      <trkpt lat="46.5441" lon="0.34483">
        <ele>111.4</ele>
        <time>2023-09-10T07:45:21Z</time>
      </trkpt>
      <trkpt lat="46.54409" lon="0.34508">
        <ele>111.8</ele>
        <time>2023-09-10T07:45:26Z</time>
      </trkpt>
      <trkpt lat="46.54394" lon="0.34526">
        <ele>112.2</ele>
        <time>2023-09-10T07:45:31Z</time>
      </trkpt>
      <trkpt lat="46.54389" lon="0.34534">
        <ele>112.4</ele>
        <time>2023-09-10T07:45:33Z</time>
      </trkpt>
      <trkpt lat="46.54387" lon="0.34545">
        <ele>112.4</ele>
        <time>2023-09-10T07:45:35Z</time>
      </trkpt>
      <trkpt lat="46.54387" lon="0.34561">
        <ele>112.4</ele>
        <time>2023-09-10T07:45:38Z</time>
      </trkpt>
      <trkpt lat="46.54387" lon="0.34568">
        <ele>112.6</ele>
        <time>2023-09-10T07:45:40Z</time>
      </trkpt>
      <trkpt lat="46.54384" lon="0.34574">
        <ele>112.8</ele>
        <time>2023-09-10T07:45:42Z</time>
      </trkpt>
      <trkpt lat="46.5438" lon="0.34578">
        <ele>113</ele>
        <time>2023-09-10T07:45:44Z</time>
      </trkpt>
      <trkpt lat="46.54367" lon="0.34582">
        <ele>112.8</ele>
        <time>2023-09-10T07:45:49Z</time>
      </trkpt>
      <trkpt lat="46.5436" lon="0.34588">
        <ele>112.6</ele>
        <time>2023-09-10T07:45:53Z</time>
      </trkpt>
      <trkpt lat="46.54353" lon="0.34603">
        <ele>112.4</ele>
        <time>2023-09-10T07:45:58Z</time>
      </trkpt>
      <trkpt lat="46.54339" lon="0.34613">
        <ele>112</ele>
        <time>2023-09-10T07:46:03Z</time>
      </trkpt>
      <trkpt lat="46.54335" lon="0.34617">
        <ele>111.8</ele>
        <time>2023-09-10T07:46:05Z</time>
      </trkpt>
      <trkpt lat="46.54329" lon="0.3462">
        <ele>111.6</ele>
        <time>2023-09-10T07:46:07Z</time>
      </trkpt>
      <trkpt lat="46.54323" lon="0.34626">
        <ele>111.6</ele>
        <time>2023-09-10T07:46:09Z</time>
      </trkpt>
      <trkpt lat="46.54321" lon="0.34629">
        <ele>111.6</ele>
        <time>2023-09-10T07:46:10Z</time>
      </trkpt>
      <trkpt lat="46.54319" lon="0.34632">
        <ele>111.4</ele>
        <time>2023-09-10T07:46:11Z</time>
      </trkpt>
      <trkpt lat="46.54318" lon="0.34636">
        <ele>111.4</ele>
        <time>2023-09-10T07:46:12Z</time>
      </trkpt>
      <trkpt lat="46.54315" lon="0.34642">
        <ele>111.4</ele>
        <time>2023-09-10T07:46:13Z</time>
      </trkpt>
      <trkpt lat="46.54311" lon="0.34648">
        <ele>111.4</ele>
        <time>2023-09-10T07:46:14Z</time>
      </trkpt>
      <trkpt lat="46.54306" lon="0.34654">
        <ele>111.4</ele>
        <time>2023-09-10T07:46:16Z</time>
      </trkpt>
      <trkpt lat="46.54303" lon="0.3466">
        <ele>111.4</ele>
        <time>2023-09-10T07:46:17Z</time>
      </trkpt>
      <trkpt lat="46.543" lon="0.34663">
        <ele>111.6</ele>
        <time>2023-09-10T07:46:18Z</time>
      </trkpt>
      <trkpt lat="46.54284" lon="0.34671">
        <ele>112</ele>
        <time>2023-09-10T07:46:22Z</time>
      </trkpt>
      <trkpt lat="46.5428" lon="0.34673">
        <ele>112</ele>
        <time>2023-09-10T07:46:23Z</time>
      </trkpt>
      <trkpt lat="46.54277" lon="0.34678">
        <ele>112.2</ele>
        <time>2023-09-10T07:46:25Z</time>
      </trkpt>
      <trkpt lat="46.54276" lon="0.34685">
        <ele>112</ele>
        <time>2023-09-10T07:46:27Z</time>
      </trkpt>
      <trkpt lat="46.54274" lon="0.34695">
        <ele>112.2</ele>
        <time>2023-09-10T07:46:30Z</time>
      </trkpt>
      <trkpt lat="46.54274" lon="0.34699">
        <ele>112.2</ele>
        <time>2023-09-10T07:46:31Z</time>
      </trkpt>
      <trkpt lat="46.54274" lon="0.34708">
        <ele>112.4</ele>
        <time>2023-09-10T07:46:33Z</time>
      </trkpt>
      <trkpt lat="46.54275" lon="0.34712">
        <ele>112.6</ele>
        <time>2023-09-10T07:46:34Z</time>
      </trkpt>
      <trkpt lat="46.54276" lon="0.34716">
        <ele>112.6</ele>
        <time>2023-09-10T07:46:35Z</time>
      </trkpt>
      <trkpt lat="46.54277" lon="0.34722">
        <ele>112.8</ele>
        <time>2023-09-10T07:46:37Z</time>
      </trkpt>
      <trkpt lat="46.54275" lon="0.34731">
        <ele>112.6</ele>
        <time>2023-09-10T07:46:40Z</time>
      </trkpt>
      <trkpt lat="46.54271" lon="0.34754">
        <ele>112.4</ele>
        <time>2023-09-10T07:46:45Z</time>
      </trkpt>
      <trkpt lat="46.54266" lon="0.34778">
        <ele>113</ele>
        <time>2023-09-10T07:46:50Z</time>
      </trkpt>
      <trkpt lat="46.54261" lon="0.34803">
        <ele>113.2</ele>
        <time>2023-09-10T07:46:55Z</time>
      </trkpt>
      <trkpt lat="46.54261" lon="0.34815">
        <ele>113.2</ele>
        <time>2023-09-10T07:46:57Z</time>
      </trkpt>
      <trkpt lat="46.54263" lon="0.34826">
        <ele>113</ele>
        <time>2023-09-10T07:46:59Z</time>
      </trkpt>
      <trkpt lat="46.54265" lon="0.34838">
        <ele>112.8</ele>
        <time>2023-09-10T07:47:01Z</time>
      </trkpt>
      <trkpt lat="46.54269" lon="0.34847">
        <ele>112.6</ele>
        <time>2023-09-10T07:47:03Z</time>
      </trkpt>
      <trkpt lat="46.54271" lon="0.3485">
        <ele>112.8</ele>
        <time>2023-09-10T07:47:04Z</time>
      </trkpt>
      <trkpt lat="46.54276" lon="0.34858">
        <ele>112.8</ele>
        <time>2023-09-10T07:47:06Z</time>
      </trkpt>
      <trkpt lat="46.54284" lon="0.34878">
        <ele>113</ele>
        <time>2023-09-10T07:47:10Z</time>
      </trkpt>
      <trkpt lat="46.54291" lon="0.3489">
        <ele>112.8</ele>
        <time>2023-09-10T07:47:13Z</time>
      </trkpt>
      <trkpt lat="46.54297" lon="0.34906">
        <ele>112.6</ele>
        <time>2023-09-10T07:47:16Z</time>
      </trkpt>
      <trkpt lat="46.543" lon="0.34916">
        <ele>112.6</ele>
        <time>2023-09-10T07:47:18Z</time>
      </trkpt>
      <trkpt lat="46.54298" lon="0.34924">
        <ele>112.4</ele>
        <time>2023-09-10T07:47:20Z</time>
      </trkpt>
      <trkpt lat="46.5429" lon="0.34943">
        <ele>112.2</ele>
        <time>2023-09-10T07:47:25Z</time>
      </trkpt>
      <trkpt lat="46.54288" lon="0.34951">
        <ele>111.4</ele>
        <time>2023-09-10T07:47:27Z</time>
      </trkpt>
      <trkpt lat="46.54287" lon="0.34954">
        <ele>111.4</ele>
        <time>2023-09-10T07:47:28Z</time>
      </trkpt>
      <trkpt lat="46.54282" lon="0.34959">
        <ele>111</ele>
        <time>2023-09-10T07:47:30Z</time>
      </trkpt>
      <trkpt lat="46.54277" lon="0.34961">
        <ele>111</ele>
        <time>2023-09-10T07:47:32Z</time>
      </trkpt>
      <trkpt lat="46.54273" lon="0.3496">
        <ele>110.8</ele>
        <time>2023-09-10T07:47:34Z</time>
      </trkpt>
      <trkpt lat="46.54271" lon="0.34961">
        <ele>110.8</ele>
        <time>2023-09-10T07:47:35Z</time>
      </trkpt>
      <trkpt lat="46.54269" lon="0.34962">
        <ele>110.8</ele>
        <time>2023-09-10T07:47:36Z</time>
      </trkpt>
      <trkpt lat="46.54265" lon="0.34971">
        <ele>110.6</ele>
        <time>2023-09-10T07:47:39Z</time>
      </trkpt>
      <trkpt lat="46.54261" lon="0.34983">
        <ele>110.4</ele>
        <time>2023-09-10T07:47:42Z</time>
      </trkpt>
      <trkpt lat="46.54262" lon="0.3499">
        <ele>110.2</ele>
        <time>2023-09-10T07:47:44Z</time>
      </trkpt>
      <trkpt lat="46.54263" lon="0.34992">
        <ele>110.2</ele>
        <time>2023-09-10T07:47:45Z</time>
      </trkpt>
      <trkpt lat="46.54269" lon="0.35004">
        <ele>111.6</ele>
        <time>2023-09-10T07:47:50Z</time>
      </trkpt>
      <trkpt lat="46.54273" lon="0.35012">
        <ele>112</ele>
        <time>2023-09-10T07:47:52Z</time>
      </trkpt>
      <trkpt lat="46.54279" lon="0.35019">
        <ele>112.4</ele>
        <time>2023-09-10T07:47:55Z</time>
      </trkpt>
      <trkpt lat="46.54283" lon="0.35021">
        <ele>112.6</ele>
        <time>2023-09-10T07:47:56Z</time>
      </trkpt>
      <trkpt lat="46.54285" lon="0.35023">
        <ele>112.6</ele>
        <time>2023-09-10T07:47:57Z</time>
      </trkpt>
      <trkpt lat="46.54289" lon="0.35027">
        <ele>112.8</ele>
        <time>2023-09-10T07:47:59Z</time>
      </trkpt>
      <trkpt lat="46.54295" lon="0.3503">
        <ele>113</ele>
        <time>2023-09-10T07:48:01Z</time>
      </trkpt>
      <trkpt lat="46.54302" lon="0.35034">
        <ele>113.4</ele>
        <time>2023-09-10T07:48:04Z</time>
      </trkpt>
      <trkpt lat="46.54309" lon="0.35036">
        <ele>113.4</ele>
        <time>2023-09-10T07:48:06Z</time>
      </trkpt>
      <trkpt lat="46.54312" lon="0.35037">
        <ele>113.6</ele>
        <time>2023-09-10T07:48:07Z</time>
      </trkpt>
      <trkpt lat="46.54314" lon="0.3504">
        <ele>113.8</ele>
        <time>2023-09-10T07:48:08Z</time>
      </trkpt>
      <trkpt lat="46.54322" lon="0.35051">
        <ele>114</ele>
        <time>2023-09-10T07:48:11Z</time>
      </trkpt>
      <trkpt lat="46.54327" lon="0.35064">
        <ele>114.2</ele>
        <time>2023-09-10T07:48:15Z</time>
      </trkpt>
      <trkpt lat="46.54327" lon="0.35066">
        <ele>114.2</ele>
        <time>2023-09-10T07:48:16Z</time>
      </trkpt>
      <trkpt lat="46.54327" lon="0.3507">
        <ele>114.2</ele>
        <time>2023-09-10T07:48:17Z</time>
      </trkpt>
      <trkpt lat="46.54327" lon="0.35078">
        <ele>114.2</ele>
        <time>2023-09-10T07:48:19Z</time>
      </trkpt>
      <trkpt lat="46.54326" lon="0.35086">
        <ele>114.4</ele>
        <time>2023-09-10T07:48:21Z</time>
      </trkpt>
      <trkpt lat="46.54324" lon="0.3509">
        <ele>114.4</ele>
        <time>2023-09-10T07:48:22Z</time>
      </trkpt>
      <trkpt lat="46.54324" lon="0.3509">
        <ele>114.8</ele>
        <time>2023-09-10T07:48:23Z</time>
      </trkpt>
      <trkpt lat="46.54322" lon="0.35097">
        <ele>114.8</ele>
        <time>2023-09-10T07:48:24Z</time>
      </trkpt>
      <trkpt lat="46.54321" lon="0.35105">
        <ele>115.2</ele>
        <time>2023-09-10T07:48:26Z</time>
      </trkpt>
      <trkpt lat="46.5432" lon="0.35113">
        <ele>115.2</ele>
        <time>2023-09-10T07:48:28Z</time>
      </trkpt>
      <trkpt lat="46.54318" lon="0.35121">
        <ele>115.2</ele>
        <time>2023-09-10T07:48:30Z</time>
      </trkpt>
      <trkpt lat="46.54311" lon="0.35139">
        <ele>115.2</ele>
        <time>2023-09-10T07:48:34Z</time>
      </trkpt>
      <trkpt lat="46.54303" lon="0.35153">
        <ele>115.4</ele>
        <time>2023-09-10T07:48:37Z</time>
      </trkpt>
      <trkpt lat="46.54291" lon="0.35174">
        <ele>115.6</ele>
        <time>2023-09-10T07:48:40Z</time>
      </trkpt>
      <trkpt lat="46.54275" lon="0.35206">
        <ele>115.8</ele>
        <time>2023-09-10T07:48:46Z</time>
      </trkpt>
      <trkpt lat="46.54255" lon="0.35237">
        <ele>115.4</ele>
        <time>2023-09-10T07:48:52Z</time>
      </trkpt>
      <trkpt lat="46.54253" lon="0.35242">
        <ele>115.4</ele>
        <time>2023-09-10T07:48:53Z</time>
      </trkpt>
      <trkpt lat="46.54248" lon="0.35252">
        <ele>115.6</ele>
        <time>2023-09-10T07:48:55Z</time>
      </trkpt>
      <trkpt lat="46.54237" lon="0.35266">
        <ele>115.4</ele>
        <time>2023-09-10T07:48:57Z</time>
      </trkpt>
      <trkpt lat="46.54197" lon="0.35305">
        <ele>114.8</ele>
        <time>2023-09-10T07:49:02Z</time>
      </trkpt>
      <trkpt lat="46.54186" lon="0.35314">
        <ele>114.6</ele>
        <time>2023-09-10T07:49:04Z</time>
      </trkpt>
      <trkpt lat="46.54179" lon="0.35324">
        <ele>114.4</ele>
        <time>2023-09-10T07:49:06Z</time>
      </trkpt>
      <trkpt lat="46.54168" lon="0.35343">
        <ele>114</ele>
        <time>2023-09-10T07:49:10Z</time>
      </trkpt>
      <trkpt lat="46.54167" lon="0.35348">
        <ele>114.2</ele>
        <time>2023-09-10T07:49:11Z</time>
      </trkpt>
      <trkpt lat="46.54166" lon="0.35355">
        <ele>114.4</ele>
        <time>2023-09-10T07:49:12Z</time>
      </trkpt>
      <trkpt lat="46.54168" lon="0.35364">
        <ele>114.6</ele>
        <time>2023-09-10T07:49:14Z</time>
      </trkpt>
      <trkpt lat="46.5417" lon="0.35368">
        <ele>114.6</ele>
        <time>2023-09-10T07:49:15Z</time>
      </trkpt>
      <trkpt lat="46.54187" lon="0.35369">
        <ele>114.8</ele>
        <time>2023-09-10T07:49:19Z</time>
      </trkpt>
      <trkpt lat="46.54207" lon="0.35366">
        <ele>115.2</ele>
        <time>2023-09-10T07:49:25Z</time>
      </trkpt>
      <trkpt lat="46.54212" lon="0.35366">
        <ele>115.4</ele>
        <time>2023-09-10T07:49:27Z</time>
      </trkpt>
      <trkpt lat="46.54217" lon="0.35367">
        <ele>115.8</ele>
        <time>2023-09-10T07:49:29Z</time>
      </trkpt>
      <trkpt lat="46.54224" lon="0.35367">
        <ele>115.8</ele>
        <time>2023-09-10T07:49:31Z</time>
      </trkpt>
      <trkpt lat="46.54249" lon="0.35372">
        <ele>116.2</ele>
        <time>2023-09-10T07:49:38Z</time>
      </trkpt>
      <trkpt lat="46.54283" lon="0.35377">
        <ele>116.6</ele>
        <time>2023-09-10T07:49:46Z</time>
      </trkpt>
      <trkpt lat="46.54293" lon="0.3538">
        <ele>116.6</ele>
        <time>2023-09-10T07:49:48Z</time>
      </trkpt>
      <trkpt lat="46.54301" lon="0.35382">
        <ele>116.6</ele>
        <time>2023-09-10T07:49:50Z</time>
      </trkpt>
      <trkpt lat="46.54308" lon="0.35384">
        <ele>116.4</ele>
        <time>2023-09-10T07:49:52Z</time>
      </trkpt>
      <trkpt lat="46.54317" lon="0.35391">
        <ele>116.4</ele>
        <time>2023-09-10T07:49:54Z</time>
      </trkpt>
      <trkpt lat="46.5432" lon="0.35395">
        <ele>116.4</ele>
        <time>2023-09-10T07:49:55Z</time>
      </trkpt>
      <trkpt lat="46.54321" lon="0.35397">
        <ele>116.2</ele>
        <time>2023-09-10T07:49:56Z</time>
      </trkpt>
      <trkpt lat="46.54326" lon="0.35401">
        <ele>116</ele>
        <time>2023-09-10T07:49:58Z</time>
      </trkpt>
      <trkpt lat="46.54329" lon="0.35405">
        <ele>115.8</ele>
        <time>2023-09-10T07:49:59Z</time>
      </trkpt>
      <trkpt lat="46.54331" lon="0.35407">
        <ele>115.6</ele>
        <time>2023-09-10T07:50:00Z</time>
      </trkpt>
      <trkpt lat="46.5434" lon="0.35416">
        <ele>115.2</ele>
        <time>2023-09-10T07:50:04Z</time>
      </trkpt>
      <trkpt lat="46.54348" lon="0.3542">
        <ele>115.2</ele>
        <time>2023-09-10T07:50:07Z</time>
      </trkpt>
      <trkpt lat="46.54359" lon="0.35425">
        <ele>114.8</ele>
        <time>2023-09-10T07:50:10Z</time>
      </trkpt>
      <trkpt lat="46.54362" lon="0.35426">
        <ele>114.8</ele>
        <time>2023-09-10T07:50:11Z</time>
      </trkpt>
      <trkpt lat="46.54369" lon="0.35433">
        <ele>114.6</ele>
        <time>2023-09-10T07:50:13Z</time>
      </trkpt>
      <trkpt lat="46.54376" lon="0.35439">
        <ele>114.4</ele>
        <time>2023-09-10T07:50:15Z</time>
      </trkpt>
      <trkpt lat="46.5438" lon="0.35444">
        <ele>114.4</ele>
        <time>2023-09-10T07:50:17Z</time>
      </trkpt>
      <trkpt lat="46.54386" lon="0.35447">
        <ele>114.4</ele>
        <time>2023-09-10T07:50:19Z</time>
      </trkpt>
      <trkpt lat="46.54389" lon="0.35448">
        <ele>114.4</ele>
        <time>2023-09-10T07:50:20Z</time>
      </trkpt>
      <trkpt lat="46.54398" lon="0.35451">
        <ele>114.2</ele>
        <time>2023-09-10T07:50:23Z</time>
      </trkpt>
      <trkpt lat="46.544" lon="0.35451">
        <ele>114</ele>
        <time>2023-09-10T07:50:24Z</time>
      </trkpt>
      <trkpt lat="46.54407" lon="0.35451">
        <ele>113.6</ele>
        <time>2023-09-10T07:50:26Z</time>
      </trkpt>
      <trkpt lat="46.54417" lon="0.35455">
        <ele>113.4</ele>
        <time>2023-09-10T07:50:29Z</time>
      </trkpt>
      <trkpt lat="46.5442" lon="0.35454">
        <ele>113.4</ele>
        <time>2023-09-10T07:50:30Z</time>
      </trkpt>
      <trkpt lat="46.54423" lon="0.35452">
        <ele>113.2</ele>
        <time>2023-09-10T07:50:31Z</time>
      </trkpt>
      <trkpt lat="46.54427" lon="0.35446">
        <ele>112.6</ele>
        <time>2023-09-10T07:50:33Z</time>
      </trkpt>
      <trkpt lat="46.5443" lon="0.35444">
        <ele>112.6</ele>
        <time>2023-09-10T07:50:34Z</time>
      </trkpt>
      <trkpt lat="46.54432" lon="0.35443">
        <ele>112.6</ele>
        <time>2023-09-10T07:50:35Z</time>
      </trkpt>
      <trkpt lat="46.54435" lon="0.35442">
        <ele>112</ele>
        <time>2023-09-10T07:50:37Z</time>
      </trkpt>
      <trkpt lat="46.54439" lon="0.35443">
        <ele>111.8</ele>
        <time>2023-09-10T07:50:38Z</time>
      </trkpt>
      <trkpt lat="46.54444" lon="0.35447">
        <ele>111.6</ele>
        <time>2023-09-10T07:50:40Z</time>
      </trkpt>
      <trkpt lat="46.54446" lon="0.3545">
        <ele>111.4</ele>
        <time>2023-09-10T07:50:41Z</time>
      </trkpt>
      <trkpt lat="46.54452" lon="0.35456">
        <ele>111.2</ele>
        <time>2023-09-10T07:50:43Z</time>
      </trkpt>
      <trkpt lat="46.54455" lon="0.35458">
        <ele>111.2</ele>
        <time>2023-09-10T07:50:44Z</time>
      </trkpt>
      <trkpt lat="46.54466" lon="0.35467">
        <ele>110.6</ele>
        <time>2023-09-10T07:50:48Z</time>
      </trkpt>
      <trkpt lat="46.54475" lon="0.35472">
        <ele>110.4</ele>
        <time>2023-09-10T07:50:52Z</time>
      </trkpt>
      <trkpt lat="46.54479" lon="0.3547">
        <ele>110.2</ele>
        <time>2023-09-10T07:50:54Z</time>
      </trkpt>
      <trkpt lat="46.54483" lon="0.35465">
        <ele>110</ele>
        <time>2023-09-10T07:50:56Z</time>
      </trkpt>
      <trkpt lat="46.54488" lon="0.3546">
        <ele>109.2</ele>
        <time>2023-09-10T07:50:58Z</time>
      </trkpt>
      <trkpt lat="46.54489" lon="0.35459">
        <ele>108.6</ele>
        <time>2023-09-10T07:50:59Z</time>
      </trkpt>
      <trkpt lat="46.54492" lon="0.35457">
        <ele>108</ele>
        <time>2023-09-10T07:51:01Z</time>
      </trkpt>
      <trkpt lat="46.54496" lon="0.35451">
        <ele>107.8</ele>
        <time>2023-09-10T07:51:05Z</time>
      </trkpt>
      <trkpt lat="46.54499" lon="0.35449">
        <ele>107.8</ele>
        <time>2023-09-10T07:51:06Z</time>
      </trkpt>
      <trkpt lat="46.54506" lon="0.35441">
        <ele>107.6</ele>
        <time>2023-09-10T07:51:10Z</time>
      </trkpt>
      <trkpt lat="46.54507" lon="0.35438">
        <ele>107.6</ele>
        <time>2023-09-10T07:51:11Z</time>
      </trkpt>
      <trkpt lat="46.5451" lon="0.3543">
        <ele>107.2</ele>
        <time>2023-09-10T07:51:14Z</time>
      </trkpt>
      <trkpt lat="46.54511" lon="0.35427">
        <ele>107.4</ele>
        <time>2023-09-10T07:51:15Z</time>
      </trkpt>
      <trkpt lat="46.54517" lon="0.35417">
        <ele>107.8</ele>
        <time>2023-09-10T07:51:18Z</time>
      </trkpt>
      <trkpt lat="46.54522" lon="0.35412">
        <ele>107.6</ele>
        <time>2023-09-10T07:51:20Z</time>
      </trkpt>
      <trkpt lat="46.54524" lon="0.35409">
        <ele>107.6</ele>
        <time>2023-09-10T07:51:21Z</time>
      </trkpt>
      <trkpt lat="46.54526" lon="0.35405">
        <ele>107.4</ele>
        <time>2023-09-10T07:51:22Z</time>
      </trkpt>
      <trkpt lat="46.5453" lon="0.35398">
        <ele>107</ele>
        <time>2023-09-10T07:51:24Z</time>
      </trkpt>
      <trkpt lat="46.54531" lon="0.35394">
        <ele>106.8</ele>
        <time>2023-09-10T07:51:25Z</time>
      </trkpt>
      <trkpt lat="46.54539" lon="0.35372">
        <ele>106</ele>
        <time>2023-09-10T07:51:29Z</time>
      </trkpt>
      <trkpt lat="46.54544" lon="0.35365">
        <ele>106</ele>
        <time>2023-09-10T07:51:31Z</time>
      </trkpt>
      <trkpt lat="46.54547" lon="0.35364">
        <ele>106</ele>
        <time>2023-09-10T07:51:32Z</time>
      </trkpt>
      <trkpt lat="46.54554" lon="0.35364">
        <ele>105.8</ele>
        <time>2023-09-10T07:51:35Z</time>
      </trkpt>
      <trkpt lat="46.54557" lon="0.35363">
        <ele>105.6</ele>
        <time>2023-09-10T07:51:36Z</time>
      </trkpt>
      <trkpt lat="46.54563" lon="0.35363">
        <ele>104.4</ele>
        <time>2023-09-10T07:51:38Z</time>
      </trkpt>
      <trkpt lat="46.54568" lon="0.35363">
        <ele>103.2</ele>
        <time>2023-09-10T07:51:39Z</time>
      </trkpt>
      <trkpt lat="46.5457" lon="0.35363">
        <ele>102</ele>
        <time>2023-09-10T07:51:40Z</time>
      </trkpt>
      <trkpt lat="46.54573" lon="0.35363">
        <ele>101</ele>
        <time>2023-09-10T07:51:41Z</time>
      </trkpt>
      <trkpt lat="46.54578" lon="0.35363">
        <ele>99.8</ele>
        <time>2023-09-10T07:51:43Z</time>
      </trkpt>
      <trkpt lat="46.54581" lon="0.35364">
        <ele>99.4</ele>
        <time>2023-09-10T07:51:44Z</time>
      </trkpt>
      <trkpt lat="46.54591" lon="0.35365">
        <ele>97</ele>
        <time>2023-09-10T07:51:46Z</time>
      </trkpt>
      <trkpt lat="46.54599" lon="0.35367">
        <ele>95.6</ele>
        <time>2023-09-10T07:51:48Z</time>
      </trkpt>
      <trkpt lat="46.54603" lon="0.35369">
        <ele>95</ele>
        <time>2023-09-10T07:51:49Z</time>
      </trkpt>
      <trkpt lat="46.54607" lon="0.35372">
        <ele>94.6</ele>
        <time>2023-09-10T07:51:50Z</time>
      </trkpt>
      <trkpt lat="46.54613" lon="0.35375">
        <ele>93.4</ele>
        <time>2023-09-10T07:51:51Z</time>
      </trkpt>
      <trkpt lat="46.54619" lon="0.35379">
        <ele>92.2</ele>
        <time>2023-09-10T07:51:52Z</time>
      </trkpt>
      <trkpt lat="46.54629" lon="0.35388">
        <ele>91</ele>
        <time>2023-09-10T07:51:54Z</time>
      </trkpt>
      <trkpt lat="46.54635" lon="0.35395">
        <ele>90</ele>
        <time>2023-09-10T07:51:56Z</time>
      </trkpt>
      <trkpt lat="46.54641" lon="0.354">
        <ele>89.4</ele>
        <time>2023-09-10T07:51:58Z</time>
      </trkpt>
      <trkpt lat="46.54643" lon="0.35403">
        <ele>89.4</ele>
        <time>2023-09-10T07:51:59Z</time>
      </trkpt>
      <trkpt lat="46.54646" lon="0.35406">
        <ele>88.8</ele>
        <time>2023-09-10T07:52:00Z</time>
      </trkpt>
      <trkpt lat="46.54648" lon="0.3541">
        <ele>88.4</ele>
        <time>2023-09-10T07:52:01Z</time>
      </trkpt>
      <trkpt lat="46.54653" lon="0.35418">
        <ele>88</ele>
        <time>2023-09-10T07:52:03Z</time>
      </trkpt>
      <trkpt lat="46.5466" lon="0.35425">
        <ele>87.8</ele>
        <time>2023-09-10T07:52:04Z</time>
      </trkpt>
      <trkpt lat="46.54664" lon="0.3543">
        <ele>87.4</ele>
        <time>2023-09-10T07:52:05Z</time>
      </trkpt>
      <trkpt lat="46.54666" lon="0.35436">
        <ele>86.8</ele>
        <time>2023-09-10T07:52:07Z</time>
      </trkpt>
      <trkpt lat="46.54671" lon="0.35442">
        <ele>86.8</ele>
        <time>2023-09-10T07:52:08Z</time>
      </trkpt>
      <trkpt lat="46.5468" lon="0.35453">
        <ele>86.6</ele>
        <time>2023-09-10T07:52:11Z</time>
      </trkpt>
      <trkpt lat="46.54685" lon="0.35461">
        <ele>86.6</ele>
        <time>2023-09-10T07:52:13Z</time>
      </trkpt>
      <trkpt lat="46.54694" lon="0.35486">
        <ele>85.8</ele>
        <time>2023-09-10T07:52:17Z</time>
      </trkpt>
      <trkpt lat="46.54695" lon="0.3549">
        <ele>85.4</ele>
        <time>2023-09-10T07:52:18Z</time>
      </trkpt>
      <trkpt lat="46.54697" lon="0.35494">
        <ele>85</ele>
        <time>2023-09-10T07:52:19Z</time>
      </trkpt>
      <trkpt lat="46.54702" lon="0.35499">
        <ele>84</ele>
        <time>2023-09-10T07:52:21Z</time>
      </trkpt>
      <trkpt lat="46.54703" lon="0.35501">
        <ele>83.6</ele>
        <time>2023-09-10T07:52:22Z</time>
      </trkpt>
      <trkpt lat="46.54706" lon="0.35504">
        <ele>83</ele>
        <time>2023-09-10T07:52:23Z</time>
      </trkpt>
      <trkpt lat="46.54714" lon="0.35512">
        <ele>82</ele>
        <time>2023-09-10T07:52:27Z</time>
      </trkpt>
      <trkpt lat="46.54718" lon="0.35519">
        <ele>81</ele>
        <time>2023-09-10T07:52:29Z</time>
      </trkpt>
      <trkpt lat="46.54722" lon="0.35524">
        <ele>80.6</ele>
        <time>2023-09-10T07:52:30Z</time>
      </trkpt>
      <trkpt lat="46.54724" lon="0.35528">
        <ele>79.6</ele>
        <time>2023-09-10T07:52:31Z</time>
      </trkpt>
      <trkpt lat="46.54728" lon="0.35533">
        <ele>78</ele>
        <time>2023-09-10T07:52:33Z</time>
      </trkpt>
      <trkpt lat="46.5473" lon="0.35536">
        <ele>77.6</ele>
        <time>2023-09-10T07:52:34Z</time>
      </trkpt>
      <trkpt lat="46.54731" lon="0.3554">
        <ele>77.4</ele>
        <time>2023-09-10T07:52:35Z</time>
      </trkpt>
      <trkpt lat="46.54736" lon="0.35553">
        <ele>77.6</ele>
        <time>2023-09-10T07:52:40Z</time>
      </trkpt>
      <trkpt lat="46.54738" lon="0.35563">
        <ele>78.8</ele>
        <time>2023-09-10T07:52:44Z</time>
      </trkpt>
      <trkpt lat="46.54739" lon="0.35566">
        <ele>79.4</ele>
        <time>2023-09-10T07:52:45Z</time>
      </trkpt>
      <trkpt lat="46.54739" lon="0.35569">
        <ele>79.8</ele>
        <time>2023-09-10T07:52:46Z</time>
      </trkpt>
      <trkpt lat="46.54739" lon="0.35575">
        <ele>80.8</ele>
        <time>2023-09-10T07:52:48Z</time>
      </trkpt>
      <trkpt lat="46.54739" lon="0.3558">
        <ele>81.8</ele>
        <time>2023-09-10T07:52:50Z</time>
      </trkpt>
      <trkpt lat="46.54739" lon="0.35583">
        <ele>82.4</ele>
        <time>2023-09-10T07:52:51Z</time>
      </trkpt>
      <trkpt lat="46.54737" lon="0.35588">
        <ele>83.2</ele>
        <time>2023-09-10T07:52:53Z</time>
      </trkpt>
      <trkpt lat="46.54733" lon="0.356">
        <ele>84.4</ele>
        <time>2023-09-10T07:52:57Z</time>
      </trkpt>
      <trkpt lat="46.54733" lon="0.35603">
        <ele>84.6</ele>
        <time>2023-09-10T07:52:58Z</time>
      </trkpt>
      <trkpt lat="46.54733" lon="0.35609">
        <ele>84.8</ele>
        <time>2023-09-10T07:53:00Z</time>
      </trkpt>
      <trkpt lat="46.54737" lon="0.35637">
        <ele>85</ele>
        <time>2023-09-10T07:53:09Z</time>
      </trkpt>
      <trkpt lat="46.54737" lon="0.35661">
        <ele>85.6</ele>
        <time>2023-09-10T07:53:19Z</time>
      </trkpt>
      <trkpt lat="46.54736" lon="0.35667">
        <ele>86.8</ele>
        <time>2023-09-10T07:53:22Z</time>
      </trkpt>
      <trkpt lat="46.54733" lon="0.35671">
        <ele>87.4</ele>
        <time>2023-09-10T07:53:24Z</time>
      </trkpt>
      <trkpt lat="46.54732" lon="0.35674">
        <ele>87.8</ele>
        <time>2023-09-10T07:53:25Z</time>
      </trkpt>
      <trkpt lat="46.5473" lon="0.35676">
        <ele>88.2</ele>
        <time>2023-09-10T07:53:26Z</time>
      </trkpt>
      <trkpt lat="46.54729" lon="0.35678">
        <ele>89</ele>
        <time>2023-09-10T07:53:28Z</time>
      </trkpt>
      <trkpt lat="46.54729" lon="0.3568">
        <ele>89.2</ele>
        <time>2023-09-10T07:53:29Z</time>
      </trkpt>
      <trkpt lat="46.54727" lon="0.35683">
        <ele>90.2</ele>
        <time>2023-09-10T07:53:31Z</time>
      </trkpt>
      <trkpt lat="46.54723" lon="0.3569">
        <ele>91.4</ele>
        <time>2023-09-10T07:53:35Z</time>
      </trkpt>
      <trkpt lat="46.5472" lon="0.35696">
        <ele>92.6</ele>
        <time>2023-09-10T07:53:39Z</time>
      </trkpt>
      <trkpt lat="46.54715" lon="0.35702">
        <ele>93.6</ele>
        <time>2023-09-10T07:53:43Z</time>
      </trkpt>
      <trkpt lat="46.54709" lon="0.35705">
        <ele>95</ele>
        <time>2023-09-10T07:53:47Z</time>
      </trkpt>
      <trkpt lat="46.54707" lon="0.35708">
        <ele>95.6</ele>
        <time>2023-09-10T07:53:50Z</time>
      </trkpt>
      <trkpt lat="46.54706" lon="0.35709">
        <ele>96</ele>
        <time>2023-09-10T07:53:52Z</time>
      </trkpt>
      <trkpt lat="46.54705" lon="0.3571">
        <ele>96.4</ele>
        <time>2023-09-10T07:53:53Z</time>
      </trkpt>
      <trkpt lat="46.54704" lon="0.35713">
        <ele>96.8</ele>
        <time>2023-09-10T07:53:55Z</time>
      </trkpt>
      <trkpt lat="46.54704" lon="0.35716">
        <ele>97.2</ele>
        <time>2023-09-10T07:53:57Z</time>
      </trkpt>
      <trkpt lat="46.54703" lon="0.35719">
        <ele>97.8</ele>
        <time>2023-09-10T07:53:59Z</time>
      </trkpt>
      <trkpt lat="46.54702" lon="0.35723">
        <ele>98.4</ele>
        <time>2023-09-10T07:54:01Z</time>
      </trkpt>
      <trkpt lat="46.547" lon="0.35729">
        <ele>99.2</ele>
        <time>2023-09-10T07:54:05Z</time>
      </trkpt>
      <trkpt lat="46.54699" lon="0.35732">
        <ele>99.4</ele>
        <time>2023-09-10T07:54:06Z</time>
      </trkpt>
      <trkpt lat="46.54699" lon="0.35734">
        <ele>99.6</ele>
        <time>2023-09-10T07:54:07Z</time>
      </trkpt>
      <trkpt lat="46.547" lon="0.35751">
        <ele>100</ele>
        <time>2023-09-10T07:54:13Z</time>
      </trkpt>
      <trkpt lat="46.54704" lon="0.35768">
        <ele>100.2</ele>
        <time>2023-09-10T07:54:20Z</time>
      </trkpt>
      <trkpt lat="46.54704" lon="0.3577">
        <ele>100.6</ele>
        <time>2023-09-10T07:54:21Z</time>
      </trkpt>
      <trkpt lat="46.54705" lon="0.35779">
        <ele>101.4</ele>
        <time>2023-09-10T07:54:25Z</time>
      </trkpt>
      <trkpt lat="46.54706" lon="0.35784">
        <ele>101.6</ele>
        <time>2023-09-10T07:54:27Z</time>
      </trkpt>
      <trkpt lat="46.54706" lon="0.35788">
        <ele>101.8</ele>
        <time>2023-09-10T07:54:29Z</time>
      </trkpt>
      <trkpt lat="46.54706" lon="0.3579">
        <ele>101.8</ele>
        <time>2023-09-10T07:54:32Z</time>
      </trkpt>
      <trkpt lat="46.54705" lon="0.35792">
        <ele>101.8</ele>
        <time>2023-09-10T07:54:34Z</time>
      </trkpt>
      <trkpt lat="46.54706" lon="0.35803">
        <ele>101.8</ele>
        <time>2023-09-10T07:54:48Z</time>
      </trkpt>
      <trkpt lat="46.54711" lon="0.35819">
        <ele>100.4</ele>
        <time>2023-09-10T07:54:54Z</time>
      </trkpt>
      <trkpt lat="46.54719" lon="0.35845">
        <ele>98.8</ele>
        <time>2023-09-10T07:55:01Z</time>
      </trkpt>
      <trkpt lat="46.54721" lon="0.35853">
        <ele>97.8</ele>
        <time>2023-09-10T07:55:03Z</time>
      </trkpt>
      <trkpt lat="46.54725" lon="0.35869">
        <ele>96.4</ele>
        <time>2023-09-10T07:55:07Z</time>
      </trkpt>
      <trkpt lat="46.54726" lon="0.35877">
        <ele>95.2</ele>
        <time>2023-09-10T07:55:10Z</time>
      </trkpt>
      <trkpt lat="46.54728" lon="0.35884">
        <ele>95</ele>
        <time>2023-09-10T07:55:13Z</time>
      </trkpt>
      <trkpt lat="46.54729" lon="0.35891">
        <ele>94.8</ele>
        <time>2023-09-10T07:55:29Z</time>
      </trkpt>
      <trkpt lat="46.54733" lon="0.35899">
        <ele>95</ele>
        <time>2023-09-10T07:55:34Z</time>
      </trkpt>
      <trkpt lat="46.54736" lon="0.35905">
        <ele>94.8</ele>
        <time>2023-09-10T07:55:37Z</time>
      </trkpt>
      <trkpt lat="46.54744" lon="0.3592">
        <ele>94.4</ele>
        <time>2023-09-10T07:55:43Z</time>
      </trkpt>
      <trkpt lat="46.54747" lon="0.35926">
        <ele>94.2</ele>
        <time>2023-09-10T07:55:45Z</time>
      </trkpt>
      <trkpt lat="46.54751" lon="0.35937">
        <ele>93.8</ele>
        <time>2023-09-10T07:55:50Z</time>
      </trkpt>
      <trkpt lat="46.54752" lon="0.35939">
        <ele>93.6</ele>
        <time>2023-09-10T07:55:51Z</time>
      </trkpt>
      <trkpt lat="46.54759" lon="0.35941">
        <ele>93.2</ele>
        <time>2023-09-10T07:55:58Z</time>
      </trkpt>
      <trkpt lat="46.5476" lon="0.3594">
        <ele>92.4</ele>
        <time>2023-09-10T07:56:00Z</time>
      </trkpt>
      <trkpt lat="46.54761" lon="0.3594">
        <ele>92</ele>
        <time>2023-09-10T07:56:01Z</time>
      </trkpt>
      <trkpt lat="46.54762" lon="0.3594">
        <ele>90.8</ele>
        <time>2023-09-10T07:56:04Z</time>
      </trkpt>
      <trkpt lat="46.54765" lon="0.35939">
        <ele>89.6</ele>
        <time>2023-09-10T07:56:06Z</time>
      </trkpt>
      <trkpt lat="46.54767" lon="0.35939">
        <ele>88.4</ele>
        <time>2023-09-10T07:56:08Z</time>
      </trkpt>
      <trkpt lat="46.54768" lon="0.35938">
        <ele>87.6</ele>
        <time>2023-09-10T07:56:09Z</time>
      </trkpt>
      <trkpt lat="46.5477" lon="0.35938">
        <ele>87.2</ele>
        <time>2023-09-10T07:56:10Z</time>
      </trkpt>
      <trkpt lat="46.54773" lon="0.35937">
        <ele>86.2</ele>
        <time>2023-09-10T07:56:12Z</time>
      </trkpt>
      <trkpt lat="46.54776" lon="0.35936">
        <ele>84.8</ele>
        <time>2023-09-10T07:56:14Z</time>
      </trkpt>
      <trkpt lat="46.54778" lon="0.35934">
        <ele>83.2</ele>
        <time>2023-09-10T07:56:16Z</time>
      </trkpt>
      <trkpt lat="46.54779" lon="0.35932">
        <ele>81.6</ele>
        <time>2023-09-10T07:56:18Z</time>
      </trkpt>
      <trkpt lat="46.5478" lon="0.35931">
        <ele>80.8</ele>
        <time>2023-09-10T07:56:19Z</time>
      </trkpt>
      <trkpt lat="46.54782" lon="0.3593">
        <ele>80.4</ele>
        <time>2023-09-10T07:56:20Z</time>
      </trkpt>
      <trkpt lat="46.54784" lon="0.35929">
        <ele>79</ele>
        <time>2023-09-10T07:56:22Z</time>
      </trkpt>
      <trkpt lat="46.54787" lon="0.3593">
        <ele>77.6</ele>
        <time>2023-09-10T07:56:24Z</time>
      </trkpt>
      <trkpt lat="46.54791" lon="0.3593">
        <ele>76.8</ele>
        <time>2023-09-10T07:56:29Z</time>
      </trkpt>
      <trkpt lat="46.54796" lon="0.3593">
        <ele>76.6</ele>
        <time>2023-09-10T07:56:41Z</time>
      </trkpt>
      <trkpt lat="46.54796" lon="0.35932">
        <ele>76.8</ele>
        <time>2023-09-10T07:56:59Z</time>
      </trkpt>
      <trkpt lat="46.54795" lon="0.35932">
        <ele>76.6</ele>
        <time>2023-09-10T07:57:14Z</time>
      </trkpt>
      <trkpt lat="46.54796" lon="0.35933">
        <ele>76.8</ele>
        <time>2023-09-10T07:57:23Z</time>
      </trkpt>
      <trkpt lat="46.54798" lon="0.35936">
        <ele>76.6</ele>
        <time>2023-09-10T07:57:27Z</time>
      </trkpt>
      <trkpt lat="46.54801" lon="0.35944">
        <ele>77.8</ele>
        <time>2023-09-10T07:57:33Z</time>
      </trkpt>
      <trkpt lat="46.54803" lon="0.35947">
        <ele>78.6</ele>
        <time>2023-09-10T07:57:36Z</time>
      </trkpt>
      <trkpt lat="46.54809" lon="0.35956">
        <ele>79.8</ele>
        <time>2023-09-10T07:57:44Z</time>
      </trkpt>
      <trkpt lat="46.54811" lon="0.35959">
        <ele>80.8</ele>
        <time>2023-09-10T07:57:46Z</time>
      </trkpt>
      <trkpt lat="46.54812" lon="0.3596">
        <ele>81.2</ele>
        <time>2023-09-10T07:57:47Z</time>
      </trkpt>
      <trkpt lat="46.54814" lon="0.35965">
        <ele>82.6</ele>
        <time>2023-09-10T07:57:51Z</time>
      </trkpt>
      <trkpt lat="46.54815" lon="0.35967">
        <ele>83.2</ele>
        <time>2023-09-10T07:57:53Z</time>
      </trkpt>
      <trkpt lat="46.54814" lon="0.35968">
        <ele>83.6</ele>
        <time>2023-09-10T07:57:54Z</time>
      </trkpt>
      <trkpt lat="46.54814" lon="0.35968">
        <ele>83.8</ele>
        <time>2023-09-10T07:57:55Z</time>
      </trkpt>
      <trkpt lat="46.54813" lon="0.35969">
        <ele>84</ele>
        <time>2023-09-10T07:57:56Z</time>
      </trkpt>
      <trkpt lat="46.54813" lon="0.3597">
        <ele>84.2</ele>
        <time>2023-09-10T07:57:58Z</time>
      </trkpt>
      <trkpt lat="46.54811" lon="0.3597">
        <ele>84.4</ele>
        <time>2023-09-10T07:58:01Z</time>
      </trkpt>
      <trkpt lat="46.54809" lon="0.35969">
        <ele>84.6</ele>
        <time>2023-09-10T07:58:03Z</time>
      </trkpt>
      <trkpt lat="46.54807" lon="0.35969">
        <ele>85</ele>
        <time>2023-09-10T07:58:07Z</time>
      </trkpt>
      <trkpt lat="46.54804" lon="0.35971">
        <ele>85.4</ele>
        <time>2023-09-10T07:58:18Z</time>
      </trkpt>
      <trkpt lat="46.54804" lon="0.35971">
        <ele>85.6</ele>
        <time>2023-09-10T07:58:19Z</time>
      </trkpt>
      <trkpt lat="46.54799" lon="0.3597">
        <ele>86.8</ele>
        <time>2023-09-10T07:58:26Z</time>
      </trkpt>
      <trkpt lat="46.54796" lon="0.35969">
        <ele>87</ele>
        <time>2023-09-10T07:58:28Z</time>
      </trkpt>
      <trkpt lat="46.54792" lon="0.35968">
        <ele>88</ele>
        <time>2023-09-10T07:58:32Z</time>
      </trkpt>
      <trkpt lat="46.54788" lon="0.35969">
        <ele>89.4</ele>
        <time>2023-09-10T07:58:36Z</time>
      </trkpt>
      <trkpt lat="46.54786" lon="0.3597">
        <ele>90.2</ele>
        <time>2023-09-10T07:58:38Z</time>
      </trkpt>
      <trkpt lat="46.54784" lon="0.3597">
        <ele>90.6</ele>
        <time>2023-09-10T07:58:39Z</time>
      </trkpt>
      <trkpt lat="46.5478" lon="0.3597">
        <ele>91.8</ele>
        <time>2023-09-10T07:58:43Z</time>
      </trkpt>
      <trkpt lat="46.54777" lon="0.35973">
        <ele>92.6</ele>
        <time>2023-09-10T07:58:47Z</time>
      </trkpt>
      <trkpt lat="46.54778" lon="0.35973">
        <ele>93</ele>
        <time>2023-09-10T07:58:48Z</time>
      </trkpt>
      <trkpt lat="46.54778" lon="0.35979">
        <ele>93.4</ele>
        <time>2023-09-10T07:58:53Z</time>
      </trkpt>
      <trkpt lat="46.54781" lon="0.3599">
        <ele>93.6</ele>
        <time>2023-09-10T07:58:58Z</time>
      </trkpt>
      <trkpt lat="46.54785" lon="0.36002">
        <ele>94</ele>
        <time>2023-09-10T07:59:04Z</time>
      </trkpt>
      <trkpt lat="46.54785" lon="0.36005">
        <ele>94.2</ele>
        <time>2023-09-10T07:59:05Z</time>
      </trkpt>
      <trkpt lat="46.54793" lon="0.36021">
        <ele>94.8</ele>
        <time>2023-09-10T07:59:11Z</time>
      </trkpt>
      <trkpt lat="46.54801" lon="0.36035">
        <ele>95</ele>
        <time>2023-09-10T07:59:15Z</time>
      </trkpt>
      <trkpt lat="46.54805" lon="0.36042">
        <ele>95.2</ele>
        <time>2023-09-10T07:59:17Z</time>
      </trkpt>
      <trkpt lat="46.54817" lon="0.36062">
        <ele>95</ele>
        <time>2023-09-10T07:59:23Z</time>
      </trkpt>
      <trkpt lat="46.54824" lon="0.36073">
        <ele>95</ele>
        <time>2023-09-10T07:59:26Z</time>
      </trkpt>
      <trkpt lat="46.54829" lon="0.3608">
        <ele>94.8</ele>
        <time>2023-09-10T07:59:28Z</time>
      </trkpt>
      <trkpt lat="46.54831" lon="0.36082">
        <ele>94.6</ele>
        <time>2023-09-10T07:59:29Z</time>
      </trkpt>
      <trkpt lat="46.54837" lon="0.36088">
        <ele>94</ele>
        <time>2023-09-10T07:59:33Z</time>
      </trkpt>
      <trkpt lat="46.5484" lon="0.3609">
        <ele>93.8</ele>
        <time>2023-09-10T07:59:35Z</time>
      </trkpt>
      <trkpt lat="46.54841" lon="0.36094">
        <ele>93.4</ele>
        <time>2023-09-10T07:59:51Z</time>
      </trkpt>
      <trkpt lat="46.54842" lon="0.36098">
        <ele>93.6</ele>
        <time>2023-09-10T08:00:08Z</time>
      </trkpt>
      <trkpt lat="46.54843" lon="0.36099">
        <ele>93.6</ele>
        <time>2023-09-10T08:00:22Z</time>
      </trkpt>
      <trkpt lat="46.54843" lon="0.361">
        <ele>93.6</ele>
        <time>2023-09-10T08:00:40Z</time>
      </trkpt>
      <trkpt lat="46.54845" lon="0.36102">
        <ele>93.6</ele>
        <time>2023-09-10T08:00:54Z</time>
      </trkpt>
      <trkpt lat="46.54854" lon="0.36112">
        <ele>93.6</ele>
        <time>2023-09-10T08:01:01Z</time>
      </trkpt>
      <trkpt lat="46.54869" lon="0.36131">
        <ele>93</ele>
        <time>2023-09-10T08:01:06Z</time>
      </trkpt>
      <trkpt lat="46.54873" lon="0.36135">
        <ele>92.6</ele>
        <time>2023-09-10T08:01:07Z</time>
      </trkpt>
      <trkpt lat="46.54892" lon="0.36149">
        <ele>91.8</ele>
        <time>2023-09-10T08:01:11Z</time>
      </trkpt>
      <trkpt lat="46.54903" lon="0.36159">
        <ele>91.4</ele>
        <time>2023-09-10T08:01:14Z</time>
      </trkpt>
      <trkpt lat="46.54906" lon="0.36161">
        <ele>91.2</ele>
        <time>2023-09-10T08:01:15Z</time>
      </trkpt>
      <trkpt lat="46.54908" lon="0.36163">
        <ele>90.8</ele>
        <time>2023-09-10T08:01:16Z</time>
      </trkpt>
      <trkpt lat="46.54911" lon="0.36165">
        <ele>89.2</ele>
        <time>2023-09-10T08:01:18Z</time>
      </trkpt>
      <trkpt lat="46.54914" lon="0.36166">
        <ele>88.6</ele>
        <time>2023-09-10T08:01:20Z</time>
      </trkpt>
      <trkpt lat="46.54916" lon="0.36163">
        <ele>88.6</ele>
        <time>2023-09-10T08:01:23Z</time>
      </trkpt>
      <trkpt lat="46.54916" lon="0.36161">
        <ele>88.6</ele>
        <time>2023-09-10T08:01:25Z</time>
      </trkpt>
      <trkpt lat="46.54916" lon="0.3616">
        <ele>88.6</ele>
        <time>2023-09-10T08:01:26Z</time>
      </trkpt>
      <trkpt lat="46.54916" lon="0.3616">
        <ele>88.8</ele>
        <time>2023-09-10T08:01:28Z</time>
      </trkpt>
      <trkpt lat="46.54915" lon="0.36159">
        <ele>88.8</ele>
        <time>2023-09-10T08:01:30Z</time>
      </trkpt>
      <trkpt lat="46.54912" lon="0.36156">
        <ele>89.4</ele>
        <time>2023-09-10T08:01:34Z</time>
      </trkpt>
      <trkpt lat="46.54912" lon="0.36155">
        <ele>89.6</ele>
        <time>2023-09-10T08:01:35Z</time>
      </trkpt>
      <trkpt lat="46.54911" lon="0.36152">
        <ele>90</ele>
        <time>2023-09-10T08:01:37Z</time>
      </trkpt>
      <trkpt lat="46.5491" lon="0.3615">
        <ele>90.2</ele>
        <time>2023-09-10T08:01:39Z</time>
      </trkpt>
      <trkpt lat="46.54909" lon="0.36149">
        <ele>90.4</ele>
        <time>2023-09-10T08:01:40Z</time>
      </trkpt>
      <trkpt lat="46.54901" lon="0.36145">
        <ele>91.4</ele>
        <time>2023-09-10T08:01:46Z</time>
      </trkpt>
      <trkpt lat="46.54894" lon="0.36137">
        <ele>92.6</ele>
        <time>2023-09-10T08:01:52Z</time>
      </trkpt>
      <trkpt lat="46.54893" lon="0.36133">
        <ele>92.8</ele>
        <time>2023-09-10T08:01:53Z</time>
      </trkpt>
      <trkpt lat="46.54893" lon="0.36132">
        <ele>93</ele>
        <time>2023-09-10T08:01:54Z</time>
      </trkpt>
      <trkpt lat="46.54894" lon="0.36124">
        <ele>93</ele>
        <time>2023-09-10T08:01:58Z</time>
      </trkpt>
      <trkpt lat="46.54895" lon="0.3612">
        <ele>92.8</ele>
        <time>2023-09-10T08:02:00Z</time>
      </trkpt>
      <trkpt lat="46.54895" lon="0.36112">
        <ele>91.2</ele>
        <time>2023-09-10T08:02:04Z</time>
      </trkpt>
      <trkpt lat="46.54896" lon="0.36109">
        <ele>89.8</ele>
        <time>2023-09-10T08:02:06Z</time>
      </trkpt>
      <trkpt lat="46.54896" lon="0.36103">
        <ele>88.2</ele>
        <time>2023-09-10T08:02:09Z</time>
      </trkpt>
      <trkpt lat="46.54897" lon="0.36098">
        <ele>86.8</ele>
        <time>2023-09-10T08:02:12Z</time>
      </trkpt>
      <trkpt lat="46.54896" lon="0.36091">
        <ele>86</ele>
        <time>2023-09-10T08:02:14Z</time>
      </trkpt>
      <trkpt lat="46.54896" lon="0.36087">
        <ele>85.6</ele>
        <time>2023-09-10T08:02:15Z</time>
      </trkpt>
      <trkpt lat="46.54897" lon="0.36083">
        <ele>84.6</ele>
        <time>2023-09-10T08:02:17Z</time>
      </trkpt>
      <trkpt lat="46.54898" lon="0.36078">
        <ele>83</ele>
        <time>2023-09-10T08:02:19Z</time>
      </trkpt>
      <trkpt lat="46.54899" lon="0.36073">
        <ele>81.8</ele>
        <time>2023-09-10T08:02:21Z</time>
      </trkpt>
      <trkpt lat="46.54899" lon="0.3607">
        <ele>80.8</ele>
        <time>2023-09-10T08:02:22Z</time>
      </trkpt>
      <trkpt lat="46.54901" lon="0.36069">
        <ele>79.8</ele>
        <time>2023-09-10T08:02:23Z</time>
      </trkpt>
      <trkpt lat="46.54902" lon="0.36069">
        <ele>79</ele>
        <time>2023-09-10T08:02:24Z</time>
      </trkpt>
      <trkpt lat="46.54906" lon="0.36072">
        <ele>78</ele>
        <time>2023-09-10T08:02:27Z</time>
      </trkpt>
      <trkpt lat="46.54908" lon="0.36074">
        <ele>77.8</ele>
        <time>2023-09-10T08:02:28Z</time>
      </trkpt>
      <trkpt lat="46.54919" lon="0.36086">
        <ele>77.6</ele>
        <time>2023-09-10T08:02:33Z</time>
      </trkpt>
      <trkpt lat="46.54923" lon="0.36092">
        <ele>77.6</ele>
        <time>2023-09-10T08:02:35Z</time>
      </trkpt>
      <trkpt lat="46.5493" lon="0.36101">
        <ele>78.2</ele>
        <time>2023-09-10T08:02:39Z</time>
      </trkpt>
      <trkpt lat="46.54942" lon="0.36117">
        <ele>78.6</ele>
        <time>2023-09-10T08:02:45Z</time>
      </trkpt>
      <trkpt lat="46.54956" lon="0.36139">
        <ele>78.4</ele>
        <time>2023-09-10T08:02:50Z</time>
      </trkpt>
      <trkpt lat="46.54963" lon="0.36146">
        <ele>78.2</ele>
        <time>2023-09-10T08:02:52Z</time>
      </trkpt>
      <trkpt lat="46.54979" lon="0.36161">
        <ele>78.2</ele>
        <time>2023-09-10T08:02:58Z</time>
      </trkpt>
      <trkpt lat="46.54997" lon="0.36177">
        <ele>78</ele>
        <time>2023-09-10T08:03:04Z</time>
      </trkpt>
      <trkpt lat="46.55013" lon="0.36186">
        <ele>77.8</ele>
        <time>2023-09-10T08:03:10Z</time>
      </trkpt>
      <trkpt lat="46.55014" lon="0.36188">
        <ele>77.8</ele>
        <time>2023-09-10T08:03:11Z</time>
      </trkpt>
      <trkpt lat="46.55018" lon="0.36194">
        <ele>77.8</ele>
        <time>2023-09-10T08:03:14Z</time>
      </trkpt>
      <trkpt lat="46.55021" lon="0.36198">
        <ele>77.8</ele>
        <time>2023-09-10T08:03:16Z</time>
      </trkpt>
      <trkpt lat="46.55024" lon="0.36207">
        <ele>78.8</ele>
        <time>2023-09-10T08:03:19Z</time>
      </trkpt>
      <trkpt lat="46.55025" lon="0.36212">
        <ele>79.8</ele>
        <time>2023-09-10T08:03:21Z</time>
      </trkpt>
      <trkpt lat="46.55027" lon="0.36217">
        <ele>80.8</ele>
        <time>2023-09-10T08:03:23Z</time>
      </trkpt>
      <trkpt lat="46.55028" lon="0.36219">
        <ele>81</ele>
        <time>2023-09-10T08:03:24Z</time>
      </trkpt>
      <trkpt lat="46.5503" lon="0.36222">
        <ele>82</ele>
        <time>2023-09-10T08:03:26Z</time>
      </trkpt>
      <trkpt lat="46.5503" lon="0.36222">
        <ele>82.6</ele>
        <time>2023-09-10T08:03:27Z</time>
      </trkpt>
      <trkpt lat="46.55034" lon="0.36229">
        <ele>82.8</ele>
        <time>2023-09-10T08:03:29Z</time>
      </trkpt>
      <trkpt lat="46.55036" lon="0.36231">
        <ele>82.8</ele>
        <time>2023-09-10T08:03:31Z</time>
      </trkpt>
      <trkpt lat="46.55037" lon="0.36233">
        <ele>82.6</ele>
        <time>2023-09-10T08:03:34Z</time>
      </trkpt>
      <trkpt lat="46.5504" lon="0.36234">
        <ele>82</ele>
        <time>2023-09-10T08:03:42Z</time>
      </trkpt>
      <trkpt lat="46.55046" lon="0.36239">
        <ele>81.8</ele>
        <time>2023-09-10T08:03:47Z</time>
      </trkpt>
      <trkpt lat="46.5505" lon="0.36242">
        <ele>81.8</ele>
        <time>2023-09-10T08:03:50Z</time>
      </trkpt>
      <trkpt lat="46.55052" lon="0.36247">
        <ele>82.6</ele>
        <time>2023-09-10T08:03:53Z</time>
      </trkpt>
      <trkpt lat="46.55052" lon="0.36251">
        <ele>82.8</ele>
        <time>2023-09-10T08:03:55Z</time>
      </trkpt>
      <trkpt lat="46.55058" lon="0.3627">
        <ele>82.2</ele>
        <time>2023-09-10T08:04:01Z</time>
      </trkpt>
      <trkpt lat="46.55059" lon="0.36273">
        <ele>81.4</ele>
        <time>2023-09-10T08:04:02Z</time>
      </trkpt>
      <trkpt lat="46.5506" lon="0.36283">
        <ele>80.2</ele>
        <time>2023-09-10T08:04:04Z</time>
      </trkpt>
      <trkpt lat="46.5506" lon="0.36294">
        <ele>79.4</ele>
        <time>2023-09-10T08:04:06Z</time>
      </trkpt>
      <trkpt lat="46.55053" lon="0.36319">
        <ele>80</ele>
        <time>2023-09-10T08:04:12Z</time>
      </trkpt>
      <trkpt lat="46.55051" lon="0.36339">
        <ele>80.4</ele>
        <time>2023-09-10T08:04:17Z</time>
      </trkpt>
      <trkpt lat="46.55049" lon="0.36356">
        <ele>81.2</ele>
        <time>2023-09-10T08:04:22Z</time>
      </trkpt>
      <trkpt lat="46.55048" lon="0.36365">
        <ele>81.2</ele>
        <time>2023-09-10T08:04:24Z</time>
      </trkpt>
      <trkpt lat="46.55047" lon="0.3639">
        <ele>82.2</ele>
        <time>2023-09-10T08:04:30Z</time>
      </trkpt>
      <trkpt lat="46.55046" lon="0.36417">
        <ele>83.4</ele>
        <time>2023-09-10T08:04:36Z</time>
      </trkpt>
      <trkpt lat="46.55047" lon="0.36425">
        <ele>83.8</ele>
        <time>2023-09-10T08:04:38Z</time>
      </trkpt>
      <trkpt lat="46.55048" lon="0.36439">
        <ele>84.6</ele>
        <time>2023-09-10T08:04:42Z</time>
      </trkpt>
      <trkpt lat="46.5505" lon="0.36446">
        <ele>85</ele>
        <time>2023-09-10T08:04:44Z</time>
      </trkpt>
      <trkpt lat="46.55053" lon="0.3646">
        <ele>86</ele>
        <time>2023-09-10T08:04:47Z</time>
      </trkpt>
      <trkpt lat="46.55057" lon="0.36472">
        <ele>86.2</ele>
        <time>2023-09-10T08:04:50Z</time>
      </trkpt>
      <trkpt lat="46.55066" lon="0.3649">
        <ele>87</ele>
        <time>2023-09-10T08:04:55Z</time>
      </trkpt>
      <trkpt lat="46.5507" lon="0.36496">
        <ele>87.2</ele>
        <time>2023-09-10T08:04:57Z</time>
      </trkpt>
      <trkpt lat="46.55081" lon="0.36509">
        <ele>88.4</ele>
        <time>2023-09-10T08:05:03Z</time>
      </trkpt>
      <trkpt lat="46.55094" lon="0.36526">
        <ele>89</ele>
        <time>2023-09-10T08:05:09Z</time>
      </trkpt>
      <trkpt lat="46.55099" lon="0.36532">
        <ele>89.8</ele>
        <time>2023-09-10T08:05:11Z</time>
      </trkpt>
      <trkpt lat="46.55108" lon="0.36543">
        <ele>90.6</ele>
        <time>2023-09-10T08:05:15Z</time>
      </trkpt>
      <trkpt lat="46.5511" lon="0.36547">
        <ele>90.8</ele>
        <time>2023-09-10T08:05:16Z</time>
      </trkpt>
      <trkpt lat="46.55119" lon="0.36563">
        <ele>91.6</ele>
        <time>2023-09-10T08:05:21Z</time>
      </trkpt>
      <trkpt lat="46.55122" lon="0.36572">
        <ele>92</ele>
        <time>2023-09-10T08:05:24Z</time>
      </trkpt>
      <trkpt lat="46.55126" lon="0.36586">
        <ele>92.6</ele>
        <time>2023-09-10T08:05:28Z</time>
      </trkpt>
      <trkpt lat="46.55127" lon="0.36595">
        <ele>93</ele>
        <time>2023-09-10T08:05:31Z</time>
      </trkpt>
      <trkpt lat="46.55127" lon="0.36598">
        <ele>93.2</ele>
        <time>2023-09-10T08:05:32Z</time>
      </trkpt>
      <trkpt lat="46.55126" lon="0.36602">
        <ele>93.2</ele>
        <time>2023-09-10T08:05:34Z</time>
      </trkpt>
      <trkpt lat="46.55125" lon="0.36605">
        <ele>93.4</ele>
        <time>2023-09-10T08:05:37Z</time>
      </trkpt>
      <trkpt lat="46.55124" lon="0.36608">
        <ele>93.6</ele>
        <time>2023-09-10T08:05:39Z</time>
      </trkpt>
      <trkpt lat="46.55115" lon="0.3661">
        <ele>93.8</ele>
        <time>2023-09-10T08:05:43Z</time>
      </trkpt>
      <trkpt lat="46.55102" lon="0.36608">
        <ele>94</ele>
        <time>2023-09-10T08:05:48Z</time>
      </trkpt>
      <trkpt lat="46.55099" lon="0.36607">
        <ele>94.2</ele>
        <time>2023-09-10T08:05:49Z</time>
      </trkpt>
      <trkpt lat="46.5508" lon="0.36599">
        <ele>95</ele>
        <time>2023-09-10T08:05:55Z</time>
      </trkpt>
      <trkpt lat="46.55073" lon="0.36596">
        <ele>95.2</ele>
        <time>2023-09-10T08:05:57Z</time>
      </trkpt>
      <trkpt lat="46.5506" lon="0.36592">
        <ele>96.2</ele>
        <time>2023-09-10T08:06:01Z</time>
      </trkpt>
      <trkpt lat="46.55057" lon="0.36591">
        <ele>96.4</ele>
        <time>2023-09-10T08:06:02Z</time>
      </trkpt>
      <trkpt lat="46.55043" lon="0.36585">
        <ele>97.2</ele>
        <time>2023-09-10T08:06:07Z</time>
      </trkpt>
      <trkpt lat="46.55041" lon="0.36583">
        <ele>97.4</ele>
        <time>2023-09-10T08:06:08Z</time>
      </trkpt>
      <trkpt lat="46.55029" lon="0.36579">
        <ele>98.6</ele>
        <time>2023-09-10T08:06:13Z</time>
      </trkpt>
      <trkpt lat="46.55025" lon="0.36578">
        <ele>99</ele>
        <time>2023-09-10T08:06:15Z</time>
      </trkpt>
      <trkpt lat="46.55019" lon="0.36575">
        <ele>99.8</ele>
        <time>2023-09-10T08:06:18Z</time>
      </trkpt>
      <trkpt lat="46.55012" lon="0.36573">
        <ele>100.8</ele>
        <time>2023-09-10T08:06:21Z</time>
      </trkpt>
      <trkpt lat="46.5501" lon="0.36572">
        <ele>101.2</ele>
        <time>2023-09-10T08:06:22Z</time>
      </trkpt>
      <trkpt lat="46.55006" lon="0.3657">
        <ele>101.8</ele>
        <time>2023-09-10T08:06:24Z</time>
      </trkpt>
      <trkpt lat="46.54997" lon="0.36564">
        <ele>103</ele>
        <time>2023-09-10T08:06:28Z</time>
      </trkpt>
      <trkpt lat="46.54995" lon="0.36562">
        <ele>103.4</ele>
        <time>2023-09-10T08:06:29Z</time>
      </trkpt>
      <trkpt lat="46.54993" lon="0.3656">
        <ele>104.2</ele>
        <time>2023-09-10T08:06:31Z</time>
      </trkpt>
      <trkpt lat="46.54986" lon="0.36553">
        <ele>104.8</ele>
        <time>2023-09-10T08:06:35Z</time>
      </trkpt>
      <trkpt lat="46.54982" lon="0.3655">
        <ele>105.2</ele>
        <time>2023-09-10T08:06:37Z</time>
      </trkpt>
      <trkpt lat="46.54978" lon="0.36545">
        <ele>106.4</ele>
        <time>2023-09-10T08:06:40Z</time>
      </trkpt>
      <trkpt lat="46.54974" lon="0.36539">
        <ele>107</ele>
        <time>2023-09-10T08:06:42Z</time>
      </trkpt>
      <trkpt lat="46.54968" lon="0.36533">
        <ele>107.4</ele>
        <time>2023-09-10T08:06:45Z</time>
      </trkpt>
      <trkpt lat="46.54964" lon="0.3653">
        <ele>108</ele>
        <time>2023-09-10T08:06:48Z</time>
      </trkpt>
      <trkpt lat="46.54963" lon="0.36527">
        <ele>108.6</ele>
        <time>2023-09-10T08:06:49Z</time>
      </trkpt>
      <trkpt lat="46.5496" lon="0.36523">
        <ele>109</ele>
        <time>2023-09-10T08:06:51Z</time>
      </trkpt>
      <trkpt lat="46.54955" lon="0.36518">
        <ele>109.4</ele>
        <time>2023-09-10T08:06:55Z</time>
      </trkpt>
      <trkpt lat="46.54954" lon="0.36517">
        <ele>109.4</ele>
        <time>2023-09-10T08:06:56Z</time>
      </trkpt>
      <trkpt lat="46.54953" lon="0.36513">
        <ele>109.6</ele>
        <time>2023-09-10T08:06:58Z</time>
      </trkpt>
      <trkpt lat="46.54947" lon="0.36508">
        <ele>109.8</ele>
        <time>2023-09-10T08:07:01Z</time>
      </trkpt>
      <trkpt lat="46.54935" lon="0.36497">
        <ele>110.2</ele>
        <time>2023-09-10T08:07:06Z</time>
      </trkpt>
      <trkpt lat="46.54925" lon="0.36493">
        <ele>110.8</ele>
        <time>2023-09-10T08:07:10Z</time>
      </trkpt>
      <trkpt lat="46.54915" lon="0.36489">
        <ele>112</ele>
        <time>2023-09-10T08:07:14Z</time>
      </trkpt>
      <trkpt lat="46.54906" lon="0.36485">
        <ele>113</ele>
        <time>2023-09-10T08:07:18Z</time>
      </trkpt>
      <trkpt lat="46.54897" lon="0.3648">
        <ele>113.6</ele>
        <time>2023-09-10T08:07:22Z</time>
      </trkpt>
      <trkpt lat="46.54889" lon="0.36477">
        <ele>114</ele>
        <time>2023-09-10T08:07:25Z</time>
      </trkpt>
      <trkpt lat="46.54871" lon="0.36473">
        <ele>115</ele>
        <time>2023-09-10T08:07:31Z</time>
      </trkpt>
      <trkpt lat="46.54868" lon="0.36473">
        <ele>115</ele>
        <time>2023-09-10T08:07:32Z</time>
      </trkpt>
      <trkpt lat="46.54854" lon="0.36474">
        <ele>115.6</ele>
        <time>2023-09-10T08:07:38Z</time>
      </trkpt>
      <trkpt lat="46.54846" lon="0.36476">
        <ele>115.8</ele>
        <time>2023-09-10T08:07:41Z</time>
      </trkpt>
      <trkpt lat="46.54839" lon="0.36478">
        <ele>116</ele>
        <time>2023-09-10T08:07:44Z</time>
      </trkpt>
      <trkpt lat="46.54836" lon="0.36478">
        <ele>116.2</ele>
        <time>2023-09-10T08:07:45Z</time>
      </trkpt>
      <trkpt lat="46.54819" lon="0.36483">
        <ele>116.6</ele>
        <time>2023-09-10T08:07:50Z</time>
      </trkpt>
      <trkpt lat="46.54807" lon="0.36493">
        <ele>116.8</ele>
        <time>2023-09-10T08:07:54Z</time>
      </trkpt>
      <trkpt lat="46.54803" lon="0.36503">
        <ele>117.2</ele>
        <time>2023-09-10T08:07:57Z</time>
      </trkpt>
      <trkpt lat="46.54799" lon="0.36514">
        <ele>117.6</ele>
        <time>2023-09-10T08:08:00Z</time>
      </trkpt>
      <trkpt lat="46.54795" lon="0.36536">
        <ele>118</ele>
        <time>2023-09-10T08:08:06Z</time>
      </trkpt>
      <trkpt lat="46.54792" lon="0.36545">
        <ele>118.2</ele>
        <time>2023-09-10T08:08:09Z</time>
      </trkpt>
      <trkpt lat="46.5479" lon="0.36548">
        <ele>118.2</ele>
        <time>2023-09-10T08:08:10Z</time>
      </trkpt>
      <trkpt lat="46.54788" lon="0.3655">
        <ele>118.4</ele>
        <time>2023-09-10T08:08:11Z</time>
      </trkpt>
      <trkpt lat="46.54777" lon="0.36555">
        <ele>118.6</ele>
        <time>2023-09-10T08:08:15Z</time>
      </trkpt>
      <trkpt lat="46.54773" lon="0.36558">
        <ele>118.8</ele>
        <time>2023-09-10T08:08:16Z</time>
      </trkpt>
      <trkpt lat="46.54765" lon="0.36569">
        <ele>119.2</ele>
        <time>2023-09-10T08:08:18Z</time>
      </trkpt>
      <trkpt lat="46.54757" lon="0.3658">
        <ele>119.2</ele>
        <time>2023-09-10T08:08:20Z</time>
      </trkpt>
      <trkpt lat="46.54741" lon="0.36614">
        <ele>118.8</ele>
        <time>2023-09-10T08:08:26Z</time>
      </trkpt>
      <trkpt lat="46.54728" lon="0.36649">
        <ele>118</ele>
        <time>2023-09-10T08:08:31Z</time>
      </trkpt>
      <trkpt lat="46.54721" lon="0.36669">
        <ele>117</ele>
        <time>2023-09-10T08:08:34Z</time>
      </trkpt>
      <trkpt lat="46.54717" lon="0.36682">
        <ele>116.8</ele>
        <time>2023-09-10T08:08:36Z</time>
      </trkpt>
      <trkpt lat="46.54714" lon="0.36693">
        <ele>116.6</ele>
        <time>2023-09-10T08:08:38Z</time>
      </trkpt>
      <trkpt lat="46.54711" lon="0.36703">
        <ele>116</ele>
        <time>2023-09-10T08:08:40Z</time>
      </trkpt>
      <trkpt lat="46.54709" lon="0.36709">
        <ele>116.2</ele>
        <time>2023-09-10T08:08:41Z</time>
      </trkpt>
      <trkpt lat="46.54706" lon="0.36716">
        <ele>116</ele>
        <time>2023-09-10T08:08:42Z</time>
      </trkpt>
      <trkpt lat="46.54703" lon="0.36724">
        <ele>115.8</ele>
        <time>2023-09-10T08:08:43Z</time>
      </trkpt>
      <trkpt lat="46.54699" lon="0.36732">
        <ele>115.8</ele>
        <time>2023-09-10T08:08:44Z</time>
      </trkpt>
      <trkpt lat="46.54686" lon="0.36753">
        <ele>115.2</ele>
        <time>2023-09-10T08:08:46Z</time>
      </trkpt>
      <trkpt lat="46.54679" lon="0.3676">
        <ele>115</ele>
        <time>2023-09-10T08:08:47Z</time>
      </trkpt>
      <trkpt lat="46.54637" lon="0.36787">
        <ele>114.6</ele>
        <time>2023-09-10T08:08:53Z</time>
      </trkpt>
      <trkpt lat="46.54604" lon="0.36804">
        <ele>114</ele>
        <time>2023-09-10T08:08:59Z</time>
      </trkpt>
      <trkpt lat="46.54566" lon="0.36824">
        <ele>115</ele>
        <time>2023-09-10T08:09:07Z</time>
      </trkpt>
      <trkpt lat="46.54547" lon="0.36833">
        <ele>116.2</ele>
        <time>2023-09-10T08:09:11Z</time>
      </trkpt>
      <trkpt lat="46.54522" lon="0.36844">
        <ele>117.2</ele>
        <time>2023-09-10T08:09:16Z</time>
      </trkpt>
      <trkpt lat="46.54493" lon="0.36857">
        <ele>118.2</ele>
        <time>2023-09-10T08:09:22Z</time>
      </trkpt>
      <trkpt lat="46.54484" lon="0.36861">
        <ele>118.6</ele>
        <time>2023-09-10T08:09:24Z</time>
      </trkpt>
      <trkpt lat="46.5446" lon="0.36873">
        <ele>119</ele>
        <time>2023-09-10T08:09:29Z</time>
      </trkpt>
      <trkpt lat="46.54451" lon="0.36876">
        <ele>119</ele>
        <time>2023-09-10T08:09:31Z</time>
      </trkpt>
      <trkpt lat="46.54435" lon="0.36882">
        <ele>119</ele>
        <time>2023-09-10T08:09:34Z</time>
      </trkpt>
      <trkpt lat="46.54421" lon="0.36888">
        <ele>118.8</ele>
        <time>2023-09-10T08:09:37Z</time>
      </trkpt>
      <trkpt lat="46.54395" lon="0.36895">
        <ele>118.8</ele>
        <time>2023-09-10T08:09:42Z</time>
      </trkpt>
      <trkpt lat="46.54391" lon="0.36894">
        <ele>118.8</ele>
        <time>2023-09-10T08:09:43Z</time>
      </trkpt>
      <trkpt lat="46.54362" lon="0.3689">
        <ele>118.2</ele>
        <time>2023-09-10T08:09:49Z</time>
      </trkpt>
      <trkpt lat="46.54323" lon="0.3689">
        <ele>118.2</ele>
        <time>2023-09-10T08:09:55Z</time>
      </trkpt>
      <trkpt lat="46.54298" lon="0.36891">
        <ele>117.2</ele>
        <time>2023-09-10T08:09:59Z</time>
      </trkpt>
      <trkpt lat="46.54274" lon="0.3689">
        <ele>116.6</ele>
        <time>2023-09-10T08:10:03Z</time>
      </trkpt>
      <trkpt lat="46.54267" lon="0.36889">
        <ele>116.2</ele>
        <time>2023-09-10T08:10:04Z</time>
      </trkpt>
      <trkpt lat="46.54255" lon="0.36888">
        <ele>115.8</ele>
        <time>2023-09-10T08:10:06Z</time>
      </trkpt>
      <trkpt lat="46.54244" lon="0.36893">
        <ele>115.6</ele>
        <time>2023-09-10T08:10:08Z</time>
      </trkpt>
      <trkpt lat="46.54242" lon="0.36905">
        <ele>115</ele>
        <time>2023-09-10T08:10:10Z</time>
      </trkpt>
      <trkpt lat="46.54245" lon="0.36916">
        <ele>114.8</ele>
        <time>2023-09-10T08:10:12Z</time>
      </trkpt>
      <trkpt lat="46.54252" lon="0.36925">
        <ele>114.6</ele>
        <time>2023-09-10T08:10:14Z</time>
      </trkpt>
      <trkpt lat="46.54276" lon="0.3696">
        <ele>115.2</ele>
        <time>2023-09-10T08:10:22Z</time>
      </trkpt>
      <trkpt lat="46.54284" lon="0.3697">
        <ele>115</ele>
        <time>2023-09-10T08:10:25Z</time>
      </trkpt>
      <trkpt lat="46.54286" lon="0.36982">
        <ele>114.8</ele>
        <time>2023-09-10T08:10:27Z</time>
      </trkpt>
      <trkpt lat="46.54282" lon="0.36995">
        <ele>114.4</ele>
        <time>2023-09-10T08:10:29Z</time>
      </trkpt>
      <trkpt lat="46.54275" lon="0.37004">
        <ele>114.2</ele>
        <time>2023-09-10T08:10:31Z</time>
      </trkpt>
      <trkpt lat="46.54269" lon="0.37007">
        <ele>114</ele>
        <time>2023-09-10T08:10:32Z</time>
      </trkpt>
      <trkpt lat="46.5426" lon="0.37014">
        <ele>113.2</ele>
        <time>2023-09-10T08:10:34Z</time>
      </trkpt>
      <trkpt lat="46.54257" lon="0.37018">
        <ele>112.6</ele>
        <time>2023-09-10T08:10:35Z</time>
      </trkpt>
      <trkpt lat="46.54256" lon="0.37023">
        <ele>112</ele>
        <time>2023-09-10T08:10:36Z</time>
      </trkpt>
      <trkpt lat="46.54257" lon="0.37027">
        <ele>111.4</ele>
        <time>2023-09-10T08:10:37Z</time>
      </trkpt>
      <trkpt lat="46.54259" lon="0.37033">
        <ele>111</ele>
        <time>2023-09-10T08:10:38Z</time>
      </trkpt>
      <trkpt lat="46.54262" lon="0.37045">
        <ele>110.2</ele>
        <time>2023-09-10T08:10:40Z</time>
      </trkpt>
      <trkpt lat="46.54264" lon="0.37051">
        <ele>110</ele>
        <time>2023-09-10T08:10:41Z</time>
      </trkpt>
      <trkpt lat="46.54264" lon="0.37056">
        <ele>109</ele>
        <time>2023-09-10T08:10:42Z</time>
      </trkpt>
      <trkpt lat="46.54264" lon="0.3706">
        <ele>107.6</ele>
        <time>2023-09-10T08:10:44Z</time>
      </trkpt>
      <trkpt lat="46.54262" lon="0.37065">
        <ele>106.4</ele>
        <time>2023-09-10T08:10:47Z</time>
      </trkpt>
      <trkpt lat="46.54258" lon="0.37071">
        <ele>106.2</ele>
        <time>2023-09-10T08:10:50Z</time>
      </trkpt>
      <trkpt lat="46.54254" lon="0.37078">
        <ele>105.4</ele>
        <time>2023-09-10T08:10:57Z</time>
      </trkpt>
      <trkpt lat="46.54253" lon="0.37078">
        <ele>105.4</ele>
        <time>2023-09-10T08:10:58Z</time>
      </trkpt>
      <trkpt lat="46.54251" lon="0.37078">
        <ele>105.2</ele>
        <time>2023-09-10T08:11:00Z</time>
      </trkpt>
      <trkpt lat="46.5425" lon="0.37079">
        <ele>105</ele>
        <time>2023-09-10T08:11:01Z</time>
      </trkpt>
      <trkpt lat="46.54248" lon="0.37079">
        <ele>104.6</ele>
        <time>2023-09-10T08:11:02Z</time>
      </trkpt>
      <trkpt lat="46.54247" lon="0.37079">
        <ele>104.2</ele>
        <time>2023-09-10T08:11:03Z</time>
      </trkpt>
      <trkpt lat="46.54244" lon="0.37081">
        <ele>102.6</ele>
        <time>2023-09-10T08:11:05Z</time>
      </trkpt>
      <trkpt lat="46.54241" lon="0.37083">
        <ele>100.4</ele>
        <time>2023-09-10T08:11:07Z</time>
      </trkpt>
      <trkpt lat="46.54238" lon="0.37083">
        <ele>98.8</ele>
        <time>2023-09-10T08:11:09Z</time>
      </trkpt>
      <trkpt lat="46.54235" lon="0.37081">
        <ele>98.4</ele>
        <time>2023-09-10T08:11:11Z</time>
      </trkpt>
      <trkpt lat="46.54222" lon="0.37071">
        <ele>97.8</ele>
        <time>2023-09-10T08:11:16Z</time>
      </trkpt>
      <trkpt lat="46.54198" lon="0.37052">
        <ele>96.8</ele>
        <time>2023-09-10T08:11:21Z</time>
      </trkpt>
      <trkpt lat="46.54187" lon="0.37041">
        <ele>95.2</ele>
        <time>2023-09-10T08:11:23Z</time>
      </trkpt>
      <trkpt lat="46.54166" lon="0.37024">
        <ele>93.6</ele>
        <time>2023-09-10T08:11:26Z</time>
      </trkpt>
      <trkpt lat="46.54154" lon="0.37018">
        <ele>92.6</ele>
        <time>2023-09-10T08:11:28Z</time>
      </trkpt>
      <trkpt lat="46.54148" lon="0.37018">
        <ele>92.4</ele>
        <time>2023-09-10T08:11:29Z</time>
      </trkpt>
      <trkpt lat="46.54141" lon="0.37016">
        <ele>92.2</ele>
        <time>2023-09-10T08:11:30Z</time>
      </trkpt>
      <trkpt lat="46.54117" lon="0.37009">
        <ele>93</ele>
        <time>2023-09-10T08:11:35Z</time>
      </trkpt>
      <trkpt lat="46.54109" lon="0.37006">
        <ele>94</ele>
        <time>2023-09-10T08:11:37Z</time>
      </trkpt>
      <trkpt lat="46.54098" lon="0.36998">
        <ele>94.8</ele>
        <time>2023-09-10T08:11:40Z</time>
      </trkpt>
      <trkpt lat="46.54092" lon="0.36988">
        <ele>94.8</ele>
        <time>2023-09-10T08:11:42Z</time>
      </trkpt>
      <trkpt lat="46.54072" lon="0.36966">
        <ele>94</ele>
        <time>2023-09-10T08:11:45Z</time>
      </trkpt>
      <trkpt lat="46.54047" lon="0.36942">
        <ele>92.4</ele>
        <time>2023-09-10T08:11:48Z</time>
      </trkpt>
      <trkpt lat="46.54028" lon="0.3692">
        <ele>91.2</ele>
        <time>2023-09-10T08:11:50Z</time>
      </trkpt>
      <trkpt lat="46.54012" lon="0.36898">
        <ele>90</ele>
        <time>2023-09-10T08:11:52Z</time>
      </trkpt>
      <trkpt lat="46.53997" lon="0.36879">
        <ele>88.8</ele>
        <time>2023-09-10T08:11:54Z</time>
      </trkpt>
      <trkpt lat="46.5399" lon="0.36869">
        <ele>87.8</ele>
        <time>2023-09-10T08:11:55Z</time>
      </trkpt>
      <trkpt lat="46.53984" lon="0.3686">
        <ele>87.4</ele>
        <time>2023-09-10T08:11:56Z</time>
      </trkpt>
      <trkpt lat="46.53972" lon="0.36841">
        <ele>86.8</ele>
        <time>2023-09-10T08:11:58Z</time>
      </trkpt>
      <trkpt lat="46.53961" lon="0.36825">
        <ele>87</ele>
        <time>2023-09-10T08:12:00Z</time>
      </trkpt>
      <trkpt lat="46.53949" lon="0.36806">
        <ele>88</ele>
        <time>2023-09-10T08:12:03Z</time>
      </trkpt>
      <trkpt lat="46.53945" lon="0.36798">
        <ele>88.2</ele>
        <time>2023-09-10T08:12:04Z</time>
      </trkpt>
      <trkpt lat="46.53941" lon="0.36791">
        <ele>89.2</ele>
        <time>2023-09-10T08:12:05Z</time>
      </trkpt>
      <trkpt lat="46.53938" lon="0.36783">
        <ele>89.8</ele>
        <time>2023-09-10T08:12:06Z</time>
      </trkpt>
      <trkpt lat="46.53936" lon="0.36775">
        <ele>90.2</ele>
        <time>2023-09-10T08:12:07Z</time>
      </trkpt>
      <trkpt lat="46.53932" lon="0.36761">
        <ele>90.8</ele>
        <time>2023-09-10T08:12:09Z</time>
      </trkpt>
      <trkpt lat="46.5393" lon="0.36753">
        <ele>91.4</ele>
        <time>2023-09-10T08:12:10Z</time>
      </trkpt>
      <trkpt lat="46.53921" lon="0.36722">
        <ele>92.6</ele>
        <time>2023-09-10T08:12:14Z</time>
      </trkpt>
      <trkpt lat="46.53914" lon="0.36703">
        <ele>93.8</ele>
        <time>2023-09-10T08:12:17Z</time>
      </trkpt>
      <trkpt lat="46.53911" lon="0.36698">
        <ele>94</ele>
        <time>2023-09-10T08:12:18Z</time>
      </trkpt>
      <trkpt lat="46.53898" lon="0.36689">
        <ele>95</ele>
        <time>2023-09-10T08:12:22Z</time>
      </trkpt>
      <trkpt lat="46.53889" lon="0.36685">
        <ele>95.4</ele>
        <time>2023-09-10T08:12:24Z</time>
      </trkpt>
      <trkpt lat="46.53882" lon="0.36676">
        <ele>96</ele>
        <time>2023-09-10T08:12:26Z</time>
      </trkpt>
      <trkpt lat="46.53876" lon="0.36666">
        <ele>96.4</ele>
        <time>2023-09-10T08:12:28Z</time>
      </trkpt>
      <trkpt lat="46.53863" lon="0.36644">
        <ele>97.8</ele>
        <time>2023-09-10T08:12:33Z</time>
      </trkpt>
      <trkpt lat="46.53851" lon="0.36627">
        <ele>99</ele>
        <time>2023-09-10T08:12:37Z</time>
      </trkpt>
      <trkpt lat="46.53842" lon="0.36609">
        <ele>100</ele>
        <time>2023-09-10T08:12:41Z</time>
      </trkpt>
      <trkpt lat="46.53839" lon="0.36605">
        <ele>100.2</ele>
        <time>2023-09-10T08:12:42Z</time>
      </trkpt>
      <trkpt lat="46.53827" lon="0.36579">
        <ele>101.2</ele>
        <time>2023-09-10T08:12:48Z</time>
      </trkpt>
      <trkpt lat="46.53823" lon="0.36557">
        <ele>102.6</ele>
        <time>2023-09-10T08:12:53Z</time>
      </trkpt>
      <trkpt lat="46.53826" lon="0.36542">
        <ele>103.8</ele>
        <time>2023-09-10T08:12:57Z</time>
      </trkpt>
      <trkpt lat="46.53826" lon="0.36537">
        <ele>104</ele>
        <time>2023-09-10T08:12:58Z</time>
      </trkpt>
      <trkpt lat="46.53827" lon="0.36529">
        <ele>104.8</ele>
        <time>2023-09-10T08:13:00Z</time>
      </trkpt>
      <trkpt lat="46.53828" lon="0.36515">
        <ele>105.8</ele>
        <time>2023-09-10T08:13:03Z</time>
      </trkpt>
      <trkpt lat="46.53828" lon="0.36502">
        <ele>106.4</ele>
        <time>2023-09-10T08:13:06Z</time>
      </trkpt>
      <trkpt lat="46.53827" lon="0.36492">
        <ele>106.6</ele>
        <time>2023-09-10T08:13:08Z</time>
      </trkpt>
      <trkpt lat="46.53826" lon="0.36482">
        <ele>107</ele>
        <time>2023-09-10T08:13:10Z</time>
      </trkpt>
      <trkpt lat="46.53825" lon="0.36469">
        <ele>107.6</ele>
        <time>2023-09-10T08:13:13Z</time>
      </trkpt>
      <trkpt lat="46.5382" lon="0.36457">
        <ele>108.4</ele>
        <time>2023-09-10T08:13:17Z</time>
      </trkpt>
      <trkpt lat="46.53818" lon="0.36455">
        <ele>108.6</ele>
        <time>2023-09-10T08:13:18Z</time>
      </trkpt>
      <trkpt lat="46.53811" lon="0.3645">
        <ele>109.4</ele>
        <time>2023-09-10T08:13:21Z</time>
      </trkpt>
      <trkpt lat="46.538" lon="0.36439">
        <ele>110.2</ele>
        <time>2023-09-10T08:13:25Z</time>
      </trkpt>
      <trkpt lat="46.53777" lon="0.36414">
        <ele>110</ele>
        <time>2023-09-10T08:13:33Z</time>
      </trkpt>
      <trkpt lat="46.53762" lon="0.36401">
        <ele>109.8</ele>
        <time>2023-09-10T08:13:37Z</time>
      </trkpt>
      <trkpt lat="46.53758" lon="0.36398">
        <ele>109.6</ele>
        <time>2023-09-10T08:13:38Z</time>
      </trkpt>
      <trkpt lat="46.53737" lon="0.36381">
        <ele>109.2</ele>
        <time>2023-09-10T08:13:42Z</time>
      </trkpt>
      <trkpt lat="46.53731" lon="0.36374">
        <ele>109.2</ele>
        <time>2023-09-10T08:13:43Z</time>
      </trkpt>
      <trkpt lat="46.53699" lon="0.36341">
        <ele>109</ele>
        <time>2023-09-10T08:13:49Z</time>
      </trkpt>
      <trkpt lat="46.5366" lon="0.36302">
        <ele>109.2</ele>
        <time>2023-09-10T08:13:57Z</time>
      </trkpt>
      <trkpt lat="46.53619" lon="0.36257">
        <ele>110</ele>
        <time>2023-09-10T08:14:06Z</time>
      </trkpt>
      <trkpt lat="46.53602" lon="0.36232">
        <ele>110.2</ele>
        <time>2023-09-10T08:14:10Z</time>
      </trkpt>
      <trkpt lat="46.53597" lon="0.36227">
        <ele>110.4</ele>
        <time>2023-09-10T08:14:11Z</time>
      </trkpt>
      <trkpt lat="46.53578" lon="0.36213">
        <ele>110.4</ele>
        <time>2023-09-10T08:14:15Z</time>
      </trkpt>
      <trkpt lat="46.53573" lon="0.3621">
        <ele>110.8</ele>
        <time>2023-09-10T08:14:16Z</time>
      </trkpt>
      <trkpt lat="46.53553" lon="0.36198">
        <ele>111.2</ele>
        <time>2023-09-10T08:14:20Z</time>
      </trkpt>
      <trkpt lat="46.53542" lon="0.36196">
        <ele>111.4</ele>
        <time>2023-09-10T08:14:22Z</time>
      </trkpt>
      <trkpt lat="46.53516" lon="0.36196">
        <ele>111.4</ele>
        <time>2023-09-10T08:14:26Z</time>
      </trkpt>
      <trkpt lat="46.53509" lon="0.36194">
        <ele>111.2</ele>
        <time>2023-09-10T08:14:27Z</time>
      </trkpt>
      <trkpt lat="46.53502" lon="0.36192">
        <ele>111</ele>
        <time>2023-09-10T08:14:28Z</time>
      </trkpt>
      <trkpt lat="46.5349" lon="0.36183">
        <ele>110.8</ele>
        <time>2023-09-10T08:14:30Z</time>
      </trkpt>
      <trkpt lat="46.53484" lon="0.36178">
        <ele>110.8</ele>
        <time>2023-09-10T08:14:31Z</time>
      </trkpt>
      <trkpt lat="46.53468" lon="0.36161">
        <ele>110.6</ele>
        <time>2023-09-10T08:14:34Z</time>
      </trkpt>
      <trkpt lat="46.53457" lon="0.36149">
        <ele>110.4</ele>
        <time>2023-09-10T08:14:36Z</time>
      </trkpt>
      <trkpt lat="46.53429" lon="0.36123">
        <ele>110</ele>
        <time>2023-09-10T08:14:42Z</time>
      </trkpt>
      <trkpt lat="46.5341" lon="0.36104">
        <ele>109.4</ele>
        <time>2023-09-10T08:14:46Z</time>
      </trkpt>
      <trkpt lat="46.53399" lon="0.36095">
        <ele>108.4</ele>
        <time>2023-09-10T08:14:48Z</time>
      </trkpt>
      <trkpt lat="46.53394" lon="0.36091">
        <ele>108.2</ele>
        <time>2023-09-10T08:14:49Z</time>
      </trkpt>
      <trkpt lat="46.53377" lon="0.36079">
        <ele>106.8</ele>
        <time>2023-09-10T08:14:52Z</time>
      </trkpt>
      <trkpt lat="46.53366" lon="0.36072">
        <ele>106.4</ele>
        <time>2023-09-10T08:14:54Z</time>
      </trkpt>
      <trkpt lat="46.53358" lon="0.36069">
        <ele>106.2</ele>
        <time>2023-09-10T08:14:55Z</time>
      </trkpt>
      <trkpt lat="46.53343" lon="0.36067">
        <ele>104.8</ele>
        <time>2023-09-10T08:14:57Z</time>
      </trkpt>
      <trkpt lat="46.53327" lon="0.36067">
        <ele>103.8</ele>
        <time>2023-09-10T08:14:59Z</time>
      </trkpt>
      <trkpt lat="46.53302" lon="0.36072">
        <ele>101.8</ele>
        <time>2023-09-10T08:15:02Z</time>
      </trkpt>
      <trkpt lat="46.53294" lon="0.36074">
        <ele>100.8</ele>
        <time>2023-09-10T08:15:03Z</time>
      </trkpt>
      <trkpt lat="46.53287" lon="0.36077">
        <ele>99.6</ele>
        <time>2023-09-10T08:15:04Z</time>
      </trkpt>
      <trkpt lat="46.53287" lon="0.36077">
        <ele>98.4</ele>
        <time>2023-09-10T08:15:05Z</time>
      </trkpt>
      <trkpt lat="46.53268" lon="0.36086">
        <ele>97.4</ele>
        <time>2023-09-10T08:15:06Z</time>
      </trkpt>
      <trkpt lat="46.53251" lon="0.36096">
        <ele>96.4</ele>
        <time>2023-09-10T08:15:08Z</time>
      </trkpt>
      <trkpt lat="46.53244" lon="0.36099">
        <ele>95.4</ele>
        <time>2023-09-10T08:15:09Z</time>
      </trkpt>
      <trkpt lat="46.53238" lon="0.36099">
        <ele>94.8</ele>
        <time>2023-09-10T08:15:10Z</time>
      </trkpt>
      <trkpt lat="46.53233" lon="0.36097">
        <ele>94</ele>
        <time>2023-09-10T08:15:11Z</time>
      </trkpt>
      <trkpt lat="46.53229" lon="0.36095">
        <ele>93.6</ele>
        <time>2023-09-10T08:15:12Z</time>
      </trkpt>
      <trkpt lat="46.53226" lon="0.36091">
        <ele>93.4</ele>
        <time>2023-09-10T08:15:13Z</time>
      </trkpt>
      <trkpt lat="46.53212" lon="0.36066">
        <ele>93.8</ele>
        <time>2023-09-10T08:15:20Z</time>
      </trkpt>
      <trkpt lat="46.53204" lon="0.36054">
        <ele>95</ele>
        <time>2023-09-10T08:15:25Z</time>
      </trkpt>
      <trkpt lat="46.53203" lon="0.36053">
        <ele>95.2</ele>
        <time>2023-09-10T08:15:26Z</time>
      </trkpt>
      <trkpt lat="46.53202" lon="0.36053">
        <ele>95.2</ele>
        <time>2023-09-10T08:15:28Z</time>
      </trkpt>
      <trkpt lat="46.53199" lon="0.36052">
        <ele>95.2</ele>
        <time>2023-09-10T08:15:33Z</time>
      </trkpt>
      <trkpt lat="46.53199" lon="0.36051">
        <ele>95.4</ele>
        <time>2023-09-10T08:15:34Z</time>
      </trkpt>
      <trkpt lat="46.53192" lon="0.3605">
        <ele>95.8</ele>
        <time>2023-09-10T08:15:41Z</time>
      </trkpt>
      <trkpt lat="46.5319" lon="0.36049">
        <ele>96</ele>
        <time>2023-09-10T08:15:42Z</time>
      </trkpt>
      <trkpt lat="46.53189" lon="0.36048">
        <ele>96.2</ele>
        <time>2023-09-10T08:15:43Z</time>
      </trkpt>
      <trkpt lat="46.53185" lon="0.36047">
        <ele>96.4</ele>
        <time>2023-09-10T08:15:45Z</time>
      </trkpt>
      <trkpt lat="46.53182" lon="0.36046">
        <ele>96.8</ele>
        <time>2023-09-10T08:15:47Z</time>
      </trkpt>
      <trkpt lat="46.53179" lon="0.36042">
        <ele>97.2</ele>
        <time>2023-09-10T08:15:49Z</time>
      </trkpt>
      <trkpt lat="46.53175" lon="0.36038">
        <ele>97.6</ele>
        <time>2023-09-10T08:15:52Z</time>
      </trkpt>
      <trkpt lat="46.53172" lon="0.36036">
        <ele>98</ele>
        <time>2023-09-10T08:15:54Z</time>
      </trkpt>
      <trkpt lat="46.53168" lon="0.36036">
        <ele>98.6</ele>
        <time>2023-09-10T08:15:56Z</time>
      </trkpt>
      <trkpt lat="46.53166" lon="0.36036">
        <ele>99</ele>
        <time>2023-09-10T08:15:57Z</time>
      </trkpt>
      <trkpt lat="46.53161" lon="0.36037">
        <ele>99.6</ele>
        <time>2023-09-10T08:15:59Z</time>
      </trkpt>
      <trkpt lat="46.53153" lon="0.36037">
        <ele>101</ele>
        <time>2023-09-10T08:16:02Z</time>
      </trkpt>
      <trkpt lat="46.5315" lon="0.36036">
        <ele>101.2</ele>
        <time>2023-09-10T08:16:03Z</time>
      </trkpt>
      <trkpt lat="46.53134" lon="0.3604">
        <ele>102</ele>
        <time>2023-09-10T08:16:09Z</time>
      </trkpt>
      <trkpt lat="46.53132" lon="0.36039">
        <ele>102.4</ele>
        <time>2023-09-10T08:16:10Z</time>
      </trkpt>
      <trkpt lat="46.53115" lon="0.36048">
        <ele>102.8</ele>
        <time>2023-09-10T08:16:16Z</time>
      </trkpt>
      <trkpt lat="46.53106" lon="0.36054">
        <ele>103.2</ele>
        <time>2023-09-10T08:16:19Z</time>
      </trkpt>
      <trkpt lat="46.53102" lon="0.36056">
        <ele>103.4</ele>
        <time>2023-09-10T08:16:20Z</time>
      </trkpt>
      <trkpt lat="46.53092" lon="0.3606">
        <ele>103.4</ele>
        <time>2023-09-10T08:16:22Z</time>
      </trkpt>
      <trkpt lat="46.53073" lon="0.36067">
        <ele>103.6</ele>
        <time>2023-09-10T08:16:25Z</time>
      </trkpt>
      <trkpt lat="46.53062" lon="0.36072">
        <ele>103.6</ele>
        <time>2023-09-10T08:16:27Z</time>
      </trkpt>
      <trkpt lat="46.53049" lon="0.36077">
        <ele>103</ele>
        <time>2023-09-10T08:16:29Z</time>
      </trkpt>
      <trkpt lat="46.53037" lon="0.3608">
        <ele>102.2</ele>
        <time>2023-09-10T08:16:31Z</time>
      </trkpt>
      <trkpt lat="46.53032" lon="0.36082">
        <ele>101.6</ele>
        <time>2023-09-10T08:16:32Z</time>
      </trkpt>
      <trkpt lat="46.53004" lon="0.3609">
        <ele>101.6</ele>
        <time>2023-09-10T08:16:38Z</time>
      </trkpt>
      <trkpt lat="46.5298" lon="0.36089">
        <ele>102</ele>
        <time>2023-09-10T08:16:43Z</time>
      </trkpt>
      <trkpt lat="46.52976" lon="0.3609">
        <ele>102</ele>
        <time>2023-09-10T08:16:44Z</time>
      </trkpt>
      <trkpt lat="46.52971" lon="0.36092">
        <ele>102</ele>
        <time>2023-09-10T08:16:45Z</time>
      </trkpt>
      <trkpt lat="46.52953" lon="0.36105">
        <ele>100.8</ele>
        <time>2023-09-10T08:16:49Z</time>
      </trkpt>
      <trkpt lat="46.52943" lon="0.36115">
        <ele>100</ele>
        <time>2023-09-10T08:16:51Z</time>
      </trkpt>
      <trkpt lat="46.52938" lon="0.36121">
        <ele>99.8</ele>
        <time>2023-09-10T08:16:52Z</time>
      </trkpt>
      <trkpt lat="46.52935" lon="0.36128">
        <ele>99.4</ele>
        <time>2023-09-10T08:16:53Z</time>
      </trkpt>
      <trkpt lat="46.52926" lon="0.36151">
        <ele>98.2</ele>
        <time>2023-09-10T08:16:56Z</time>
      </trkpt>
      <trkpt lat="46.52924" lon="0.36158">
        <ele>98</ele>
        <time>2023-09-10T08:16:57Z</time>
      </trkpt>
      <trkpt lat="46.52921" lon="0.36162">
        <ele>97.4</ele>
        <time>2023-09-10T08:16:58Z</time>
      </trkpt>
      <trkpt lat="46.52918" lon="0.36166">
        <ele>97.2</ele>
        <time>2023-09-10T08:16:59Z</time>
      </trkpt>
      <trkpt lat="46.52912" lon="0.36173">
        <ele>96.2</ele>
        <time>2023-09-10T08:17:01Z</time>
      </trkpt>
      <trkpt lat="46.52909" lon="0.36179">
        <ele>95.8</ele>
        <time>2023-09-10T08:17:02Z</time>
      </trkpt>
      <trkpt lat="46.529" lon="0.36205">
        <ele>95.2</ele>
        <time>2023-09-10T08:17:06Z</time>
      </trkpt>
      <trkpt lat="46.52896" lon="0.36212">
        <ele>95.2</ele>
        <time>2023-09-10T08:17:07Z</time>
      </trkpt>
      <trkpt lat="46.52892" lon="0.36218">
        <ele>95</ele>
        <time>2023-09-10T08:17:08Z</time>
      </trkpt>
      <trkpt lat="46.52881" lon="0.36228">
        <ele>94.2</ele>
        <time>2023-09-10T08:17:10Z</time>
      </trkpt>
      <trkpt lat="46.52875" lon="0.36231">
        <ele>93.8</ele>
        <time>2023-09-10T08:17:11Z</time>
      </trkpt>
      <trkpt lat="46.52867" lon="0.36233">
        <ele>93.4</ele>
        <time>2023-09-10T08:17:12Z</time>
      </trkpt>
      <trkpt lat="46.52859" lon="0.36234">
        <ele>93</ele>
        <time>2023-09-10T08:17:13Z</time>
      </trkpt>
      <trkpt lat="46.5285" lon="0.36233">
        <ele>92</ele>
        <time>2023-09-10T08:17:14Z</time>
      </trkpt>
      <trkpt lat="46.5285" lon="0.36233">
        <ele>90.2</ele>
        <time>2023-09-10T08:17:15Z</time>
      </trkpt>
      <trkpt lat="46.52833" lon="0.36233">
        <ele>89.6</ele>
        <time>2023-09-10T08:17:17Z</time>
      </trkpt>
      <trkpt lat="46.5283" lon="0.36231">
        <ele>89.2</ele>
        <time>2023-09-10T08:17:18Z</time>
      </trkpt>
      <trkpt lat="46.52829" lon="0.36228">
        <ele>88.8</ele>
        <time>2023-09-10T08:17:19Z</time>
      </trkpt>
      <trkpt lat="46.52828" lon="0.36223">
        <ele>88.6</ele>
        <time>2023-09-10T08:17:20Z</time>
      </trkpt>
      <trkpt lat="46.52826" lon="0.36212">
        <ele>88</ele>
        <time>2023-09-10T08:17:22Z</time>
      </trkpt>
      <trkpt lat="46.5282" lon="0.36192">
        <ele>87.8</ele>
        <time>2023-09-10T08:17:25Z</time>
      </trkpt>
      <trkpt lat="46.52811" lon="0.36161">
        <ele>88.6</ele>
        <time>2023-09-10T08:17:31Z</time>
      </trkpt>
      <trkpt lat="46.52806" lon="0.36151">
        <ele>89.2</ele>
        <time>2023-09-10T08:17:34Z</time>
      </trkpt>
      <trkpt lat="46.528" lon="0.36144">
        <ele>89.6</ele>
        <time>2023-09-10T08:17:37Z</time>
      </trkpt>
      <trkpt lat="46.52797" lon="0.36138">
        <ele>90.2</ele>
        <time>2023-09-10T08:17:39Z</time>
      </trkpt>
      <trkpt lat="46.52783" lon="0.36118">
        <ele>91.2</ele>
        <time>2023-09-10T08:17:45Z</time>
      </trkpt>
      <trkpt lat="46.52781" lon="0.36115">
        <ele>91.2</ele>
        <time>2023-09-10T08:17:46Z</time>
      </trkpt>
      <trkpt lat="46.52778" lon="0.36111">
        <ele>91.4</ele>
        <time>2023-09-10T08:17:47Z</time>
      </trkpt>
      <trkpt lat="46.52762" lon="0.36087">
        <ele>92</ele>
        <time>2023-09-10T08:17:53Z</time>
      </trkpt>
      <trkpt lat="46.52755" lon="0.36073">
        <ele>92.4</ele>
        <time>2023-09-10T08:17:56Z</time>
      </trkpt>
      <trkpt lat="46.5275" lon="0.36056">
        <ele>92.6</ele>
        <time>2023-09-10T08:17:59Z</time>
      </trkpt>
      <trkpt lat="46.52749" lon="0.36046">
        <ele>93</ele>
        <time>2023-09-10T08:18:01Z</time>
      </trkpt>
      <trkpt lat="46.52744" lon="0.36031">
        <ele>93.2</ele>
        <time>2023-09-10T08:18:05Z</time>
      </trkpt>
      <trkpt lat="46.5274" lon="0.36022">
        <ele>93.4</ele>
        <time>2023-09-10T08:18:07Z</time>
      </trkpt>
      <trkpt lat="46.52734" lon="0.36008">
        <ele>94.2</ele>
        <time>2023-09-10T08:18:12Z</time>
      </trkpt>
      <trkpt lat="46.52729" lon="0.35989">
        <ele>94.4</ele>
        <time>2023-09-10T08:18:15Z</time>
      </trkpt>
      <trkpt lat="46.52728" lon="0.35978">
        <ele>94.6</ele>
        <time>2023-09-10T08:18:17Z</time>
      </trkpt>
      <trkpt lat="46.52721" lon="0.35949">
        <ele>95.6</ele>
        <time>2023-09-10T08:18:23Z</time>
      </trkpt>
      <trkpt lat="46.52719" lon="0.35944">
        <ele>95.8</ele>
        <time>2023-09-10T08:18:24Z</time>
      </trkpt>
      <trkpt lat="46.52707" lon="0.35916">
        <ele>96.2</ele>
        <time>2023-09-10T08:18:31Z</time>
      </trkpt>
      <trkpt lat="46.52701" lon="0.35906">
        <ele>96.4</ele>
        <time>2023-09-10T08:18:33Z</time>
      </trkpt>
      <trkpt lat="46.52699" lon="0.35903">
        <ele>96.6</ele>
        <time>2023-09-10T08:18:34Z</time>
      </trkpt>
      <trkpt lat="46.52693" lon="0.35895">
        <ele>96.8</ele>
        <time>2023-09-10T08:18:37Z</time>
      </trkpt>
      <trkpt lat="46.52687" lon="0.35882">
        <ele>98</ele>
        <time>2023-09-10T08:18:41Z</time>
      </trkpt>
      <trkpt lat="46.52679" lon="0.35869">
        <ele>98.8</ele>
        <time>2023-09-10T08:18:45Z</time>
      </trkpt>
      <trkpt lat="46.52676" lon="0.35864">
        <ele>99</ele>
        <time>2023-09-10T08:18:47Z</time>
      </trkpt>
      <trkpt lat="46.52666" lon="0.35851">
        <ele>99.6</ele>
        <time>2023-09-10T08:18:51Z</time>
      </trkpt>
      <trkpt lat="46.52659" lon="0.35842">
        <ele>100.2</ele>
        <time>2023-09-10T08:18:54Z</time>
      </trkpt>
      <trkpt lat="46.52657" lon="0.35838">
        <ele>100.4</ele>
        <time>2023-09-10T08:18:55Z</time>
      </trkpt>
      <trkpt lat="46.52655" lon="0.35834">
        <ele>100.6</ele>
        <time>2023-09-10T08:18:56Z</time>
      </trkpt>
      <trkpt lat="46.52646" lon="0.35815">
        <ele>101.2</ele>
        <time>2023-09-10T08:19:01Z</time>
      </trkpt>
      <trkpt lat="46.52641" lon="0.35807">
        <ele>101.4</ele>
        <time>2023-09-10T08:19:03Z</time>
      </trkpt>
      <trkpt lat="46.52624" lon="0.35787">
        <ele>102.2</ele>
        <time>2023-09-10T08:19:10Z</time>
      </trkpt>
      <trkpt lat="46.52622" lon="0.35784">
        <ele>102.2</ele>
        <time>2023-09-10T08:19:11Z</time>
      </trkpt>
      <trkpt lat="46.52606" lon="0.35764">
        <ele>102.6</ele>
        <time>2023-09-10T08:19:17Z</time>
      </trkpt>
      <trkpt lat="46.5259" lon="0.35754">
        <ele>103.4</ele>
        <time>2023-09-10T08:19:22Z</time>
      </trkpt>
      <trkpt lat="46.52587" lon="0.35751">
        <ele>103.4</ele>
        <time>2023-09-10T08:19:23Z</time>
      </trkpt>
      <trkpt lat="46.52573" lon="0.35749">
        <ele>104.6</ele>
        <time>2023-09-10T08:19:28Z</time>
      </trkpt>
      <trkpt lat="46.52568" lon="0.35746">
        <ele>105.2</ele>
        <time>2023-09-10T08:19:30Z</time>
      </trkpt>
      <trkpt lat="46.52562" lon="0.35745">
        <ele>105.6</ele>
        <time>2023-09-10T08:19:32Z</time>
      </trkpt>
      <trkpt lat="46.52559" lon="0.35745">
        <ele>105.8</ele>
        <time>2023-09-10T08:19:33Z</time>
      </trkpt>
      <trkpt lat="46.5255" lon="0.35744">
        <ele>106</ele>
        <time>2023-09-10T08:19:36Z</time>
      </trkpt>
      <trkpt lat="46.52547" lon="0.35745">
        <ele>106.8</ele>
        <time>2023-09-10T08:19:37Z</time>
      </trkpt>
      <trkpt lat="46.52546" lon="0.35747">
        <ele>107.4</ele>
        <time>2023-09-10T08:19:39Z</time>
      </trkpt>
      <trkpt lat="46.52545" lon="0.35747">
        <ele>107.8</ele>
        <time>2023-09-10T08:19:40Z</time>
      </trkpt>
      <trkpt lat="46.52545" lon="0.35749">
        <ele>108</ele>
        <time>2023-09-10T08:19:41Z</time>
      </trkpt>
      <trkpt lat="46.52545" lon="0.35755">
        <ele>108.4</ele>
        <time>2023-09-10T08:19:45Z</time>
      </trkpt>
      <trkpt lat="46.52544" lon="0.3576">
        <ele>108.8</ele>
        <time>2023-09-10T08:19:48Z</time>
      </trkpt>
      <trkpt lat="46.52544" lon="0.35766">
        <ele>109.4</ele>
        <time>2023-09-10T08:19:51Z</time>
      </trkpt>
      <trkpt lat="46.52544" lon="0.35768">
        <ele>109.8</ele>
        <time>2023-09-10T08:19:52Z</time>
      </trkpt>
      <trkpt lat="46.52543" lon="0.3577">
        <ele>110</ele>
        <time>2023-09-10T08:19:53Z</time>
      </trkpt>
      <trkpt lat="46.52542" lon="0.35785">
        <ele>111</ele>
        <time>2023-09-10T08:19:58Z</time>
      </trkpt>
      <trkpt lat="46.52542" lon="0.35788">
        <ele>111.2</ele>
        <time>2023-09-10T08:19:59Z</time>
      </trkpt>
      <trkpt lat="46.52538" lon="0.35805">
        <ele>112.4</ele>
        <time>2023-09-10T08:20:05Z</time>
      </trkpt>
      <trkpt lat="46.52538" lon="0.35805">
        <ele>112.6</ele>
        <time>2023-09-10T08:20:06Z</time>
      </trkpt>
      <trkpt lat="46.52531" lon="0.35824">
        <ele>113.4</ele>
        <time>2023-09-10T08:20:11Z</time>
      </trkpt>
      <trkpt lat="46.52529" lon="0.3583">
        <ele>113.8</ele>
        <time>2023-09-10T08:20:13Z</time>
      </trkpt>
      <trkpt lat="46.52525" lon="0.35838">
        <ele>114.6</ele>
        <time>2023-09-10T08:20:16Z</time>
      </trkpt>
      <trkpt lat="46.52523" lon="0.35845">
        <ele>114.8</ele>
        <time>2023-09-10T08:20:18Z</time>
      </trkpt>
      <trkpt lat="46.52515" lon="0.35863">
        <ele>115.4</ele>
        <time>2023-09-10T08:20:24Z</time>
      </trkpt>
      <trkpt lat="46.52513" lon="0.3587">
        <ele>115.8</ele>
        <time>2023-09-10T08:20:26Z</time>
      </trkpt>
      <trkpt lat="46.52508" lon="0.35886">
        <ele>116.2</ele>
        <time>2023-09-10T08:20:30Z</time>
      </trkpt>
      <trkpt lat="46.52497" lon="0.35905">
        <ele>116.8</ele>
        <time>2023-09-10T08:20:36Z</time>
      </trkpt>
      <trkpt lat="46.52494" lon="0.3591">
        <ele>116.8</ele>
        <time>2023-09-10T08:20:37Z</time>
      </trkpt>
      <trkpt lat="46.52487" lon="0.35926">
        <ele>117</ele>
        <time>2023-09-10T08:20:42Z</time>
      </trkpt>
      <trkpt lat="46.52478" lon="0.35948">
        <ele>116.8</ele>
        <time>2023-09-10T08:20:48Z</time>
      </trkpt>
      <trkpt lat="46.52467" lon="0.3598">
        <ele>117</ele>
        <time>2023-09-10T08:20:55Z</time>
      </trkpt>
      <trkpt lat="46.52462" lon="0.35989">
        <ele>116.2</ele>
        <time>2023-09-10T08:20:57Z</time>
      </trkpt>
      <trkpt lat="46.52457" lon="0.35998">
        <ele>116</ele>
        <time>2023-09-10T08:20:59Z</time>
      </trkpt>
      <trkpt lat="46.52454" lon="0.3601">
        <ele>115</ele>
        <time>2023-09-10T08:21:01Z</time>
      </trkpt>
      <trkpt lat="46.5245" lon="0.3602">
        <ele>114.6</ele>
        <time>2023-09-10T08:21:03Z</time>
      </trkpt>
      <trkpt lat="46.52444" lon="0.36037">
        <ele>114.4</ele>
        <time>2023-09-10T08:21:06Z</time>
      </trkpt>
      <trkpt lat="46.52441" lon="0.36041">
        <ele>113.6</ele>
        <time>2023-09-10T08:21:07Z</time>
      </trkpt>
      <trkpt lat="46.5244" lon="0.36048">
        <ele>113.2</ele>
        <time>2023-09-10T08:21:08Z</time>
      </trkpt>
      <trkpt lat="46.52428" lon="0.36083">
        <ele>112.6</ele>
        <time>2023-09-10T08:21:12Z</time>
      </trkpt>
      <trkpt lat="46.52426" lon="0.36091">
        <ele>112.6</ele>
        <time>2023-09-10T08:21:13Z</time>
      </trkpt>
      <trkpt lat="46.5242" lon="0.36115">
        <ele>111.4</ele>
        <time>2023-09-10T08:21:16Z</time>
      </trkpt>
      <trkpt lat="46.52417" lon="0.36134">
        <ele>111.6</ele>
        <time>2023-09-10T08:21:19Z</time>
      </trkpt>
      <trkpt lat="46.52416" lon="0.36143">
        <ele>111.6</ele>
        <time>2023-09-10T08:21:20Z</time>
      </trkpt>
      <trkpt lat="46.52414" lon="0.36158">
        <ele>112</ele>
        <time>2023-09-10T08:21:22Z</time>
      </trkpt>
      <trkpt lat="46.52406" lon="0.36191">
        <ele>112.4</ele>
        <time>2023-09-10T08:21:27Z</time>
      </trkpt>
      <trkpt lat="46.52405" lon="0.36197">
        <ele>112.6</ele>
        <time>2023-09-10T08:21:28Z</time>
      </trkpt>
      <trkpt lat="46.52404" lon="0.36204">
        <ele>112.6</ele>
        <time>2023-09-10T08:21:29Z</time>
      </trkpt>
      <trkpt lat="46.52402" lon="0.36223">
        <ele>113.2</ele>
        <time>2023-09-10T08:21:32Z</time>
      </trkpt>
      <trkpt lat="46.52403" lon="0.36237">
        <ele>113.4</ele>
        <time>2023-09-10T08:21:34Z</time>
      </trkpt>
      <trkpt lat="46.52404" lon="0.36244">
        <ele>113.6</ele>
        <time>2023-09-10T08:21:35Z</time>
      </trkpt>
      <trkpt lat="46.52409" lon="0.36284">
        <ele>113.2</ele>
        <time>2023-09-10T08:21:40Z</time>
      </trkpt>
      <trkpt lat="46.52416" lon="0.36333">
        <ele>112.8</ele>
        <time>2023-09-10T08:21:47Z</time>
      </trkpt>
      <trkpt lat="46.52416" lon="0.36347">
        <ele>112.6</ele>
        <time>2023-09-10T08:21:49Z</time>
      </trkpt>
      <trkpt lat="46.52415" lon="0.36355">
        <ele>112.4</ele>
        <time>2023-09-10T08:21:50Z</time>
      </trkpt>
      <trkpt lat="46.52412" lon="0.36371">
        <ele>112.4</ele>
        <time>2023-09-10T08:21:52Z</time>
      </trkpt>
      <trkpt lat="46.52398" lon="0.36429">
        <ele>111.6</ele>
        <time>2023-09-10T08:21:57Z</time>
      </trkpt>
      <trkpt lat="46.52393" lon="0.36442">
        <ele>111.4</ele>
        <time>2023-09-10T08:21:59Z</time>
      </trkpt>
      <trkpt lat="46.52391" lon="0.36447">
        <ele>111.2</ele>
        <time>2023-09-10T08:22:00Z</time>
      </trkpt>
      <trkpt lat="46.5239" lon="0.36451">
        <ele>111.2</ele>
        <time>2023-09-10T08:22:01Z</time>
      </trkpt>
      <trkpt lat="46.52386" lon="0.36467">
        <ele>111</ele>
        <time>2023-09-10T08:22:05Z</time>
      </trkpt>
      <trkpt lat="46.52383" lon="0.36477">
        <ele>111</ele>
        <time>2023-09-10T08:22:07Z</time>
      </trkpt>
      <trkpt lat="46.52378" lon="0.36478">
        <ele>111</ele>
        <time>2023-09-10T08:22:09Z</time>
      </trkpt>
      <trkpt lat="46.52376" lon="0.36475">
        <ele>111.2</ele>
        <time>2023-09-10T08:22:10Z</time>
      </trkpt>
      <trkpt lat="46.52372" lon="0.36463">
        <ele>111.4</ele>
        <time>2023-09-10T08:22:13Z</time>
      </trkpt>
      <trkpt lat="46.52362" lon="0.36439">
        <ele>112.2</ele>
        <time>2023-09-10T08:22:18Z</time>
      </trkpt>
      <trkpt lat="46.52357" lon="0.36429">
        <ele>112.6</ele>
        <time>2023-09-10T08:22:20Z</time>
      </trkpt>
      <trkpt lat="46.52342" lon="0.36402">
        <ele>113.8</ele>
        <time>2023-09-10T08:22:25Z</time>
      </trkpt>
      <trkpt lat="46.52339" lon="0.36397">
        <ele>113.8</ele>
        <time>2023-09-10T08:22:26Z</time>
      </trkpt>
      <trkpt lat="46.5233" lon="0.3638">
        <ele>114.8</ele>
        <time>2023-09-10T08:22:29Z</time>
      </trkpt>
      <trkpt lat="46.52326" lon="0.36375">
        <ele>115</ele>
        <time>2023-09-10T08:22:30Z</time>
      </trkpt>
      <trkpt lat="46.52318" lon="0.36366">
        <ele>115.6</ele>
        <time>2023-09-10T08:22:32Z</time>
      </trkpt>
      <trkpt lat="46.52301" lon="0.36354">
        <ele>116.2</ele>
        <time>2023-09-10T08:22:36Z</time>
      </trkpt>
      <trkpt lat="46.5229" lon="0.36345">
        <ele>116.4</ele>
        <time>2023-09-10T08:22:39Z</time>
      </trkpt>
      <trkpt lat="46.52268" lon="0.36318">
        <ele>117</ele>
        <time>2023-09-10T08:22:46Z</time>
      </trkpt>
      <trkpt lat="46.52263" lon="0.36309">
        <ele>117.4</ele>
        <time>2023-09-10T08:22:48Z</time>
      </trkpt>
      <trkpt lat="46.5225" lon="0.36292">
        <ele>117.6</ele>
        <time>2023-09-10T08:22:52Z</time>
      </trkpt>
      <trkpt lat="46.52244" lon="0.36283">
        <ele>117.6</ele>
        <time>2023-09-10T08:22:54Z</time>
      </trkpt>
      <trkpt lat="46.52229" lon="0.36252">
        <ele>117.8</ele>
        <time>2023-09-10T08:23:01Z</time>
      </trkpt>
      <trkpt lat="46.52222" lon="0.36245">
        <ele>118</ele>
        <time>2023-09-10T08:23:04Z</time>
      </trkpt>
      <trkpt lat="46.52222" lon="0.36245">
        <ele>118.2</ele>
        <time>2023-09-10T08:23:05Z</time>
      </trkpt>
      <trkpt lat="46.52205" lon="0.36251">
        <ele>118</ele>
        <time>2023-09-10T08:23:09Z</time>
      </trkpt>
      <trkpt lat="46.52197" lon="0.36253">
        <ele>117.8</ele>
        <time>2023-09-10T08:23:11Z</time>
      </trkpt>
      <trkpt lat="46.52181" lon="0.36259">
        <ele>116.8</ele>
        <time>2023-09-10T08:23:15Z</time>
      </trkpt>
      <trkpt lat="46.52171" lon="0.36263">
        <ele>116.4</ele>
        <time>2023-09-10T08:23:17Z</time>
      </trkpt>
      <trkpt lat="46.52163" lon="0.36266">
        <ele>114.8</ele>
        <time>2023-09-10T08:23:19Z</time>
      </trkpt>
      <trkpt lat="46.52153" lon="0.36271">
        <ele>113.8</ele>
        <time>2023-09-10T08:23:21Z</time>
      </trkpt>
      <trkpt lat="46.52149" lon="0.36274">
        <ele>113.4</ele>
        <time>2023-09-10T08:23:22Z</time>
      </trkpt>
      <trkpt lat="46.52144" lon="0.36275">
        <ele>112.2</ele>
        <time>2023-09-10T08:23:23Z</time>
      </trkpt>
      <trkpt lat="46.52138" lon="0.36276">
        <ele>111.4</ele>
        <time>2023-09-10T08:23:24Z</time>
      </trkpt>
      <trkpt lat="46.5213" lon="0.36278">
        <ele>110.2</ele>
        <time>2023-09-10T08:23:25Z</time>
      </trkpt>
      <trkpt lat="46.52122" lon="0.36281">
        <ele>109</ele>
        <time>2023-09-10T08:23:26Z</time>
      </trkpt>
      <trkpt lat="46.52113" lon="0.36285">
        <ele>107.8</ele>
        <time>2023-09-10T08:23:27Z</time>
      </trkpt>
      <trkpt lat="46.52099" lon="0.36294">
        <ele>106.8</ele>
        <time>2023-09-10T08:23:29Z</time>
      </trkpt>
      <trkpt lat="46.52086" lon="0.36301">
        <ele>107.8</ele>
        <time>2023-09-10T08:23:32Z</time>
      </trkpt>
      <trkpt lat="46.52079" lon="0.36306">
        <ele>109</ele>
        <time>2023-09-10T08:23:34Z</time>
      </trkpt>
      <trkpt lat="46.52068" lon="0.36314">
        <ele>110</ele>
        <time>2023-09-10T08:23:37Z</time>
      </trkpt>
      <trkpt lat="46.52064" lon="0.36315">
        <ele>110.2</ele>
        <time>2023-09-10T08:23:38Z</time>
      </trkpt>
      <trkpt lat="46.5206" lon="0.36318">
        <ele>111</ele>
        <time>2023-09-10T08:23:39Z</time>
      </trkpt>
      <trkpt lat="46.5205" lon="0.36322">
        <ele>112.4</ele>
        <time>2023-09-10T08:23:42Z</time>
      </trkpt>
      <trkpt lat="46.52037" lon="0.3633">
        <ele>113.6</ele>
        <time>2023-09-10T08:23:46Z</time>
      </trkpt>
      <trkpt lat="46.52033" lon="0.36331">
        <ele>114</ele>
        <time>2023-09-10T08:23:47Z</time>
      </trkpt>
      <trkpt lat="46.5203" lon="0.36333">
        <ele>114.2</ele>
        <time>2023-09-10T08:23:48Z</time>
      </trkpt>
      <trkpt lat="46.52025" lon="0.36337">
        <ele>115.2</ele>
        <time>2023-09-10T08:23:50Z</time>
      </trkpt>
      <trkpt lat="46.52021" lon="0.36338">
        <ele>115.4</ele>
        <time>2023-09-10T08:23:51Z</time>
      </trkpt>
      <trkpt lat="46.52014" lon="0.3634">
        <ele>115.8</ele>
        <time>2023-09-10T08:23:53Z</time>
      </trkpt>
      <trkpt lat="46.52008" lon="0.36342">
        <ele>116.2</ele>
        <time>2023-09-10T08:23:55Z</time>
      </trkpt>
      <trkpt lat="46.52001" lon="0.36344">
        <ele>116.2</ele>
        <time>2023-09-10T08:23:57Z</time>
      </trkpt>
      <trkpt lat="46.51994" lon="0.36346">
        <ele>116.4</ele>
        <time>2023-09-10T08:23:59Z</time>
      </trkpt>
      <trkpt lat="46.51991" lon="0.36348">
        <ele>116.4</ele>
        <time>2023-09-10T08:24:00Z</time>
      </trkpt>
      <trkpt lat="46.51982" lon="0.36352">
        <ele>116.6</ele>
        <time>2023-09-10T08:24:02Z</time>
      </trkpt>
      <trkpt lat="46.51969" lon="0.36357">
        <ele>116.8</ele>
        <time>2023-09-10T08:24:05Z</time>
      </trkpt>
      <trkpt lat="46.51962" lon="0.36358">
        <ele>116.8</ele>
        <time>2023-09-10T08:24:07Z</time>
      </trkpt>
      <trkpt lat="46.51948" lon="0.36363">
        <ele>117</ele>
        <time>2023-09-10T08:24:10Z</time>
      </trkpt>
      <trkpt lat="46.51927" lon="0.36367">
        <ele>117.2</ele>
        <time>2023-09-10T08:24:15Z</time>
      </trkpt>
      <trkpt lat="46.51917" lon="0.36369">
        <ele>116.8</ele>
        <time>2023-09-10T08:24:17Z</time>
      </trkpt>
      <trkpt lat="46.51882" lon="0.36376">
        <ele>116.8</ele>
        <time>2023-09-10T08:24:24Z</time>
      </trkpt>
      <trkpt lat="46.51872" lon="0.36378">
        <ele>116.8</ele>
        <time>2023-09-10T08:24:26Z</time>
      </trkpt>
      <trkpt lat="46.51853" lon="0.36383">
        <ele>117.2</ele>
        <time>2023-09-10T08:24:30Z</time>
      </trkpt>
      <trkpt lat="46.51843" lon="0.36385">
        <ele>116.8</ele>
        <time>2023-09-10T08:24:32Z</time>
      </trkpt>
      <trkpt lat="46.51832" lon="0.36392">
        <ele>116.4</ele>
        <time>2023-09-10T08:24:34Z</time>
      </trkpt>
      <trkpt lat="46.51828" lon="0.36397">
        <ele>116.4</ele>
        <time>2023-09-10T08:24:35Z</time>
      </trkpt>
      <trkpt lat="46.5182" lon="0.36405">
        <ele>116.4</ele>
        <time>2023-09-10T08:24:37Z</time>
      </trkpt>
      <trkpt lat="46.51812" lon="0.36416">
        <ele>116.4</ele>
        <time>2023-09-10T08:24:39Z</time>
      </trkpt>
      <trkpt lat="46.51802" lon="0.36425">
        <ele>116.6</ele>
        <time>2023-09-10T08:24:41Z</time>
      </trkpt>
      <trkpt lat="46.51792" lon="0.3644">
        <ele>116.6</ele>
        <time>2023-09-10T08:24:44Z</time>
      </trkpt>
      <trkpt lat="46.51784" lon="0.36451">
        <ele>116.2</ele>
        <time>2023-09-10T08:24:46Z</time>
      </trkpt>
      <trkpt lat="46.51761" lon="0.36483">
        <ele>115.6</ele>
        <time>2023-09-10T08:24:52Z</time>
      </trkpt>
      <trkpt lat="46.51758" lon="0.36488">
        <ele>115.2</ele>
        <time>2023-09-10T08:24:53Z</time>
      </trkpt>
      <trkpt lat="46.51755" lon="0.36494">
        <ele>115</ele>
        <time>2023-09-10T08:24:54Z</time>
      </trkpt>
      <trkpt lat="46.51744" lon="0.36513">
        <ele>115</ele>
        <time>2023-09-10T08:24:57Z</time>
      </trkpt>
      <trkpt lat="46.5172" lon="0.36553">
        <ele>115</ele>
        <time>2023-09-10T08:25:02Z</time>
      </trkpt>
      <trkpt lat="46.5171" lon="0.36572">
        <ele>115</ele>
        <time>2023-09-10T08:25:05Z</time>
      </trkpt>
      <trkpt lat="46.51702" lon="0.36583">
        <ele>116.2</ele>
        <time>2023-09-10T08:25:07Z</time>
      </trkpt>
      <trkpt lat="46.51691" lon="0.36597">
        <ele>116.8</ele>
        <time>2023-09-10T08:25:09Z</time>
      </trkpt>
      <trkpt lat="46.5168" lon="0.36615">
        <ele>117.2</ele>
        <time>2023-09-10T08:25:12Z</time>
      </trkpt>
      <trkpt lat="46.51674" lon="0.36621">
        <ele>117.4</ele>
        <time>2023-09-10T08:25:13Z</time>
      </trkpt>
      <trkpt lat="46.51646" lon="0.36666">
        <ele>118.4</ele>
        <time>2023-09-10T08:25:20Z</time>
      </trkpt>
      <trkpt lat="46.51641" lon="0.36676">
        <ele>118.6</ele>
        <time>2023-09-10T08:25:22Z</time>
      </trkpt>
      <trkpt lat="46.51634" lon="0.36684">
        <ele>118.6</ele>
        <time>2023-09-10T08:25:24Z</time>
      </trkpt>
      <trkpt lat="46.51625" lon="0.36689">
        <ele>118.8</ele>
        <time>2023-09-10T08:25:26Z</time>
      </trkpt>
      <trkpt lat="46.51612" lon="0.36695">
        <ele>118.8</ele>
        <time>2023-09-10T08:25:29Z</time>
      </trkpt>
      <trkpt lat="46.51606" lon="0.36696">
        <ele>118.8</ele>
        <time>2023-09-10T08:25:30Z</time>
      </trkpt>
      <trkpt lat="46.51597" lon="0.36694">
        <ele>118.8</ele>
        <time>2023-09-10T08:25:32Z</time>
      </trkpt>
      <trkpt lat="46.51592" lon="0.36692">
        <ele>118.8</ele>
        <time>2023-09-10T08:25:33Z</time>
      </trkpt>
      <trkpt lat="46.51588" lon="0.36689">
        <ele>118.6</ele>
        <time>2023-09-10T08:25:34Z</time>
      </trkpt>
      <trkpt lat="46.51575" lon="0.36675">
        <ele>118.2</ele>
        <time>2023-09-10T08:25:38Z</time>
      </trkpt>
      <trkpt lat="46.51567" lon="0.36667">
        <ele>118.2</ele>
        <time>2023-09-10T08:25:40Z</time>
      </trkpt>
      <trkpt lat="46.51556" lon="0.3665">
        <ele>118.2</ele>
        <time>2023-09-10T08:25:43Z</time>
      </trkpt>
      <trkpt lat="46.51545" lon="0.36635">
        <ele>118.2</ele>
        <time>2023-09-10T08:25:46Z</time>
      </trkpt>
      <trkpt lat="46.51536" lon="0.36626">
        <ele>118</ele>
        <time>2023-09-10T08:25:48Z</time>
      </trkpt>
      <trkpt lat="46.51532" lon="0.36624">
        <ele>117.6</ele>
        <time>2023-09-10T08:25:49Z</time>
      </trkpt>
      <trkpt lat="46.51522" lon="0.36619">
        <ele>117.4</ele>
        <time>2023-09-10T08:25:51Z</time>
      </trkpt>
      <trkpt lat="46.51518" lon="0.36618">
        <ele>117.2</ele>
        <time>2023-09-10T08:25:52Z</time>
      </trkpt>
      <trkpt lat="46.51498" lon="0.36612">
        <ele>116.2</ele>
        <time>2023-09-10T08:25:55Z</time>
      </trkpt>
      <trkpt lat="46.51491" lon="0.3661">
        <ele>115.8</ele>
        <time>2023-09-10T08:25:56Z</time>
      </trkpt>
      <trkpt lat="46.51485" lon="0.36606">
        <ele>115</ele>
        <time>2023-09-10T08:25:57Z</time>
      </trkpt>
      <trkpt lat="46.5147" lon="0.36602">
        <ele>114</ele>
        <time>2023-09-10T08:25:59Z</time>
      </trkpt>
      <trkpt lat="46.51458" lon="0.36599">
        <ele>112</ele>
        <time>2023-09-10T08:26:01Z</time>
      </trkpt>
      <trkpt lat="46.51451" lon="0.36591">
        <ele>110.2</ele>
        <time>2023-09-10T08:26:03Z</time>
      </trkpt>
      <trkpt lat="46.51449" lon="0.36586">
        <ele>109.8</ele>
        <time>2023-09-10T08:26:04Z</time>
      </trkpt>
      <trkpt lat="46.51448" lon="0.36581">
        <ele>109.4</ele>
        <time>2023-09-10T08:26:05Z</time>
      </trkpt>
      <trkpt lat="46.51447" lon="0.36575">
        <ele>109</ele>
        <time>2023-09-10T08:26:06Z</time>
      </trkpt>
      <trkpt lat="46.51447" lon="0.36563">
        <ele>107.4</ele>
        <time>2023-09-10T08:26:08Z</time>
      </trkpt>
      <trkpt lat="46.51446" lon="0.36554">
        <ele>106.4</ele>
        <time>2023-09-10T08:26:10Z</time>
      </trkpt>
      <trkpt lat="46.51445" lon="0.3655">
        <ele>106.2</ele>
        <time>2023-09-10T08:26:11Z</time>
      </trkpt>
      <trkpt lat="46.51443" lon="0.36546">
        <ele>105.2</ele>
        <time>2023-09-10T08:26:12Z</time>
      </trkpt>
      <trkpt lat="46.51441" lon="0.36543">
        <ele>104.8</ele>
        <time>2023-09-10T08:26:13Z</time>
      </trkpt>
      <trkpt lat="46.51434" lon="0.36535">
        <ele>103.6</ele>
        <time>2023-09-10T08:26:16Z</time>
      </trkpt>
      <trkpt lat="46.51431" lon="0.36533">
        <ele>103.4</ele>
        <time>2023-09-10T08:26:17Z</time>
      </trkpt>
      <trkpt lat="46.51423" lon="0.36534">
        <ele>103.2</ele>
        <time>2023-09-10T08:26:20Z</time>
      </trkpt>
      <trkpt lat="46.51417" lon="0.3654">
        <ele>102.6</ele>
        <time>2023-09-10T08:26:23Z</time>
      </trkpt>
      <trkpt lat="46.51411" lon="0.3655">
        <ele>101.8</ele>
        <time>2023-09-10T08:26:25Z</time>
      </trkpt>
      <trkpt lat="46.51409" lon="0.36555">
        <ele>101.6</ele>
        <time>2023-09-10T08:26:26Z</time>
      </trkpt>
      <trkpt lat="46.51398" lon="0.36578">
        <ele>100.4</ele>
        <time>2023-09-10T08:26:31Z</time>
      </trkpt>
      <trkpt lat="46.51396" lon="0.36583">
        <ele>100.4</ele>
        <time>2023-09-10T08:26:32Z</time>
      </trkpt>
      <trkpt lat="46.51394" lon="0.36586">
        <ele>100.2</ele>
        <time>2023-09-10T08:26:33Z</time>
      </trkpt>
      <trkpt lat="46.5139" lon="0.366">
        <ele>99.8</ele>
        <time>2023-09-10T08:26:36Z</time>
      </trkpt>
      <trkpt lat="46.5139" lon="0.36612">
        <ele>99.6</ele>
        <time>2023-09-10T08:26:38Z</time>
      </trkpt>
      <trkpt lat="46.51391" lon="0.36618">
        <ele>99.2</ele>
        <time>2023-09-10T08:26:39Z</time>
      </trkpt>
      <trkpt lat="46.51393" lon="0.36624">
        <ele>99.2</ele>
        <time>2023-09-10T08:26:40Z</time>
      </trkpt>
      <trkpt lat="46.51401" lon="0.36643">
        <ele>98.6</ele>
        <time>2023-09-10T08:26:43Z</time>
      </trkpt>
      <trkpt lat="46.5142" lon="0.36681">
        <ele>98.4</ele>
        <time>2023-09-10T08:26:49Z</time>
      </trkpt>
      <trkpt lat="46.51432" lon="0.36698">
        <ele>98.2</ele>
        <time>2023-09-10T08:26:52Z</time>
      </trkpt>
      <trkpt lat="46.51447" lon="0.36723">
        <ele>97.6</ele>
        <time>2023-09-10T08:26:56Z</time>
      </trkpt>
      <trkpt lat="46.5145" lon="0.36728">
        <ele>97.6</ele>
        <time>2023-09-10T08:26:57Z</time>
      </trkpt>
      <trkpt lat="46.51462" lon="0.36745">
        <ele>97.2</ele>
        <time>2023-09-10T08:27:00Z</time>
      </trkpt>
      <trkpt lat="46.51466" lon="0.36751">
        <ele>97</ele>
        <time>2023-09-10T08:27:01Z</time>
      </trkpt>
      <trkpt lat="46.51474" lon="0.3677">
        <ele>97</ele>
        <time>2023-09-10T08:27:04Z</time>
      </trkpt>
      <trkpt lat="46.51477" lon="0.36788">
        <ele>96.6</ele>
        <time>2023-09-10T08:27:06Z</time>
      </trkpt>
      <trkpt lat="46.51479" lon="0.36805">
        <ele>96.2</ele>
        <time>2023-09-10T08:27:08Z</time>
      </trkpt>
      <trkpt lat="46.51479" lon="0.36813">
        <ele>96.2</ele>
        <time>2023-09-10T08:27:09Z</time>
      </trkpt>
      <trkpt lat="46.51478" lon="0.3682">
        <ele>96</ele>
        <time>2023-09-10T08:27:10Z</time>
      </trkpt>
      <trkpt lat="46.51474" lon="0.36833">
        <ele>95.8</ele>
        <time>2023-09-10T08:27:13Z</time>
      </trkpt>
      <trkpt lat="46.51474" lon="0.36837">
        <ele>95.8</ele>
        <time>2023-09-10T08:27:14Z</time>
      </trkpt>
      <trkpt lat="46.5147" lon="0.36846">
        <ele>97.2</ele>
        <time>2023-09-10T08:27:17Z</time>
      </trkpt>
      <trkpt lat="46.51468" lon="0.36857">
        <ele>98.2</ele>
        <time>2023-09-10T08:27:20Z</time>
      </trkpt>
      <trkpt lat="46.51467" lon="0.36862">
        <ele>98.6</ele>
        <time>2023-09-10T08:27:22Z</time>
      </trkpt>
      <trkpt lat="46.5146" lon="0.36871">
        <ele>99.6</ele>
        <time>2023-09-10T08:27:26Z</time>
      </trkpt>
      <trkpt lat="46.51458" lon="0.36874">
        <ele>100.2</ele>
        <time>2023-09-10T08:27:27Z</time>
      </trkpt>
      <trkpt lat="46.51456" lon="0.36875">
        <ele>100.8</ele>
        <time>2023-09-10T08:27:28Z</time>
      </trkpt>
      <trkpt lat="46.51453" lon="0.36877">
        <ele>101.8</ele>
        <time>2023-09-10T08:27:30Z</time>
      </trkpt>
      <trkpt lat="46.5145" lon="0.36878">
        <ele>102.8</ele>
        <time>2023-09-10T08:27:33Z</time>
      </trkpt>
      <trkpt lat="46.51445" lon="0.36878">
        <ele>103.6</ele>
        <time>2023-09-10T08:27:36Z</time>
      </trkpt>
      <trkpt lat="46.51443" lon="0.36877">
        <ele>104</ele>
        <time>2023-09-10T08:27:37Z</time>
      </trkpt>
      <trkpt lat="46.51439" lon="0.36876">
        <ele>104.8</ele>
        <time>2023-09-10T08:27:39Z</time>
      </trkpt>
      <trkpt lat="46.51437" lon="0.36874">
        <ele>105.2</ele>
        <time>2023-09-10T08:27:40Z</time>
      </trkpt>
      <trkpt lat="46.51432" lon="0.36873">
        <ele>106.6</ele>
        <time>2023-09-10T08:27:44Z</time>
      </trkpt>
      <trkpt lat="46.51431" lon="0.36874">
        <ele>107</ele>
        <time>2023-09-10T08:27:45Z</time>
      </trkpt>
      <trkpt lat="46.51429" lon="0.36874">
        <ele>107.2</ele>
        <time>2023-09-10T08:27:46Z</time>
      </trkpt>
      <trkpt lat="46.51427" lon="0.36876">
        <ele>107.6</ele>
        <time>2023-09-10T08:27:48Z</time>
      </trkpt>
      <trkpt lat="46.51423" lon="0.36876">
        <ele>109</ele>
        <time>2023-09-10T08:27:51Z</time>
      </trkpt>
      <trkpt lat="46.5142" lon="0.36878">
        <ele>109.6</ele>
        <time>2023-09-10T08:27:53Z</time>
      </trkpt>
      <trkpt lat="46.51419" lon="0.36879">
        <ele>110.2</ele>
        <time>2023-09-10T08:27:54Z</time>
      </trkpt>
      <trkpt lat="46.51415" lon="0.36881">
        <ele>111.2</ele>
        <time>2023-09-10T08:27:57Z</time>
      </trkpt>
      <trkpt lat="46.51407" lon="0.36885">
        <ele>112.4</ele>
        <time>2023-09-10T08:28:01Z</time>
      </trkpt>
      <trkpt lat="46.51406" lon="0.36886">
        <ele>112.8</ele>
        <time>2023-09-10T08:28:02Z</time>
      </trkpt>
      <trkpt lat="46.51401" lon="0.3689">
        <ele>113.4</ele>
        <time>2023-09-10T08:28:05Z</time>
      </trkpt>
      <trkpt lat="46.51396" lon="0.3689">
        <ele>114.6</ele>
        <time>2023-09-10T08:28:08Z</time>
      </trkpt>
      <trkpt lat="46.51393" lon="0.36889">
        <ele>115</ele>
        <time>2023-09-10T08:28:09Z</time>
      </trkpt>
      <trkpt lat="46.51385" lon="0.36889">
        <ele>115.8</ele>
        <time>2023-09-10T08:28:13Z</time>
      </trkpt>
      <trkpt lat="46.51376" lon="0.36888">
        <ele>116.6</ele>
        <time>2023-09-10T08:28:16Z</time>
      </trkpt>
      <trkpt lat="46.51373" lon="0.36886">
        <ele>116.8</ele>
        <time>2023-09-10T08:28:17Z</time>
      </trkpt>
      <trkpt lat="46.51361" lon="0.36881">
        <ele>118</ele>
        <time>2023-09-10T08:28:22Z</time>
      </trkpt>
      <trkpt lat="46.51359" lon="0.3688">
        <ele>118</ele>
        <time>2023-09-10T08:28:23Z</time>
      </trkpt>
      <trkpt lat="46.51345" lon="0.36876">
        <ele>119</ele>
        <time>2023-09-10T08:28:28Z</time>
      </trkpt>
      <trkpt lat="46.51342" lon="0.36874">
        <ele>119.2</ele>
        <time>2023-09-10T08:28:29Z</time>
      </trkpt>
      <trkpt lat="46.51326" lon="0.36869">
        <ele>120.2</ele>
        <time>2023-09-10T08:28:34Z</time>
      </trkpt>
      <trkpt lat="46.51323" lon="0.36869">
        <ele>120.2</ele>
        <time>2023-09-10T08:28:35Z</time>
      </trkpt>
      <trkpt lat="46.51312" lon="0.36872">
        <ele>121.4</ele>
        <time>2023-09-10T08:28:40Z</time>
      </trkpt>
      <trkpt lat="46.5131" lon="0.36873">
        <ele>121.6</ele>
        <time>2023-09-10T08:28:41Z</time>
      </trkpt>
      <trkpt lat="46.51295" lon="0.36874">
        <ele>122.4</ele>
        <time>2023-09-10T08:28:46Z</time>
      </trkpt>
      <trkpt lat="46.51275" lon="0.36876">
        <ele>123.2</ele>
        <time>2023-09-10T08:28:52Z</time>
      </trkpt>
      <trkpt lat="46.51262" lon="0.36877">
        <ele>123.6</ele>
        <time>2023-09-10T08:28:56Z</time>
      </trkpt>
      <trkpt lat="46.51255" lon="0.36878">
        <ele>124</ele>
        <time>2023-09-10T08:28:58Z</time>
      </trkpt>
      <trkpt lat="46.51246" lon="0.36881">
        <ele>124.2</ele>
        <time>2023-09-10T08:29:01Z</time>
      </trkpt>
      <trkpt lat="46.51234" lon="0.36881">
        <ele>125</ele>
        <time>2023-09-10T08:29:04Z</time>
      </trkpt>
      <trkpt lat="46.51229" lon="0.3688">
        <ele>125.4</ele>
        <time>2023-09-10T08:29:05Z</time>
      </trkpt>
      <trkpt lat="46.51211" lon="0.36871">
        <ele>125.8</ele>
        <time>2023-09-10T08:29:09Z</time>
      </trkpt>
      <trkpt lat="46.51199" lon="0.36862">
        <ele>125.8</ele>
        <time>2023-09-10T08:29:12Z</time>
      </trkpt>
      <trkpt lat="46.51188" lon="0.36856">
        <ele>125.8</ele>
        <time>2023-09-10T08:29:15Z</time>
      </trkpt>
      <trkpt lat="46.5118" lon="0.36853">
        <ele>125.8</ele>
        <time>2023-09-10T08:29:17Z</time>
      </trkpt>
      <trkpt lat="46.51162" lon="0.36848">
        <ele>126</ele>
        <time>2023-09-10T08:29:21Z</time>
      </trkpt>
      <trkpt lat="46.51156" lon="0.36846">
        <ele>126.4</ele>
        <time>2023-09-10T08:29:22Z</time>
      </trkpt>
      <trkpt lat="46.51146" lon="0.36843">
        <ele>126.8</ele>
        <time>2023-09-10T08:29:24Z</time>
      </trkpt>
      <trkpt lat="46.51136" lon="0.36841">
        <ele>126.2</ele>
        <time>2023-09-10T08:29:26Z</time>
      </trkpt>
      <trkpt lat="46.51126" lon="0.3684">
        <ele>126.2</ele>
        <time>2023-09-10T08:29:28Z</time>
      </trkpt>
      <trkpt lat="46.51102" lon="0.36842">
        <ele>126</ele>
        <time>2023-09-10T08:29:32Z</time>
      </trkpt>
      <trkpt lat="46.51084" lon="0.36842">
        <ele>126</ele>
        <time>2023-09-10T08:29:35Z</time>
      </trkpt>
      <trkpt lat="46.51073" lon="0.36841">
        <ele>126</ele>
        <time>2023-09-10T08:29:37Z</time>
      </trkpt>
      <trkpt lat="46.51043" lon="0.36836">
        <ele>126</ele>
        <time>2023-09-10T08:29:42Z</time>
      </trkpt>
      <trkpt lat="46.51037" lon="0.36835">
        <ele>126</ele>
        <time>2023-09-10T08:29:43Z</time>
      </trkpt>
      <trkpt lat="46.51008" lon="0.36832">
        <ele>126.4</ele>
        <time>2023-09-10T08:29:47Z</time>
      </trkpt>
      <trkpt lat="46.50994" lon="0.36828">
        <ele>126.4</ele>
        <time>2023-09-10T08:29:49Z</time>
      </trkpt>
      <trkpt lat="46.50951" lon="0.36817">
        <ele>126.2</ele>
        <time>2023-09-10T08:29:55Z</time>
      </trkpt>
      <trkpt lat="46.50913" lon="0.36801">
        <ele>126.4</ele>
        <time>2023-09-10T08:30:00Z</time>
      </trkpt>
      <trkpt lat="46.50906" lon="0.368">
        <ele>126.6</ele>
        <time>2023-09-10T08:30:01Z</time>
      </trkpt>
      <trkpt lat="46.50883" lon="0.36796">
        <ele>126.6</ele>
        <time>2023-09-10T08:30:04Z</time>
      </trkpt>
      <trkpt lat="46.50839" lon="0.36795">
        <ele>126.6</ele>
        <time>2023-09-10T08:30:10Z</time>
      </trkpt>
      <trkpt lat="46.50832" lon="0.36794">
        <ele>126.6</ele>
        <time>2023-09-10T08:30:11Z</time>
      </trkpt>
      <trkpt lat="46.50802" lon="0.3679">
        <ele>126.2</ele>
        <time>2023-09-10T08:30:15Z</time>
      </trkpt>
      <trkpt lat="46.50762" lon="0.36787">
        <ele>127.6</ele>
        <time>2023-09-10T08:30:21Z</time>
      </trkpt>
      <trkpt lat="46.50747" lon="0.36782">
        <ele>127.6</ele>
        <time>2023-09-10T08:30:23Z</time>
      </trkpt>
      <trkpt lat="46.50732" lon="0.36774">
        <ele>127.2</ele>
        <time>2023-09-10T08:30:25Z</time>
      </trkpt>
      <trkpt lat="46.50726" lon="0.36771">
        <ele>127</ele>
        <time>2023-09-10T08:30:26Z</time>
      </trkpt>
      <trkpt lat="46.50711" lon="0.36768">
        <ele>126.6</ele>
        <time>2023-09-10T08:30:28Z</time>
      </trkpt>
      <trkpt lat="46.50705" lon="0.36767">
        <ele>126.4</ele>
        <time>2023-09-10T08:30:29Z</time>
      </trkpt>
      <trkpt lat="46.507" lon="0.36767">
        <ele>126.4</ele>
        <time>2023-09-10T08:30:30Z</time>
      </trkpt>
      <trkpt lat="46.5069" lon="0.36766">
        <ele>126.2</ele>
        <time>2023-09-10T08:30:32Z</time>
      </trkpt>
      <trkpt lat="46.50681" lon="0.36769">
        <ele>126.2</ele>
        <time>2023-09-10T08:30:34Z</time>
      </trkpt>
      <trkpt lat="46.50675" lon="0.36772">
        <ele>126.2</ele>
        <time>2023-09-10T08:30:35Z</time>
      </trkpt>
      <trkpt lat="46.50671" lon="0.36776">
        <ele>125.8</ele>
        <time>2023-09-10T08:30:36Z</time>
      </trkpt>
      <trkpt lat="46.50666" lon="0.3678">
        <ele>126</ele>
        <time>2023-09-10T08:30:39Z</time>
      </trkpt>
      <trkpt lat="46.50659" lon="0.36787">
        <ele>126</ele>
        <time>2023-09-10T08:30:46Z</time>
      </trkpt>
      <trkpt lat="46.50658" lon="0.36787">
        <ele>126</ele>
        <time>2023-09-10T08:30:58Z</time>
      </trkpt>
      <trkpt lat="46.50657" lon="0.36788">
        <ele>125.4</ele>
        <time>2023-09-10T08:31:04Z</time>
      </trkpt>
      <trkpt lat="46.50657" lon="0.36788">
        <ele>124.8</ele>
        <time>2023-09-10T08:31:09Z</time>
      </trkpt>
      <trkpt lat="46.50657" lon="0.36788">
        <ele>124.6</ele>
        <time>2023-09-10T08:31:27Z</time>
      </trkpt>
      <trkpt lat="46.50657" lon="0.36788">
        <ele>124.4</ele>
        <time>2023-09-10T08:31:46Z</time>
      </trkpt>
      <trkpt lat="46.50657" lon="0.36788">
        <ele>124.4</ele>
        <time>2023-09-10T08:32:13Z</time>
      </trkpt>
      <trkpt lat="46.50656" lon="0.36788">
        <ele>124.4</ele>
        <time>2023-09-10T08:32:32Z</time>
      </trkpt>
      <trkpt lat="46.50657" lon="0.36788">
        <ele>124.4</ele>
        <time>2023-09-10T08:32:47Z</time>
      </trkpt>
      <trkpt lat="46.50656" lon="0.36788">
        <ele>124</ele>
        <time>2023-09-10T08:33:34Z</time>
      </trkpt>
      <trkpt lat="46.50656" lon="0.36788">
        <ele>123.8</ele>
        <time>2023-09-10T08:34:31Z</time>
      </trkpt>
      <trkpt lat="46.50656" lon="0.36788">
        <ele>123.8</ele>
        <time>2023-09-10T08:35:00Z</time>
      </trkpt>
      <trkpt lat="46.50656" lon="0.36788">
        <ele>123.8</ele>
        <time>2023-09-10T08:35:47Z</time>
      </trkpt>
      <trkpt lat="46.50656" lon="0.36788">
        <ele>123.8</ele>
        <time>2023-09-10T08:36:02Z</time>
      </trkpt>
      <trkpt lat="46.50656" lon="0.36788">
        <ele>123.8</ele>
        <time>2023-09-10T08:36:32Z</time>
      </trkpt>
      <trkpt lat="46.50655" lon="0.36788">
        <ele>123.8</ele>
        <time>2023-09-10T08:37:13Z</time>
      </trkpt>
      <trkpt lat="46.50655" lon="0.36788">
        <ele>123.8</ele>
        <time>2023-09-10T08:37:51Z</time>
      </trkpt>
      <trkpt lat="46.50655" lon="0.36788">
        <ele>123.8</ele>
        <time>2023-09-10T08:37:53Z</time>
      </trkpt>
      <trkpt lat="46.50655" lon="0.36789">
        <ele>123.8</ele>
        <time>2023-09-10T08:39:12Z</time>
      </trkpt>
      <trkpt lat="46.50655" lon="0.36789">
        <ele>123.8</ele>
        <time>2023-09-10T08:39:58Z</time>
      </trkpt>
      <trkpt lat="46.50655" lon="0.36789">
        <ele>123.8</ele>
        <time>2023-09-10T08:40:33Z</time>
      </trkpt>
      <trkpt lat="46.50654" lon="0.36788">
        <ele>123.8</ele>
        <time>2023-09-10T08:40:53Z</time>
      </trkpt>
      <trkpt lat="46.50652" lon="0.36786">
        <ele>123.8</ele>
        <time>2023-09-10T08:41:05Z</time>
      </trkpt>
      <trkpt lat="46.50652" lon="0.36785">
        <ele>123.8</ele>
        <time>2023-09-10T08:41:21Z</time>
      </trkpt>
      <trkpt lat="46.50653" lon="0.36785">
        <ele>123.8</ele>
        <time>2023-09-10T08:41:39Z</time>
      </trkpt>
      <trkpt lat="46.50654" lon="0.36785">
        <ele>123.8</ele>
        <time>2023-09-10T08:41:54Z</time>
      </trkpt>
      <trkpt lat="46.50653" lon="0.36785">
        <ele>123.8</ele>
        <time>2023-09-10T08:42:08Z</time>
      </trkpt>
      <trkpt lat="46.50652" lon="0.36786">
        <ele>123.8</ele>
        <time>2023-09-10T08:42:25Z</time>
      </trkpt>
      <trkpt lat="46.50652" lon="0.36785">
        <ele>123.8</ele>
        <time>2023-09-10T08:42:40Z</time>
      </trkpt>
      <trkpt lat="46.50652" lon="0.36784">
        <ele>123.8</ele>
        <time>2023-09-10T08:42:58Z</time>
      </trkpt>
      <trkpt lat="46.50652" lon="0.36784">
        <ele>123.8</ele>
        <time>2023-09-10T08:43:18Z</time>
      </trkpt>
      <trkpt lat="46.50652" lon="0.36785">
        <ele>123.8</ele>
        <time>2023-09-10T08:43:35Z</time>
      </trkpt>
      <trkpt lat="46.50651" lon="0.36784">
        <ele>123.8</ele>
        <time>2023-09-10T08:43:49Z</time>
      </trkpt>
      <trkpt lat="46.50646" lon="0.36791">
        <ele>123.8</ele>
        <time>2023-09-10T08:43:54Z</time>
      </trkpt>
      <trkpt lat="46.5064" lon="0.36808">
        <ele>124</ele>
        <time>2023-09-10T08:43:59Z</time>
      </trkpt>
      <trkpt lat="46.50638" lon="0.36813">
        <ele>124.2</ele>
        <time>2023-09-10T08:44:01Z</time>
      </trkpt>
      <trkpt lat="46.50635" lon="0.36814">
        <ele>124.6</ele>
        <time>2023-09-10T08:44:03Z</time>
      </trkpt>
      <trkpt lat="46.50622" lon="0.36809">
        <ele>124.8</ele>
        <time>2023-09-10T08:44:09Z</time>
      </trkpt>
      <trkpt lat="46.5061" lon="0.36798">
        <ele>124.4</ele>
        <time>2023-09-10T08:44:15Z</time>
      </trkpt>
      <trkpt lat="46.50604" lon="0.36784">
        <ele>124.4</ele>
        <time>2023-09-10T08:44:21Z</time>
      </trkpt>
      <trkpt lat="46.50594" lon="0.36771">
        <ele>124.4</ele>
        <time>2023-09-10T08:44:26Z</time>
      </trkpt>
      <trkpt lat="46.50589" lon="0.36765">
        <ele>123.8</ele>
        <time>2023-09-10T08:44:28Z</time>
      </trkpt>
      <trkpt lat="46.50582" lon="0.36761">
        <ele>123.4</ele>
        <time>2023-09-10T08:44:30Z</time>
      </trkpt>
      <trkpt lat="46.50578" lon="0.36759">
        <ele>123.4</ele>
        <time>2023-09-10T08:44:31Z</time>
      </trkpt>
      <trkpt lat="46.5057" lon="0.36756">
        <ele>123.4</ele>
        <time>2023-09-10T08:44:33Z</time>
      </trkpt>
      <trkpt lat="46.50562" lon="0.36755">
        <ele>123.4</ele>
        <time>2023-09-10T08:44:35Z</time>
      </trkpt>
      <trkpt lat="46.50559" lon="0.36755">
        <ele>123.2</ele>
        <time>2023-09-10T08:44:36Z</time>
      </trkpt>
      <trkpt lat="46.50552" lon="0.36755">
        <ele>123.2</ele>
        <time>2023-09-10T08:44:38Z</time>
      </trkpt>
      <trkpt lat="46.50545" lon="0.36753">
        <ele>123</ele>
        <time>2023-09-10T08:44:40Z</time>
      </trkpt>
      <trkpt lat="46.50542" lon="0.3675">
        <ele>123</ele>
        <time>2023-09-10T08:44:41Z</time>
      </trkpt>
      <trkpt lat="46.50531" lon="0.3675">
        <ele>122.4</ele>
        <time>2023-09-10T08:44:46Z</time>
      </trkpt>
      <trkpt lat="46.50526" lon="0.36752">
        <ele>122.4</ele>
        <time>2023-09-10T08:44:48Z</time>
      </trkpt>
      <trkpt lat="46.50523" lon="0.36751">
        <ele>122.6</ele>
        <time>2023-09-10T08:44:50Z</time>
      </trkpt>
      <trkpt lat="46.5052" lon="0.3675">
        <ele>122.6</ele>
        <time>2023-09-10T08:44:51Z</time>
      </trkpt>
      <trkpt lat="46.50509" lon="0.36743">
        <ele>122.8</ele>
        <time>2023-09-10T08:44:55Z</time>
      </trkpt>
      <trkpt lat="46.50503" lon="0.36739">
        <ele>122.6</ele>
        <time>2023-09-10T08:44:57Z</time>
      </trkpt>
      <trkpt lat="46.50499" lon="0.36737">
        <ele>122.4</ele>
        <time>2023-09-10T08:44:58Z</time>
      </trkpt>
      <trkpt lat="46.50495" lon="0.36735">
        <ele>122.2</ele>
        <time>2023-09-10T08:44:59Z</time>
      </trkpt>
      <trkpt lat="46.50483" lon="0.36732">
        <ele>121.8</ele>
        <time>2023-09-10T08:45:02Z</time>
      </trkpt>
      <trkpt lat="46.50459" lon="0.36732">
        <ele>121.8</ele>
        <time>2023-09-10T08:45:07Z</time>
      </trkpt>
      <trkpt lat="46.50426" lon="0.36729">
        <ele>122.2</ele>
        <time>2023-09-10T08:45:13Z</time>
      </trkpt>
      <trkpt lat="46.50421" lon="0.36727">
        <ele>122.2</ele>
        <time>2023-09-10T08:45:14Z</time>
      </trkpt>
      <trkpt lat="46.50401" lon="0.36717">
        <ele>122.4</ele>
        <time>2023-09-10T08:45:18Z</time>
      </trkpt>
      <trkpt lat="46.50392" lon="0.36712">
        <ele>122.4</ele>
        <time>2023-09-10T08:45:20Z</time>
      </trkpt>
      <trkpt lat="46.50385" lon="0.36707">
        <ele>122.4</ele>
        <time>2023-09-10T08:45:22Z</time>
      </trkpt>
      <trkpt lat="46.50371" lon="0.36703">
        <ele>122.8</ele>
        <time>2023-09-10T08:45:26Z</time>
      </trkpt>
      <trkpt lat="46.50362" lon="0.36711">
        <ele>122.8</ele>
        <time>2023-09-10T08:45:31Z</time>
      </trkpt>
      <trkpt lat="46.5036" lon="0.36715">
        <ele>123</ele>
        <time>2023-09-10T08:45:33Z</time>
      </trkpt>
      <trkpt lat="46.50357" lon="0.36716">
        <ele>123.4</ele>
        <time>2023-09-10T08:45:34Z</time>
      </trkpt>
      <trkpt lat="46.50352" lon="0.36719">
        <ele>123.6</ele>
        <time>2023-09-10T08:45:35Z</time>
      </trkpt>
      <trkpt lat="46.50349" lon="0.3672">
        <ele>123.6</ele>
        <time>2023-09-10T08:45:36Z</time>
      </trkpt>
      <trkpt lat="46.50345" lon="0.36721">
        <ele>124</ele>
        <time>2023-09-10T08:45:37Z</time>
      </trkpt>
      <trkpt lat="46.50337" lon="0.36725">
        <ele>124.2</ele>
        <time>2023-09-10T08:45:39Z</time>
      </trkpt>
      <trkpt lat="46.50332" lon="0.36731">
        <ele>124.4</ele>
        <time>2023-09-10T08:45:41Z</time>
      </trkpt>
      <trkpt lat="46.5033" lon="0.36734">
        <ele>124.6</ele>
        <time>2023-09-10T08:45:42Z</time>
      </trkpt>
      <trkpt lat="46.50324" lon="0.3674">
        <ele>124.8</ele>
        <time>2023-09-10T08:45:44Z</time>
      </trkpt>
      <trkpt lat="46.50323" lon="0.36749">
        <ele>125</ele>
        <time>2023-09-10T08:45:46Z</time>
      </trkpt>
      <trkpt lat="46.50321" lon="0.36752">
        <ele>125.2</ele>
        <time>2023-09-10T08:45:47Z</time>
      </trkpt>
      <trkpt lat="46.5032" lon="0.36756">
        <ele>125.2</ele>
        <time>2023-09-10T08:45:48Z</time>
      </trkpt>
      <trkpt lat="46.50321" lon="0.36758">
        <ele>125.4</ele>
        <time>2023-09-10T08:45:51Z</time>
      </trkpt>
      <trkpt lat="46.5033" lon="0.3676">
        <ele>125.2</ele>
        <time>2023-09-10T08:45:55Z</time>
      </trkpt>
      <trkpt lat="46.50332" lon="0.36763">
        <ele>125.2</ele>
        <time>2023-09-10T08:45:56Z</time>
      </trkpt>
      <trkpt lat="46.50341" lon="0.3677">
        <ele>125</ele>
        <time>2023-09-10T08:46:00Z</time>
      </trkpt>
      <trkpt lat="46.50345" lon="0.36773">
        <ele>124.8</ele>
        <time>2023-09-10T08:46:02Z</time>
      </trkpt>
      <trkpt lat="46.5035" lon="0.36777">
        <ele>124.6</ele>
        <time>2023-09-10T08:46:04Z</time>
      </trkpt>
      <trkpt lat="46.5036" lon="0.36785">
        <ele>124.6</ele>
        <time>2023-09-10T08:46:07Z</time>
      </trkpt>
      <trkpt lat="46.50363" lon="0.36788">
        <ele>124.6</ele>
        <time>2023-09-10T08:46:08Z</time>
      </trkpt>
      <trkpt lat="46.50369" lon="0.36795">
        <ele>124.6</ele>
        <time>2023-09-10T08:46:10Z</time>
      </trkpt>
      <trkpt lat="46.50377" lon="0.368">
        <ele>124.6</ele>
        <time>2023-09-10T08:46:12Z</time>
      </trkpt>
      <trkpt lat="46.50385" lon="0.36805">
        <ele>124.8</ele>
        <time>2023-09-10T08:46:14Z</time>
      </trkpt>
      <trkpt lat="46.50394" lon="0.36809">
        <ele>124.8</ele>
        <time>2023-09-10T08:46:16Z</time>
      </trkpt>
      <trkpt lat="46.50409" lon="0.36815">
        <ele>124.6</ele>
        <time>2023-09-10T08:46:20Z</time>
      </trkpt>
      <trkpt lat="46.50427" lon="0.36823">
        <ele>124.4</ele>
        <time>2023-09-10T08:46:26Z</time>
      </trkpt>
      <trkpt lat="46.50431" lon="0.36834">
        <ele>124.4</ele>
        <time>2023-09-10T08:46:31Z</time>
      </trkpt>
      <trkpt lat="46.50438" lon="0.36848">
        <ele>125</ele>
        <time>2023-09-10T08:46:37Z</time>
      </trkpt>
      <trkpt lat="46.50436" lon="0.36859">
        <ele>125.2</ele>
        <time>2023-09-10T08:46:40Z</time>
      </trkpt>
      <trkpt lat="46.50437" lon="0.36863">
        <ele>125</ele>
        <time>2023-09-10T08:46:41Z</time>
      </trkpt>
      <trkpt lat="46.50439" lon="0.36871">
        <ele>125</ele>
        <time>2023-09-10T08:46:43Z</time>
      </trkpt>
      <trkpt lat="46.5044" lon="0.36878">
        <ele>124.8</ele>
        <time>2023-09-10T08:46:45Z</time>
      </trkpt>
      <trkpt lat="46.5044" lon="0.36885">
        <ele>125</ele>
        <time>2023-09-10T08:46:47Z</time>
      </trkpt>
      <trkpt lat="46.50438" lon="0.36894">
        <ele>125</ele>
        <time>2023-09-10T08:46:49Z</time>
      </trkpt>
      <trkpt lat="46.50441" lon="0.36902">
        <ele>125</ele>
        <time>2023-09-10T08:46:51Z</time>
      </trkpt>
      <trkpt lat="46.50442" lon="0.36909">
        <ele>124.2</ele>
        <time>2023-09-10T08:46:53Z</time>
      </trkpt>
      <trkpt lat="46.50443" lon="0.36913">
        <ele>124</ele>
        <time>2023-09-10T08:46:54Z</time>
      </trkpt>
      <trkpt lat="46.50444" lon="0.36918">
        <ele>123.8</ele>
        <time>2023-09-10T08:46:55Z</time>
      </trkpt>
      <trkpt lat="46.50446" lon="0.36934">
        <ele>123.6</ele>
        <time>2023-09-10T08:46:59Z</time>
      </trkpt>
      <trkpt lat="46.50446" lon="0.36938">
        <ele>123.4</ele>
        <time>2023-09-10T08:47:00Z</time>
      </trkpt>
      <trkpt lat="46.50444" lon="0.36954">
        <ele>123</ele>
        <time>2023-09-10T08:47:04Z</time>
      </trkpt>
      <trkpt lat="46.50443" lon="0.36958">
        <ele>122.6</ele>
        <time>2023-09-10T08:47:05Z</time>
      </trkpt>
      <trkpt lat="46.50441" lon="0.36976">
        <ele>122.2</ele>
        <time>2023-09-10T08:47:10Z</time>
      </trkpt>
      <trkpt lat="46.50443" lon="0.37001">
        <ele>122</ele>
        <time>2023-09-10T08:47:15Z</time>
      </trkpt>
      <trkpt lat="46.50441" lon="0.3701">
        <ele>122</ele>
        <time>2023-09-10T08:47:16Z</time>
      </trkpt>
      <trkpt lat="46.5044" lon="0.37018">
        <ele>122</ele>
        <time>2023-09-10T08:47:18Z</time>
      </trkpt>
      <trkpt lat="46.50437" lon="0.37022">
        <ele>122.2</ele>
        <time>2023-09-10T08:47:19Z</time>
      </trkpt>
      <trkpt lat="46.5042" lon="0.37038">
        <ele>123.2</ele>
        <time>2023-09-10T08:47:25Z</time>
      </trkpt>
      <trkpt lat="46.50412" lon="0.3704">
        <ele>123.2</ele>
        <time>2023-09-10T08:47:27Z</time>
      </trkpt>
      <trkpt lat="46.50404" lon="0.3704">
        <ele>123.6</ele>
        <time>2023-09-10T08:47:29Z</time>
      </trkpt>
      <trkpt lat="46.504" lon="0.37039">
        <ele>123.6</ele>
        <time>2023-09-10T08:47:30Z</time>
      </trkpt>
      <trkpt lat="46.50398" lon="0.37038">
        <ele>123.6</ele>
        <time>2023-09-10T08:47:31Z</time>
      </trkpt>
      <trkpt lat="46.50393" lon="0.37032">
        <ele>123.6</ele>
        <time>2023-09-10T08:47:33Z</time>
      </trkpt>
      <trkpt lat="46.50391" lon="0.37029">
        <ele>123.6</ele>
        <time>2023-09-10T08:47:34Z</time>
      </trkpt>
      <trkpt lat="46.50389" lon="0.37025">
        <ele>123.8</ele>
        <time>2023-09-10T08:47:36Z</time>
      </trkpt>
      <trkpt lat="46.50387" lon="0.37026">
        <ele>124</ele>
        <time>2023-09-10T08:47:38Z</time>
      </trkpt>
      <trkpt lat="46.50382" lon="0.37029">
        <ele>124.2</ele>
        <time>2023-09-10T08:47:40Z</time>
      </trkpt>
      <trkpt lat="46.50376" lon="0.37034">
        <ele>124.4</ele>
        <time>2023-09-10T08:47:42Z</time>
      </trkpt>
      <trkpt lat="46.50368" lon="0.37037">
        <ele>124.4</ele>
        <time>2023-09-10T08:47:44Z</time>
      </trkpt>
      <trkpt lat="46.5036" lon="0.37039">
        <ele>124</ele>
        <time>2023-09-10T08:47:46Z</time>
      </trkpt>
      <trkpt lat="46.5035" lon="0.37038">
        <ele>124</ele>
        <time>2023-09-10T08:47:49Z</time>
      </trkpt>
      <trkpt lat="46.5034" lon="0.37035">
        <ele>123.6</ele>
        <time>2023-09-10T08:47:52Z</time>
      </trkpt>
      <trkpt lat="46.50336" lon="0.37034">
        <ele>123.8</ele>
        <time>2023-09-10T08:47:53Z</time>
      </trkpt>
      <trkpt lat="46.50329" lon="0.37036">
        <ele>123.8</ele>
        <time>2023-09-10T08:47:55Z</time>
      </trkpt>
      <trkpt lat="46.50327" lon="0.3704">
        <ele>123.8</ele>
        <time>2023-09-10T08:47:56Z</time>
      </trkpt>
      <trkpt lat="46.50325" lon="0.37044">
        <ele>124</ele>
        <time>2023-09-10T08:47:57Z</time>
      </trkpt>
      <trkpt lat="46.50318" lon="0.37057">
        <ele>124.2</ele>
        <time>2023-09-10T08:48:00Z</time>
      </trkpt>
      <trkpt lat="46.50315" lon="0.3706">
        <ele>124.4</ele>
        <time>2023-09-10T08:48:01Z</time>
      </trkpt>
      <trkpt lat="46.50312" lon="0.37064">
        <ele>124.4</ele>
        <time>2023-09-10T08:48:02Z</time>
      </trkpt>
      <trkpt lat="46.50291" lon="0.37078">
        <ele>124</ele>
        <time>2023-09-10T08:48:07Z</time>
      </trkpt>
      <trkpt lat="46.50284" lon="0.37086">
        <ele>123.6</ele>
        <time>2023-09-10T08:48:09Z</time>
      </trkpt>
      <trkpt lat="46.50277" lon="0.37094">
        <ele>123.4</ele>
        <time>2023-09-10T08:48:11Z</time>
      </trkpt>
      <trkpt lat="46.50273" lon="0.37097">
        <ele>123.4</ele>
        <time>2023-09-10T08:48:12Z</time>
      </trkpt>
      <trkpt lat="46.50267" lon="0.371">
        <ele>123.6</ele>
        <time>2023-09-10T08:48:13Z</time>
      </trkpt>
      <trkpt lat="46.50257" lon="0.371">
        <ele>123.6</ele>
        <time>2023-09-10T08:48:15Z</time>
      </trkpt>
      <trkpt lat="46.50252" lon="0.371">
        <ele>123.6</ele>
        <time>2023-09-10T08:48:16Z</time>
      </trkpt>
      <trkpt lat="46.50224" lon="0.37093">
        <ele>123.6</ele>
        <time>2023-09-10T08:48:21Z</time>
      </trkpt>
      <trkpt lat="46.50218" lon="0.3709">
        <ele>123.6</ele>
        <time>2023-09-10T08:48:22Z</time>
      </trkpt>
      <trkpt lat="46.50213" lon="0.37088">
        <ele>123.6</ele>
        <time>2023-09-10T08:48:23Z</time>
      </trkpt>
      <trkpt lat="46.50178" lon="0.37071">
        <ele>123.8</ele>
        <time>2023-09-10T08:48:29Z</time>
      </trkpt>
      <trkpt lat="46.50167" lon="0.37066">
        <ele>123.6</ele>
        <time>2023-09-10T08:48:31Z</time>
      </trkpt>
      <trkpt lat="46.50159" lon="0.37068">
        <ele>123.6</ele>
        <time>2023-09-10T08:48:33Z</time>
      </trkpt>
      <trkpt lat="46.50152" lon="0.37076">
        <ele>123.4</ele>
        <time>2023-09-10T08:48:35Z</time>
      </trkpt>
      <trkpt lat="46.50149" lon="0.3708">
        <ele>123.6</ele>
        <time>2023-09-10T08:48:36Z</time>
      </trkpt>
      <trkpt lat="46.50147" lon="0.37085">
        <ele>123.4</ele>
        <time>2023-09-10T08:48:37Z</time>
      </trkpt>
      <trkpt lat="46.50141" lon="0.37096">
        <ele>123.6</ele>
        <time>2023-09-10T08:48:39Z</time>
      </trkpt>
      <trkpt lat="46.50136" lon="0.37103">
        <ele>123.6</ele>
        <time>2023-09-10T08:48:41Z</time>
      </trkpt>
      <trkpt lat="46.50128" lon="0.37106">
        <ele>123.2</ele>
        <time>2023-09-10T08:48:43Z</time>
      </trkpt>
      <trkpt lat="46.50124" lon="0.37108">
        <ele>123</ele>
        <time>2023-09-10T08:48:44Z</time>
      </trkpt>
      <trkpt lat="46.5012" lon="0.37108">
        <ele>123</ele>
        <time>2023-09-10T08:48:45Z</time>
      </trkpt>
      <trkpt lat="46.50111" lon="0.37105">
        <ele>123.2</ele>
        <time>2023-09-10T08:48:47Z</time>
      </trkpt>
      <trkpt lat="46.50105" lon="0.37101">
        <ele>123.6</ele>
        <time>2023-09-10T08:48:49Z</time>
      </trkpt>
      <trkpt lat="46.501" lon="0.37097">
        <ele>123.8</ele>
        <time>2023-09-10T08:48:51Z</time>
      </trkpt>
      <trkpt lat="46.50095" lon="0.37096">
        <ele>123.8</ele>
        <time>2023-09-10T08:48:53Z</time>
      </trkpt>
      <trkpt lat="46.50091" lon="0.37095">
        <ele>123.8</ele>
        <time>2023-09-10T08:48:54Z</time>
      </trkpt>
      <trkpt lat="46.50088" lon="0.37093">
        <ele>123.8</ele>
        <time>2023-09-10T08:48:55Z</time>
      </trkpt>
      <trkpt lat="46.50082" lon="0.37088">
        <ele>123.8</ele>
        <time>2023-09-10T08:48:57Z</time>
      </trkpt>
      <trkpt lat="46.5008" lon="0.37086">
        <ele>123.8</ele>
        <time>2023-09-10T08:48:58Z</time>
      </trkpt>
      <trkpt lat="46.50076" lon="0.3708">
        <ele>123.8</ele>
        <time>2023-09-10T08:49:00Z</time>
      </trkpt>
      <trkpt lat="46.50069" lon="0.37072">
        <ele>123.4</ele>
        <time>2023-09-10T08:49:03Z</time>
      </trkpt>
      <trkpt lat="46.50063" lon="0.37068">
        <ele>123.4</ele>
        <time>2023-09-10T08:49:05Z</time>
      </trkpt>
      <trkpt lat="46.50061" lon="0.37067">
        <ele>123.4</ele>
        <time>2023-09-10T08:49:06Z</time>
      </trkpt>
      <trkpt lat="46.50056" lon="0.37069">
        <ele>123.6</ele>
        <time>2023-09-10T08:49:09Z</time>
      </trkpt>
      <trkpt lat="46.50043" lon="0.37071">
        <ele>123.8</ele>
        <time>2023-09-10T08:49:15Z</time>
      </trkpt>
      <trkpt lat="46.5004" lon="0.3707">
        <ele>123.8</ele>
        <time>2023-09-10T08:49:16Z</time>
      </trkpt>
      <trkpt lat="46.50038" lon="0.37069">
        <ele>123.8</ele>
        <time>2023-09-10T08:49:17Z</time>
      </trkpt>
      <trkpt lat="46.5003" lon="0.37068">
        <ele>123.8</ele>
        <time>2023-09-10T08:49:19Z</time>
      </trkpt>
      <trkpt lat="46.50023" lon="0.37063">
        <ele>124.2</ele>
        <time>2023-09-10T08:49:21Z</time>
      </trkpt>
      <trkpt lat="46.5002" lon="0.37062">
        <ele>124.2</ele>
        <time>2023-09-10T08:49:22Z</time>
      </trkpt>
      <trkpt lat="46.50018" lon="0.37062">
        <ele>124.2</ele>
        <time>2023-09-10T08:49:23Z</time>
      </trkpt>
      <trkpt lat="46.50013" lon="0.37062">
        <ele>123.8</ele>
        <time>2023-09-10T08:49:25Z</time>
      </trkpt>
      <trkpt lat="46.5" lon="0.37062">
        <ele>124</ele>
        <time>2023-09-10T08:49:30Z</time>
      </trkpt>
      <trkpt lat="46.49999" lon="0.37062">
        <ele>124.2</ele>
        <time>2023-09-10T08:49:31Z</time>
      </trkpt>
      <trkpt lat="46.49979" lon="0.37067">
        <ele>124.2</ele>
        <time>2023-09-10T08:49:38Z</time>
      </trkpt>
      <trkpt lat="46.49975" lon="0.37066">
        <ele>124</ele>
        <time>2023-09-10T08:49:40Z</time>
      </trkpt>
      <trkpt lat="46.49971" lon="0.37068">
        <ele>124.2</ele>
        <time>2023-09-10T08:49:42Z</time>
      </trkpt>
      <trkpt lat="46.4997" lon="0.3707">
        <ele>124.2</ele>
        <time>2023-09-10T08:49:43Z</time>
      </trkpt>
      <trkpt lat="46.49958" lon="0.37082">
        <ele>124.2</ele>
        <time>2023-09-10T08:49:48Z</time>
      </trkpt>
      <trkpt lat="46.49955" lon="0.37085">
        <ele>124.2</ele>
        <time>2023-09-10T08:49:49Z</time>
      </trkpt>
      <trkpt lat="46.49952" lon="0.37087">
        <ele>124.2</ele>
        <time>2023-09-10T08:49:50Z</time>
      </trkpt>
      <trkpt lat="46.49945" lon="0.3709">
        <ele>124.2</ele>
        <time>2023-09-10T08:49:52Z</time>
      </trkpt>
      <trkpt lat="46.49942" lon="0.37094">
        <ele>124.2</ele>
        <time>2023-09-10T08:49:53Z</time>
      </trkpt>
      <trkpt lat="46.4994" lon="0.37097">
        <ele>124.2</ele>
        <time>2023-09-10T08:49:54Z</time>
      </trkpt>
      <trkpt lat="46.49934" lon="0.37104">
        <ele>124.2</ele>
        <time>2023-09-10T08:49:56Z</time>
      </trkpt>
      <trkpt lat="46.49928" lon="0.37109">
        <ele>124.2</ele>
        <time>2023-09-10T08:49:58Z</time>
      </trkpt>
      <trkpt lat="46.49927" lon="0.37113">
        <ele>124.4</ele>
        <time>2023-09-10T08:49:59Z</time>
      </trkpt>
      <trkpt lat="46.49924" lon="0.37116">
        <ele>124.6</ele>
        <time>2023-09-10T08:50:00Z</time>
      </trkpt>
      <trkpt lat="46.49919" lon="0.37124">
        <ele>124.8</ele>
        <time>2023-09-10T08:50:02Z</time>
      </trkpt>
      <trkpt lat="46.49917" lon="0.37128">
        <ele>124.8</ele>
        <time>2023-09-10T08:50:03Z</time>
      </trkpt>
      <trkpt lat="46.49914" lon="0.37133">
        <ele>124.8</ele>
        <time>2023-09-10T08:50:04Z</time>
      </trkpt>
      <trkpt lat="46.49909" lon="0.37141">
        <ele>124.8</ele>
        <time>2023-09-10T08:50:06Z</time>
      </trkpt>
      <trkpt lat="46.49905" lon="0.37151">
        <ele>124.8</ele>
        <time>2023-09-10T08:50:08Z</time>
      </trkpt>
      <trkpt lat="46.49903" lon="0.37155">
        <ele>124.8</ele>
        <time>2023-09-10T08:50:09Z</time>
      </trkpt>
      <trkpt lat="46.499" lon="0.37159">
        <ele>125</ele>
        <time>2023-09-10T08:50:10Z</time>
      </trkpt>
      <trkpt lat="46.49889" lon="0.3717">
        <ele>124.8</ele>
        <time>2023-09-10T08:50:13Z</time>
      </trkpt>
      <trkpt lat="46.49885" lon="0.37177">
        <ele>124.6</ele>
        <time>2023-09-10T08:50:15Z</time>
      </trkpt>
      <trkpt lat="46.49885" lon="0.37183">
        <ele>124.4</ele>
        <time>2023-09-10T08:50:17Z</time>
      </trkpt>
      <trkpt lat="46.49886" lon="0.37186">
        <ele>124.2</ele>
        <time>2023-09-10T08:50:18Z</time>
      </trkpt>
      <trkpt lat="46.49892" lon="0.37201">
        <ele>124.2</ele>
        <time>2023-09-10T08:50:22Z</time>
      </trkpt>
      <trkpt lat="46.49904" lon="0.37228">
        <ele>124.4</ele>
        <time>2023-09-10T08:50:29Z</time>
      </trkpt>
      <trkpt lat="46.49906" lon="0.37232">
        <ele>124.2</ele>
        <time>2023-09-10T08:50:30Z</time>
      </trkpt>
      <trkpt lat="46.49908" lon="0.37241">
        <ele>124.4</ele>
        <time>2023-09-10T08:50:32Z</time>
      </trkpt>
      <trkpt lat="46.49908" lon="0.37245">
        <ele>124.2</ele>
        <time>2023-09-10T08:50:33Z</time>
      </trkpt>
      <trkpt lat="46.49907" lon="0.37249">
        <ele>124.2</ele>
        <time>2023-09-10T08:50:34Z</time>
      </trkpt>
      <trkpt lat="46.49904" lon="0.37258">
        <ele>124</ele>
        <time>2023-09-10T08:50:36Z</time>
      </trkpt>
      <trkpt lat="46.49902" lon="0.37261">
        <ele>124.2</ele>
        <time>2023-09-10T08:50:37Z</time>
      </trkpt>
      <trkpt lat="46.49901" lon="0.37265">
        <ele>124.2</ele>
        <time>2023-09-10T08:50:38Z</time>
      </trkpt>
      <trkpt lat="46.49892" lon="0.37286">
        <ele>124.8</ele>
        <time>2023-09-10T08:50:42Z</time>
      </trkpt>
      <trkpt lat="46.49889" lon="0.3729">
        <ele>124.8</ele>
        <time>2023-09-10T08:50:43Z</time>
      </trkpt>
      <trkpt lat="46.49884" lon="0.37299">
        <ele>125</ele>
        <time>2023-09-10T08:50:45Z</time>
      </trkpt>
      <trkpt lat="46.49881" lon="0.37303">
        <ele>125.2</ele>
        <time>2023-09-10T08:50:46Z</time>
      </trkpt>
      <trkpt lat="46.49877" lon="0.37314">
        <ele>125.2</ele>
        <time>2023-09-10T08:50:48Z</time>
      </trkpt>
      <trkpt lat="46.49869" lon="0.37321">
        <ele>125.2</ele>
        <time>2023-09-10T08:50:50Z</time>
      </trkpt>
      <trkpt lat="46.49863" lon="0.37324">
        <ele>125.2</ele>
        <time>2023-09-10T08:50:52Z</time>
      </trkpt>
      <trkpt lat="46.49858" lon="0.37326">
        <ele>125</ele>
        <time>2023-09-10T08:50:54Z</time>
      </trkpt>
      <trkpt lat="46.49851" lon="0.37329">
        <ele>125</ele>
        <time>2023-09-10T08:50:56Z</time>
      </trkpt>
      <trkpt lat="46.49843" lon="0.37331">
        <ele>125</ele>
        <time>2023-09-10T08:50:58Z</time>
      </trkpt>
      <trkpt lat="46.49836" lon="0.37329">
        <ele>125.4</ele>
        <time>2023-09-10T08:51:00Z</time>
      </trkpt>
      <trkpt lat="46.4983" lon="0.37325">
        <ele>125.2</ele>
        <time>2023-09-10T08:51:03Z</time>
      </trkpt>
      <trkpt lat="46.49823" lon="0.37326">
        <ele>125.2</ele>
        <time>2023-09-10T08:51:06Z</time>
      </trkpt>
      <trkpt lat="46.4982" lon="0.37328">
        <ele>125.2</ele>
        <time>2023-09-10T08:51:07Z</time>
      </trkpt>
      <trkpt lat="46.49813" lon="0.37331">
        <ele>125.2</ele>
        <time>2023-09-10T08:51:09Z</time>
      </trkpt>
      <trkpt lat="46.49804" lon="0.37335">
        <ele>125.2</ele>
        <time>2023-09-10T08:51:12Z</time>
      </trkpt>
      <trkpt lat="46.49802" lon="0.37338">
        <ele>125.4</ele>
        <time>2023-09-10T08:51:13Z</time>
      </trkpt>
      <trkpt lat="46.49799" lon="0.37339">
        <ele>125.4</ele>
        <time>2023-09-10T08:51:14Z</time>
      </trkpt>
      <trkpt lat="46.49794" lon="0.37344">
        <ele>125.4</ele>
        <time>2023-09-10T08:51:16Z</time>
      </trkpt>
      <trkpt lat="46.4979" lon="0.37352">
        <ele>125.4</ele>
        <time>2023-09-10T08:51:18Z</time>
      </trkpt>
      <trkpt lat="46.49782" lon="0.37368">
        <ele>125.4</ele>
        <time>2023-09-10T08:51:21Z</time>
      </trkpt>
      <trkpt lat="46.49776" lon="0.37379">
        <ele>125.8</ele>
        <time>2023-09-10T08:51:23Z</time>
      </trkpt>
      <trkpt lat="46.49764" lon="0.3741">
        <ele>125.8</ele>
        <time>2023-09-10T08:51:29Z</time>
      </trkpt>
      <trkpt lat="46.49758" lon="0.37425">
        <ele>125.8</ele>
        <time>2023-09-10T08:51:32Z</time>
      </trkpt>
      <trkpt lat="46.49752" lon="0.37436">
        <ele>125.8</ele>
        <time>2023-09-10T08:51:35Z</time>
      </trkpt>
      <trkpt lat="46.4975" lon="0.37438">
        <ele>125.8</ele>
        <time>2023-09-10T08:51:36Z</time>
      </trkpt>
      <trkpt lat="46.49745" lon="0.37443">
        <ele>125.8</ele>
        <time>2023-09-10T08:51:38Z</time>
      </trkpt>
      <trkpt lat="46.49739" lon="0.37456">
        <ele>125.6</ele>
        <time>2023-09-10T08:51:41Z</time>
      </trkpt>
      <trkpt lat="46.49734" lon="0.37468">
        <ele>125.6</ele>
        <time>2023-09-10T08:51:43Z</time>
      </trkpt>
      <trkpt lat="46.49727" lon="0.37486">
        <ele>125.4</ele>
        <time>2023-09-10T08:51:46Z</time>
      </trkpt>
      <trkpt lat="46.49726" lon="0.37492">
        <ele>125.4</ele>
        <time>2023-09-10T08:51:47Z</time>
      </trkpt>
      <trkpt lat="46.49724" lon="0.37498">
        <ele>125.6</ele>
        <time>2023-09-10T08:51:48Z</time>
      </trkpt>
      <trkpt lat="46.49716" lon="0.37527">
        <ele>125.2</ele>
        <time>2023-09-10T08:51:53Z</time>
      </trkpt>
      <trkpt lat="46.49714" lon="0.37531">
        <ele>125</ele>
        <time>2023-09-10T08:51:54Z</time>
      </trkpt>
      <trkpt lat="46.49707" lon="0.37554">
        <ele>124.8</ele>
        <time>2023-09-10T08:51:58Z</time>
      </trkpt>
      <trkpt lat="46.49708" lon="0.37569">
        <ele>125.2</ele>
        <time>2023-09-10T08:52:01Z</time>
      </trkpt>
      <trkpt lat="46.4971" lon="0.37574">
        <ele>125.2</ele>
        <time>2023-09-10T08:52:02Z</time>
      </trkpt>
      <trkpt lat="46.49722" lon="0.37593">
        <ele>125.2</ele>
        <time>2023-09-10T08:52:06Z</time>
      </trkpt>
      <trkpt lat="46.49726" lon="0.37603">
        <ele>125.2</ele>
        <time>2023-09-10T08:52:08Z</time>
      </trkpt>
      <trkpt lat="46.49731" lon="0.37613">
        <ele>125.2</ele>
        <time>2023-09-10T08:52:11Z</time>
      </trkpt>
      <trkpt lat="46.49733" lon="0.37618">
        <ele>125.2</ele>
        <time>2023-09-10T08:52:12Z</time>
      </trkpt>
      <trkpt lat="46.49735" lon="0.37624">
        <ele>125.2</ele>
        <time>2023-09-10T08:52:13Z</time>
      </trkpt>
      <trkpt lat="46.49742" lon="0.37646">
        <ele>125</ele>
        <time>2023-09-10T08:52:16Z</time>
      </trkpt>
      <trkpt lat="46.49752" lon="0.37699">
        <ele>125</ele>
        <time>2023-09-10T08:52:23Z</time>
      </trkpt>
      <trkpt lat="46.49769" lon="0.37737">
        <ele>124.6</ele>
        <time>2023-09-10T08:52:28Z</time>
      </trkpt>
      <trkpt lat="46.49781" lon="0.37755">
        <ele>124.6</ele>
        <time>2023-09-10T08:52:31Z</time>
      </trkpt>
      <trkpt lat="46.49789" lon="0.37759">
        <ele>124.6</ele>
        <time>2023-09-10T08:52:33Z</time>
      </trkpt>
      <trkpt lat="46.49794" lon="0.37757">
        <ele>124.4</ele>
        <time>2023-09-10T08:52:35Z</time>
      </trkpt>
      <trkpt lat="46.49799" lon="0.37753">
        <ele>124.2</ele>
        <time>2023-09-10T08:52:37Z</time>
      </trkpt>
      <trkpt lat="46.49814" lon="0.3773">
        <ele>124.4</ele>
        <time>2023-09-10T08:52:43Z</time>
      </trkpt>
      <trkpt lat="46.49829" lon="0.37696">
        <ele>124.4</ele>
        <time>2023-09-10T08:52:49Z</time>
      </trkpt>
      <trkpt lat="46.49849" lon="0.37659">
        <ele>125</ele>
        <time>2023-09-10T08:52:55Z</time>
      </trkpt>
      <trkpt lat="46.49876" lon="0.37614">
        <ele>124.8</ele>
        <time>2023-09-10T08:53:02Z</time>
      </trkpt>
      <trkpt lat="46.49896" lon="0.37583">
        <ele>124.8</ele>
        <time>2023-09-10T08:53:07Z</time>
      </trkpt>
      <trkpt lat="46.49918" lon="0.37543">
        <ele>124.4</ele>
        <time>2023-09-10T08:53:13Z</time>
      </trkpt>
      <trkpt lat="46.49925" lon="0.3753">
        <ele>124.2</ele>
        <time>2023-09-10T08:53:15Z</time>
      </trkpt>
      <trkpt lat="46.49939" lon="0.37504">
        <ele>123.8</ele>
        <time>2023-09-10T08:53:19Z</time>
      </trkpt>
      <trkpt lat="46.49971" lon="0.37447">
        <ele>123.8</ele>
        <time>2023-09-10T08:53:26Z</time>
      </trkpt>
      <trkpt lat="46.50008" lon="0.37398">
        <ele>123</ele>
        <time>2023-09-10T08:53:32Z</time>
      </trkpt>
      <trkpt lat="46.5003" lon="0.37358">
        <ele>122.4</ele>
        <time>2023-09-10T08:53:38Z</time>
      </trkpt>
      <trkpt lat="46.50054" lon="0.37307">
        <ele>122</ele>
        <time>2023-09-10T08:53:46Z</time>
      </trkpt>
      <trkpt lat="46.50077" lon="0.37266">
        <ele>121</ele>
        <time>2023-09-10T08:53:52Z</time>
      </trkpt>
      <trkpt lat="46.50087" lon="0.37265">
        <ele>121.2</ele>
        <time>2023-09-10T08:53:55Z</time>
      </trkpt>
      <trkpt lat="46.50087" lon="0.37265">
        <ele>121</ele>
        <time>2023-09-10T08:53:56Z</time>
      </trkpt>
      <trkpt lat="46.5011" lon="0.37283">
        <ele>120.6</ele>
        <time>2023-09-10T08:54:01Z</time>
      </trkpt>
      <trkpt lat="46.50135" lon="0.37305">
        <ele>120</ele>
        <time>2023-09-10T08:54:07Z</time>
      </trkpt>
      <trkpt lat="46.50146" lon="0.37313">
        <ele>120</ele>
        <time>2023-09-10T08:54:09Z</time>
      </trkpt>
      <trkpt lat="46.50165" lon="0.37328">
        <ele>119.6</ele>
        <time>2023-09-10T08:54:13Z</time>
      </trkpt>
      <trkpt lat="46.50188" lon="0.37336">
        <ele>119.2</ele>
        <time>2023-09-10T08:54:15Z</time>
      </trkpt>
      <trkpt lat="46.50199" lon="0.37347">
        <ele>118.8</ele>
        <time>2023-09-10T08:54:17Z</time>
      </trkpt>
      <trkpt lat="46.50204" lon="0.37351">
        <ele>118.8</ele>
        <time>2023-09-10T08:54:18Z</time>
      </trkpt>
      <trkpt lat="46.50215" lon="0.37361">
        <ele>118.6</ele>
        <time>2023-09-10T08:54:20Z</time>
      </trkpt>
      <trkpt lat="46.5023" lon="0.37382">
        <ele>118.4</ele>
        <time>2023-09-10T08:54:23Z</time>
      </trkpt>
      <trkpt lat="46.50269" lon="0.37424">
        <ele>118.6</ele>
        <time>2023-09-10T08:54:28Z</time>
      </trkpt>
      <trkpt lat="46.50305" lon="0.37475">
        <ele>118.2</ele>
        <time>2023-09-10T08:54:34Z</time>
      </trkpt>
      <trkpt lat="46.50311" lon="0.37482">
        <ele>117.6</ele>
        <time>2023-09-10T08:54:35Z</time>
      </trkpt>
      <trkpt lat="46.50328" lon="0.37503">
        <ele>116.4</ele>
        <time>2023-09-10T08:54:38Z</time>
      </trkpt>
      <trkpt lat="46.50333" lon="0.37508">
        <ele>116.2</ele>
        <time>2023-09-10T08:54:39Z</time>
      </trkpt>
      <trkpt lat="46.50355" lon="0.37534">
        <ele>115.6</ele>
        <time>2023-09-10T08:54:44Z</time>
      </trkpt>
      <trkpt lat="46.50357" lon="0.37538">
        <ele>115</ele>
        <time>2023-09-10T08:54:45Z</time>
      </trkpt>
      <trkpt lat="46.5036" lon="0.37541">
        <ele>114.6</ele>
        <time>2023-09-10T08:54:46Z</time>
      </trkpt>
      <trkpt lat="46.50364" lon="0.37542">
        <ele>114</ele>
        <time>2023-09-10T08:54:48Z</time>
      </trkpt>
      <trkpt lat="46.50375" lon="0.37535">
        <ele>114.2</ele>
        <time>2023-09-10T08:54:55Z</time>
      </trkpt>
      <trkpt lat="46.50379" lon="0.37525">
        <ele>115</ele>
        <time>2023-09-10T08:54:58Z</time>
      </trkpt>
      <trkpt lat="46.50385" lon="0.37515">
        <ele>116</ele>
        <time>2023-09-10T08:55:01Z</time>
      </trkpt>
      <trkpt lat="46.50386" lon="0.3751">
        <ele>116.2</ele>
        <time>2023-09-10T08:55:02Z</time>
      </trkpt>
      <trkpt lat="46.5039" lon="0.37503">
        <ele>116.8</ele>
        <time>2023-09-10T08:55:04Z</time>
      </trkpt>
      <trkpt lat="46.50394" lon="0.37497">
        <ele>117.6</ele>
        <time>2023-09-10T08:55:06Z</time>
      </trkpt>
      <trkpt lat="46.50395" lon="0.37495">
        <ele>118</ele>
        <time>2023-09-10T08:55:07Z</time>
      </trkpt>
      <trkpt lat="46.50396" lon="0.37492">
        <ele>118.2</ele>
        <time>2023-09-10T08:55:08Z</time>
      </trkpt>
      <trkpt lat="46.504" lon="0.37486">
        <ele>118.4</ele>
        <time>2023-09-10T08:55:10Z</time>
      </trkpt>
      <trkpt lat="46.50402" lon="0.37483">
        <ele>118.6</ele>
        <time>2023-09-10T08:55:11Z</time>
      </trkpt>
      <trkpt lat="46.50406" lon="0.37478">
        <ele>118.8</ele>
        <time>2023-09-10T08:55:12Z</time>
      </trkpt>
      <trkpt lat="46.50412" lon="0.37474">
        <ele>118.8</ele>
        <time>2023-09-10T08:55:14Z</time>
      </trkpt>
      <trkpt lat="46.50418" lon="0.37473">
        <ele>119</ele>
        <time>2023-09-10T08:55:16Z</time>
      </trkpt>
      <trkpt lat="46.50438" lon="0.37468">
        <ele>119.4</ele>
        <time>2023-09-10T08:55:21Z</time>
      </trkpt>
      <trkpt lat="46.50443" lon="0.37461">
        <ele>119.4</ele>
        <time>2023-09-10T08:55:23Z</time>
      </trkpt>
      <trkpt lat="46.50445" lon="0.37458">
        <ele>119.2</ele>
        <time>2023-09-10T08:55:24Z</time>
      </trkpt>
      <trkpt lat="46.5045" lon="0.37442">
        <ele>119.8</ele>
        <time>2023-09-10T08:55:27Z</time>
      </trkpt>
      <trkpt lat="46.50452" lon="0.37436">
        <ele>119.8</ele>
        <time>2023-09-10T08:55:28Z</time>
      </trkpt>
      <trkpt lat="46.50456" lon="0.37424">
        <ele>120</ele>
        <time>2023-09-10T08:55:30Z</time>
      </trkpt>
      <trkpt lat="46.50458" lon="0.37418">
        <ele>120</ele>
        <time>2023-09-10T08:55:31Z</time>
      </trkpt>
      <trkpt lat="46.50458" lon="0.37409">
        <ele>120</ele>
        <time>2023-09-10T08:55:33Z</time>
      </trkpt>
      <trkpt lat="46.50457" lon="0.37407">
        <ele>120</ele>
        <time>2023-09-10T08:55:34Z</time>
      </trkpt>
      <trkpt lat="46.50457" lon="0.37404">
        <ele>120.2</ele>
        <time>2023-09-10T08:55:35Z</time>
      </trkpt>
      <trkpt lat="46.50459" lon="0.37396">
        <ele>120.4</ele>
        <time>2023-09-10T08:55:37Z</time>
      </trkpt>
      <trkpt lat="46.50461" lon="0.37392">
        <ele>120.2</ele>
        <time>2023-09-10T08:55:38Z</time>
      </trkpt>
      <trkpt lat="46.5047" lon="0.37379">
        <ele>120.2</ele>
        <time>2023-09-10T08:55:41Z</time>
      </trkpt>
      <trkpt lat="46.50478" lon="0.37369">
        <ele>120</ele>
        <time>2023-09-10T08:55:43Z</time>
      </trkpt>
      <trkpt lat="46.5049" lon="0.37357">
        <ele>119.8</ele>
        <time>2023-09-10T08:55:46Z</time>
      </trkpt>
      <trkpt lat="46.50495" lon="0.3735">
        <ele>119.6</ele>
        <time>2023-09-10T08:55:48Z</time>
      </trkpt>
      <trkpt lat="46.50498" lon="0.37346">
        <ele>119.4</ele>
        <time>2023-09-10T08:55:49Z</time>
      </trkpt>
      <trkpt lat="46.50508" lon="0.37339">
        <ele>118.8</ele>
        <time>2023-09-10T08:55:51Z</time>
      </trkpt>
      <trkpt lat="46.50512" lon="0.37337">
        <ele>118.6</ele>
        <time>2023-09-10T08:55:52Z</time>
      </trkpt>
      <trkpt lat="46.50539" lon="0.37327">
        <ele>117.6</ele>
        <time>2023-09-10T08:55:58Z</time>
      </trkpt>
      <trkpt lat="46.50546" lon="0.37326">
        <ele>117.2</ele>
        <time>2023-09-10T08:55:59Z</time>
      </trkpt>
      <trkpt lat="46.50557" lon="0.37329">
        <ele>116</ele>
        <time>2023-09-10T08:56:01Z</time>
      </trkpt>
      <trkpt lat="46.50574" lon="0.37334">
        <ele>115</ele>
        <time>2023-09-10T08:56:03Z</time>
      </trkpt>
      <trkpt lat="46.50581" lon="0.37336">
        <ele>114.4</ele>
        <time>2023-09-10T08:56:04Z</time>
      </trkpt>
      <trkpt lat="46.50589" lon="0.37339">
        <ele>113.8</ele>
        <time>2023-09-10T08:56:05Z</time>
      </trkpt>
      <trkpt lat="46.50614" lon="0.37355">
        <ele>112.2</ele>
        <time>2023-09-10T08:56:08Z</time>
      </trkpt>
      <trkpt lat="46.50638" lon="0.3737">
        <ele>111.2</ele>
        <time>2023-09-10T08:56:11Z</time>
      </trkpt>
      <trkpt lat="46.50646" lon="0.37374">
        <ele>110.8</ele>
        <time>2023-09-10T08:56:12Z</time>
      </trkpt>
      <trkpt lat="46.50705" lon="0.37387">
        <ele>111.4</ele>
        <time>2023-09-10T08:56:16Z</time>
      </trkpt>
      <trkpt lat="46.50719" lon="0.37393">
        <ele>112</ele>
        <time>2023-09-10T08:56:18Z</time>
      </trkpt>
      <trkpt lat="46.50735" lon="0.37403">
        <ele>112.2</ele>
        <time>2023-09-10T08:56:21Z</time>
      </trkpt>
      <trkpt lat="46.50753" lon="0.37414">
        <ele>113.2</ele>
        <time>2023-09-10T08:56:25Z</time>
      </trkpt>
      <trkpt lat="46.50759" lon="0.37417">
        <ele>113.6</ele>
        <time>2023-09-10T08:56:26Z</time>
      </trkpt>
      <trkpt lat="46.50771" lon="0.37425">
        <ele>114.4</ele>
        <time>2023-09-10T08:56:29Z</time>
      </trkpt>
      <trkpt lat="46.50778" lon="0.37429">
        <ele>115</ele>
        <time>2023-09-10T08:56:31Z</time>
      </trkpt>
      <trkpt lat="46.50787" lon="0.37435">
        <ele>115.6</ele>
        <time>2023-09-10T08:56:34Z</time>
      </trkpt>
      <trkpt lat="46.5079" lon="0.37436">
        <ele>115.6</ele>
        <time>2023-09-10T08:56:35Z</time>
      </trkpt>
      <trkpt lat="46.50793" lon="0.37437">
        <ele>115.8</ele>
        <time>2023-09-10T08:56:36Z</time>
      </trkpt>
      <trkpt lat="46.50795" lon="0.37436">
        <ele>115.8</ele>
        <time>2023-09-10T08:56:37Z</time>
      </trkpt>
      <trkpt lat="46.50804" lon="0.37431">
        <ele>116.6</ele>
        <time>2023-09-10T08:56:41Z</time>
      </trkpt>
      <trkpt lat="46.50813" lon="0.37429">
        <ele>118</ele>
        <time>2023-09-10T08:56:44Z</time>
      </trkpt>
      <trkpt lat="46.50818" lon="0.3743">
        <ele>118.4</ele>
        <time>2023-09-10T08:56:46Z</time>
      </trkpt>
      <trkpt lat="46.50829" lon="0.37446">
        <ele>118.2</ele>
        <time>2023-09-10T08:56:50Z</time>
      </trkpt>
      <trkpt lat="46.50834" lon="0.37458">
        <ele>118</ele>
        <time>2023-09-10T08:56:52Z</time>
      </trkpt>
      <trkpt lat="46.50851" lon="0.37482">
        <ele>118</ele>
        <time>2023-09-10T08:56:56Z</time>
      </trkpt>
      <trkpt lat="46.50869" lon="0.37517">
        <ele>117</ele>
        <time>2023-09-10T08:57:02Z</time>
      </trkpt>
      <trkpt lat="46.50875" lon="0.37527">
        <ele>117</ele>
        <time>2023-09-10T08:57:04Z</time>
      </trkpt>
      <trkpt lat="46.50881" lon="0.37533">
        <ele>116.8</ele>
        <time>2023-09-10T08:57:06Z</time>
      </trkpt>
      <trkpt lat="46.50883" lon="0.37535">
        <ele>116.8</ele>
        <time>2023-09-10T08:57:07Z</time>
      </trkpt>
      <trkpt lat="46.50886" lon="0.37535">
        <ele>117</ele>
        <time>2023-09-10T08:57:08Z</time>
      </trkpt>
      <trkpt lat="46.50894" lon="0.37533">
        <ele>117.6</ele>
        <time>2023-09-10T08:57:11Z</time>
      </trkpt>
      <trkpt lat="46.50899" lon="0.37531">
        <ele>117.8</ele>
        <time>2023-09-10T08:57:13Z</time>
      </trkpt>
      <trkpt lat="46.50904" lon="0.37533">
        <ele>118.4</ele>
        <time>2023-09-10T08:57:15Z</time>
      </trkpt>
      <trkpt lat="46.50908" lon="0.37536">
        <ele>118.4</ele>
        <time>2023-09-10T08:57:16Z</time>
      </trkpt>
      <trkpt lat="46.50911" lon="0.37541">
        <ele>118.8</ele>
        <time>2023-09-10T08:57:17Z</time>
      </trkpt>
      <trkpt lat="46.50915" lon="0.37544">
        <ele>119</ele>
        <time>2023-09-10T08:57:18Z</time>
      </trkpt>
      <trkpt lat="46.50923" lon="0.37551">
        <ele>119.2</ele>
        <time>2023-09-10T08:57:20Z</time>
      </trkpt>
      <trkpt lat="46.50934" lon="0.37557">
        <ele>119.4</ele>
        <time>2023-09-10T08:57:23Z</time>
      </trkpt>
      <trkpt lat="46.50938" lon="0.3756">
        <ele>119.4</ele>
        <time>2023-09-10T08:57:25Z</time>
      </trkpt>
      <trkpt lat="46.5094" lon="0.37562">
        <ele>119.4</ele>
        <time>2023-09-10T08:57:26Z</time>
      </trkpt>
      <trkpt lat="46.50942" lon="0.37568">
        <ele>119.2</ele>
        <time>2023-09-10T08:57:28Z</time>
      </trkpt>
      <trkpt lat="46.50942" lon="0.37571">
        <ele>119.2</ele>
        <time>2023-09-10T08:57:29Z</time>
      </trkpt>
      <trkpt lat="46.50939" lon="0.37579">
        <ele>118.8</ele>
        <time>2023-09-10T08:57:32Z</time>
      </trkpt>
      <trkpt lat="46.50935" lon="0.37585">
        <ele>118.6</ele>
        <time>2023-09-10T08:57:34Z</time>
      </trkpt>
      <trkpt lat="46.50921" lon="0.37602">
        <ele>118</ele>
        <time>2023-09-10T08:57:39Z</time>
      </trkpt>
      <trkpt lat="46.50918" lon="0.37604">
        <ele>118</ele>
        <time>2023-09-10T08:57:40Z</time>
      </trkpt>
      <trkpt lat="46.50912" lon="0.37614">
        <ele>117.6</ele>
        <time>2023-09-10T08:57:43Z</time>
      </trkpt>
      <trkpt lat="46.50905" lon="0.37622">
        <ele>116.4</ele>
        <time>2023-09-10T08:57:45Z</time>
      </trkpt>
      <trkpt lat="46.50898" lon="0.37633">
        <ele>115.4</ele>
        <time>2023-09-10T08:57:47Z</time>
      </trkpt>
      <trkpt lat="46.50891" lon="0.37645">
        <ele>114.6</ele>
        <time>2023-09-10T08:57:49Z</time>
      </trkpt>
      <trkpt lat="46.50889" lon="0.37652">
        <ele>113.8</ele>
        <time>2023-09-10T08:57:50Z</time>
      </trkpt>
      <trkpt lat="46.50883" lon="0.37668">
        <ele>112.6</ele>
        <time>2023-09-10T08:57:52Z</time>
      </trkpt>
      <trkpt lat="46.50875" lon="0.37689">
        <ele>111.6</ele>
        <time>2023-09-10T08:57:55Z</time>
      </trkpt>
      <trkpt lat="46.50866" lon="0.37707">
        <ele>109.8</ele>
        <time>2023-09-10T08:57:58Z</time>
      </trkpt>
      <trkpt lat="46.5086" lon="0.37719">
        <ele>108.6</ele>
        <time>2023-09-10T08:58:00Z</time>
      </trkpt>
      <trkpt lat="46.50858" lon="0.37725">
        <ele>107.6</ele>
        <time>2023-09-10T08:58:01Z</time>
      </trkpt>
      <trkpt lat="46.50854" lon="0.37732">
        <ele>106.8</ele>
        <time>2023-09-10T08:58:02Z</time>
      </trkpt>
      <trkpt lat="46.50847" lon="0.37746">
        <ele>105.6</ele>
        <time>2023-09-10T08:58:04Z</time>
      </trkpt>
      <trkpt lat="46.50843" lon="0.37754">
        <ele>104.2</ele>
        <time>2023-09-10T08:58:05Z</time>
      </trkpt>
      <trkpt lat="46.5084" lon="0.37762">
        <ele>103</ele>
        <time>2023-09-10T08:58:06Z</time>
      </trkpt>
      <trkpt lat="46.50836" lon="0.37767">
        <ele>102.2</ele>
        <time>2023-09-10T08:58:07Z</time>
      </trkpt>
      <trkpt lat="46.50832" lon="0.37772">
        <ele>101.8</ele>
        <time>2023-09-10T08:58:08Z</time>
      </trkpt>
      <trkpt lat="46.50825" lon="0.37782">
        <ele>101</ele>
        <time>2023-09-10T08:58:10Z</time>
      </trkpt>
      <trkpt lat="46.50817" lon="0.37789">
        <ele>101.6</ele>
        <time>2023-09-10T08:58:12Z</time>
      </trkpt>
      <trkpt lat="46.50803" lon="0.37802">
        <ele>103.2</ele>
        <time>2023-09-10T08:58:17Z</time>
      </trkpt>
      <trkpt lat="46.50799" lon="0.37805">
        <ele>103.8</ele>
        <time>2023-09-10T08:58:18Z</time>
      </trkpt>
      <trkpt lat="46.50795" lon="0.37807">
        <ele>104.2</ele>
        <time>2023-09-10T08:58:19Z</time>
      </trkpt>
      <trkpt lat="46.50786" lon="0.37811">
        <ele>104.8</ele>
        <time>2023-09-10T08:58:21Z</time>
      </trkpt>
      <trkpt lat="46.50773" lon="0.37813">
        <ele>105.2</ele>
        <time>2023-09-10T08:58:24Z</time>
      </trkpt>
      <trkpt lat="46.50769" lon="0.37812">
        <ele>105.2</ele>
        <time>2023-09-10T08:58:25Z</time>
      </trkpt>
      <trkpt lat="46.50758" lon="0.37809">
        <ele>104.8</ele>
        <time>2023-09-10T08:58:28Z</time>
      </trkpt>
      <trkpt lat="46.50751" lon="0.37809">
        <ele>104.4</ele>
        <time>2023-09-10T08:58:30Z</time>
      </trkpt>
      <trkpt lat="46.50747" lon="0.3781">
        <ele>104.4</ele>
        <time>2023-09-10T08:58:31Z</time>
      </trkpt>
      <trkpt lat="46.50743" lon="0.3781">
        <ele>104.6</ele>
        <time>2023-09-10T08:58:32Z</time>
      </trkpt>
      <trkpt lat="46.50731" lon="0.37813">
        <ele>104.6</ele>
        <time>2023-09-10T08:58:35Z</time>
      </trkpt>
      <trkpt lat="46.50723" lon="0.37811">
        <ele>104.8</ele>
        <time>2023-09-10T08:58:37Z</time>
      </trkpt>
      <trkpt lat="46.50711" lon="0.37804">
        <ele>104.6</ele>
        <time>2023-09-10T08:58:40Z</time>
      </trkpt>
      <trkpt lat="46.50698" lon="0.37799">
        <ele>104.8</ele>
        <time>2023-09-10T08:58:43Z</time>
      </trkpt>
      <trkpt lat="46.50686" lon="0.37791">
        <ele>105.2</ele>
        <time>2023-09-10T08:58:46Z</time>
      </trkpt>
      <trkpt lat="46.50681" lon="0.37789">
        <ele>105.6</ele>
        <time>2023-09-10T08:58:47Z</time>
      </trkpt>
      <trkpt lat="46.50678" lon="0.37789">
        <ele>105.8</ele>
        <time>2023-09-10T08:58:48Z</time>
      </trkpt>
      <trkpt lat="46.50671" lon="0.37785">
        <ele>106.2</ele>
        <time>2023-09-10T08:58:50Z</time>
      </trkpt>
      <trkpt lat="46.50658" lon="0.3778">
        <ele>106.8</ele>
        <time>2023-09-10T08:58:53Z</time>
      </trkpt>
      <trkpt lat="46.50653" lon="0.37778">
        <ele>107</ele>
        <time>2023-09-10T08:58:54Z</time>
      </trkpt>
      <trkpt lat="46.50642" lon="0.37774">
        <ele>108.2</ele>
        <time>2023-09-10T08:58:56Z</time>
      </trkpt>
      <trkpt lat="46.50627" lon="0.37767">
        <ele>109.2</ele>
        <time>2023-09-10T08:58:59Z</time>
      </trkpt>
      <trkpt lat="46.50619" lon="0.37762">
        <ele>109.4</ele>
        <time>2023-09-10T08:59:01Z</time>
      </trkpt>
      <trkpt lat="46.50611" lon="0.37756">
        <ele>109.8</ele>
        <time>2023-09-10T08:59:03Z</time>
      </trkpt>
      <trkpt lat="46.506" lon="0.37751">
        <ele>110.6</ele>
        <time>2023-09-10T08:59:05Z</time>
      </trkpt>
      <trkpt lat="46.50594" lon="0.37748">
        <ele>111</ele>
        <time>2023-09-10T08:59:06Z</time>
      </trkpt>
      <trkpt lat="46.50584" lon="0.37742">
        <ele>111.6</ele>
        <time>2023-09-10T08:59:08Z</time>
      </trkpt>
      <trkpt lat="46.50565" lon="0.3773">
        <ele>112.6</ele>
        <time>2023-09-10T08:59:12Z</time>
      </trkpt>
      <trkpt lat="46.50555" lon="0.37726">
        <ele>113</ele>
        <time>2023-09-10T08:59:14Z</time>
      </trkpt>
      <trkpt lat="46.50546" lon="0.37724">
        <ele>113.8</ele>
        <time>2023-09-10T08:59:17Z</time>
      </trkpt>
      <trkpt lat="46.50543" lon="0.37724">
        <ele>114</ele>
        <time>2023-09-10T08:59:18Z</time>
      </trkpt>
      <trkpt lat="46.5053" lon="0.37723">
        <ele>114.8</ele>
        <time>2023-09-10T08:59:23Z</time>
      </trkpt>
      <trkpt lat="46.50527" lon="0.37723">
        <ele>115.2</ele>
        <time>2023-09-10T08:59:25Z</time>
      </trkpt>
      <trkpt lat="46.50519" lon="0.37724">
        <ele>115.6</ele>
        <time>2023-09-10T08:59:29Z</time>
      </trkpt>
      <trkpt lat="46.50512" lon="0.37722">
        <ele>116</ele>
        <time>2023-09-10T08:59:32Z</time>
      </trkpt>
      <trkpt lat="46.5051" lon="0.37722">
        <ele>116</ele>
        <time>2023-09-10T08:59:33Z</time>
      </trkpt>
      <trkpt lat="46.50494" lon="0.3772">
        <ele>116.4</ele>
        <time>2023-09-10T08:59:43Z</time>
      </trkpt>
      <trkpt lat="46.50493" lon="0.37722">
        <ele>116.4</ele>
        <time>2023-09-10T08:59:44Z</time>
      </trkpt>
      <trkpt lat="46.50491" lon="0.37728">
        <ele>116.8</ele>
        <time>2023-09-10T08:59:47Z</time>
      </trkpt>
      <trkpt lat="46.5049" lon="0.37732">
        <ele>117</ele>
        <time>2023-09-10T08:59:49Z</time>
      </trkpt>
      <trkpt lat="46.50485" lon="0.3775">
        <ele>117.8</ele>
        <time>2023-09-10T08:59:56Z</time>
      </trkpt>
      <trkpt lat="46.50484" lon="0.37758">
        <ele>118.2</ele>
        <time>2023-09-10T08:59:59Z</time>
      </trkpt>
      <trkpt lat="46.50481" lon="0.37772">
        <ele>118.2</ele>
        <time>2023-09-10T09:00:03Z</time>
      </trkpt>
      <trkpt lat="46.50479" lon="0.37793">
        <ele>118.6</ele>
        <time>2023-09-10T09:00:09Z</time>
      </trkpt>
      <trkpt lat="46.50479" lon="0.37805">
        <ele>118.8</ele>
        <time>2023-09-10T09:00:12Z</time>
      </trkpt>
      <trkpt lat="46.5048" lon="0.37813">
        <ele>118.8</ele>
        <time>2023-09-10T09:00:14Z</time>
      </trkpt>
      <trkpt lat="46.50485" lon="0.37831">
        <ele>119</ele>
        <time>2023-09-10T09:00:18Z</time>
      </trkpt>
      <trkpt lat="46.50487" lon="0.37838">
        <ele>119</ele>
        <time>2023-09-10T09:00:19Z</time>
      </trkpt>
      <trkpt lat="46.5049" lon="0.37871">
        <ele>118.8</ele>
        <time>2023-09-10T09:00:24Z</time>
      </trkpt>
      <trkpt lat="46.50489" lon="0.37899">
        <ele>119.2</ele>
        <time>2023-09-10T09:00:29Z</time>
      </trkpt>
      <trkpt lat="46.50489" lon="0.37904">
        <ele>119.4</ele>
        <time>2023-09-10T09:00:30Z</time>
      </trkpt>
      <trkpt lat="46.50488" lon="0.37913">
        <ele>119.4</ele>
        <time>2023-09-10T09:00:32Z</time>
      </trkpt>
      <trkpt lat="46.5049" lon="0.37921">
        <ele>119.6</ele>
        <time>2023-09-10T09:00:34Z</time>
      </trkpt>
      <trkpt lat="46.50496" lon="0.37954">
        <ele>120.2</ele>
        <time>2023-09-10T09:00:40Z</time>
      </trkpt>
      <trkpt lat="46.50497" lon="0.37959">
        <ele>120.2</ele>
        <time>2023-09-10T09:00:41Z</time>
      </trkpt>
      <trkpt lat="46.505" lon="0.37977">
        <ele>120.4</ele>
        <time>2023-09-10T09:00:44Z</time>
      </trkpt>
      <trkpt lat="46.50501" lon="0.38">
        <ele>120.4</ele>
        <time>2023-09-10T09:00:48Z</time>
      </trkpt>
      <trkpt lat="46.50502" lon="0.38014">
        <ele>120.6</ele>
        <time>2023-09-10T09:00:50Z</time>
      </trkpt>
      <trkpt lat="46.50505" lon="0.38034">
        <ele>120.6</ele>
        <time>2023-09-10T09:00:53Z</time>
      </trkpt>
      <trkpt lat="46.50506" lon="0.38041">
        <ele>120.6</ele>
        <time>2023-09-10T09:00:54Z</time>
      </trkpt>
      <trkpt lat="46.50505" lon="0.38046">
        <ele>120.6</ele>
        <time>2023-09-10T09:00:55Z</time>
      </trkpt>
      <trkpt lat="46.50502" lon="0.38056">
        <ele>120.8</ele>
        <time>2023-09-10T09:00:57Z</time>
      </trkpt>
      <trkpt lat="46.50499" lon="0.3806">
        <ele>120.8</ele>
        <time>2023-09-10T09:00:58Z</time>
      </trkpt>
      <trkpt lat="46.50494" lon="0.38071">
        <ele>120.8</ele>
        <time>2023-09-10T09:01:01Z</time>
      </trkpt>
      <trkpt lat="46.50487" lon="0.38075">
        <ele>120.8</ele>
        <time>2023-09-10T09:01:03Z</time>
      </trkpt>
      <trkpt lat="46.50476" lon="0.38077">
        <ele>121</ele>
        <time>2023-09-10T09:01:06Z</time>
      </trkpt>
      <trkpt lat="46.50466" lon="0.38078">
        <ele>121.2</ele>
        <time>2023-09-10T09:01:09Z</time>
      </trkpt>
      <trkpt lat="46.50466" lon="0.38078">
        <ele>121.6</ele>
        <time>2023-09-10T09:01:10Z</time>
      </trkpt>
      <trkpt lat="46.50457" lon="0.38077">
        <ele>121.6</ele>
        <time>2023-09-10T09:01:12Z</time>
      </trkpt>
      <trkpt lat="46.50452" lon="0.38076">
        <ele>121.8</ele>
        <time>2023-09-10T09:01:14Z</time>
      </trkpt>
      <trkpt lat="46.50447" lon="0.38074">
        <ele>122</ele>
        <time>2023-09-10T09:01:16Z</time>
      </trkpt>
      <trkpt lat="46.50436" lon="0.38067">
        <ele>122.4</ele>
        <time>2023-09-10T09:01:20Z</time>
      </trkpt>
      <trkpt lat="46.50433" lon="0.38065">
        <ele>122.6</ele>
        <time>2023-09-10T09:01:21Z</time>
      </trkpt>
      <trkpt lat="46.50431" lon="0.38064">
        <ele>122.6</ele>
        <time>2023-09-10T09:01:22Z</time>
      </trkpt>
      <trkpt lat="46.50411" lon="0.38053">
        <ele>123</ele>
        <time>2023-09-10T09:01:29Z</time>
      </trkpt>
      <trkpt lat="46.50409" lon="0.38053">
        <ele>123</ele>
        <time>2023-09-10T09:01:30Z</time>
      </trkpt>
      <trkpt lat="46.50402" lon="0.38058">
        <ele>123.2</ele>
        <time>2023-09-10T09:01:34Z</time>
      </trkpt>
      <trkpt lat="46.50386" lon="0.38064">
        <ele>123.4</ele>
        <time>2023-09-10T09:01:39Z</time>
      </trkpt>
      <trkpt lat="46.50383" lon="0.38066">
        <ele>123.4</ele>
        <time>2023-09-10T09:01:40Z</time>
      </trkpt>
      <trkpt lat="46.5038" lon="0.38069">
        <ele>123.4</ele>
        <time>2023-09-10T09:01:41Z</time>
      </trkpt>
      <trkpt lat="46.50372" lon="0.38077">
        <ele>123.6</ele>
        <time>2023-09-10T09:01:44Z</time>
      </trkpt>
      <trkpt lat="46.50369" lon="0.38081">
        <ele>123.6</ele>
        <time>2023-09-10T09:01:45Z</time>
      </trkpt>
      <trkpt lat="46.50366" lon="0.38084">
        <ele>123.6</ele>
        <time>2023-09-10T09:01:46Z</time>
      </trkpt>
      <trkpt lat="46.50357" lon="0.38095">
        <ele>123.6</ele>
        <time>2023-09-10T09:01:49Z</time>
      </trkpt>
      <trkpt lat="46.50349" lon="0.38099">
        <ele>123.6</ele>
        <time>2023-09-10T09:01:51Z</time>
      </trkpt>
      <trkpt lat="46.50344" lon="0.38102">
        <ele>123.6</ele>
        <time>2023-09-10T09:01:52Z</time>
      </trkpt>
      <trkpt lat="46.50311" lon="0.38116">
        <ele>123.6</ele>
        <time>2023-09-10T09:01:57Z</time>
      </trkpt>
      <trkpt lat="46.50305" lon="0.38118">
        <ele>123.8</ele>
        <time>2023-09-10T09:01:58Z</time>
      </trkpt>
      <trkpt lat="46.50296" lon="0.38123">
        <ele>123.8</ele>
        <time>2023-09-10T09:02:00Z</time>
      </trkpt>
      <trkpt lat="46.50291" lon="0.38125">
        <ele>123.8</ele>
        <time>2023-09-10T09:02:01Z</time>
      </trkpt>
      <trkpt lat="46.50288" lon="0.38129">
        <ele>124</ele>
        <time>2023-09-10T09:02:02Z</time>
      </trkpt>
      <trkpt lat="46.50269" lon="0.38147">
        <ele>123.4</ele>
        <time>2023-09-10T09:02:07Z</time>
      </trkpt>
      <trkpt lat="46.50264" lon="0.38154">
        <ele>122.8</ele>
        <time>2023-09-10T09:02:09Z</time>
      </trkpt>
      <trkpt lat="46.5026" lon="0.3816">
        <ele>122.6</ele>
        <time>2023-09-10T09:02:11Z</time>
      </trkpt>
      <trkpt lat="46.5026" lon="0.38162">
        <ele>122.4</ele>
        <time>2023-09-10T09:02:12Z</time>
      </trkpt>
      <trkpt lat="46.50265" lon="0.38174">
        <ele>122.2</ele>
        <time>2023-09-10T09:02:16Z</time>
      </trkpt>
      <trkpt lat="46.50267" lon="0.3818">
        <ele>122.2</ele>
        <time>2023-09-10T09:02:17Z</time>
      </trkpt>
      <trkpt lat="46.50275" lon="0.38204">
        <ele>122.2</ele>
        <time>2023-09-10T09:02:21Z</time>
      </trkpt>
      <trkpt lat="46.50288" lon="0.38228">
        <ele>122</ele>
        <time>2023-09-10T09:02:25Z</time>
      </trkpt>
      <trkpt lat="46.50296" lon="0.38238">
        <ele>122</ele>
        <time>2023-09-10T09:02:27Z</time>
      </trkpt>
      <trkpt lat="46.50324" lon="0.38272">
        <ele>121.4</ele>
        <time>2023-09-10T09:02:34Z</time>
      </trkpt>
      <trkpt lat="46.50329" lon="0.38281">
        <ele>121.4</ele>
        <time>2023-09-10T09:02:36Z</time>
      </trkpt>
      <trkpt lat="46.50331" lon="0.38292">
        <ele>121.2</ele>
        <time>2023-09-10T09:02:38Z</time>
      </trkpt>
      <trkpt lat="46.50332" lon="0.38309">
        <ele>120.4</ele>
        <time>2023-09-10T09:02:41Z</time>
      </trkpt>
      <trkpt lat="46.50332" lon="0.38316">
        <ele>120.2</ele>
        <time>2023-09-10T09:02:42Z</time>
      </trkpt>
      <trkpt lat="46.50331" lon="0.38332">
        <ele>120</ele>
        <time>2023-09-10T09:02:44Z</time>
      </trkpt>
      <trkpt lat="46.50332" lon="0.3838">
        <ele>119.2</ele>
        <time>2023-09-10T09:02:49Z</time>
      </trkpt>
      <trkpt lat="46.50332" lon="0.38391">
        <ele>118.8</ele>
        <time>2023-09-10T09:02:50Z</time>
      </trkpt>
      <trkpt lat="46.50334" lon="0.38421">
        <ele>117.8</ele>
        <time>2023-09-10T09:02:53Z</time>
      </trkpt>
      <trkpt lat="46.50336" lon="0.38447">
        <ele>117</ele>
        <time>2023-09-10T09:02:56Z</time>
      </trkpt>
      <trkpt lat="46.50336" lon="0.38474">
        <ele>116.6</ele>
        <time>2023-09-10T09:02:59Z</time>
      </trkpt>
      <trkpt lat="46.50337" lon="0.38502">
        <ele>116.4</ele>
        <time>2023-09-10T09:03:02Z</time>
      </trkpt>
      <trkpt lat="46.50335" lon="0.38538">
        <ele>116.4</ele>
        <time>2023-09-10T09:03:06Z</time>
      </trkpt>
      <trkpt lat="46.50333" lon="0.38551">
        <ele>116.6</ele>
        <time>2023-09-10T09:03:08Z</time>
      </trkpt>
      <trkpt lat="46.50325" lon="0.38584">
        <ele>116.6</ele>
        <time>2023-09-10T09:03:13Z</time>
      </trkpt>
      <trkpt lat="46.50323" lon="0.38591">
        <ele>116.6</ele>
        <time>2023-09-10T09:03:14Z</time>
      </trkpt>
      <trkpt lat="46.50314" lon="0.38648">
        <ele>115.8</ele>
        <time>2023-09-10T09:03:21Z</time>
      </trkpt>
      <trkpt lat="46.50314" lon="0.38664">
        <ele>115.6</ele>
        <time>2023-09-10T09:03:23Z</time>
      </trkpt>
      <trkpt lat="46.50313" lon="0.38693">
        <ele>115</ele>
        <time>2023-09-10T09:03:27Z</time>
      </trkpt>
      <trkpt lat="46.50312" lon="0.38711">
        <ele>114.6</ele>
        <time>2023-09-10T09:03:29Z</time>
      </trkpt>
      <trkpt lat="46.50315" lon="0.3874">
        <ele>114.2</ele>
        <time>2023-09-10T09:03:32Z</time>
      </trkpt>
      <trkpt lat="46.50319" lon="0.38802">
        <ele>114</ele>
        <time>2023-09-10T09:03:38Z</time>
      </trkpt>
      <trkpt lat="46.50306" lon="0.38854">
        <ele>113.2</ele>
        <time>2023-09-10T09:03:44Z</time>
      </trkpt>
      <trkpt lat="46.50302" lon="0.38865">
        <ele>112.8</ele>
        <time>2023-09-10T09:03:45Z</time>
      </trkpt>
      <trkpt lat="46.50286" lon="0.38886">
        <ele>112</ele>
        <time>2023-09-10T09:03:47Z</time>
      </trkpt>
      <trkpt lat="46.50285" lon="0.38909">
        <ele>111.4</ele>
        <time>2023-09-10T09:03:49Z</time>
      </trkpt>
      <trkpt lat="46.50281" lon="0.38943">
        <ele>111</ele>
        <time>2023-09-10T09:03:52Z</time>
      </trkpt>
      <trkpt lat="46.50277" lon="0.38974">
        <ele>110.6</ele>
        <time>2023-09-10T09:03:55Z</time>
      </trkpt>
      <trkpt lat="46.50276" lon="0.39023">
        <ele>109.4</ele>
        <time>2023-09-10T09:04:00Z</time>
      </trkpt>
      <trkpt lat="46.50276" lon="0.39043">
        <ele>108.8</ele>
        <time>2023-09-10T09:04:02Z</time>
      </trkpt>
      <trkpt lat="46.50275" lon="0.39063">
        <ele>108</ele>
        <time>2023-09-10T09:04:04Z</time>
      </trkpt>
      <trkpt lat="46.50274" lon="0.39096">
        <ele>106.6</ele>
        <time>2023-09-10T09:04:07Z</time>
      </trkpt>
      <trkpt lat="46.50273" lon="0.39105">
        <ele>106.4</ele>
        <time>2023-09-10T09:04:08Z</time>
      </trkpt>
      <trkpt lat="46.50272" lon="0.39139">
        <ele>105.2</ele>
        <time>2023-09-10T09:04:11Z</time>
      </trkpt>
      <trkpt lat="46.50287" lon="0.39179">
        <ele>104.2</ele>
        <time>2023-09-10T09:04:14Z</time>
      </trkpt>
      <trkpt lat="46.50287" lon="0.39202">
        <ele>102.8</ele>
        <time>2023-09-10T09:04:16Z</time>
      </trkpt>
      <trkpt lat="46.5029" lon="0.39223">
        <ele>102.2</ele>
        <time>2023-09-10T09:04:18Z</time>
      </trkpt>
      <trkpt lat="46.50295" lon="0.3925">
        <ele>101.6</ele>
        <time>2023-09-10T09:04:20Z</time>
      </trkpt>
      <trkpt lat="46.50305" lon="0.39284">
        <ele>100.2</ele>
        <time>2023-09-10T09:04:23Z</time>
      </trkpt>
      <trkpt lat="46.5032" lon="0.3931">
        <ele>99</ele>
        <time>2023-09-10T09:04:25Z</time>
      </trkpt>
      <trkpt lat="46.50332" lon="0.39331">
        <ele>98.2</ele>
        <time>2023-09-10T09:04:27Z</time>
      </trkpt>
      <trkpt lat="46.50339" lon="0.39338">
        <ele>97.8</ele>
        <time>2023-09-10T09:04:28Z</time>
      </trkpt>
      <trkpt lat="46.50345" lon="0.39344">
        <ele>97.4</ele>
        <time>2023-09-10T09:04:29Z</time>
      </trkpt>
      <trkpt lat="46.50358" lon="0.39356">
        <ele>96.8</ele>
        <time>2023-09-10T09:04:31Z</time>
      </trkpt>
      <trkpt lat="46.50365" lon="0.39362">
        <ele>96.8</ele>
        <time>2023-09-10T09:04:32Z</time>
      </trkpt>
      <trkpt lat="46.50396" lon="0.39393">
        <ele>95.6</ele>
        <time>2023-09-10T09:04:37Z</time>
      </trkpt>
      <trkpt lat="46.50407" lon="0.39402">
        <ele>95.2</ele>
        <time>2023-09-10T09:04:39Z</time>
      </trkpt>
      <trkpt lat="46.50417" lon="0.39414">
        <ele>94.8</ele>
        <time>2023-09-10T09:04:41Z</time>
      </trkpt>
      <trkpt lat="46.50423" lon="0.39422">
        <ele>94.4</ele>
        <time>2023-09-10T09:04:42Z</time>
      </trkpt>
      <trkpt lat="46.50428" lon="0.39431">
        <ele>94</ele>
        <time>2023-09-10T09:04:43Z</time>
      </trkpt>
      <trkpt lat="46.50433" lon="0.39442">
        <ele>93.8</ele>
        <time>2023-09-10T09:04:44Z</time>
      </trkpt>
      <trkpt lat="46.50438" lon="0.39459">
        <ele>93.2</ele>
        <time>2023-09-10T09:04:46Z</time>
      </trkpt>
      <trkpt lat="46.50439" lon="0.39467">
        <ele>92.8</ele>
        <time>2023-09-10T09:04:47Z</time>
      </trkpt>
      <trkpt lat="46.50438" lon="0.39477">
        <ele>92.6</ele>
        <time>2023-09-10T09:04:49Z</time>
      </trkpt>
      <trkpt lat="46.50437" lon="0.39483">
        <ele>92.6</ele>
        <time>2023-09-10T09:04:50Z</time>
      </trkpt>
      <trkpt lat="46.50437" lon="0.39505">
        <ele>92.6</ele>
        <time>2023-09-10T09:04:53Z</time>
      </trkpt>
      <trkpt lat="46.50437" lon="0.39519">
        <ele>92.8</ele>
        <time>2023-09-10T09:04:55Z</time>
      </trkpt>
      <trkpt lat="46.50438" lon="0.39524">
        <ele>92.8</ele>
        <time>2023-09-10T09:04:56Z</time>
      </trkpt>
      <trkpt lat="46.5044" lon="0.39549">
        <ele>93.2</ele>
        <time>2023-09-10T09:05:01Z</time>
      </trkpt>
      <trkpt lat="46.50448" lon="0.39599">
        <ele>93.4</ele>
        <time>2023-09-10T09:05:08Z</time>
      </trkpt>
      <trkpt lat="46.50452" lon="0.39606">
        <ele>93.2</ele>
        <time>2023-09-10T09:05:09Z</time>
      </trkpt>
      <trkpt lat="46.50457" lon="0.39618">
        <ele>93.2</ele>
        <time>2023-09-10T09:05:11Z</time>
      </trkpt>
      <trkpt lat="46.50459" lon="0.39625">
        <ele>93</ele>
        <time>2023-09-10T09:05:12Z</time>
      </trkpt>
      <trkpt lat="46.50463" lon="0.39631">
        <ele>93</ele>
        <time>2023-09-10T09:05:13Z</time>
      </trkpt>
      <trkpt lat="46.50474" lon="0.39664">
        <ele>93</ele>
        <time>2023-09-10T09:05:18Z</time>
      </trkpt>
      <trkpt lat="46.50475" lon="0.39677">
        <ele>93</ele>
        <time>2023-09-10T09:05:20Z</time>
      </trkpt>
      <trkpt lat="46.5048" lon="0.39686">
        <ele>93</ele>
        <time>2023-09-10T09:05:22Z</time>
      </trkpt>
      <trkpt lat="46.50497" lon="0.39706">
        <ele>92.6</ele>
        <time>2023-09-10T09:05:27Z</time>
      </trkpt>
      <trkpt lat="46.5051" lon="0.39717">
        <ele>92</ele>
        <time>2023-09-10T09:05:30Z</time>
      </trkpt>
      <trkpt lat="46.50515" lon="0.3972">
        <ele>92</ele>
        <time>2023-09-10T09:05:31Z</time>
      </trkpt>
      <trkpt lat="46.50524" lon="0.39724">
        <ele>92</ele>
        <time>2023-09-10T09:05:33Z</time>
      </trkpt>
      <trkpt lat="46.50539" lon="0.39729">
        <ele>92</ele>
        <time>2023-09-10T09:05:36Z</time>
      </trkpt>
      <trkpt lat="46.50549" lon="0.39735">
        <ele>91.8</ele>
        <time>2023-09-10T09:05:38Z</time>
      </trkpt>
      <trkpt lat="46.50576" lon="0.39744">
        <ele>91.2</ele>
        <time>2023-09-10T09:05:44Z</time>
      </trkpt>
      <trkpt lat="46.50586" lon="0.39746">
        <ele>91</ele>
        <time>2023-09-10T09:05:46Z</time>
      </trkpt>
      <trkpt lat="46.50605" lon="0.39748">
        <ele>90.8</ele>
        <time>2023-09-10T09:05:50Z</time>
      </trkpt>
      <trkpt lat="46.5061" lon="0.39749">
        <ele>90.8</ele>
        <time>2023-09-10T09:05:51Z</time>
      </trkpt>
      <trkpt lat="46.50631" lon="0.39755">
        <ele>90.4</ele>
        <time>2023-09-10T09:05:56Z</time>
      </trkpt>
      <trkpt lat="46.50654" lon="0.39754">
        <ele>90.4</ele>
        <time>2023-09-10T09:06:01Z</time>
      </trkpt>
      <trkpt lat="46.50662" lon="0.39752">
        <ele>90.4</ele>
        <time>2023-09-10T09:06:03Z</time>
      </trkpt>
      <trkpt lat="46.50667" lon="0.3975">
        <ele>90.2</ele>
        <time>2023-09-10T09:06:05Z</time>
      </trkpt>
      <trkpt lat="46.50672" lon="0.39752">
        <ele>90.2</ele>
        <time>2023-09-10T09:06:07Z</time>
      </trkpt>
      <trkpt lat="46.50679" lon="0.39752">
        <ele>90.2</ele>
        <time>2023-09-10T09:06:09Z</time>
      </trkpt>
      <trkpt lat="46.50685" lon="0.39751">
        <ele>90.4</ele>
        <time>2023-09-10T09:06:11Z</time>
      </trkpt>
      <trkpt lat="46.50695" lon="0.39751">
        <ele>90.6</ele>
        <time>2023-09-10T09:06:14Z</time>
      </trkpt>
      <trkpt lat="46.50703" lon="0.39749">
        <ele>90.8</ele>
        <time>2023-09-10T09:06:18Z</time>
      </trkpt>
      <trkpt lat="46.50714" lon="0.39745">
        <ele>90.6</ele>
        <time>2023-09-10T09:06:24Z</time>
      </trkpt>
      <trkpt lat="46.50729" lon="0.39739">
        <ele>91</ele>
        <time>2023-09-10T09:06:30Z</time>
      </trkpt>
      <trkpt lat="46.50747" lon="0.39735">
        <ele>90.8</ele>
        <time>2023-09-10T09:06:36Z</time>
      </trkpt>
      <trkpt lat="46.5076" lon="0.39736">
        <ele>90.6</ele>
        <time>2023-09-10T09:06:40Z</time>
      </trkpt>
      <trkpt lat="46.50763" lon="0.39737">
        <ele>90.6</ele>
        <time>2023-09-10T09:06:41Z</time>
      </trkpt>
      <trkpt lat="46.50782" lon="0.39744">
        <ele>91.4</ele>
        <time>2023-09-10T09:06:45Z</time>
      </trkpt>
      <trkpt lat="46.50785" lon="0.39744">
        <ele>91.4</ele>
        <time>2023-09-10T09:06:46Z</time>
      </trkpt>
      <trkpt lat="46.50799" lon="0.3975">
        <ele>91.8</ele>
        <time>2023-09-10T09:06:50Z</time>
      </trkpt>
      <trkpt lat="46.50802" lon="0.39752">
        <ele>91.8</ele>
        <time>2023-09-10T09:06:51Z</time>
      </trkpt>
      <trkpt lat="46.50804" lon="0.39758">
        <ele>92</ele>
        <time>2023-09-10T09:06:54Z</time>
      </trkpt>
      <trkpt lat="46.50804" lon="0.39759">
        <ele>92.2</ele>
        <time>2023-09-10T09:06:55Z</time>
      </trkpt>
      <trkpt lat="46.50804" lon="0.3976">
        <ele>92.6</ele>
        <time>2023-09-10T09:06:56Z</time>
      </trkpt>
      <trkpt lat="46.508" lon="0.39764">
        <ele>93.4</ele>
        <time>2023-09-10T09:07:00Z</time>
      </trkpt>
      <trkpt lat="46.50798" lon="0.39766">
        <ele>93.6</ele>
        <time>2023-09-10T09:07:02Z</time>
      </trkpt>
      <trkpt lat="46.50799" lon="0.3977">
        <ele>94.4</ele>
        <time>2023-09-10T09:07:05Z</time>
      </trkpt>
      <trkpt lat="46.50797" lon="0.39782">
        <ele>95.4</ele>
        <time>2023-09-10T09:07:10Z</time>
      </trkpt>
      <trkpt lat="46.50797" lon="0.39784">
        <ele>95.6</ele>
        <time>2023-09-10T09:07:11Z</time>
      </trkpt>
      <trkpt lat="46.50792" lon="0.398">
        <ele>96.8</ele>
        <time>2023-09-10T09:07:15Z</time>
      </trkpt>
      <trkpt lat="46.50791" lon="0.39804">
        <ele>97</ele>
        <time>2023-09-10T09:07:16Z</time>
      </trkpt>
      <trkpt lat="46.50788" lon="0.39816">
        <ele>97.8</ele>
        <time>2023-09-10T09:07:19Z</time>
      </trkpt>
      <trkpt lat="46.50786" lon="0.39832">
        <ele>98.4</ele>
        <time>2023-09-10T09:07:23Z</time>
      </trkpt>
      <trkpt lat="46.50785" lon="0.3984">
        <ele>98.8</ele>
        <time>2023-09-10T09:07:25Z</time>
      </trkpt>
      <trkpt lat="46.5078" lon="0.39866">
        <ele>99.6</ele>
        <time>2023-09-10T09:07:31Z</time>
      </trkpt>
      <trkpt lat="46.50774" lon="0.39886">
        <ele>99.8</ele>
        <time>2023-09-10T09:07:36Z</time>
      </trkpt>
      <trkpt lat="46.50771" lon="0.39893">
        <ele>100</ele>
        <time>2023-09-10T09:07:38Z</time>
      </trkpt>
      <trkpt lat="46.50766" lon="0.3992">
        <ele>100.6</ele>
        <time>2023-09-10T09:07:45Z</time>
      </trkpt>
      <trkpt lat="46.50762" lon="0.39932">
        <ele>101</ele>
        <time>2023-09-10T09:07:48Z</time>
      </trkpt>
      <trkpt lat="46.50756" lon="0.39954">
        <ele>101.8</ele>
        <time>2023-09-10T09:07:52Z</time>
      </trkpt>
      <trkpt lat="46.50748" lon="0.39992">
        <ele>101.8</ele>
        <time>2023-09-10T09:07:59Z</time>
      </trkpt>
      <trkpt lat="46.50742" lon="0.40013">
        <ele>102.2</ele>
        <time>2023-09-10T09:08:03Z</time>
      </trkpt>
      <trkpt lat="46.50735" lon="0.40035">
        <ele>103.4</ele>
        <time>2023-09-10T09:08:08Z</time>
      </trkpt>
      <trkpt lat="46.50722" lon="0.40073">
        <ele>104.4</ele>
        <time>2023-09-10T09:08:16Z</time>
      </trkpt>
      <trkpt lat="46.5072" lon="0.40078">
        <ele>104.4</ele>
        <time>2023-09-10T09:08:17Z</time>
      </trkpt>
      <trkpt lat="46.50709" lon="0.40116">
        <ele>105.2</ele>
        <time>2023-09-10T09:08:25Z</time>
      </trkpt>
      <trkpt lat="46.50708" lon="0.40121">
        <ele>105.4</ele>
        <time>2023-09-10T09:08:26Z</time>
      </trkpt>
      <trkpt lat="46.50706" lon="0.40126">
        <ele>105.4</ele>
        <time>2023-09-10T09:08:27Z</time>
      </trkpt>
      <trkpt lat="46.50702" lon="0.40156">
        <ele>105.8</ele>
        <time>2023-09-10T09:08:33Z</time>
      </trkpt>
      <trkpt lat="46.50699" lon="0.40186">
        <ele>106.6</ele>
        <time>2023-09-10T09:08:39Z</time>
      </trkpt>
      <trkpt lat="46.50698" lon="0.402">
        <ele>107</ele>
        <time>2023-09-10T09:08:42Z</time>
      </trkpt>
      <trkpt lat="46.50697" lon="0.40221">
        <ele>107.6</ele>
        <time>2023-09-10T09:08:46Z</time>
      </trkpt>
      <trkpt lat="46.50696" lon="0.40233">
        <ele>107.6</ele>
        <time>2023-09-10T09:08:48Z</time>
      </trkpt>
      <trkpt lat="46.50697" lon="0.40276">
        <ele>107.6</ele>
        <time>2023-09-10T09:08:55Z</time>
      </trkpt>
      <trkpt lat="46.50703" lon="0.40298">
        <ele>107</ele>
        <time>2023-09-10T09:09:00Z</time>
      </trkpt>
      <trkpt lat="46.50709" lon="0.40301">
        <ele>106.6</ele>
        <time>2023-09-10T09:09:02Z</time>
      </trkpt>
      <trkpt lat="46.50723" lon="0.40306">
        <ele>105</ele>
        <time>2023-09-10T09:09:06Z</time>
      </trkpt>
      <trkpt lat="46.50731" lon="0.40306">
        <ele>103.6</ele>
        <time>2023-09-10T09:09:08Z</time>
      </trkpt>
      <trkpt lat="46.50735" lon="0.40305">
        <ele>102.4</ele>
        <time>2023-09-10T09:09:09Z</time>
      </trkpt>
      <trkpt lat="46.50738" lon="0.40305">
        <ele>101.4</ele>
        <time>2023-09-10T09:09:10Z</time>
      </trkpt>
      <trkpt lat="46.50742" lon="0.40305">
        <ele>100.4</ele>
        <time>2023-09-10T09:09:11Z</time>
      </trkpt>
      <trkpt lat="46.50746" lon="0.40305">
        <ele>99.8</ele>
        <time>2023-09-10T09:09:12Z</time>
      </trkpt>
      <trkpt lat="46.50754" lon="0.40305">
        <ele>98</ele>
        <time>2023-09-10T09:09:14Z</time>
      </trkpt>
      <trkpt lat="46.50757" lon="0.40304">
        <ele>96.4</ele>
        <time>2023-09-10T09:09:15Z</time>
      </trkpt>
      <trkpt lat="46.50763" lon="0.403">
        <ele>94.8</ele>
        <time>2023-09-10T09:09:17Z</time>
      </trkpt>
      <trkpt lat="46.50772" lon="0.403">
        <ele>94.4</ele>
        <time>2023-09-10T09:09:19Z</time>
      </trkpt>
      <trkpt lat="46.50793" lon="0.40307">
        <ele>93.8</ele>
        <time>2023-09-10T09:09:23Z</time>
      </trkpt>
      <trkpt lat="46.50799" lon="0.40309">
        <ele>93.6</ele>
        <time>2023-09-10T09:09:24Z</time>
      </trkpt>
      <trkpt lat="46.50828" lon="0.40314">
        <ele>92.8</ele>
        <time>2023-09-10T09:09:29Z</time>
      </trkpt>
      <trkpt lat="46.50849" lon="0.40312">
        <ele>93</ele>
        <time>2023-09-10T09:09:34Z</time>
      </trkpt>
      <trkpt lat="46.50851" lon="0.40314">
        <ele>92.8</ele>
        <time>2023-09-10T09:09:35Z</time>
      </trkpt>
      <trkpt lat="46.50852" lon="0.40324">
        <ele>92.6</ele>
        <time>2023-09-10T09:09:37Z</time>
      </trkpt>
      <trkpt lat="46.50853" lon="0.40337">
        <ele>92.2</ele>
        <time>2023-09-10T09:09:39Z</time>
      </trkpt>
      <trkpt lat="46.50857" lon="0.40344">
        <ele>91.8</ele>
        <time>2023-09-10T09:09:41Z</time>
      </trkpt>
      <trkpt lat="46.5086" lon="0.40345">
        <ele>91.4</ele>
        <time>2023-09-10T09:09:42Z</time>
      </trkpt>
      <trkpt lat="46.50863" lon="0.40346">
        <ele>91.2</ele>
        <time>2023-09-10T09:09:43Z</time>
      </trkpt>
      <trkpt lat="46.50872" lon="0.4035">
        <ele>90.8</ele>
        <time>2023-09-10T09:09:46Z</time>
      </trkpt>
      <trkpt lat="46.50884" lon="0.40358">
        <ele>90.8</ele>
        <time>2023-09-10T09:09:50Z</time>
      </trkpt>
      <trkpt lat="46.50889" lon="0.40366">
        <ele>90.6</ele>
        <time>2023-09-10T09:09:54Z</time>
      </trkpt>
      <trkpt lat="46.50889" lon="0.40368">
        <ele>90.8</ele>
        <time>2023-09-10T09:09:55Z</time>
      </trkpt>
      <trkpt lat="46.50891" lon="0.40379">
        <ele>92.6</ele>
        <time>2023-09-10T09:10:01Z</time>
      </trkpt>
      <trkpt lat="46.50891" lon="0.40383">
        <ele>93.4</ele>
        <time>2023-09-10T09:10:04Z</time>
      </trkpt>
      <trkpt lat="46.50891" lon="0.40385">
        <ele>93.6</ele>
        <time>2023-09-10T09:10:05Z</time>
      </trkpt>
      <trkpt lat="46.50891" lon="0.40396">
        <ele>94.8</ele>
        <time>2023-09-10T09:10:10Z</time>
      </trkpt>
      <trkpt lat="46.50892" lon="0.40402">
        <ele>95.8</ele>
        <time>2023-09-10T09:10:13Z</time>
      </trkpt>
      <trkpt lat="46.50893" lon="0.40404">
        <ele>96</ele>
        <time>2023-09-10T09:10:14Z</time>
      </trkpt>
      <trkpt lat="46.50894" lon="0.40412">
        <ele>97</ele>
        <time>2023-09-10T09:10:18Z</time>
      </trkpt>
      <trkpt lat="46.50894" lon="0.40414">
        <ele>97.2</ele>
        <time>2023-09-10T09:10:19Z</time>
      </trkpt>
      <trkpt lat="46.50895" lon="0.4042">
        <ele>98.2</ele>
        <time>2023-09-10T09:10:22Z</time>
      </trkpt>
      <trkpt lat="46.50896" lon="0.40429">
        <ele>99.2</ele>
        <time>2023-09-10T09:10:25Z</time>
      </trkpt>
      <trkpt lat="46.50897" lon="0.40432">
        <ele>99.4</ele>
        <time>2023-09-10T09:10:26Z</time>
      </trkpt>
      <trkpt lat="46.50895" lon="0.40445">
        <ele>100.6</ele>
        <time>2023-09-10T09:10:32Z</time>
      </trkpt>
      <trkpt lat="46.50895" lon="0.40447">
        <ele>100.8</ele>
        <time>2023-09-10T09:10:33Z</time>
      </trkpt>
      <trkpt lat="46.50894" lon="0.40457">
        <ele>101.6</ele>
        <time>2023-09-10T09:10:37Z</time>
      </trkpt>
      <trkpt lat="46.50894" lon="0.40464">
        <ele>102.2</ele>
        <time>2023-09-10T09:10:40Z</time>
      </trkpt>
      <trkpt lat="46.50893" lon="0.4047">
        <ele>102.8</ele>
        <time>2023-09-10T09:10:43Z</time>
      </trkpt>
      <trkpt lat="46.50893" lon="0.4048">
        <ele>103.8</ele>
        <time>2023-09-10T09:10:47Z</time>
      </trkpt>
      <trkpt lat="46.50892" lon="0.40484">
        <ele>104</ele>
        <time>2023-09-10T09:10:48Z</time>
      </trkpt>
      <trkpt lat="46.50891" lon="0.40497">
        <ele>104.6</ele>
        <time>2023-09-10T09:10:53Z</time>
      </trkpt>
      <trkpt lat="46.5089" lon="0.4051">
        <ele>105</ele>
        <time>2023-09-10T09:10:57Z</time>
      </trkpt>
      <trkpt lat="46.5089" lon="0.40522">
        <ele>105.4</ele>
        <time>2023-09-10T09:11:00Z</time>
      </trkpt>
      <trkpt lat="46.50887" lon="0.40542">
        <ele>106</ele>
        <time>2023-09-10T09:11:06Z</time>
      </trkpt>
      <trkpt lat="46.50884" lon="0.40546">
        <ele>106</ele>
        <time>2023-09-10T09:11:08Z</time>
      </trkpt>
      <trkpt lat="46.50876" lon="0.40563">
        <ele>105.8</ele>
        <time>2023-09-10T09:11:17Z</time>
      </trkpt>
      <trkpt lat="46.5087" lon="0.40584">
        <ele>105.2</ele>
        <time>2023-09-10T09:11:25Z</time>
      </trkpt>
      <trkpt lat="46.50869" lon="0.40587">
        <ele>104.8</ele>
        <time>2023-09-10T09:11:26Z</time>
      </trkpt>
      <trkpt lat="46.50868" lon="0.40596">
        <ele>103.8</ele>
        <time>2023-09-10T09:11:30Z</time>
      </trkpt>
      <trkpt lat="46.50868" lon="0.40598">
        <ele>103.6</ele>
        <time>2023-09-10T09:11:31Z</time>
      </trkpt>
      <trkpt lat="46.50865" lon="0.4061">
        <ele>103.2</ele>
        <time>2023-09-10T09:11:35Z</time>
      </trkpt>
      <trkpt lat="46.50865" lon="0.40612">
        <ele>103.2</ele>
        <time>2023-09-10T09:11:36Z</time>
      </trkpt>
      <trkpt lat="46.50863" lon="0.40615">
        <ele>103.2</ele>
        <time>2023-09-10T09:11:38Z</time>
      </trkpt>
      <trkpt lat="46.50859" lon="0.40624">
        <ele>103.2</ele>
        <time>2023-09-10T09:11:41Z</time>
      </trkpt>
      <trkpt lat="46.50853" lon="0.40635">
        <ele>102.6</ele>
        <time>2023-09-10T09:11:45Z</time>
      </trkpt>
      <trkpt lat="46.50846" lon="0.40647">
        <ele>102.2</ele>
        <time>2023-09-10T09:11:49Z</time>
      </trkpt>
      <trkpt lat="46.50841" lon="0.40658">
        <ele>101.4</ele>
        <time>2023-09-10T09:11:53Z</time>
      </trkpt>
      <trkpt lat="46.5084" lon="0.4066">
        <ele>101</ele>
        <time>2023-09-10T09:11:54Z</time>
      </trkpt>
      <trkpt lat="46.50839" lon="0.40662">
        <ele>100</ele>
        <time>2023-09-10T09:11:55Z</time>
      </trkpt>
      <trkpt lat="46.50838" lon="0.40664">
        <ele>99.6</ele>
        <time>2023-09-10T09:11:56Z</time>
      </trkpt>
      <trkpt lat="46.50836" lon="0.40667">
        <ele>99</ele>
        <time>2023-09-10T09:11:57Z</time>
      </trkpt>
      <trkpt lat="46.50833" lon="0.40671">
        <ele>98.4</ele>
        <time>2023-09-10T09:11:59Z</time>
      </trkpt>
      <trkpt lat="46.5083" lon="0.40676">
        <ele>98</ele>
        <time>2023-09-10T09:12:01Z</time>
      </trkpt>
      <trkpt lat="46.50823" lon="0.40687">
        <ele>99.2</ele>
        <time>2023-09-10T09:12:07Z</time>
      </trkpt>
      <trkpt lat="46.50819" lon="0.4069">
        <ele>99.6</ele>
        <time>2023-09-10T09:12:09Z</time>
      </trkpt>
      <trkpt lat="46.50806" lon="0.40706">
        <ele>98.8</ele>
        <time>2023-09-10T09:12:16Z</time>
      </trkpt>
      <trkpt lat="46.50803" lon="0.40709">
        <ele>98.2</ele>
        <time>2023-09-10T09:12:17Z</time>
      </trkpt>
      <trkpt lat="46.50801" lon="0.40714">
        <ele>97.8</ele>
        <time>2023-09-10T09:12:18Z</time>
      </trkpt>
      <trkpt lat="46.50792" lon="0.40725">
        <ele>97.4</ele>
        <time>2023-09-10T09:12:22Z</time>
      </trkpt>
      <trkpt lat="46.50782" lon="0.40729">
        <ele>96.8</ele>
        <time>2023-09-10T09:12:25Z</time>
      </trkpt>
      <trkpt lat="46.50773" lon="0.40731">
        <ele>95.8</ele>
        <time>2023-09-10T09:12:27Z</time>
      </trkpt>
      <trkpt lat="46.50768" lon="0.40733">
        <ele>95.4</ele>
        <time>2023-09-10T09:12:28Z</time>
      </trkpt>
      <trkpt lat="46.50758" lon="0.4074">
        <ele>94.4</ele>
        <time>2023-09-10T09:12:30Z</time>
      </trkpt>
      <trkpt lat="46.50754" lon="0.40744">
        <ele>94</ele>
        <time>2023-09-10T09:12:31Z</time>
      </trkpt>
      <trkpt lat="46.50754" lon="0.40744">
        <ele>93</ele>
        <time>2023-09-10T09:12:32Z</time>
      </trkpt>
      <trkpt lat="46.50733" lon="0.40757">
        <ele>92.6</ele>
        <time>2023-09-10T09:12:35Z</time>
      </trkpt>
      <trkpt lat="46.50731" lon="0.40761">
        <ele>92.4</ele>
        <time>2023-09-10T09:12:36Z</time>
      </trkpt>
      <trkpt lat="46.50721" lon="0.4077">
        <ele>92</ele>
        <time>2023-09-10T09:12:39Z</time>
      </trkpt>
      <trkpt lat="46.50711" lon="0.4078">
        <ele>92.2</ele>
        <time>2023-09-10T09:12:42Z</time>
      </trkpt>
      <trkpt lat="46.50709" lon="0.40784">
        <ele>92.4</ele>
        <time>2023-09-10T09:12:43Z</time>
      </trkpt>
      <trkpt lat="46.507" lon="0.40797">
        <ele>92.4</ele>
        <time>2023-09-10T09:12:46Z</time>
      </trkpt>
      <trkpt lat="46.507" lon="0.40811">
        <ele>92.2</ele>
        <time>2023-09-10T09:12:48Z</time>
      </trkpt>
      <trkpt lat="46.50698" lon="0.40822">
        <ele>92</ele>
        <time>2023-09-10T09:12:50Z</time>
      </trkpt>
      <trkpt lat="46.50699" lon="0.40834">
        <ele>91.8</ele>
        <time>2023-09-10T09:12:52Z</time>
      </trkpt>
      <trkpt lat="46.507" lon="0.4084">
        <ele>91.8</ele>
        <time>2023-09-10T09:12:53Z</time>
      </trkpt>
      <trkpt lat="46.50702" lon="0.40846">
        <ele>91.6</ele>
        <time>2023-09-10T09:12:54Z</time>
      </trkpt>
      <trkpt lat="46.5071" lon="0.40865">
        <ele>91.6</ele>
        <time>2023-09-10T09:12:57Z</time>
      </trkpt>
      <trkpt lat="46.50723" lon="0.40893">
        <ele>91.4</ele>
        <time>2023-09-10T09:13:02Z</time>
      </trkpt>
      <trkpt lat="46.50727" lon="0.40902">
        <ele>91.4</ele>
        <time>2023-09-10T09:13:04Z</time>
      </trkpt>
      <trkpt lat="46.50733" lon="0.40914">
        <ele>91.4</ele>
        <time>2023-09-10T09:13:07Z</time>
      </trkpt>
      <trkpt lat="46.50736" lon="0.40917">
        <ele>91.4</ele>
        <time>2023-09-10T09:13:08Z</time>
      </trkpt>
      <trkpt lat="46.50749" lon="0.40932">
        <ele>91.4</ele>
        <time>2023-09-10T09:13:12Z</time>
      </trkpt>
      <trkpt lat="46.50752" lon="0.40936">
        <ele>91.4</ele>
        <time>2023-09-10T09:13:13Z</time>
      </trkpt>
      <trkpt lat="46.50755" lon="0.4094">
        <ele>91.4</ele>
        <time>2023-09-10T09:13:14Z</time>
      </trkpt>
      <trkpt lat="46.50767" lon="0.4095">
        <ele>91.4</ele>
        <time>2023-09-10T09:13:18Z</time>
      </trkpt>
      <trkpt lat="46.5077" lon="0.40952">
        <ele>91.4</ele>
        <time>2023-09-10T09:13:19Z</time>
      </trkpt>
      <trkpt lat="46.50779" lon="0.40957">
        <ele>92</ele>
        <time>2023-09-10T09:13:23Z</time>
      </trkpt>
      <trkpt lat="46.50786" lon="0.4096">
        <ele>92.2</ele>
        <time>2023-09-10T09:13:26Z</time>
      </trkpt>
      <trkpt lat="46.50788" lon="0.40961">
        <ele>92.2</ele>
        <time>2023-09-10T09:13:27Z</time>
      </trkpt>
      <trkpt lat="46.50798" lon="0.40963">
        <ele>92.4</ele>
        <time>2023-09-10T09:13:30Z</time>
      </trkpt>
      <trkpt lat="46.50805" lon="0.40967">
        <ele>92.6</ele>
        <time>2023-09-10T09:13:32Z</time>
      </trkpt>
      <trkpt lat="46.50828" lon="0.40979">
        <ele>92.8</ele>
        <time>2023-09-10T09:13:38Z</time>
      </trkpt>
      <trkpt lat="46.50833" lon="0.4098">
        <ele>92.6</ele>
        <time>2023-09-10T09:13:39Z</time>
      </trkpt>
      <trkpt lat="46.50845" lon="0.40986">
        <ele>92.2</ele>
        <time>2023-09-10T09:13:41Z</time>
      </trkpt>
      <trkpt lat="46.50857" lon="0.40994">
        <ele>91.6</ele>
        <time>2023-09-10T09:13:43Z</time>
      </trkpt>
      <trkpt lat="46.50871" lon="0.41002">
        <ele>91.4</ele>
        <time>2023-09-10T09:13:45Z</time>
      </trkpt>
      <trkpt lat="46.50877" lon="0.41005">
        <ele>91.4</ele>
        <time>2023-09-10T09:13:46Z</time>
      </trkpt>
      <trkpt lat="46.50897" lon="0.41011">
        <ele>91.4</ele>
        <time>2023-09-10T09:13:49Z</time>
      </trkpt>
      <trkpt lat="46.50901" lon="0.41013">
        <ele>91.2</ele>
        <time>2023-09-10T09:13:50Z</time>
      </trkpt>
      <trkpt lat="46.50914" lon="0.41017">
        <ele>91.2</ele>
        <time>2023-09-10T09:13:52Z</time>
      </trkpt>
      <trkpt lat="46.5093" lon="0.41022">
        <ele>91.4</ele>
        <time>2023-09-10T09:13:54Z</time>
      </trkpt>
      <trkpt lat="46.50937" lon="0.41025">
        <ele>91.4</ele>
        <time>2023-09-10T09:13:55Z</time>
      </trkpt>
      <trkpt lat="46.50944" lon="0.41027">
        <ele>91.6</ele>
        <time>2023-09-10T09:13:56Z</time>
      </trkpt>
      <trkpt lat="46.50956" lon="0.41032">
        <ele>91.6</ele>
        <time>2023-09-10T09:13:58Z</time>
      </trkpt>
      <trkpt lat="46.5097" lon="0.41039">
        <ele>91.4</ele>
        <time>2023-09-10T09:14:01Z</time>
      </trkpt>
      <trkpt lat="46.50981" lon="0.41044">
        <ele>91.6</ele>
        <time>2023-09-10T09:14:03Z</time>
      </trkpt>
      <trkpt lat="46.50994" lon="0.41049">
        <ele>91.6</ele>
        <time>2023-09-10T09:14:06Z</time>
      </trkpt>
      <trkpt lat="46.51018" lon="0.41056">
        <ele>91.8</ele>
        <time>2023-09-10T09:14:12Z</time>
      </trkpt>
      <trkpt lat="46.51022" lon="0.41058">
        <ele>91.8</ele>
        <time>2023-09-10T09:14:13Z</time>
      </trkpt>
      <trkpt lat="46.51043" lon="0.41067">
        <ele>92.8</ele>
        <time>2023-09-10T09:14:18Z</time>
      </trkpt>
      <trkpt lat="46.51046" lon="0.41068">
        <ele>93.2</ele>
        <time>2023-09-10T09:14:19Z</time>
      </trkpt>
      <trkpt lat="46.51055" lon="0.41073">
        <ele>94.2</ele>
        <time>2023-09-10T09:14:22Z</time>
      </trkpt>
      <trkpt lat="46.51061" lon="0.41076">
        <ele>94.4</ele>
        <time>2023-09-10T09:14:24Z</time>
      </trkpt>
      <trkpt lat="46.51089" lon="0.41098">
        <ele>95</ele>
        <time>2023-09-10T09:14:31Z</time>
      </trkpt>
      <trkpt lat="46.51101" lon="0.4111">
        <ele>95.6</ele>
        <time>2023-09-10T09:14:35Z</time>
      </trkpt>
      <trkpt lat="46.51103" lon="0.41111">
        <ele>95.6</ele>
        <time>2023-09-10T09:14:36Z</time>
      </trkpt>
      <trkpt lat="46.51113" lon="0.41114">
        <ele>96</ele>
        <time>2023-09-10T09:14:40Z</time>
      </trkpt>
      <trkpt lat="46.51118" lon="0.41116">
        <ele>96.2</ele>
        <time>2023-09-10T09:14:42Z</time>
      </trkpt>
      <trkpt lat="46.51121" lon="0.41115">
        <ele>96.6</ele>
        <time>2023-09-10T09:14:44Z</time>
      </trkpt>
      <trkpt lat="46.51126" lon="0.41113">
        <ele>97.6</ele>
        <time>2023-09-10T09:14:48Z</time>
      </trkpt>
      <trkpt lat="46.51126" lon="0.41112">
        <ele>98</ele>
        <time>2023-09-10T09:14:49Z</time>
      </trkpt>
      <trkpt lat="46.51128" lon="0.41108">
        <ele>99.2</ele>
        <time>2023-09-10T09:14:53Z</time>
      </trkpt>
      <trkpt lat="46.51128" lon="0.41105">
        <ele>100.2</ele>
        <time>2023-09-10T09:14:56Z</time>
      </trkpt>
      <trkpt lat="46.51128" lon="0.41105">
        <ele>100.6</ele>
        <time>2023-09-10T09:14:57Z</time>
      </trkpt>
      <trkpt lat="46.51129" lon="0.41098">
        <ele>101.6</ele>
        <time>2023-09-10T09:15:01Z</time>
      </trkpt>
      <trkpt lat="46.51128" lon="0.41096">
        <ele>101.8</ele>
        <time>2023-09-10T09:15:02Z</time>
      </trkpt>
      <trkpt lat="46.51129" lon="0.41092">
        <ele>102.2</ele>
        <time>2023-09-10T09:15:04Z</time>
      </trkpt>
      <trkpt lat="46.51129" lon="0.41087">
        <ele>103.4</ele>
        <time>2023-09-10T09:15:08Z</time>
      </trkpt>
      <trkpt lat="46.51129" lon="0.41083">
        <ele>103.8</ele>
        <time>2023-09-10T09:15:10Z</time>
      </trkpt>
      <trkpt lat="46.5113" lon="0.41081">
        <ele>104</ele>
        <time>2023-09-10T09:15:11Z</time>
      </trkpt>
      <trkpt lat="46.5113" lon="0.41076">
        <ele>104.4</ele>
        <time>2023-09-10T09:15:13Z</time>
      </trkpt>
      <trkpt lat="46.51133" lon="0.41068">
        <ele>105.6</ele>
        <time>2023-09-10T09:15:17Z</time>
      </trkpt>
      <trkpt lat="46.51133" lon="0.41067">
        <ele>105.8</ele>
        <time>2023-09-10T09:15:18Z</time>
      </trkpt>
      <trkpt lat="46.51134" lon="0.41066">
        <ele>106</ele>
        <time>2023-09-10T09:15:19Z</time>
      </trkpt>
      <trkpt lat="46.51136" lon="0.41063">
        <ele>106.2</ele>
        <time>2023-09-10T09:15:21Z</time>
      </trkpt>
      <trkpt lat="46.51138" lon="0.41061">
        <ele>106.6</ele>
        <time>2023-09-10T09:15:24Z</time>
      </trkpt>
      <trkpt lat="46.51141" lon="0.4106">
        <ele>107.6</ele>
        <time>2023-09-10T09:15:27Z</time>
      </trkpt>
      <trkpt lat="46.51142" lon="0.4106">
        <ele>108</ele>
        <time>2023-09-10T09:15:28Z</time>
      </trkpt>
      <trkpt lat="46.51143" lon="0.4106">
        <ele>108.4</ele>
        <time>2023-09-10T09:15:30Z</time>
      </trkpt>
      <trkpt lat="46.51148" lon="0.41059">
        <ele>109</ele>
        <time>2023-09-10T09:15:34Z</time>
      </trkpt>
      <trkpt lat="46.51148" lon="0.41058">
        <ele>109.4</ele>
        <time>2023-09-10T09:15:35Z</time>
      </trkpt>
      <trkpt lat="46.51149" lon="0.41055">
        <ele>109.8</ele>
        <time>2023-09-10T09:15:38Z</time>
      </trkpt>
      <trkpt lat="46.51149" lon="0.41052">
        <ele>110</ele>
        <time>2023-09-10T09:15:39Z</time>
      </trkpt>
      <trkpt lat="46.51149" lon="0.4105">
        <ele>110</ele>
        <time>2023-09-10T09:15:40Z</time>
      </trkpt>
      <trkpt lat="46.51149" lon="0.41049">
        <ele>110.2</ele>
        <time>2023-09-10T09:15:41Z</time>
      </trkpt>
      <trkpt lat="46.51149" lon="0.41044">
        <ele>110.6</ele>
        <time>2023-09-10T09:15:45Z</time>
      </trkpt>
      <trkpt lat="46.51151" lon="0.41035">
        <ele>111.2</ele>
        <time>2023-09-10T09:15:50Z</time>
      </trkpt>
      <trkpt lat="46.51151" lon="0.41034">
        <ele>111.4</ele>
        <time>2023-09-10T09:15:51Z</time>
      </trkpt>
      <trkpt lat="46.51155" lon="0.41028">
        <ele>111.8</ele>
        <time>2023-09-10T09:15:55Z</time>
      </trkpt>
      <trkpt lat="46.5116" lon="0.41023">
        <ele>112.2</ele>
        <time>2023-09-10T09:16:00Z</time>
      </trkpt>
      <trkpt lat="46.51161" lon="0.41023">
        <ele>112.4</ele>
        <time>2023-09-10T09:16:01Z</time>
      </trkpt>
      <trkpt lat="46.51163" lon="0.41021">
        <ele>112.4</ele>
        <time>2023-09-10T09:16:04Z</time>
      </trkpt>
      <trkpt lat="46.51165" lon="0.41017">
        <ele>112.6</ele>
        <time>2023-09-10T09:16:07Z</time>
      </trkpt>
      <trkpt lat="46.51165" lon="0.41013">
        <ele>112.6</ele>
        <time>2023-09-10T09:16:10Z</time>
      </trkpt>
      <trkpt lat="46.51165" lon="0.41009">
        <ele>112.6</ele>
        <time>2023-09-10T09:16:12Z</time>
      </trkpt>
      <trkpt lat="46.51161" lon="0.40993">
        <ele>112.8</ele>
        <time>2023-09-10T09:16:20Z</time>
      </trkpt>
      <trkpt lat="46.51164" lon="0.40983">
        <ele>112.8</ele>
        <time>2023-09-10T09:16:25Z</time>
      </trkpt>
      <trkpt lat="46.51165" lon="0.40978">
        <ele>112.6</ele>
        <time>2023-09-10T09:16:26Z</time>
      </trkpt>
      <trkpt lat="46.51166" lon="0.40974">
        <ele>112.8</ele>
        <time>2023-09-10T09:16:28Z</time>
      </trkpt>
      <trkpt lat="46.51165" lon="0.4097">
        <ele>112.8</ele>
        <time>2023-09-10T09:16:30Z</time>
      </trkpt>
      <trkpt lat="46.51164" lon="0.40968">
        <ele>113</ele>
        <time>2023-09-10T09:16:31Z</time>
      </trkpt>
      <trkpt lat="46.51162" lon="0.40966">
        <ele>113</ele>
        <time>2023-09-10T09:16:33Z</time>
      </trkpt>
      <trkpt lat="46.51158" lon="0.40966">
        <ele>113</ele>
        <time>2023-09-10T09:16:36Z</time>
      </trkpt>
      <trkpt lat="46.51148" lon="0.40966">
        <ele>112.2</ele>
        <time>2023-09-10T09:16:39Z</time>
      </trkpt>
      <trkpt lat="46.51141" lon="0.40962">
        <ele>112</ele>
        <time>2023-09-10T09:16:43Z</time>
      </trkpt>
      <trkpt lat="46.51127" lon="0.40954">
        <ele>111.6</ele>
        <time>2023-09-10T09:16:50Z</time>
      </trkpt>
      <trkpt lat="46.51108" lon="0.40954">
        <ele>111.2</ele>
        <time>2023-09-10T09:16:55Z</time>
      </trkpt>
      <trkpt lat="46.51103" lon="0.40954">
        <ele>111.2</ele>
        <time>2023-09-10T09:16:56Z</time>
      </trkpt>
      <trkpt lat="46.5108" lon="0.40953">
        <ele>110</ele>
        <time>2023-09-10T09:17:00Z</time>
      </trkpt>
      <trkpt lat="46.51065" lon="0.40951">
        <ele>109.2</ele>
        <time>2023-09-10T09:17:03Z</time>
      </trkpt>
      <trkpt lat="46.51059" lon="0.40951">
        <ele>109</ele>
        <time>2023-09-10T09:17:04Z</time>
      </trkpt>
      <trkpt lat="46.51055" lon="0.40951">
        <ele>108.8</ele>
        <time>2023-09-10T09:17:05Z</time>
      </trkpt>
      <trkpt lat="46.51027" lon="0.40951">
        <ele>108</ele>
        <time>2023-09-10T09:17:11Z</time>
      </trkpt>
      <trkpt lat="46.51017" lon="0.4095">
        <ele>107.8</ele>
        <time>2023-09-10T09:17:13Z</time>
      </trkpt>
      <trkpt lat="46.51003" lon="0.40952">
        <ele>106.4</ele>
        <time>2023-09-10T09:17:16Z</time>
      </trkpt>
      <trkpt lat="46.50994" lon="0.40954">
        <ele>106</ele>
        <time>2023-09-10T09:17:18Z</time>
      </trkpt>
      <trkpt lat="46.50964" lon="0.4095">
        <ele>105.4</ele>
        <time>2023-09-10T09:17:22Z</time>
      </trkpt>
      <trkpt lat="46.50956" lon="0.40948">
        <ele>105</ele>
        <time>2023-09-10T09:17:23Z</time>
      </trkpt>
      <trkpt lat="46.50927" lon="0.40937">
        <ele>104.6</ele>
        <time>2023-09-10T09:17:28Z</time>
      </trkpt>
      <trkpt lat="46.50922" lon="0.40935">
        <ele>104.4</ele>
        <time>2023-09-10T09:17:29Z</time>
      </trkpt>
      <trkpt lat="46.50918" lon="0.40934">
        <ele>104.2</ele>
        <time>2023-09-10T09:17:30Z</time>
      </trkpt>
      <trkpt lat="46.5089" lon="0.40922">
        <ele>103.6</ele>
        <time>2023-09-10T09:17:34Z</time>
      </trkpt>
      <trkpt lat="46.50882" lon="0.40917">
        <ele>103.4</ele>
        <time>2023-09-10T09:17:35Z</time>
      </trkpt>
      <trkpt lat="46.50875" lon="0.40909">
        <ele>103.2</ele>
        <time>2023-09-10T09:17:37Z</time>
      </trkpt>
      <trkpt lat="46.50869" lon="0.40895">
        <ele>103.4</ele>
        <time>2023-09-10T09:17:40Z</time>
      </trkpt>
      <trkpt lat="46.50867" lon="0.40886">
        <ele>103.6</ele>
        <time>2023-09-10T09:17:42Z</time>
      </trkpt>
      <trkpt lat="46.50866" lon="0.40873">
        <ele>104</ele>
        <time>2023-09-10T09:17:45Z</time>
      </trkpt>
      <trkpt lat="46.50865" lon="0.40863">
        <ele>104.4</ele>
        <time>2023-09-10T09:17:47Z</time>
      </trkpt>
      <trkpt lat="46.50864" lon="0.40831">
        <ele>105</ele>
        <time>2023-09-10T09:17:52Z</time>
      </trkpt>
      <trkpt lat="46.50867" lon="0.40809">
        <ele>105.6</ele>
        <time>2023-09-10T09:17:56Z</time>
      </trkpt>
      <trkpt lat="46.5087" lon="0.40793">
        <ele>106</ele>
        <time>2023-09-10T09:17:59Z</time>
      </trkpt>
      <trkpt lat="46.50873" lon="0.40784">
        <ele>106.2</ele>
        <time>2023-09-10T09:18:01Z</time>
      </trkpt>
      <trkpt lat="46.50878" lon="0.40762">
        <ele>106.2</ele>
        <time>2023-09-10T09:18:05Z</time>
      </trkpt>
      <trkpt lat="46.50881" lon="0.40743">
        <ele>106.6</ele>
        <time>2023-09-10T09:18:09Z</time>
      </trkpt>
      <trkpt lat="46.50881" lon="0.40737">
        <ele>106.8</ele>
        <time>2023-09-10T09:18:10Z</time>
      </trkpt>
      <trkpt lat="46.50884" lon="0.40726">
        <ele>106.8</ele>
        <time>2023-09-10T09:18:12Z</time>
      </trkpt>
      <trkpt lat="46.50891" lon="0.40694">
        <ele>106.8</ele>
        <time>2023-09-10T09:18:18Z</time>
      </trkpt>
      <trkpt lat="46.50892" lon="0.4069">
        <ele>106.8</ele>
        <time>2023-09-10T09:18:19Z</time>
      </trkpt>
      <trkpt lat="46.50894" lon="0.40672">
        <ele>106.6</ele>
        <time>2023-09-10T09:18:22Z</time>
      </trkpt>
      <trkpt lat="46.50895" lon="0.4066">
        <ele>106.6</ele>
        <time>2023-09-10T09:18:24Z</time>
      </trkpt>
      <trkpt lat="46.50897" lon="0.40632">
        <ele>106</ele>
        <time>2023-09-10T09:18:29Z</time>
      </trkpt>
      <trkpt lat="46.50899" lon="0.40619">
        <ele>105.4</ele>
        <time>2023-09-10T09:18:31Z</time>
      </trkpt>
      <trkpt lat="46.50901" lon="0.40604">
        <ele>104.8</ele>
        <time>2023-09-10T09:18:33Z</time>
      </trkpt>
      <trkpt lat="46.50905" lon="0.40589">
        <ele>104.2</ele>
        <time>2023-09-10T09:18:35Z</time>
      </trkpt>
      <trkpt lat="46.50911" lon="0.40576">
        <ele>103.8</ele>
        <time>2023-09-10T09:18:37Z</time>
      </trkpt>
      <trkpt lat="46.50914" lon="0.40561">
        <ele>103</ele>
        <time>2023-09-10T09:18:39Z</time>
      </trkpt>
      <trkpt lat="46.50915" lon="0.40554">
        <ele>102.8</ele>
        <time>2023-09-10T09:18:40Z</time>
      </trkpt>
      <trkpt lat="46.50915" lon="0.40548">
        <ele>102.4</ele>
        <time>2023-09-10T09:18:41Z</time>
      </trkpt>
      <trkpt lat="46.50916" lon="0.40542">
        <ele>101.6</ele>
        <time>2023-09-10T09:18:42Z</time>
      </trkpt>
      <trkpt lat="46.5092" lon="0.40533">
        <ele>100.8</ele>
        <time>2023-09-10T09:18:45Z</time>
      </trkpt>
      <trkpt lat="46.50934" lon="0.40531">
        <ele>101.2</ele>
        <time>2023-09-10T09:18:50Z</time>
      </trkpt>
      <trkpt lat="46.50939" lon="0.40533">
        <ele>101.6</ele>
        <time>2023-09-10T09:18:52Z</time>
      </trkpt>
      <trkpt lat="46.50951" lon="0.4054">
        <ele>102.8</ele>
        <time>2023-09-10T09:18:56Z</time>
      </trkpt>
      <trkpt lat="46.5096" lon="0.40546">
        <ele>103.8</ele>
        <time>2023-09-10T09:19:00Z</time>
      </trkpt>
      <trkpt lat="46.50967" lon="0.40549">
        <ele>104.4</ele>
        <time>2023-09-10T09:19:04Z</time>
      </trkpt>
      <trkpt lat="46.5097" lon="0.40552">
        <ele>104.4</ele>
        <time>2023-09-10T09:19:05Z</time>
      </trkpt>
      <trkpt lat="46.50974" lon="0.40555">
        <ele>104.8</ele>
        <time>2023-09-10T09:19:07Z</time>
      </trkpt>
      <trkpt lat="46.5098" lon="0.40558">
        <ele>105.2</ele>
        <time>2023-09-10T09:19:10Z</time>
      </trkpt>
      <trkpt lat="46.50983" lon="0.40558">
        <ele>105.4</ele>
        <time>2023-09-10T09:19:11Z</time>
      </trkpt>
      <trkpt lat="46.50989" lon="0.4056">
        <ele>106</ele>
        <time>2023-09-10T09:19:15Z</time>
      </trkpt>
      <trkpt lat="46.50991" lon="0.4056">
        <ele>106.2</ele>
        <time>2023-09-10T09:19:16Z</time>
      </trkpt>
      <trkpt lat="46.50994" lon="0.40559">
        <ele>106.2</ele>
        <time>2023-09-10T09:19:17Z</time>
      </trkpt>
      <trkpt lat="46.51008" lon="0.40547">
        <ele>105.6</ele>
        <time>2023-09-10T09:19:23Z</time>
      </trkpt>
      <trkpt lat="46.51014" lon="0.40537">
        <ele>104.4</ele>
        <time>2023-09-10T09:19:25Z</time>
      </trkpt>
      <trkpt lat="46.51019" lon="0.40529">
        <ele>103</ele>
        <time>2023-09-10T09:19:27Z</time>
      </trkpt>
      <trkpt lat="46.51021" lon="0.40525">
        <ele>102</ele>
        <time>2023-09-10T09:19:28Z</time>
      </trkpt>
      <trkpt lat="46.51023" lon="0.40522">
        <ele>100.2</ele>
        <time>2023-09-10T09:19:29Z</time>
      </trkpt>
      <trkpt lat="46.51025" lon="0.40519">
        <ele>98.8</ele>
        <time>2023-09-10T09:19:30Z</time>
      </trkpt>
      <trkpt lat="46.51026" lon="0.40516">
        <ele>97.6</ele>
        <time>2023-09-10T09:19:31Z</time>
      </trkpt>
      <trkpt lat="46.51029" lon="0.40509">
        <ele>95.4</ele>
        <time>2023-09-10T09:19:33Z</time>
      </trkpt>
      <trkpt lat="46.51031" lon="0.40505">
        <ele>94.8</ele>
        <time>2023-09-10T09:19:34Z</time>
      </trkpt>
      <trkpt lat="46.51033" lon="0.40502">
        <ele>94.2</ele>
        <time>2023-09-10T09:19:35Z</time>
      </trkpt>
      <trkpt lat="46.51043" lon="0.40495">
        <ele>93.6</ele>
        <time>2023-09-10T09:19:40Z</time>
      </trkpt>
      <trkpt lat="46.51056" lon="0.40485">
        <ele>94</ele>
        <time>2023-09-10T09:19:46Z</time>
      </trkpt>
      <trkpt lat="46.51073" lon="0.40474">
        <ele>94.6</ele>
        <time>2023-09-10T09:19:51Z</time>
      </trkpt>
      <trkpt lat="46.5108" lon="0.40468">
        <ele>94.6</ele>
        <time>2023-09-10T09:19:53Z</time>
      </trkpt>
      <trkpt lat="46.51082" lon="0.40466">
        <ele>94.6</ele>
        <time>2023-09-10T09:19:54Z</time>
      </trkpt>
      <trkpt lat="46.51091" lon="0.4046">
        <ele>95</ele>
        <time>2023-09-10T09:19:57Z</time>
      </trkpt>
      <trkpt lat="46.51099" lon="0.40458">
        <ele>95.2</ele>
        <time>2023-09-10T09:19:59Z</time>
      </trkpt>
      <trkpt lat="46.51117" lon="0.40453">
        <ele>95.6</ele>
        <time>2023-09-10T09:20:03Z</time>
      </trkpt>
      <trkpt lat="46.51127" lon="0.40453">
        <ele>96</ele>
        <time>2023-09-10T09:20:05Z</time>
      </trkpt>
      <trkpt lat="46.51127" lon="0.40453">
        <ele>96.2</ele>
        <time>2023-09-10T09:20:06Z</time>
      </trkpt>
      <trkpt lat="46.51135" lon="0.40452">
        <ele>96.2</ele>
        <time>2023-09-10T09:20:07Z</time>
      </trkpt>
      <trkpt lat="46.51139" lon="0.40452">
        <ele>96.4</ele>
        <time>2023-09-10T09:20:08Z</time>
      </trkpt>
      <trkpt lat="46.51142" lon="0.40452">
        <ele>96.6</ele>
        <time>2023-09-10T09:20:09Z</time>
      </trkpt>
      <trkpt lat="46.51148" lon="0.40454">
        <ele>96.8</ele>
        <time>2023-09-10T09:20:11Z</time>
      </trkpt>
      <trkpt lat="46.51157" lon="0.40458">
        <ele>96.8</ele>
        <time>2023-09-10T09:20:13Z</time>
      </trkpt>
      <trkpt lat="46.51166" lon="0.40466">
        <ele>96.6</ele>
        <time>2023-09-10T09:20:16Z</time>
      </trkpt>
      <trkpt lat="46.51175" lon="0.40482">
        <ele>97</ele>
        <time>2023-09-10T09:20:21Z</time>
      </trkpt>
      <trkpt lat="46.51178" lon="0.40488">
        <ele>97.6</ele>
        <time>2023-09-10T09:20:23Z</time>
      </trkpt>
      <trkpt lat="46.51182" lon="0.40497">
        <ele>99</ele>
        <time>2023-09-10T09:20:26Z</time>
      </trkpt>
      <trkpt lat="46.51185" lon="0.40505">
        <ele>100.2</ele>
        <time>2023-09-10T09:20:29Z</time>
      </trkpt>
      <trkpt lat="46.5119" lon="0.40516">
        <ele>101.4</ele>
        <time>2023-09-10T09:20:33Z</time>
      </trkpt>
      <trkpt lat="46.5119" lon="0.4052">
        <ele>102.6</ele>
        <time>2023-09-10T09:20:36Z</time>
      </trkpt>
      <trkpt lat="46.51189" lon="0.40522">
        <ele>102.8</ele>
        <time>2023-09-10T09:20:37Z</time>
      </trkpt>
      <trkpt lat="46.51186" lon="0.40537">
        <ele>103.6</ele>
        <time>2023-09-10T09:20:43Z</time>
      </trkpt>
      <trkpt lat="46.51183" lon="0.40541">
        <ele>104</ele>
        <time>2023-09-10T09:20:45Z</time>
      </trkpt>
      <trkpt lat="46.51181" lon="0.40549">
        <ele>104.8</ele>
        <time>2023-09-10T09:20:49Z</time>
      </trkpt>
      <trkpt lat="46.51179" lon="0.40555">
        <ele>105</ele>
        <time>2023-09-10T09:20:52Z</time>
      </trkpt>
      <trkpt lat="46.51176" lon="0.4057">
        <ele>105.8</ele>
        <time>2023-09-10T09:20:58Z</time>
      </trkpt>
      <trkpt lat="46.51176" lon="0.40573">
        <ele>105.8</ele>
        <time>2023-09-10T09:20:59Z</time>
      </trkpt>
      <trkpt lat="46.51172" lon="0.40581">
        <ele>107.2</ele>
        <time>2023-09-10T09:21:02Z</time>
      </trkpt>
      <trkpt lat="46.51167" lon="0.40589">
        <ele>107.8</ele>
        <time>2023-09-10T09:21:06Z</time>
      </trkpt>
      <trkpt lat="46.51163" lon="0.40603">
        <ele>108.2</ele>
        <time>2023-09-10T09:21:11Z</time>
      </trkpt>
      <trkpt lat="46.51163" lon="0.40605">
        <ele>108.4</ele>
        <time>2023-09-10T09:21:12Z</time>
      </trkpt>
      <trkpt lat="46.51163" lon="0.40611">
        <ele>108.8</ele>
        <time>2023-09-10T09:21:16Z</time>
      </trkpt>
      <trkpt lat="46.51163" lon="0.40613">
        <ele>109</ele>
        <time>2023-09-10T09:21:17Z</time>
      </trkpt>
      <trkpt lat="46.51163" lon="0.40616">
        <ele>109.2</ele>
        <time>2023-09-10T09:21:19Z</time>
      </trkpt>
      <trkpt lat="46.51165" lon="0.4062">
        <ele>109.4</ele>
        <time>2023-09-10T09:21:22Z</time>
      </trkpt>
      <trkpt lat="46.51169" lon="0.40628">
        <ele>109.8</ele>
        <time>2023-09-10T09:21:27Z</time>
      </trkpt>
      <trkpt lat="46.51168" lon="0.40629">
        <ele>109.8</ele>
        <time>2023-09-10T09:21:28Z</time>
      </trkpt>
      <trkpt lat="46.51169" lon="0.40631">
        <ele>109.8</ele>
        <time>2023-09-10T09:21:30Z</time>
      </trkpt>
      <trkpt lat="46.51171" lon="0.40635">
        <ele>109.8</ele>
        <time>2023-09-10T09:21:33Z</time>
      </trkpt>
      <trkpt lat="46.51172" lon="0.40636">
        <ele>109.8</ele>
        <time>2023-09-10T09:21:34Z</time>
      </trkpt>
      <trkpt lat="46.51172" lon="0.40637">
        <ele>109.8</ele>
        <time>2023-09-10T09:21:35Z</time>
      </trkpt>
      <trkpt lat="46.51173" lon="0.40641">
        <ele>110</ele>
        <time>2023-09-10T09:21:38Z</time>
      </trkpt>
      <trkpt lat="46.51176" lon="0.40644">
        <ele>110</ele>
        <time>2023-09-10T09:21:39Z</time>
      </trkpt>
      <trkpt lat="46.51181" lon="0.40658">
        <ele>110.4</ele>
        <time>2023-09-10T09:21:43Z</time>
      </trkpt>
      <trkpt lat="46.51182" lon="0.40662">
        <ele>110.6</ele>
        <time>2023-09-10T09:21:44Z</time>
      </trkpt>
      <trkpt lat="46.51183" lon="0.40671">
        <ele>111</ele>
        <time>2023-09-10T09:21:48Z</time>
      </trkpt>
      <trkpt lat="46.51182" lon="0.40676">
        <ele>111.2</ele>
        <time>2023-09-10T09:21:49Z</time>
      </trkpt>
      <trkpt lat="46.51182" lon="0.40693">
        <ele>111.6</ele>
        <time>2023-09-10T09:21:54Z</time>
      </trkpt>
      <trkpt lat="46.51183" lon="0.40697">
        <ele>111.8</ele>
        <time>2023-09-10T09:21:55Z</time>
      </trkpt>
      <trkpt lat="46.51183" lon="0.40721">
        <ele>112.4</ele>
        <time>2023-09-10T09:22:01Z</time>
      </trkpt>
      <trkpt lat="46.51179" lon="0.40735">
        <ele>112.6</ele>
        <time>2023-09-10T09:22:04Z</time>
      </trkpt>
      <trkpt lat="46.51178" lon="0.40737">
        <ele>112.6</ele>
        <time>2023-09-10T09:22:05Z</time>
      </trkpt>
      <trkpt lat="46.51175" lon="0.40742">
        <ele>112.6</ele>
        <time>2023-09-10T09:22:07Z</time>
      </trkpt>
      <trkpt lat="46.51163" lon="0.40762">
        <ele>113</ele>
        <time>2023-09-10T09:22:14Z</time>
      </trkpt>
      <trkpt lat="46.51158" lon="0.40778">
        <ele>113.6</ele>
        <time>2023-09-10T09:22:19Z</time>
      </trkpt>
      <trkpt lat="46.51156" lon="0.40782">
        <ele>113.6</ele>
        <time>2023-09-10T09:22:20Z</time>
      </trkpt>
      <trkpt lat="46.51154" lon="0.40796">
        <ele>113.6</ele>
        <time>2023-09-10T09:22:25Z</time>
      </trkpt>
      <trkpt lat="46.51161" lon="0.4081">
        <ele>113.6</ele>
        <time>2023-09-10T09:22:32Z</time>
      </trkpt>
      <trkpt lat="46.51167" lon="0.40819">
        <ele>113.6</ele>
        <time>2023-09-10T09:22:35Z</time>
      </trkpt>
      <trkpt lat="46.51173" lon="0.40824">
        <ele>113.6</ele>
        <time>2023-09-10T09:22:37Z</time>
      </trkpt>
      <trkpt lat="46.51178" lon="0.40829">
        <ele>113.8</ele>
        <time>2023-09-10T09:22:39Z</time>
      </trkpt>
      <trkpt lat="46.51181" lon="0.40832">
        <ele>113.8</ele>
        <time>2023-09-10T09:22:40Z</time>
      </trkpt>
      <trkpt lat="46.51194" lon="0.40847">
        <ele>113.8</ele>
        <time>2023-09-10T09:22:45Z</time>
      </trkpt>
      <trkpt lat="46.512" lon="0.40853">
        <ele>113.8</ele>
        <time>2023-09-10T09:22:47Z</time>
      </trkpt>
      <trkpt lat="46.51213" lon="0.40869">
        <ele>114</ele>
        <time>2023-09-10T09:22:52Z</time>
      </trkpt>
      <trkpt lat="46.51228" lon="0.4088">
        <ele>113.8</ele>
        <time>2023-09-10T09:22:54Z</time>
      </trkpt>
      <trkpt lat="46.51231" lon="0.4089">
        <ele>113.8</ele>
        <time>2023-09-10T09:22:56Z</time>
      </trkpt>
      <trkpt lat="46.51236" lon="0.40907">
        <ele>113.8</ele>
        <time>2023-09-10T09:22:59Z</time>
      </trkpt>
      <trkpt lat="46.51235" lon="0.40929">
        <ele>114.2</ele>
        <time>2023-09-10T09:23:03Z</time>
      </trkpt>
      <trkpt lat="46.51234" lon="0.40939">
        <ele>114.2</ele>
        <time>2023-09-10T09:23:05Z</time>
      </trkpt>
      <trkpt lat="46.51232" lon="0.4095">
        <ele>114.6</ele>
        <time>2023-09-10T09:23:07Z</time>
      </trkpt>
      <trkpt lat="46.51227" lon="0.40976">
        <ele>114.6</ele>
        <time>2023-09-10T09:23:12Z</time>
      </trkpt>
      <trkpt lat="46.51218" lon="0.40997">
        <ele>114</ele>
        <time>2023-09-10T09:23:16Z</time>
      </trkpt>
      <trkpt lat="46.51213" lon="0.4101">
        <ele>114</ele>
        <time>2023-09-10T09:23:18Z</time>
      </trkpt>
      <trkpt lat="46.51207" lon="0.41028">
        <ele>113.6</ele>
        <time>2023-09-10T09:23:21Z</time>
      </trkpt>
      <trkpt lat="46.51204" lon="0.4104">
        <ele>112.8</ele>
        <time>2023-09-10T09:23:23Z</time>
      </trkpt>
      <trkpt lat="46.51203" lon="0.41046">
        <ele>112.2</ele>
        <time>2023-09-10T09:23:24Z</time>
      </trkpt>
      <trkpt lat="46.51201" lon="0.41053">
        <ele>111.8</ele>
        <time>2023-09-10T09:23:25Z</time>
      </trkpt>
      <trkpt lat="46.51201" lon="0.41072">
        <ele>110.4</ele>
        <time>2023-09-10T09:23:28Z</time>
      </trkpt>
      <trkpt lat="46.51201" lon="0.41079">
        <ele>109.8</ele>
        <time>2023-09-10T09:23:29Z</time>
      </trkpt>
      <trkpt lat="46.512" lon="0.41088">
        <ele>109.2</ele>
        <time>2023-09-10T09:23:30Z</time>
      </trkpt>
      <trkpt lat="46.51199" lon="0.41104">
        <ele>107.6</ele>
        <time>2023-09-10T09:23:33Z</time>
      </trkpt>
      <trkpt lat="46.512" lon="0.41115">
        <ele>106.8</ele>
        <time>2023-09-10T09:23:35Z</time>
      </trkpt>
      <trkpt lat="46.512" lon="0.4112">
        <ele>106.6</ele>
        <time>2023-09-10T09:23:36Z</time>
      </trkpt>
      <trkpt lat="46.512" lon="0.41135">
        <ele>105.4</ele>
        <time>2023-09-10T09:23:39Z</time>
      </trkpt>
      <trkpt lat="46.51198" lon="0.41148">
        <ele>104.6</ele>
        <time>2023-09-10T09:23:41Z</time>
      </trkpt>
      <trkpt lat="46.51198" lon="0.41152">
        <ele>104</ele>
        <time>2023-09-10T09:23:42Z</time>
      </trkpt>
      <trkpt lat="46.51199" lon="0.41166">
        <ele>102.8</ele>
        <time>2023-09-10T09:23:45Z</time>
      </trkpt>
      <trkpt lat="46.51199" lon="0.4117">
        <ele>102.6</ele>
        <time>2023-09-10T09:23:46Z</time>
      </trkpt>
      <trkpt lat="46.512" lon="0.4118">
        <ele>101.6</ele>
        <time>2023-09-10T09:23:49Z</time>
      </trkpt>
      <trkpt lat="46.51199" lon="0.41186">
        <ele>100.4</ele>
        <time>2023-09-10T09:23:52Z</time>
      </trkpt>
      <trkpt lat="46.51198" lon="0.41192">
        <ele>99.2</ele>
        <time>2023-09-10T09:23:54Z</time>
      </trkpt>
      <trkpt lat="46.51197" lon="0.41199">
        <ele>97.8</ele>
        <time>2023-09-10T09:23:56Z</time>
      </trkpt>
      <trkpt lat="46.51197" lon="0.41203">
        <ele>97.4</ele>
        <time>2023-09-10T09:23:57Z</time>
      </trkpt>
      <trkpt lat="46.51198" lon="0.41211">
        <ele>96.6</ele>
        <time>2023-09-10T09:23:59Z</time>
      </trkpt>
      <trkpt lat="46.51203" lon="0.41224">
        <ele>96.2</ele>
        <time>2023-09-10T09:24:02Z</time>
      </trkpt>
      <trkpt lat="46.51204" lon="0.41227">
        <ele>96.2</ele>
        <time>2023-09-10T09:24:03Z</time>
      </trkpt>
      <trkpt lat="46.51204" lon="0.41237">
        <ele>96</ele>
        <time>2023-09-10T09:24:06Z</time>
      </trkpt>
      <trkpt lat="46.51204" lon="0.41242">
        <ele>96</ele>
        <time>2023-09-10T09:24:07Z</time>
      </trkpt>
      <trkpt lat="46.51202" lon="0.41249">
        <ele>95.8</ele>
        <time>2023-09-10T09:24:09Z</time>
      </trkpt>
      <trkpt lat="46.512" lon="0.41253">
        <ele>95.6</ele>
        <time>2023-09-10T09:24:10Z</time>
      </trkpt>
      <trkpt lat="46.51194" lon="0.41259">
        <ele>95</ele>
        <time>2023-09-10T09:24:12Z</time>
      </trkpt>
      <trkpt lat="46.51186" lon="0.41264">
        <ele>94</ele>
        <time>2023-09-10T09:24:14Z</time>
      </trkpt>
      <trkpt lat="46.51165" lon="0.41276">
        <ele>93</ele>
        <time>2023-09-10T09:24:18Z</time>
      </trkpt>
      <trkpt lat="46.5114" lon="0.41282">
        <ele>92.6</ele>
        <time>2023-09-10T09:24:21Z</time>
      </trkpt>
      <trkpt lat="46.51101" lon="0.41284">
        <ele>93.2</ele>
        <time>2023-09-10T09:24:27Z</time>
      </trkpt>
      <trkpt lat="46.51094" lon="0.4129">
        <ele>93.8</ele>
        <time>2023-09-10T09:24:29Z</time>
      </trkpt>
      <trkpt lat="46.51091" lon="0.41294">
        <ele>93.8</ele>
        <time>2023-09-10T09:24:30Z</time>
      </trkpt>
      <trkpt lat="46.51082" lon="0.41318">
        <ele>93.8</ele>
        <time>2023-09-10T09:24:34Z</time>
      </trkpt>
      <trkpt lat="46.51079" lon="0.41324">
        <ele>93.8</ele>
        <time>2023-09-10T09:24:35Z</time>
      </trkpt>
      <trkpt lat="46.51058" lon="0.41373">
        <ele>93.4</ele>
        <time>2023-09-10T09:24:42Z</time>
      </trkpt>
      <trkpt lat="46.51047" lon="0.41402">
        <ele>93.6</ele>
        <time>2023-09-10T09:24:47Z</time>
      </trkpt>
      <trkpt lat="46.51046" lon="0.41406">
        <ele>93.4</ele>
        <time>2023-09-10T09:24:49Z</time>
      </trkpt>
      <trkpt lat="46.51045" lon="0.41409">
        <ele>93.2</ele>
        <time>2023-09-10T09:24:51Z</time>
      </trkpt>
      <trkpt lat="46.51045" lon="0.4141">
        <ele>93.2</ele>
        <time>2023-09-10T09:24:52Z</time>
      </trkpt>
      <trkpt lat="46.51046" lon="0.41412">
        <ele>93.2</ele>
        <time>2023-09-10T09:24:54Z</time>
      </trkpt>
      <trkpt lat="46.5105" lon="0.41419">
        <ele>93.4</ele>
        <time>2023-09-10T09:24:57Z</time>
      </trkpt>
      <trkpt lat="46.51046" lon="0.41435">
        <ele>93.4</ele>
        <time>2023-09-10T09:25:01Z</time>
      </trkpt>
      <trkpt lat="46.51043" lon="0.41452">
        <ele>94.2</ele>
        <time>2023-09-10T09:25:06Z</time>
      </trkpt>
      <trkpt lat="46.51043" lon="0.41455">
        <ele>94.4</ele>
        <time>2023-09-10T09:25:07Z</time>
      </trkpt>
      <trkpt lat="46.51042" lon="0.41462">
        <ele>95.2</ele>
        <time>2023-09-10T09:25:10Z</time>
      </trkpt>
      <trkpt lat="46.51039" lon="0.41474">
        <ele>96.8</ele>
        <time>2023-09-10T09:25:14Z</time>
      </trkpt>
      <trkpt lat="46.51038" lon="0.41482">
        <ele>98</ele>
        <time>2023-09-10T09:25:17Z</time>
      </trkpt>
      <trkpt lat="46.51039" lon="0.41493">
        <ele>99.4</ele>
        <time>2023-09-10T09:25:21Z</time>
      </trkpt>
      <trkpt lat="46.5104" lon="0.41495">
        <ele>100</ele>
        <time>2023-09-10T09:25:22Z</time>
      </trkpt>
      <trkpt lat="46.5104" lon="0.41495">
        <ele>101</ele>
        <time>2023-09-10T09:25:23Z</time>
      </trkpt>
      <trkpt lat="46.51047" lon="0.41503">
        <ele>101.8</ele>
        <time>2023-09-10T09:25:26Z</time>
      </trkpt>
      <trkpt lat="46.5105" lon="0.41505">
        <ele>102.2</ele>
        <time>2023-09-10T09:25:28Z</time>
      </trkpt>
      <trkpt lat="46.51059" lon="0.41511">
        <ele>103.2</ele>
        <time>2023-09-10T09:25:34Z</time>
      </trkpt>
      <trkpt lat="46.51073" lon="0.41514">
        <ele>104.2</ele>
        <time>2023-09-10T09:25:42Z</time>
      </trkpt>
      <trkpt lat="46.51074" lon="0.41515">
        <ele>104.4</ele>
        <time>2023-09-10T09:25:43Z</time>
      </trkpt>
      <trkpt lat="46.51078" lon="0.41517">
        <ele>105.4</ele>
        <time>2023-09-10T09:25:46Z</time>
      </trkpt>
      <trkpt lat="46.51079" lon="0.41519">
        <ele>105.6</ele>
        <time>2023-09-10T09:25:47Z</time>
      </trkpt>
      <trkpt lat="46.5108" lon="0.41521">
        <ele>106.2</ele>
        <time>2023-09-10T09:25:48Z</time>
      </trkpt>
      <trkpt lat="46.51081" lon="0.41523">
        <ele>106.4</ele>
        <time>2023-09-10T09:25:49Z</time>
      </trkpt>
      <trkpt lat="46.51084" lon="0.41527">
        <ele>107.6</ele>
        <time>2023-09-10T09:25:51Z</time>
      </trkpt>
      <trkpt lat="46.51086" lon="0.41532">
        <ele>108.6</ele>
        <time>2023-09-10T09:25:54Z</time>
      </trkpt>
      <trkpt lat="46.51086" lon="0.41533">
        <ele>109</ele>
        <time>2023-09-10T09:25:55Z</time>
      </trkpt>
      <trkpt lat="46.51086" lon="0.41536">
        <ele>109.4</ele>
        <time>2023-09-10T09:25:57Z</time>
      </trkpt>
      <trkpt lat="46.51089" lon="0.41538">
        <ele>109.6</ele>
        <time>2023-09-10T09:26:01Z</time>
      </trkpt>
      <trkpt lat="46.5109" lon="0.41538">
        <ele>109.6</ele>
        <time>2023-09-10T09:26:02Z</time>
      </trkpt>
      <trkpt lat="46.51093" lon="0.41536">
        <ele>109.8</ele>
        <time>2023-09-10T09:26:05Z</time>
      </trkpt>
      <trkpt lat="46.51096" lon="0.41535">
        <ele>110</ele>
        <time>2023-09-10T09:26:07Z</time>
      </trkpt>
      <trkpt lat="46.511" lon="0.41534">
        <ele>110</ele>
        <time>2023-09-10T09:26:09Z</time>
      </trkpt>
      <trkpt lat="46.51113" lon="0.41532">
        <ele>110.6</ele>
        <time>2023-09-10T09:26:16Z</time>
      </trkpt>
      <trkpt lat="46.51124" lon="0.4153">
        <ele>111</ele>
        <time>2023-09-10T09:26:21Z</time>
      </trkpt>
      <trkpt lat="46.51133" lon="0.41528">
        <ele>111.4</ele>
        <time>2023-09-10T09:26:24Z</time>
      </trkpt>
      <trkpt lat="46.51152" lon="0.41525">
        <ele>112.2</ele>
        <time>2023-09-10T09:26:30Z</time>
      </trkpt>
      <trkpt lat="46.51155" lon="0.41524">
        <ele>112.2</ele>
        <time>2023-09-10T09:26:31Z</time>
      </trkpt>
      <trkpt lat="46.51178" lon="0.41519">
        <ele>113.2</ele>
        <time>2023-09-10T09:26:39Z</time>
      </trkpt>
      <trkpt lat="46.51185" lon="0.41519">
        <ele>113.8</ele>
        <time>2023-09-10T09:26:41Z</time>
      </trkpt>
      <trkpt lat="46.51198" lon="0.41518">
        <ele>114.4</ele>
        <time>2023-09-10T09:26:45Z</time>
      </trkpt>
      <trkpt lat="46.51212" lon="0.4152">
        <ele>115</ele>
        <time>2023-09-10T09:26:49Z</time>
      </trkpt>
      <trkpt lat="46.51221" lon="0.41523">
        <ele>115.4</ele>
        <time>2023-09-10T09:26:52Z</time>
      </trkpt>
      <trkpt lat="46.51236" lon="0.41528">
        <ele>116.6</ele>
        <time>2023-09-10T09:26:57Z</time>
      </trkpt>
      <trkpt lat="46.51263" lon="0.41538">
        <ele>117.6</ele>
        <time>2023-09-10T09:27:05Z</time>
      </trkpt>
      <trkpt lat="46.51285" lon="0.41554">
        <ele>118.6</ele>
        <time>2023-09-10T09:27:12Z</time>
      </trkpt>
      <trkpt lat="46.51296" lon="0.41565">
        <ele>119.6</ele>
        <time>2023-09-10T09:27:16Z</time>
      </trkpt>
      <trkpt lat="46.51299" lon="0.41565">
        <ele>119.8</ele>
        <time>2023-09-10T09:27:17Z</time>
      </trkpt>
      <trkpt lat="46.51308" lon="0.41554">
        <ele>120.4</ele>
        <time>2023-09-10T09:27:21Z</time>
      </trkpt>
      <trkpt lat="46.51315" lon="0.41535">
        <ele>120.6</ele>
        <time>2023-09-10T09:27:26Z</time>
      </trkpt>
      <trkpt lat="46.51316" lon="0.41531">
        <ele>120.6</ele>
        <time>2023-09-10T09:27:27Z</time>
      </trkpt>
      <trkpt lat="46.51317" lon="0.4151">
        <ele>120.4</ele>
        <time>2023-09-10T09:27:32Z</time>
      </trkpt>
      <trkpt lat="46.51323" lon="0.41479">
        <ele>120</ele>
        <time>2023-09-10T09:27:39Z</time>
      </trkpt>
      <trkpt lat="46.51328" lon="0.41445">
        <ele>119.8</ele>
        <time>2023-09-10T09:27:46Z</time>
      </trkpt>
      <trkpt lat="46.51332" lon="0.41423">
        <ele>119.8</ele>
        <time>2023-09-10T09:27:50Z</time>
      </trkpt>
      <trkpt lat="46.51335" lon="0.41407">
        <ele>119.6</ele>
        <time>2023-09-10T09:27:53Z</time>
      </trkpt>
      <trkpt lat="46.51337" lon="0.41402">
        <ele>119.4</ele>
        <time>2023-09-10T09:27:54Z</time>
      </trkpt>
      <trkpt lat="46.51341" lon="0.41382">
        <ele>119.4</ele>
        <time>2023-09-10T09:27:57Z</time>
      </trkpt>
      <trkpt lat="46.51342" lon="0.41375">
        <ele>119.4</ele>
        <time>2023-09-10T09:27:58Z</time>
      </trkpt>
      <trkpt lat="46.5135" lon="0.41329">
        <ele>119.4</ele>
        <time>2023-09-10T09:28:04Z</time>
      </trkpt>
      <trkpt lat="46.51362" lon="0.41286">
        <ele>119</ele>
        <time>2023-09-10T09:28:11Z</time>
      </trkpt>
      <trkpt lat="46.51369" lon="0.41265">
        <ele>118.8</ele>
        <time>2023-09-10T09:28:16Z</time>
      </trkpt>
      <trkpt lat="46.51371" lon="0.41262">
        <ele>118.8</ele>
        <time>2023-09-10T09:28:17Z</time>
      </trkpt>
      <trkpt lat="46.51372" lon="0.4126">
        <ele>118.8</ele>
        <time>2023-09-10T09:28:18Z</time>
      </trkpt>
      <trkpt lat="46.51376" lon="0.41255">
        <ele>118.4</ele>
        <time>2023-09-10T09:28:20Z</time>
      </trkpt>
      <trkpt lat="46.51383" lon="0.4124">
        <ele>117.8</ele>
        <time>2023-09-10T09:28:24Z</time>
      </trkpt>
      <trkpt lat="46.51385" lon="0.4123">
        <ele>117.6</ele>
        <time>2023-09-10T09:28:26Z</time>
      </trkpt>
      <trkpt lat="46.5139" lon="0.41205">
        <ele>117.4</ele>
        <time>2023-09-10T09:28:30Z</time>
      </trkpt>
      <trkpt lat="46.51392" lon="0.412">
        <ele>117.4</ele>
        <time>2023-09-10T09:28:31Z</time>
      </trkpt>
      <trkpt lat="46.51409" lon="0.41164">
        <ele>116.8</ele>
        <time>2023-09-10T09:28:38Z</time>
      </trkpt>
      <trkpt lat="46.51418" lon="0.4114">
        <ele>116.2</ele>
        <time>2023-09-10T09:28:41Z</time>
      </trkpt>
      <trkpt lat="46.51422" lon="0.41133">
        <ele>116</ele>
        <time>2023-09-10T09:28:42Z</time>
      </trkpt>
      <trkpt lat="46.51422" lon="0.41133">
        <ele>115.6</ele>
        <time>2023-09-10T09:28:43Z</time>
      </trkpt>
      <trkpt lat="46.5143" lon="0.41108">
        <ele>115.4</ele>
        <time>2023-09-10T09:28:45Z</time>
      </trkpt>
      <trkpt lat="46.51431" lon="0.41088">
        <ele>115.2</ele>
        <time>2023-09-10T09:28:47Z</time>
      </trkpt>
      <trkpt lat="46.51432" lon="0.41078">
        <ele>114.8</ele>
        <time>2023-09-10T09:28:48Z</time>
      </trkpt>
      <trkpt lat="46.51432" lon="0.41059">
        <ele>114.2</ele>
        <time>2023-09-10T09:28:50Z</time>
      </trkpt>
      <trkpt lat="46.51431" lon="0.41037">
        <ele>113.8</ele>
        <time>2023-09-10T09:28:52Z</time>
      </trkpt>
      <trkpt lat="46.51427" lon="0.4101">
        <ele>113.2</ele>
        <time>2023-09-10T09:28:54Z</time>
      </trkpt>
      <trkpt lat="46.51426" lon="0.41">
        <ele>112.6</ele>
        <time>2023-09-10T09:28:55Z</time>
      </trkpt>
      <trkpt lat="46.51425" lon="0.40981">
        <ele>111.2</ele>
        <time>2023-09-10T09:28:57Z</time>
      </trkpt>
      <trkpt lat="46.51426" lon="0.40961">
        <ele>110.2</ele>
        <time>2023-09-10T09:28:59Z</time>
      </trkpt>
      <trkpt lat="46.51428" lon="0.40951">
        <ele>109.8</ele>
        <time>2023-09-10T09:29:00Z</time>
      </trkpt>
      <trkpt lat="46.51433" lon="0.40915">
        <ele>107.4</ele>
        <time>2023-09-10T09:29:04Z</time>
      </trkpt>
      <trkpt lat="46.51434" lon="0.40907">
        <ele>106.2</ele>
        <time>2023-09-10T09:29:05Z</time>
      </trkpt>
      <trkpt lat="46.51435" lon="0.40892">
        <ele>104.8</ele>
        <time>2023-09-10T09:29:07Z</time>
      </trkpt>
      <trkpt lat="46.51435" lon="0.40877">
        <ele>103.4</ele>
        <time>2023-09-10T09:29:09Z</time>
      </trkpt>
      <trkpt lat="46.51434" lon="0.40868">
        <ele>102.8</ele>
        <time>2023-09-10T09:29:10Z</time>
      </trkpt>
      <trkpt lat="46.51431" lon="0.40861">
        <ele>102.2</ele>
        <time>2023-09-10T09:29:11Z</time>
      </trkpt>
      <trkpt lat="46.5143" lon="0.40856">
        <ele>102</ele>
        <time>2023-09-10T09:29:12Z</time>
      </trkpt>
      <trkpt lat="46.51426" lon="0.4084">
        <ele>101.4</ele>
        <time>2023-09-10T09:29:16Z</time>
      </trkpt>
      <trkpt lat="46.51425" lon="0.4083">
        <ele>101.2</ele>
        <time>2023-09-10T09:29:19Z</time>
      </trkpt>
      <trkpt lat="46.51423" lon="0.40824">
        <ele>101.2</ele>
        <time>2023-09-10T09:29:21Z</time>
      </trkpt>
      <trkpt lat="46.51419" lon="0.40813">
        <ele>101</ele>
        <time>2023-09-10T09:29:24Z</time>
      </trkpt>
      <trkpt lat="46.51413" lon="0.40797">
        <ele>100.2</ele>
        <time>2023-09-10T09:29:29Z</time>
      </trkpt>
      <trkpt lat="46.51412" lon="0.40795">
        <ele>99.6</ele>
        <time>2023-09-10T09:29:30Z</time>
      </trkpt>
      <trkpt lat="46.51411" lon="0.40793">
        <ele>99.4</ele>
        <time>2023-09-10T09:29:31Z</time>
      </trkpt>
      <trkpt lat="46.5141" lon="0.40791">
        <ele>99.4</ele>
        <time>2023-09-10T09:29:32Z</time>
      </trkpt>
      <trkpt lat="46.51406" lon="0.40775">
        <ele>99.4</ele>
        <time>2023-09-10T09:29:37Z</time>
      </trkpt>
      <trkpt lat="46.51399" lon="0.40768">
        <ele>99.6</ele>
        <time>2023-09-10T09:29:39Z</time>
      </trkpt>
      <trkpt lat="46.51397" lon="0.40762">
        <ele>99.6</ele>
        <time>2023-09-10T09:29:41Z</time>
      </trkpt>
      <trkpt lat="46.51394" lon="0.40751">
        <ele>99.8</ele>
        <time>2023-09-10T09:29:43Z</time>
      </trkpt>
      <trkpt lat="46.5139" lon="0.40725">
        <ele>100</ele>
        <time>2023-09-10T09:29:49Z</time>
      </trkpt>
      <trkpt lat="46.51388" lon="0.4072">
        <ele>100</ele>
        <time>2023-09-10T09:29:50Z</time>
      </trkpt>
      <trkpt lat="46.51387" lon="0.40712">
        <ele>100.2</ele>
        <time>2023-09-10T09:29:52Z</time>
      </trkpt>
      <trkpt lat="46.51389" lon="0.40697">
        <ele>100.4</ele>
        <time>2023-09-10T09:29:55Z</time>
      </trkpt>
      <trkpt lat="46.51394" lon="0.4068">
        <ele>100.2</ele>
        <time>2023-09-10T09:29:59Z</time>
      </trkpt>
      <trkpt lat="46.51395" lon="0.40676">
        <ele>100.2</ele>
        <time>2023-09-10T09:30:00Z</time>
      </trkpt>
      <trkpt lat="46.51396" lon="0.40671">
        <ele>100.4</ele>
        <time>2023-09-10T09:30:01Z</time>
      </trkpt>
      <trkpt lat="46.51398" lon="0.40657">
        <ele>101.4</ele>
        <time>2023-09-10T09:30:04Z</time>
      </trkpt>
      <trkpt lat="46.51399" lon="0.40653">
        <ele>101.4</ele>
        <time>2023-09-10T09:30:05Z</time>
      </trkpt>
      <trkpt lat="46.51404" lon="0.40643">
        <ele>102.4</ele>
        <time>2023-09-10T09:30:10Z</time>
      </trkpt>
      <trkpt lat="46.51405" lon="0.40641">
        <ele>102.6</ele>
        <time>2023-09-10T09:30:11Z</time>
      </trkpt>
      <trkpt lat="46.51406" lon="0.40636">
        <ele>103.8</ele>
        <time>2023-09-10T09:30:13Z</time>
      </trkpt>
      <trkpt lat="46.51407" lon="0.40632">
        <ele>105</ele>
        <time>2023-09-10T09:30:15Z</time>
      </trkpt>
      <trkpt lat="46.5141" lon="0.40626">
        <ele>106</ele>
        <time>2023-09-10T09:30:18Z</time>
      </trkpt>
      <trkpt lat="46.51411" lon="0.40625">
        <ele>106.4</ele>
        <time>2023-09-10T09:30:19Z</time>
      </trkpt>
      <trkpt lat="46.51412" lon="0.40623">
        <ele>106.6</ele>
        <time>2023-09-10T09:30:20Z</time>
      </trkpt>
      <trkpt lat="46.51415" lon="0.40618">
        <ele>107.2</ele>
        <time>2023-09-10T09:30:23Z</time>
      </trkpt>
      <trkpt lat="46.51419" lon="0.40615">
        <ele>108.4</ele>
        <time>2023-09-10T09:30:27Z</time>
      </trkpt>
      <trkpt lat="46.51424" lon="0.40606">
        <ele>109.2</ele>
        <time>2023-09-10T09:30:32Z</time>
      </trkpt>
      <trkpt lat="46.51426" lon="0.40603">
        <ele>109.4</ele>
        <time>2023-09-10T09:30:34Z</time>
      </trkpt>
      <trkpt lat="46.51427" lon="0.406">
        <ele>109.6</ele>
        <time>2023-09-10T09:30:35Z</time>
      </trkpt>
      <trkpt lat="46.51431" lon="0.40586">
        <ele>110.2</ele>
        <time>2023-09-10T09:30:40Z</time>
      </trkpt>
      <trkpt lat="46.51435" lon="0.40577">
        <ele>110.8</ele>
        <time>2023-09-10T09:30:43Z</time>
      </trkpt>
      <trkpt lat="46.51441" lon="0.40561">
        <ele>111.2</ele>
        <time>2023-09-10T09:30:46Z</time>
      </trkpt>
      <trkpt lat="46.51449" lon="0.40517">
        <ele>112</ele>
        <time>2023-09-10T09:30:53Z</time>
      </trkpt>
      <trkpt lat="46.51453" lon="0.40499">
        <ele>112.6</ele>
        <time>2023-09-10T09:30:56Z</time>
      </trkpt>
      <trkpt lat="46.51455" lon="0.40488">
        <ele>113</ele>
        <time>2023-09-10T09:30:58Z</time>
      </trkpt>
      <trkpt lat="46.51457" lon="0.40478">
        <ele>113.4</ele>
        <time>2023-09-10T09:31:00Z</time>
      </trkpt>
      <trkpt lat="46.5146" lon="0.40461">
        <ele>113.8</ele>
        <time>2023-09-10T09:31:03Z</time>
      </trkpt>
      <trkpt lat="46.51463" lon="0.40448">
        <ele>114</ele>
        <time>2023-09-10T09:31:05Z</time>
      </trkpt>
      <trkpt lat="46.51465" lon="0.40426">
        <ele>115</ele>
        <time>2023-09-10T09:31:08Z</time>
      </trkpt>
      <trkpt lat="46.51465" lon="0.40418">
        <ele>115.2</ele>
        <time>2023-09-10T09:31:09Z</time>
      </trkpt>
      <trkpt lat="46.51467" lon="0.40371">
        <ele>115.8</ele>
        <time>2023-09-10T09:31:16Z</time>
      </trkpt>
      <trkpt lat="46.51467" lon="0.40352">
        <ele>116</ele>
        <time>2023-09-10T09:31:19Z</time>
      </trkpt>
      <trkpt lat="46.5147" lon="0.40335">
        <ele>116.4</ele>
        <time>2023-09-10T09:31:22Z</time>
      </trkpt>
      <trkpt lat="46.51471" lon="0.40329">
        <ele>116.6</ele>
        <time>2023-09-10T09:31:23Z</time>
      </trkpt>
      <trkpt lat="46.51483" lon="0.4029">
        <ele>116.6</ele>
        <time>2023-09-10T09:31:30Z</time>
      </trkpt>
      <trkpt lat="46.51485" lon="0.40285">
        <ele>116.6</ele>
        <time>2023-09-10T09:31:31Z</time>
      </trkpt>
      <trkpt lat="46.51495" lon="0.40253">
        <ele>116.4</ele>
        <time>2023-09-10T09:31:36Z</time>
      </trkpt>
      <trkpt lat="46.51505" lon="0.402">
        <ele>116.4</ele>
        <time>2023-09-10T09:31:43Z</time>
      </trkpt>
      <trkpt lat="46.51514" lon="0.40136">
        <ele>115.6</ele>
        <time>2023-09-10T09:31:51Z</time>
      </trkpt>
      <trkpt lat="46.51525" lon="0.40061">
        <ele>115.4</ele>
        <time>2023-09-10T09:31:59Z</time>
      </trkpt>
      <trkpt lat="46.51526" lon="0.40041">
        <ele>115.2</ele>
        <time>2023-09-10T09:32:01Z</time>
      </trkpt>
      <trkpt lat="46.51523" lon="0.40012">
        <ele>115</ele>
        <time>2023-09-10T09:32:04Z</time>
      </trkpt>
      <trkpt lat="46.51517" lon="0.39968">
        <ele>114</ele>
        <time>2023-09-10T09:32:09Z</time>
      </trkpt>
      <trkpt lat="46.51517" lon="0.39958">
        <ele>113.8</ele>
        <time>2023-09-10T09:32:10Z</time>
      </trkpt>
      <trkpt lat="46.51518" lon="0.39902">
        <ele>112.6</ele>
        <time>2023-09-10T09:32:15Z</time>
      </trkpt>
      <trkpt lat="46.51519" lon="0.39892">
        <ele>112.4</ele>
        <time>2023-09-10T09:32:16Z</time>
      </trkpt>
      <trkpt lat="46.51529" lon="0.39848">
        <ele>111.4</ele>
        <time>2023-09-10T09:32:20Z</time>
      </trkpt>
      <trkpt lat="46.51532" lon="0.39838">
        <ele>111.2</ele>
        <time>2023-09-10T09:32:21Z</time>
      </trkpt>
      <trkpt lat="46.51543" lon="0.39799">
        <ele>110</ele>
        <time>2023-09-10T09:32:25Z</time>
      </trkpt>
      <trkpt lat="46.51548" lon="0.39778">
        <ele>109.6</ele>
        <time>2023-09-10T09:32:27Z</time>
      </trkpt>
      <trkpt lat="46.51554" lon="0.39746">
        <ele>108.8</ele>
        <time>2023-09-10T09:32:30Z</time>
      </trkpt>
      <trkpt lat="46.51557" lon="0.39712">
        <ele>107.8</ele>
        <time>2023-09-10T09:32:33Z</time>
      </trkpt>
      <trkpt lat="46.51561" lon="0.39672">
        <ele>106.6</ele>
        <time>2023-09-10T09:32:37Z</time>
      </trkpt>
      <trkpt lat="46.51562" lon="0.39664">
        <ele>106</ele>
        <time>2023-09-10T09:32:38Z</time>
      </trkpt>
      <trkpt lat="46.51564" lon="0.39649">
        <ele>105.2</ele>
        <time>2023-09-10T09:32:40Z</time>
      </trkpt>
      <trkpt lat="46.51565" lon="0.39626">
        <ele>105</ele>
        <time>2023-09-10T09:32:44Z</time>
      </trkpt>
      <trkpt lat="46.51566" lon="0.39619">
        <ele>105.2</ele>
        <time>2023-09-10T09:32:45Z</time>
      </trkpt>
      <trkpt lat="46.51568" lon="0.3959">
        <ele>106</ele>
        <time>2023-09-10T09:32:49Z</time>
      </trkpt>
      <trkpt lat="46.51569" lon="0.39561">
        <ele>106.2</ele>
        <time>2023-09-10T09:32:53Z</time>
      </trkpt>
      <trkpt lat="46.51569" lon="0.39552">
        <ele>106.2</ele>
        <time>2023-09-10T09:32:54Z</time>
      </trkpt>
      <trkpt lat="46.51569" lon="0.39514">
        <ele>105.8</ele>
        <time>2023-09-10T09:32:59Z</time>
      </trkpt>
      <trkpt lat="46.51572" lon="0.39461">
        <ele>105.4</ele>
        <time>2023-09-10T09:33:04Z</time>
      </trkpt>
      <trkpt lat="46.51579" lon="0.3943">
        <ele>104.2</ele>
        <time>2023-09-10T09:33:07Z</time>
      </trkpt>
      <trkpt lat="46.51582" lon="0.39411">
        <ele>102.2</ele>
        <time>2023-09-10T09:33:09Z</time>
      </trkpt>
      <trkpt lat="46.51585" lon="0.39392">
        <ele>100.8</ele>
        <time>2023-09-10T09:33:11Z</time>
      </trkpt>
      <trkpt lat="46.51584" lon="0.39374">
        <ele>99.8</ele>
        <time>2023-09-10T09:33:13Z</time>
      </trkpt>
      <trkpt lat="46.51582" lon="0.39354">
        <ele>98</ele>
        <time>2023-09-10T09:33:15Z</time>
      </trkpt>
      <trkpt lat="46.51581" lon="0.39345">
        <ele>97.4</ele>
        <time>2023-09-10T09:33:16Z</time>
      </trkpt>
      <trkpt lat="46.51583" lon="0.39337">
        <ele>97</ele>
        <time>2023-09-10T09:33:17Z</time>
      </trkpt>
      <trkpt lat="46.51584" lon="0.3933">
        <ele>96.8</ele>
        <time>2023-09-10T09:33:18Z</time>
      </trkpt>
      <trkpt lat="46.5159" lon="0.39318">
        <ele>95.6</ele>
        <time>2023-09-10T09:33:20Z</time>
      </trkpt>
      <trkpt lat="46.51594" lon="0.39313">
        <ele>95</ele>
        <time>2023-09-10T09:33:21Z</time>
      </trkpt>
      <trkpt lat="46.51598" lon="0.39309">
        <ele>94.6</ele>
        <time>2023-09-10T09:33:22Z</time>
      </trkpt>
      <trkpt lat="46.51606" lon="0.39304">
        <ele>94.2</ele>
        <time>2023-09-10T09:33:24Z</time>
      </trkpt>
      <trkpt lat="46.5161" lon="0.39305">
        <ele>94</ele>
        <time>2023-09-10T09:33:25Z</time>
      </trkpt>
      <trkpt lat="46.51613" lon="0.39306">
        <ele>93.8</ele>
        <time>2023-09-10T09:33:26Z</time>
      </trkpt>
      <trkpt lat="46.5162" lon="0.39304">
        <ele>93.8</ele>
        <time>2023-09-10T09:33:29Z</time>
      </trkpt>
      <trkpt lat="46.51626" lon="0.393">
        <ele>94.2</ele>
        <time>2023-09-10T09:33:31Z</time>
      </trkpt>
      <trkpt lat="46.51631" lon="0.39294">
        <ele>94.6</ele>
        <time>2023-09-10T09:33:33Z</time>
      </trkpt>
      <trkpt lat="46.51642" lon="0.3928">
        <ele>95.6</ele>
        <time>2023-09-10T09:33:37Z</time>
      </trkpt>
      <trkpt lat="46.51646" lon="0.39271">
        <ele>96.2</ele>
        <time>2023-09-10T09:33:39Z</time>
      </trkpt>
      <trkpt lat="46.51648" lon="0.39267">
        <ele>96.6</ele>
        <time>2023-09-10T09:33:40Z</time>
      </trkpt>
      <trkpt lat="46.51655" lon="0.39255">
        <ele>97.8</ele>
        <time>2023-09-10T09:33:43Z</time>
      </trkpt>
      <trkpt lat="46.5166" lon="0.39245">
        <ele>98.8</ele>
        <time>2023-09-10T09:33:46Z</time>
      </trkpt>
      <trkpt lat="46.51667" lon="0.39234">
        <ele>100.2</ele>
        <time>2023-09-10T09:33:49Z</time>
      </trkpt>
      <trkpt lat="46.51673" lon="0.39226">
        <ele>101.4</ele>
        <time>2023-09-10T09:33:52Z</time>
      </trkpt>
      <trkpt lat="46.51677" lon="0.39219">
        <ele>101.8</ele>
        <time>2023-09-10T09:33:54Z</time>
      </trkpt>
      <trkpt lat="46.51681" lon="0.39212">
        <ele>102.6</ele>
        <time>2023-09-10T09:33:56Z</time>
      </trkpt>
      <trkpt lat="46.51691" lon="0.39196">
        <ele>103.8</ele>
        <time>2023-09-10T09:34:00Z</time>
      </trkpt>
      <trkpt lat="46.51693" lon="0.39192">
        <ele>104.2</ele>
        <time>2023-09-10T09:34:01Z</time>
      </trkpt>
      <trkpt lat="46.51698" lon="0.39184">
        <ele>105</ele>
        <time>2023-09-10T09:34:03Z</time>
      </trkpt>
      <trkpt lat="46.51707" lon="0.39166">
        <ele>106.2</ele>
        <time>2023-09-10T09:34:07Z</time>
      </trkpt>
      <trkpt lat="46.51711" lon="0.39157">
        <ele>106.6</ele>
        <time>2023-09-10T09:34:09Z</time>
      </trkpt>
      <trkpt lat="46.51717" lon="0.39146">
        <ele>107.2</ele>
        <time>2023-09-10T09:34:12Z</time>
      </trkpt>
      <trkpt lat="46.51725" lon="0.39135">
        <ele>107.6</ele>
        <time>2023-09-10T09:34:15Z</time>
      </trkpt>
      <trkpt lat="46.51734" lon="0.3912">
        <ele>108.2</ele>
        <time>2023-09-10T09:34:19Z</time>
      </trkpt>
      <trkpt lat="46.51743" lon="0.39108">
        <ele>108.4</ele>
        <time>2023-09-10T09:34:22Z</time>
      </trkpt>
      <trkpt lat="46.51764" lon="0.39073">
        <ele>108.8</ele>
        <time>2023-09-10T09:34:29Z</time>
      </trkpt>
      <trkpt lat="46.51787" lon="0.39036">
        <ele>109</ele>
        <time>2023-09-10T09:34:36Z</time>
      </trkpt>
      <trkpt lat="46.51799" lon="0.39013">
        <ele>109.6</ele>
        <time>2023-09-10T09:34:42Z</time>
      </trkpt>
      <trkpt lat="46.51803" lon="0.39004">
        <ele>109.8</ele>
        <time>2023-09-10T09:34:43Z</time>
      </trkpt>
      <trkpt lat="46.5181" lon="0.38987">
        <ele>110.6</ele>
        <time>2023-09-10T09:34:47Z</time>
      </trkpt>
      <trkpt lat="46.51813" lon="0.3898">
        <ele>111.2</ele>
        <time>2023-09-10T09:34:49Z</time>
      </trkpt>
      <trkpt lat="46.51824" lon="0.38944">
        <ele>111.8</ele>
        <time>2023-09-10T09:34:57Z</time>
      </trkpt>
      <trkpt lat="46.51838" lon="0.38896">
        <ele>112.8</ele>
        <time>2023-09-10T09:35:05Z</time>
      </trkpt>
      <trkpt lat="46.51842" lon="0.38884">
        <ele>113.4</ele>
        <time>2023-09-10T09:35:07Z</time>
      </trkpt>
      <trkpt lat="46.51846" lon="0.38873">
        <ele>114.4</ele>
        <time>2023-09-10T09:35:09Z</time>
      </trkpt>
      <trkpt lat="46.51853" lon="0.38844">
        <ele>115</ele>
        <time>2023-09-10T09:35:14Z</time>
      </trkpt>
      <trkpt lat="46.5186" lon="0.38818">
        <ele>115.4</ele>
        <time>2023-09-10T09:35:19Z</time>
      </trkpt>
      <trkpt lat="46.51863" lon="0.3881">
        <ele>115.6</ele>
        <time>2023-09-10T09:35:21Z</time>
      </trkpt>
      <trkpt lat="46.51866" lon="0.38802">
        <ele>115.6</ele>
        <time>2023-09-10T09:35:23Z</time>
      </trkpt>
      <trkpt lat="46.51871" lon="0.3879">
        <ele>115.6</ele>
        <time>2023-09-10T09:35:26Z</time>
      </trkpt>
      <trkpt lat="46.51876" lon="0.3878">
        <ele>115.6</ele>
        <time>2023-09-10T09:35:28Z</time>
      </trkpt>
      <trkpt lat="46.51888" lon="0.38754">
        <ele>115.8</ele>
        <time>2023-09-10T09:35:33Z</time>
      </trkpt>
      <trkpt lat="46.51897" lon="0.38744">
        <ele>115.4</ele>
        <time>2023-09-10T09:35:35Z</time>
      </trkpt>
      <trkpt lat="46.51928" lon="0.38697">
        <ele>114.8</ele>
        <time>2023-09-10T09:35:42Z</time>
      </trkpt>
      <trkpt lat="46.5193" lon="0.38692">
        <ele>114.6</ele>
        <time>2023-09-10T09:35:43Z</time>
      </trkpt>
      <trkpt lat="46.51932" lon="0.38674">
        <ele>114.6</ele>
        <time>2023-09-10T09:35:46Z</time>
      </trkpt>
      <trkpt lat="46.51925" lon="0.38653">
        <ele>114.4</ele>
        <time>2023-09-10T09:35:49Z</time>
      </trkpt>
      <trkpt lat="46.51923" lon="0.38646">
        <ele>114.2</ele>
        <time>2023-09-10T09:35:50Z</time>
      </trkpt>
      <trkpt lat="46.51911" lon="0.3861">
        <ele>113.4</ele>
        <time>2023-09-10T09:35:55Z</time>
      </trkpt>
      <trkpt lat="46.51901" lon="0.38579">
        <ele>111.8</ele>
        <time>2023-09-10T09:35:57Z</time>
      </trkpt>
      <trkpt lat="46.51893" lon="0.38557">
        <ele>110.8</ele>
        <time>2023-09-10T09:35:59Z</time>
      </trkpt>
      <trkpt lat="46.51883" lon="0.38523">
        <ele>109.6</ele>
        <time>2023-09-10T09:36:02Z</time>
      </trkpt>
      <trkpt lat="46.51877" lon="0.38496">
        <ele>108.2</ele>
        <time>2023-09-10T09:36:04Z</time>
      </trkpt>
      <trkpt lat="46.51873" lon="0.38476">
        <ele>107</ele>
        <time>2023-09-10T09:36:06Z</time>
      </trkpt>
      <trkpt lat="46.51867" lon="0.38463">
        <ele>105.4</ele>
        <time>2023-09-10T09:36:08Z</time>
      </trkpt>
      <trkpt lat="46.51862" lon="0.38454">
        <ele>104.6</ele>
        <time>2023-09-10T09:36:10Z</time>
      </trkpt>
      <trkpt lat="46.5186" lon="0.3845">
        <ele>104.4</ele>
        <time>2023-09-10T09:36:11Z</time>
      </trkpt>
      <trkpt lat="46.51859" lon="0.38447">
        <ele>104.2</ele>
        <time>2023-09-10T09:36:12Z</time>
      </trkpt>
      <trkpt lat="46.51856" lon="0.38437">
        <ele>103.2</ele>
        <time>2023-09-10T09:36:14Z</time>
      </trkpt>
      <trkpt lat="46.51851" lon="0.38425">
        <ele>102</ele>
        <time>2023-09-10T09:36:16Z</time>
      </trkpt>
      <trkpt lat="46.51848" lon="0.38419">
        <ele>101.6</ele>
        <time>2023-09-10T09:36:17Z</time>
      </trkpt>
      <trkpt lat="46.51842" lon="0.38406">
        <ele>101</ele>
        <time>2023-09-10T09:36:19Z</time>
      </trkpt>
      <trkpt lat="46.51833" lon="0.38395">
        <ele>100</ele>
        <time>2023-09-10T09:36:21Z</time>
      </trkpt>
      <trkpt lat="46.51828" lon="0.38391">
        <ele>99.2</ele>
        <time>2023-09-10T09:36:22Z</time>
      </trkpt>
      <trkpt lat="46.51821" lon="0.38387">
        <ele>97.8</ele>
        <time>2023-09-10T09:36:23Z</time>
      </trkpt>
      <trkpt lat="46.51815" lon="0.38384">
        <ele>97.2</ele>
        <time>2023-09-10T09:36:24Z</time>
      </trkpt>
      <trkpt lat="46.51808" lon="0.38381">
        <ele>96.8</ele>
        <time>2023-09-10T09:36:25Z</time>
      </trkpt>
      <trkpt lat="46.518" lon="0.38378">
        <ele>96.2</ele>
        <time>2023-09-10T09:36:26Z</time>
      </trkpt>
      <trkpt lat="46.51786" lon="0.38371">
        <ele>95.6</ele>
        <time>2023-09-10T09:36:28Z</time>
      </trkpt>
      <trkpt lat="46.51767" lon="0.3836">
        <ele>93.6</ele>
        <time>2023-09-10T09:36:31Z</time>
      </trkpt>
      <trkpt lat="46.51762" lon="0.38355">
        <ele>92.6</ele>
        <time>2023-09-10T09:36:32Z</time>
      </trkpt>
      <trkpt lat="46.51758" lon="0.38349">
        <ele>92.2</ele>
        <time>2023-09-10T09:36:33Z</time>
      </trkpt>
      <trkpt lat="46.51752" lon="0.38336">
        <ele>90.8</ele>
        <time>2023-09-10T09:36:35Z</time>
      </trkpt>
      <trkpt lat="46.51747" lon="0.38331">
        <ele>90.2</ele>
        <time>2023-09-10T09:36:36Z</time>
      </trkpt>
      <trkpt lat="46.51743" lon="0.38327">
        <ele>89.8</ele>
        <time>2023-09-10T09:36:37Z</time>
      </trkpt>
      <trkpt lat="46.51738" lon="0.38323">
        <ele>89.6</ele>
        <time>2023-09-10T09:36:38Z</time>
      </trkpt>
      <trkpt lat="46.51728" lon="0.38315">
        <ele>88.6</ele>
        <time>2023-09-10T09:36:40Z</time>
      </trkpt>
      <trkpt lat="46.51722" lon="0.38311">
        <ele>87.8</ele>
        <time>2023-09-10T09:36:41Z</time>
      </trkpt>
      <trkpt lat="46.51716" lon="0.38307">
        <ele>87.2</ele>
        <time>2023-09-10T09:36:42Z</time>
      </trkpt>
      <trkpt lat="46.51705" lon="0.38299">
        <ele>86.8</ele>
        <time>2023-09-10T09:36:44Z</time>
      </trkpt>
      <trkpt lat="46.51697" lon="0.38289">
        <ele>86.8</ele>
        <time>2023-09-10T09:36:46Z</time>
      </trkpt>
      <trkpt lat="46.51692" lon="0.38279">
        <ele>86.8</ele>
        <time>2023-09-10T09:36:48Z</time>
      </trkpt>
      <trkpt lat="46.51689" lon="0.3827">
        <ele>86.8</ele>
        <time>2023-09-10T09:36:50Z</time>
      </trkpt>
      <trkpt lat="46.51684" lon="0.38252">
        <ele>88.2</ele>
        <time>2023-09-10T09:36:56Z</time>
      </trkpt>
      <trkpt lat="46.51678" lon="0.3823">
        <ele>89.4</ele>
        <time>2023-09-10T09:37:00Z</time>
      </trkpt>
      <trkpt lat="46.51678" lon="0.38226">
        <ele>89.6</ele>
        <time>2023-09-10T09:37:01Z</time>
      </trkpt>
      <trkpt lat="46.51676" lon="0.3822">
        <ele>90</ele>
        <time>2023-09-10T09:37:03Z</time>
      </trkpt>
      <trkpt lat="46.51674" lon="0.38213">
        <ele>90.6</ele>
        <time>2023-09-10T09:37:05Z</time>
      </trkpt>
      <trkpt lat="46.51673" lon="0.3821">
        <ele>90.6</ele>
        <time>2023-09-10T09:37:06Z</time>
      </trkpt>
      <trkpt lat="46.51667" lon="0.38186">
        <ele>91.6</ele>
        <time>2023-09-10T09:37:12Z</time>
      </trkpt>
      <trkpt lat="46.51666" lon="0.38182">
        <ele>91.8</ele>
        <time>2023-09-10T09:37:13Z</time>
      </trkpt>
      <trkpt lat="46.51665" lon="0.3817">
        <ele>92.4</ele>
        <time>2023-09-10T09:37:17Z</time>
      </trkpt>
      <trkpt lat="46.51665" lon="0.38163">
        <ele>92.6</ele>
        <time>2023-09-10T09:37:19Z</time>
      </trkpt>
      <trkpt lat="46.51666" lon="0.38155">
        <ele>92.6</ele>
        <time>2023-09-10T09:37:21Z</time>
      </trkpt>
      <trkpt lat="46.5167" lon="0.38144">
        <ele>93.2</ele>
        <time>2023-09-10T09:37:25Z</time>
      </trkpt>
      <trkpt lat="46.51676" lon="0.38131">
        <ele>93.6</ele>
        <time>2023-09-10T09:37:29Z</time>
      </trkpt>
      <trkpt lat="46.51682" lon="0.38117">
        <ele>93.8</ele>
        <time>2023-09-10T09:37:32Z</time>
      </trkpt>
      <trkpt lat="46.51684" lon="0.38113">
        <ele>93.8</ele>
        <time>2023-09-10T09:37:33Z</time>
      </trkpt>
      <trkpt lat="46.51693" lon="0.38097">
        <ele>93</ele>
        <time>2023-09-10T09:37:36Z</time>
      </trkpt>
      <trkpt lat="46.51699" lon="0.38085">
        <ele>92.6</ele>
        <time>2023-09-10T09:37:38Z</time>
      </trkpt>
      <trkpt lat="46.51702" lon="0.3808">
        <ele>92.4</ele>
        <time>2023-09-10T09:37:39Z</time>
      </trkpt>
      <trkpt lat="46.51715" lon="0.38067">
        <ele>92</ele>
        <time>2023-09-10T09:37:42Z</time>
      </trkpt>
      <trkpt lat="46.51724" lon="0.38059">
        <ele>91.6</ele>
        <time>2023-09-10T09:37:44Z</time>
      </trkpt>
      <trkpt lat="46.51737" lon="0.38051">
        <ele>91.2</ele>
        <time>2023-09-10T09:37:46Z</time>
      </trkpt>
      <trkpt lat="46.51757" lon="0.3803">
        <ele>90.4</ele>
        <time>2023-09-10T09:37:50Z</time>
      </trkpt>
      <trkpt lat="46.51776" lon="0.3801">
        <ele>90.2</ele>
        <time>2023-09-10T09:37:54Z</time>
      </trkpt>
      <trkpt lat="46.51786" lon="0.38">
        <ele>90</ele>
        <time>2023-09-10T09:37:56Z</time>
      </trkpt>
      <trkpt lat="46.51789" lon="0.37994">
        <ele>89.8</ele>
        <time>2023-09-10T09:37:57Z</time>
      </trkpt>
      <trkpt lat="46.51792" lon="0.37987">
        <ele>89.8</ele>
        <time>2023-09-10T09:37:58Z</time>
      </trkpt>
      <trkpt lat="46.51803" lon="0.37974">
        <ele>90</ele>
        <time>2023-09-10T09:38:01Z</time>
      </trkpt>
      <trkpt lat="46.51806" lon="0.3797">
        <ele>90</ele>
        <time>2023-09-10T09:38:02Z</time>
      </trkpt>
      <trkpt lat="46.51811" lon="0.37962">
        <ele>90.2</ele>
        <time>2023-09-10T09:38:04Z</time>
      </trkpt>
      <trkpt lat="46.51814" lon="0.37953">
        <ele>90.2</ele>
        <time>2023-09-10T09:38:06Z</time>
      </trkpt>
      <trkpt lat="46.51817" lon="0.37943">
        <ele>89.8</ele>
        <time>2023-09-10T09:38:08Z</time>
      </trkpt>
      <trkpt lat="46.51828" lon="0.37903">
        <ele>89</ele>
        <time>2023-09-10T09:38:16Z</time>
      </trkpt>
      <trkpt lat="46.51831" lon="0.37897">
        <ele>89</ele>
        <time>2023-09-10T09:38:17Z</time>
      </trkpt>
      <trkpt lat="46.51834" lon="0.3788">
        <ele>88.6</ele>
        <time>2023-09-10T09:38:19Z</time>
      </trkpt>
      <trkpt lat="46.5184" lon="0.37866">
        <ele>88.4</ele>
        <time>2023-09-10T09:38:21Z</time>
      </trkpt>
      <trkpt lat="46.51845" lon="0.37856">
        <ele>88.2</ele>
        <time>2023-09-10T09:38:23Z</time>
      </trkpt>
      <trkpt lat="46.51859" lon="0.37844">
        <ele>88</ele>
        <time>2023-09-10T09:38:26Z</time>
      </trkpt>
      <trkpt lat="46.51863" lon="0.37839">
        <ele>87.8</ele>
        <time>2023-09-10T09:38:27Z</time>
      </trkpt>
      <trkpt lat="46.51871" lon="0.37822">
        <ele>87.8</ele>
        <time>2023-09-10T09:38:30Z</time>
      </trkpt>
      <trkpt lat="46.51878" lon="0.37807">
        <ele>87.8</ele>
        <time>2023-09-10T09:38:33Z</time>
      </trkpt>
      <trkpt lat="46.51883" lon="0.37791">
        <ele>88</ele>
        <time>2023-09-10T09:38:36Z</time>
      </trkpt>
      <trkpt lat="46.51886" lon="0.37766">
        <ele>88.4</ele>
        <time>2023-09-10T09:38:39Z</time>
      </trkpt>
      <trkpt lat="46.51893" lon="0.37734">
        <ele>88.4</ele>
        <time>2023-09-10T09:38:44Z</time>
      </trkpt>
      <trkpt lat="46.51896" lon="0.37708">
        <ele>88.8</ele>
        <time>2023-09-10T09:38:47Z</time>
      </trkpt>
      <trkpt lat="46.51899" lon="0.37692">
        <ele>88.8</ele>
        <time>2023-09-10T09:38:49Z</time>
      </trkpt>
      <trkpt lat="46.51899" lon="0.37683">
        <ele>89</ele>
        <time>2023-09-10T09:38:50Z</time>
      </trkpt>
      <trkpt lat="46.51904" lon="0.37658">
        <ele>89</ele>
        <time>2023-09-10T09:38:53Z</time>
      </trkpt>
      <trkpt lat="46.51905" lon="0.37651">
        <ele>89</ele>
        <time>2023-09-10T09:38:54Z</time>
      </trkpt>
      <trkpt lat="46.51905" lon="0.37642">
        <ele>89</ele>
        <time>2023-09-10T09:38:55Z</time>
      </trkpt>
      <trkpt lat="46.51903" lon="0.37617">
        <ele>88.6</ele>
        <time>2023-09-10T09:38:58Z</time>
      </trkpt>
      <trkpt lat="46.51898" lon="0.37598">
        <ele>88.6</ele>
        <time>2023-09-10T09:39:00Z</time>
      </trkpt>
      <trkpt lat="46.51891" lon="0.37583">
        <ele>88.6</ele>
        <time>2023-09-10T09:39:02Z</time>
      </trkpt>
      <trkpt lat="46.51883" lon="0.37571">
        <ele>88.8</ele>
        <time>2023-09-10T09:39:04Z</time>
      </trkpt>
      <trkpt lat="46.51876" lon="0.37562">
        <ele>88.8</ele>
        <time>2023-09-10T09:39:06Z</time>
      </trkpt>
      <trkpt lat="46.51866" lon="0.37553">
        <ele>88.8</ele>
        <time>2023-09-10T09:39:08Z</time>
      </trkpt>
      <trkpt lat="46.5183" lon="0.37532">
        <ele>88.6</ele>
        <time>2023-09-10T09:39:14Z</time>
      </trkpt>
      <trkpt lat="46.51797" lon="0.37518">
        <ele>88.2</ele>
        <time>2023-09-10T09:39:20Z</time>
      </trkpt>
      <trkpt lat="46.51776" lon="0.37503">
        <ele>88</ele>
        <time>2023-09-10T09:39:25Z</time>
      </trkpt>
      <trkpt lat="46.51773" lon="0.375">
        <ele>88</ele>
        <time>2023-09-10T09:39:26Z</time>
      </trkpt>
      <trkpt lat="46.51768" lon="0.37499">
        <ele>88.2</ele>
        <time>2023-09-10T09:39:29Z</time>
      </trkpt>
      <trkpt lat="46.51768" lon="0.37499">
        <ele>88.6</ele>
        <time>2023-09-10T09:39:31Z</time>
      </trkpt>
      <trkpt lat="46.51768" lon="0.37499">
        <ele>88.6</ele>
        <time>2023-09-10T09:39:33Z</time>
      </trkpt>
      <trkpt lat="46.51768" lon="0.37499">
        <ele>88.8</ele>
        <time>2023-09-10T09:39:34Z</time>
      </trkpt>
      <trkpt lat="46.51768" lon="0.375">
        <ele>89</ele>
        <time>2023-09-10T09:39:36Z</time>
      </trkpt>
      <trkpt lat="46.51769" lon="0.37501">
        <ele>89.4</ele>
        <time>2023-09-10T09:39:37Z</time>
      </trkpt>
      <trkpt lat="46.5177" lon="0.37503">
        <ele>90.2</ele>
        <time>2023-09-10T09:39:39Z</time>
      </trkpt>
      <trkpt lat="46.5177" lon="0.37503">
        <ele>90.4</ele>
        <time>2023-09-10T09:39:40Z</time>
      </trkpt>
      <trkpt lat="46.51771" lon="0.37505">
        <ele>90.8</ele>
        <time>2023-09-10T09:39:41Z</time>
      </trkpt>
      <trkpt lat="46.51771" lon="0.37506">
        <ele>91</ele>
        <time>2023-09-10T09:39:42Z</time>
      </trkpt>
      <trkpt lat="46.5177" lon="0.37507">
        <ele>91.4</ele>
        <time>2023-09-10T09:39:43Z</time>
      </trkpt>
      <trkpt lat="46.51768" lon="0.37513">
        <ele>92.6</ele>
        <time>2023-09-10T09:39:47Z</time>
      </trkpt>
      <trkpt lat="46.51768" lon="0.37516">
        <ele>93.4</ele>
        <time>2023-09-10T09:39:49Z</time>
      </trkpt>
      <trkpt lat="46.51767" lon="0.3752">
        <ele>94</ele>
        <time>2023-09-10T09:39:51Z</time>
      </trkpt>
      <trkpt lat="46.51765" lon="0.37526">
        <ele>95</ele>
        <time>2023-09-10T09:39:54Z</time>
      </trkpt>
      <trkpt lat="46.51765" lon="0.37528">
        <ele>95.4</ele>
        <time>2023-09-10T09:39:55Z</time>
      </trkpt>
      <trkpt lat="46.51765" lon="0.37529">
        <ele>96</ele>
        <time>2023-09-10T09:39:56Z</time>
      </trkpt>
      <trkpt lat="46.51766" lon="0.37533">
        <ele>96.6</ele>
        <time>2023-09-10T09:39:58Z</time>
      </trkpt>
      <trkpt lat="46.51764" lon="0.37536">
        <ele>97.2</ele>
        <time>2023-09-10T09:40:00Z</time>
      </trkpt>
      <trkpt lat="46.51763" lon="0.37538">
        <ele>97.8</ele>
        <time>2023-09-10T09:40:02Z</time>
      </trkpt>
      <trkpt lat="46.51761" lon="0.3754">
        <ele>98</ele>
        <time>2023-09-10T09:40:04Z</time>
      </trkpt>
      <trkpt lat="46.51761" lon="0.37541">
        <ele>98.2</ele>
        <time>2023-09-10T09:40:05Z</time>
      </trkpt>
      <trkpt lat="46.51759" lon="0.37546">
        <ele>98.8</ele>
        <time>2023-09-10T09:40:08Z</time>
      </trkpt>
      <trkpt lat="46.51758" lon="0.3755">
        <ele>99.2</ele>
        <time>2023-09-10T09:40:10Z</time>
      </trkpt>
      <trkpt lat="46.51755" lon="0.37557">
        <ele>99.8</ele>
        <time>2023-09-10T09:40:13Z</time>
      </trkpt>
      <trkpt lat="46.51755" lon="0.37559">
        <ele>100</ele>
        <time>2023-09-10T09:40:14Z</time>
      </trkpt>
      <trkpt lat="46.51751" lon="0.37569">
        <ele>101.2</ele>
        <time>2023-09-10T09:40:20Z</time>
      </trkpt>
      <trkpt lat="46.5175" lon="0.37571">
        <ele>101.6</ele>
        <time>2023-09-10T09:40:22Z</time>
      </trkpt>
      <trkpt lat="46.5175" lon="0.37574">
        <ele>102</ele>
        <time>2023-09-10T09:40:24Z</time>
      </trkpt>
      <trkpt lat="46.5175" lon="0.37577">
        <ele>102.2</ele>
        <time>2023-09-10T09:40:25Z</time>
      </trkpt>
      <trkpt lat="46.51746" lon="0.37586">
        <ele>103</ele>
        <time>2023-09-10T09:40:29Z</time>
      </trkpt>
      <trkpt lat="46.51743" lon="0.37589">
        <ele>103.2</ele>
        <time>2023-09-10T09:40:31Z</time>
      </trkpt>
      <trkpt lat="46.51735" lon="0.37605">
        <ele>104.2</ele>
        <time>2023-09-10T09:40:38Z</time>
      </trkpt>
      <trkpt lat="46.51734" lon="0.37608">
        <ele>104.4</ele>
        <time>2023-09-10T09:40:39Z</time>
      </trkpt>
      <trkpt lat="46.51729" lon="0.37623">
        <ele>105</ele>
        <time>2023-09-10T09:40:44Z</time>
      </trkpt>
      <trkpt lat="46.51726" lon="0.3763">
        <ele>105.4</ele>
        <time>2023-09-10T09:40:46Z</time>
      </trkpt>
      <trkpt lat="46.5172" lon="0.37651">
        <ele>106</ele>
        <time>2023-09-10T09:40:52Z</time>
      </trkpt>
      <trkpt lat="46.51718" lon="0.37661">
        <ele>106.4</ele>
        <time>2023-09-10T09:40:55Z</time>
      </trkpt>
      <trkpt lat="46.51712" lon="0.37677">
        <ele>107</ele>
        <time>2023-09-10T09:41:00Z</time>
      </trkpt>
      <trkpt lat="46.51707" lon="0.37705">
        <ele>107.4</ele>
        <time>2023-09-10T09:41:06Z</time>
      </trkpt>
      <trkpt lat="46.51702" lon="0.37732">
        <ele>106.6</ele>
        <time>2023-09-10T09:41:13Z</time>
      </trkpt>
      <trkpt lat="46.51695" lon="0.37754">
        <ele>106.6</ele>
        <time>2023-09-10T09:41:17Z</time>
      </trkpt>
      <trkpt lat="46.51693" lon="0.37767">
        <ele>106.2</ele>
        <time>2023-09-10T09:41:19Z</time>
      </trkpt>
      <trkpt lat="46.51688" lon="0.37779">
        <ele>105.8</ele>
        <time>2023-09-10T09:41:21Z</time>
      </trkpt>
      <trkpt lat="46.51685" lon="0.37785">
        <ele>105.4</ele>
        <time>2023-09-10T09:41:22Z</time>
      </trkpt>
      <trkpt lat="46.5168" lon="0.37797">
        <ele>104.6</ele>
        <time>2023-09-10T09:41:24Z</time>
      </trkpt>
      <trkpt lat="46.51677" lon="0.37803">
        <ele>104.2</ele>
        <time>2023-09-10T09:41:25Z</time>
      </trkpt>
      <trkpt lat="46.51666" lon="0.37835">
        <ele>104.2</ele>
        <time>2023-09-10T09:41:31Z</time>
      </trkpt>
      <trkpt lat="46.51662" lon="0.37849">
        <ele>104.4</ele>
        <time>2023-09-10T09:41:34Z</time>
      </trkpt>
      <trkpt lat="46.51658" lon="0.3787">
        <ele>104.6</ele>
        <time>2023-09-10T09:41:37Z</time>
      </trkpt>
      <trkpt lat="46.51657" lon="0.37875">
        <ele>104.6</ele>
        <time>2023-09-10T09:41:38Z</time>
      </trkpt>
      <trkpt lat="46.51648" lon="0.37902">
        <ele>103.8</ele>
        <time>2023-09-10T09:41:42Z</time>
      </trkpt>
      <trkpt lat="46.51639" lon="0.37919">
        <ele>104.2</ele>
        <time>2023-09-10T09:41:44Z</time>
      </trkpt>
      <trkpt lat="46.51617" lon="0.37939">
        <ele>105.4</ele>
        <time>2023-09-10T09:41:49Z</time>
      </trkpt>
      <trkpt lat="46.51584" lon="0.37946">
        <ele>106</ele>
        <time>2023-09-10T09:41:55Z</time>
      </trkpt>
      <trkpt lat="46.51577" lon="0.37948">
        <ele>106.4</ele>
        <time>2023-09-10T09:41:57Z</time>
      </trkpt>
      <trkpt lat="46.51572" lon="0.37949">
        <ele>106.4</ele>
        <time>2023-09-10T09:41:58Z</time>
      </trkpt>
      <trkpt lat="46.51558" lon="0.3795">
        <ele>107</ele>
        <time>2023-09-10T09:42:01Z</time>
      </trkpt>
      <trkpt lat="46.51552" lon="0.3795">
        <ele>107.2</ele>
        <time>2023-09-10T09:42:02Z</time>
      </trkpt>
      <trkpt lat="46.51546" lon="0.37946">
        <ele>107</ele>
        <time>2023-09-10T09:42:04Z</time>
      </trkpt>
      <trkpt lat="46.51544" lon="0.37943">
        <ele>107</ele>
        <time>2023-09-10T09:42:05Z</time>
      </trkpt>
      <trkpt lat="46.51536" lon="0.37934">
        <ele>107.2</ele>
        <time>2023-09-10T09:42:09Z</time>
      </trkpt>
      <trkpt lat="46.51533" lon="0.37933">
        <ele>107.4</ele>
        <time>2023-09-10T09:42:10Z</time>
      </trkpt>
      <trkpt lat="46.51524" lon="0.37928">
        <ele>108.8</ele>
        <time>2023-09-10T09:42:13Z</time>
      </trkpt>
      <trkpt lat="46.5151" lon="0.37922">
        <ele>109.8</ele>
        <time>2023-09-10T09:42:17Z</time>
      </trkpt>
      <trkpt lat="46.51506" lon="0.37921">
        <ele>110</ele>
        <time>2023-09-10T09:42:18Z</time>
      </trkpt>
      <trkpt lat="46.51495" lon="0.37912">
        <ele>110.8</ele>
        <time>2023-09-10T09:42:22Z</time>
      </trkpt>
      <trkpt lat="46.51492" lon="0.3791">
        <ele>111</ele>
        <time>2023-09-10T09:42:23Z</time>
      </trkpt>
      <trkpt lat="46.51475" lon="0.379">
        <ele>112.2</ele>
        <time>2023-09-10T09:42:28Z</time>
      </trkpt>
      <trkpt lat="46.51457" lon="0.37893">
        <ele>113.4</ele>
        <time>2023-09-10T09:42:34Z</time>
      </trkpt>
      <trkpt lat="46.51452" lon="0.3789">
        <ele>113.8</ele>
        <time>2023-09-10T09:42:36Z</time>
      </trkpt>
      <trkpt lat="46.51446" lon="0.37883">
        <ele>113.8</ele>
        <time>2023-09-10T09:42:39Z</time>
      </trkpt>
      <trkpt lat="46.51432" lon="0.37873">
        <ele>114.6</ele>
        <time>2023-09-10T09:42:43Z</time>
      </trkpt>
      <trkpt lat="46.51424" lon="0.37868">
        <ele>114.8</ele>
        <time>2023-09-10T09:42:45Z</time>
      </trkpt>
      <trkpt lat="46.51404" lon="0.37857">
        <ele>115.8</ele>
        <time>2023-09-10T09:42:51Z</time>
      </trkpt>
      <trkpt lat="46.51399" lon="0.37854">
        <ele>115.8</ele>
        <time>2023-09-10T09:42:52Z</time>
      </trkpt>
      <trkpt lat="46.5138" lon="0.37841">
        <ele>116.8</ele>
        <time>2023-09-10T09:42:58Z</time>
      </trkpt>
      <trkpt lat="46.51356" lon="0.37823">
        <ele>117.8</ele>
        <time>2023-09-10T09:43:04Z</time>
      </trkpt>
      <trkpt lat="46.51353" lon="0.37819">
        <ele>118</ele>
        <time>2023-09-10T09:43:05Z</time>
      </trkpt>
      <trkpt lat="46.51331" lon="0.37808">
        <ele>119</ele>
        <time>2023-09-10T09:43:11Z</time>
      </trkpt>
      <trkpt lat="46.51325" lon="0.37803">
        <ele>119.2</ele>
        <time>2023-09-10T09:43:13Z</time>
      </trkpt>
      <trkpt lat="46.51305" lon="0.37786">
        <ele>120.2</ele>
        <time>2023-09-10T09:43:19Z</time>
      </trkpt>
      <trkpt lat="46.51279" lon="0.3777">
        <ele>121.4</ele>
        <time>2023-09-10T09:43:26Z</time>
      </trkpt>
      <trkpt lat="46.51249" lon="0.3775">
        <ele>122</ele>
        <time>2023-09-10T09:43:33Z</time>
      </trkpt>
      <trkpt lat="46.51242" lon="0.37745">
        <ele>122.2</ele>
        <time>2023-09-10T09:43:35Z</time>
      </trkpt>
      <trkpt lat="46.5123" lon="0.3774">
        <ele>122.4</ele>
        <time>2023-09-10T09:43:38Z</time>
      </trkpt>
      <trkpt lat="46.51225" lon="0.37737">
        <ele>122.4</ele>
        <time>2023-09-10T09:43:39Z</time>
      </trkpt>
      <trkpt lat="46.51217" lon="0.37732">
        <ele>122.6</ele>
        <time>2023-09-10T09:43:41Z</time>
      </trkpt>
      <trkpt lat="46.51197" lon="0.3772">
        <ele>123</ele>
        <time>2023-09-10T09:43:46Z</time>
      </trkpt>
      <trkpt lat="46.51189" lon="0.37715">
        <ele>123.2</ele>
        <time>2023-09-10T09:43:48Z</time>
      </trkpt>
      <trkpt lat="46.51181" lon="0.37709">
        <ele>123.4</ele>
        <time>2023-09-10T09:43:50Z</time>
      </trkpt>
      <trkpt lat="46.51176" lon="0.37705">
        <ele>123.6</ele>
        <time>2023-09-10T09:43:51Z</time>
      </trkpt>
      <trkpt lat="46.5117" lon="0.37701">
        <ele>123.6</ele>
        <time>2023-09-10T09:43:52Z</time>
      </trkpt>
      <trkpt lat="46.51143" lon="0.37681">
        <ele>124</ele>
        <time>2023-09-10T09:43:58Z</time>
      </trkpt>
      <trkpt lat="46.51112" lon="0.3766">
        <ele>124.4</ele>
        <time>2023-09-10T09:44:04Z</time>
      </trkpt>
      <trkpt lat="46.51102" lon="0.37653">
        <ele>124.6</ele>
        <time>2023-09-10T09:44:06Z</time>
      </trkpt>
      <trkpt lat="46.51084" lon="0.37641">
        <ele>125</ele>
        <time>2023-09-10T09:44:09Z</time>
      </trkpt>
      <trkpt lat="46.5108" lon="0.37637">
        <ele>125.2</ele>
        <time>2023-09-10T09:44:10Z</time>
      </trkpt>
      <trkpt lat="46.51075" lon="0.37631">
        <ele>125.2</ele>
        <time>2023-09-10T09:44:11Z</time>
      </trkpt>
      <trkpt lat="46.51068" lon="0.37617">
        <ele>125.2</ele>
        <time>2023-09-10T09:44:13Z</time>
      </trkpt>
      <trkpt lat="46.51065" lon="0.37602">
        <ele>125</ele>
        <time>2023-09-10T09:44:16Z</time>
      </trkpt>
      <trkpt lat="46.51061" lon="0.37592">
        <ele>125</ele>
        <time>2023-09-10T09:44:18Z</time>
      </trkpt>
      <trkpt lat="46.51049" lon="0.37571">
        <ele>125.4</ele>
        <time>2023-09-10T09:44:22Z</time>
      </trkpt>
      <trkpt lat="46.51041" lon="0.37556">
        <ele>125.6</ele>
        <time>2023-09-10T09:44:25Z</time>
      </trkpt>
      <trkpt lat="46.51014" lon="0.37508">
        <ele>126</ele>
        <time>2023-09-10T09:44:32Z</time>
      </trkpt>
      <trkpt lat="46.50995" lon="0.37466">
        <ele>126.4</ele>
        <time>2023-09-10T09:44:37Z</time>
      </trkpt>
      <trkpt lat="46.50992" lon="0.3746">
        <ele>126.4</ele>
        <time>2023-09-10T09:44:38Z</time>
      </trkpt>
      <trkpt lat="46.50976" lon="0.37428">
        <ele>126.6</ele>
        <time>2023-09-10T09:44:42Z</time>
      </trkpt>
      <trkpt lat="46.50969" lon="0.37415">
        <ele>126.8</ele>
        <time>2023-09-10T09:44:44Z</time>
      </trkpt>
      <trkpt lat="46.50954" lon="0.37382">
        <ele>127</ele>
        <time>2023-09-10T09:44:49Z</time>
      </trkpt>
      <trkpt lat="46.50928" lon="0.37323">
        <ele>127.6</ele>
        <time>2023-09-10T09:44:56Z</time>
      </trkpt>
      <trkpt lat="46.50924" lon="0.37306">
        <ele>127.8</ele>
        <time>2023-09-10T09:44:58Z</time>
      </trkpt>
      <trkpt lat="46.50918" lon="0.37284">
        <ele>128</ele>
        <time>2023-09-10T09:45:01Z</time>
      </trkpt>
      <trkpt lat="46.50913" lon="0.3727">
        <ele>128</ele>
        <time>2023-09-10T09:45:03Z</time>
      </trkpt>
      <trkpt lat="46.50904" lon="0.37249">
        <ele>128.2</ele>
        <time>2023-09-10T09:45:06Z</time>
      </trkpt>
      <trkpt lat="46.5089" lon="0.37207">
        <ele>128.4</ele>
        <time>2023-09-10T09:45:11Z</time>
      </trkpt>
      <trkpt lat="46.50881" lon="0.37164">
        <ele>128.4</ele>
        <time>2023-09-10T09:45:16Z</time>
      </trkpt>
      <trkpt lat="46.50873" lon="0.37138">
        <ele>128.8</ele>
        <time>2023-09-10T09:45:19Z</time>
      </trkpt>
      <trkpt lat="46.50868" lon="0.37123">
        <ele>128.8</ele>
        <time>2023-09-10T09:45:21Z</time>
      </trkpt>
      <trkpt lat="46.50851" lon="0.37077">
        <ele>128.6</ele>
        <time>2023-09-10T09:45:27Z</time>
      </trkpt>
      <trkpt lat="46.5084" lon="0.37038">
        <ele>128.6</ele>
        <time>2023-09-10T09:45:31Z</time>
      </trkpt>
      <trkpt lat="46.50836" lon="0.37016">
        <ele>128.6</ele>
        <time>2023-09-10T09:45:33Z</time>
      </trkpt>
      <trkpt lat="46.50822" lon="0.36943">
        <ele>129.4</ele>
        <time>2023-09-10T09:45:40Z</time>
      </trkpt>
      <trkpt lat="46.50818" lon="0.36933">
        <ele>129.4</ele>
        <time>2023-09-10T09:45:41Z</time>
      </trkpt>
      <trkpt lat="46.50797" lon="0.36877">
        <ele>128.6</ele>
        <time>2023-09-10T09:45:47Z</time>
      </trkpt>
      <trkpt lat="46.50789" lon="0.36857">
        <ele>128.6</ele>
        <time>2023-09-10T09:45:49Z</time>
      </trkpt>
      <trkpt lat="46.50779" lon="0.36842">
        <ele>128.4</ele>
        <time>2023-09-10T09:45:51Z</time>
      </trkpt>
      <trkpt lat="46.50773" lon="0.36836">
        <ele>128.2</ele>
        <time>2023-09-10T09:45:52Z</time>
      </trkpt>
      <trkpt lat="46.50761" lon="0.36824">
        <ele>127.6</ele>
        <time>2023-09-10T09:45:54Z</time>
      </trkpt>
      <trkpt lat="46.50744" lon="0.36805">
        <ele>127.2</ele>
        <time>2023-09-10T09:45:57Z</time>
      </trkpt>
      <trkpt lat="46.50718" lon="0.36783">
        <ele>126.8</ele>
        <time>2023-09-10T09:46:01Z</time>
      </trkpt>
      <trkpt lat="46.50712" lon="0.36781">
        <ele>126.8</ele>
        <time>2023-09-10T09:46:02Z</time>
      </trkpt>
      <trkpt lat="46.50707" lon="0.36778">
        <ele>126.4</ele>
        <time>2023-09-10T09:46:03Z</time>
      </trkpt>
      <trkpt lat="46.50686" lon="0.36767">
        <ele>125.4</ele>
        <time>2023-09-10T09:46:07Z</time>
      </trkpt>
      <trkpt lat="46.50682" lon="0.36766">
        <ele>125.2</ele>
        <time>2023-09-10T09:46:08Z</time>
      </trkpt>
      <trkpt lat="46.50669" lon="0.36764">
        <ele>124.8</ele>
        <time>2023-09-10T09:46:11Z</time>
      </trkpt>
      <trkpt lat="46.50653" lon="0.3677">
        <ele>124.8</ele>
        <time>2023-09-10T09:46:16Z</time>
      </trkpt>
      <trkpt lat="46.50644" lon="0.36789">
        <ele>125.4</ele>
        <time>2023-09-10T09:46:22Z</time>
      </trkpt>
      <trkpt lat="46.50644" lon="0.36793">
        <ele>125.6</ele>
        <time>2023-09-10T09:46:23Z</time>
      </trkpt>
      <trkpt lat="46.50645" lon="0.36797">
        <ele>125.8</ele>
        <time>2023-09-10T09:46:25Z</time>
      </trkpt>
      <trkpt lat="46.50646" lon="0.36797">
        <ele>125.8</ele>
        <time>2023-09-10T09:46:26Z</time>
      </trkpt>
      <trkpt lat="46.50649" lon="0.36793">
        <ele>126</ele>
        <time>2023-09-10T09:46:29Z</time>
      </trkpt>
      <trkpt lat="46.50649" lon="0.36792">
        <ele>125.8</ele>
        <time>2023-09-10T09:46:31Z</time>
      </trkpt>
      <trkpt lat="46.5065" lon="0.36789">
        <ele>125.6</ele>
        <time>2023-09-10T09:46:34Z</time>
      </trkpt>
      <trkpt lat="46.50649" lon="0.36787">
        <ele>125.6</ele>
        <time>2023-09-10T09:46:35Z</time>
      </trkpt>
      <trkpt lat="46.50645" lon="0.36776">
        <ele>124.8</ele>
        <time>2023-09-10T09:46:40Z</time>
      </trkpt>
    </trkseg>
  </trk>
</gpx>